# Wetter Temperatur Luftdruck Luftfeuchtigkeit Sichtweite Windgeschwindigkeit Windrichtung Zeit
1 Clouds 24 1018 80 10000 4.89 19 11:20 14.08.2022
2 Clouds 23 1017 86 10000 5.27 9 08:56 14.08.2022
3 Clouds 23 1016 85 10000 4.8 18 06:27 14.08.2022
4 Clouds 23 1017 85 10000 5.37 15 04:21 14.08.2022
5 Clouds 23 1018 84 10000 5.25 7 01:35 14.08.2022
6 Clouds 23 1018 83 10000 5.25 357 22:56 13.08.2022
7 Clouds 24 1017 82 10000 5.35 357 21:59 13.08.2022
8 Clouds 25 1017 79 10000 5.54 359 20:49 13.08.2022
9 Clouds 26 1016 78 10000 5.45 5 19:47 13.08.2022
10 Clouds 26 1016 75 10000 5.21 9 19:18 13.08.2022
11 Clouds 28 1016 74 10000 5.67 9 17:21 13.08.2022
12 Clouds 26 1017 74 10000 5.63 7 14:42 13.08.2022
13 Clouds 26 1017 74 10000 5.52 8 13:49 13.08.2022
14 Clouds 26 1017 75 10000 5.8 11 13:25 13.08.2022
15 Clouds 25 1016 79 10000 6.17 2 11:27 13.08.2022
16 Clouds 23 1015 82 10000 5.74 0 09:23 13.08.2022
17 Clouds 23 1015 82 10000 5.74 0 09:23 13.08.2022
18 Clouds 22 1015 82 10000 6.36 11 06:44 13.08.2022
19 Clouds 23 1016 82 10000 6.91 4 01:37 13.08.2022
20 Clouds 23 1016 82 10000 6.67 356 23:32 12.08.2022
21 Clouds 25 1015 80 10000 6.31 1 21:37 12.08.2022
22 Clouds 26 1015 75 10000 5.99 7 19:48 12.08.2022
23 Clouds 26 1015 74 10000 6.14 11 19:23 12.08.2022
24 Clouds 26 1015 72 10000 5.94 10 18:21 12.08.2022
25 Clouds 26 1015 71 10000 6.27 7 16:26 12.08.2022
26 Clouds 26 1016 71 10000 6.22 7 14:50 12.08.2022
27 Clouds 26 1016 71 10000 5.94 10 13:43 12.08.2022
28 Clouds 25 1016 74 10000 5.63 2 12:25 12.08.2022
29 Clouds 22 1015 79 10000 5.48 356 08:52 12.08.2022
30 Clouds 22 1015 80 10000 5.58 0 07:45 12.08.2022
31 Clouds 22 1014 80 10000 5.53 8 06:21 12.08.2022
32 Clouds 23 1016 78 10000 5.71 11 00:32 12.08.2022
33 Clouds 23 1017 78 10000 5.96 9 23:55 11.08.2022
34 Clouds 23 1016 78 10000 6.14 8 22:45 11.08.2022
35 Clouds 24 1016 78 10000 6.21 3 21:53 11.08.2022
36 Clouds 24 1015 77 10000 6.56 0 21:28 11.08.2022
37 Clouds 25 1015 77 10000 6.56 0 20:30 11.08.2022
38 Clouds 26 1015 74 10000 6.54 357 19:33 11.08.2022
39 Clouds 26 1014 72 10000 6.18 355 18:53 11.08.2022
40 Clouds 27 1015 71 10000 5.8 357 16:47 11.08.2022
41 Clouds 26 1016 71 10000 5.37 3 15:43 11.08.2022
42 Clouds 26 1017 70 10000 4.99 13 14:36 11.08.2022
43 Clouds 25 1017 75 10000 5.12 5 11:56 11.08.2022
44 Clouds 22 1016 80 10000 5.57 6 08:57 11.08.2022
45 Clouds 22 1016 81 10000 5.96 353 06:49 11.08.2022
46 Clouds 22 1017 82 10000 6.03 355 02:38 11.08.2022
47 Clouds 23 1018 81 10000 5.76 353 23:41 10.08.2022
48 Clouds 23 1017 78 10000 5.99 351 21:47 10.08.2022
49 Clouds 24 1016 76 10000 6.13 351 20:56 10.08.2022
50 Clouds 24 1016 75 10000 6.26 355 20:27 10.08.2022
51 Clear 25 1016 74 10000 5.97 358 18:48 10.08.2022
52 Clear 26 1017 71 10000 5.35 6 17:27 10.08.2022
53 Clear 26 1018 72 10000 5.01 11 14:53 10.08.2022
54 Clouds 25 1018 71 10000 4.88 16 13:33 10.08.2022
55 Clouds 23 1018 76 10000 5.71 12 10:50 10.08.2022
56 Clouds 22 1018 83 10000 6.4 3 08:39 10.08.2022
57 Clouds 22 1017 83 10000 6.87 3 07:35 10.08.2022
58 Clouds 22 1017 83 10000 6.14 1 04:50 10.08.2022
59 Clouds 23 1019 82 10000 5.77 3 01:33 10.08.2022
60 Clouds 23 1019 80 10000 5.71 1 23:31 09.08.2022
61 Clouds 23 1019 79 10000 5.77 3 22:45 09.08.2022
62 Clear 24 1018 76 10000 5.37 5 21:24 09.08.2022
63 Clouds 25 1018 73 10000 5.35 10 19:28 09.08.2022
64 Clouds 26 1018 72 10000 5.37 16 17:39 09.08.2022
65 Clouds 26 1018 72 10000 5.66 15 17:21 09.08.2022
66 Clouds 26 1018 73 10000 5.88 17 16:23 09.08.2022
67 Clouds 26 1019 72 10000 6.32 16 15:26 09.08.2022
68 Clouds 24 1019 73 10000 5.74 26 11:49 09.08.2022
69 Clouds 22 1018 84 10000 5.56 29 08:53 09.08.2022
70 Clouds 22 1018 85 10000 5.8 24 07:58 09.08.2022
71 Clouds 22 1017 84 10000 6.4 19 05:25 09.08.2022
72 Clouds 23 1019 83 10000 5.4 20 01:57 09.08.2022
73 Clouds 23 1019 80 10000 5.21 18 23:26 08.08.2022
74 Clouds 23 1019 80 10000 5.21 18 22:45 08.08.2022
75 Clouds 24 1018 80 10000 5.49 17 21:47 08.08.2022
76 Clouds 25 1018 79 10000 5.58 22 20:43 08.08.2022
77 Clouds 26 1017 76 10000 6.03 26 19:41 08.08.2022
78 Clouds 26 1017 72 10000 5.48 31 18:19 08.08.2022
79 Clouds 26 1018 71 10000 5.29 38 15:55 08.08.2022
80 Clouds 26 1018 71 10000 5.29 38 15:37 08.08.2022
81 Clouds 24 1018 73 10000 5.25 37 12:31 08.08.2022
82 Clouds 23 1018 77 10000 5.63 35 10:50 08.08.2022
83 Clouds 22 1017 84 10000 5.35 22 08:20 08.08.2022
84 Clouds 22 1017 85 10000 5.51 22 04:45 08.08.2022
85 Clouds 22 1018 84 10000 5.1 20 01:47 08.08.2022
86 Clouds 23 1017 82 10000 5.72 19 21:49 07.08.2022
87 Clouds 24 1017 82 10000 5.72 19 21:30 07.08.2022
88 Clear 25 1016 77 10000 6.35 17 20:25 07.08.2022
89 Clear 25 1016 77 10000 6.35 17 19:53 07.08.2022
90 Clear 25 1016 75 10000 6.29 18 19:24 07.08.2022
91 Clear 26 1016 73 10000 5.78 21 17:58 07.08.2022
92 Clear 26 1016 70 10000 5.25 22 16:53 07.08.2022
93 Clouds 25 1017 68 10000 4.85 25 15:40 07.08.2022
94 Clouds 26 1017 70 10000 4.79 26 14:32 07.08.2022
95 Clouds 24 1018 71 10000 5.26 27 12:41 07.08.2022
96 Clouds 23 1017 74 10000 5.55 20 10:53 07.08.2022
97 Clouds 23 1017 76 10000 5.05 17 10:21 07.08.2022
98 Clouds 22 1017 82 10000 4.84 28 04:41 07.08.2022
99 Clouds 22 1017 85 10000 5.49 29 02:35 07.08.2022
100 Clouds 23 1017 81 10000 5.15 16 22:40 06.08.2022
101 Clouds 23 1017 83 10000 4.94 21 22:18 06.08.2022
102 Clouds 25 1016 79 10000 5.78 20 19:48 06.08.2022
103 Clouds 25 1016 77 10000 5.78 18 18:50 06.08.2022
104 Clouds 26 1016 75 10000 5.85 21 17:48 06.08.2022
105 Clouds 26 1017 74 10000 5.97 22 16:29 06.08.2022
106 Clouds 26 1017 76 10000 5.68 32 13:51 06.08.2022
107 Clouds 25 1017 74 10000 5.67 30 12:38 06.08.2022
108 Clouds 23 1017 79 10000 5.08 31 11:21 06.08.2022
109 Clouds 22 1017 83 10000 5.24 37 09:41 06.08.2022
110 Clouds 22 1016 85 10000 5.66 32 07:35 06.08.2022
111 Clouds 23 1017 86 10000 5.56 16 01:59 06.08.2022
112 Clouds 23 1016 87 10000 5.88 17 22:37 05.08.2022
113 Clouds 24 1015 85 10000 6.42 4 21:34 05.08.2022
114 Clouds 26 1014 78 10000 6.6 11 19:20 05.08.2022
115 Clouds 26 1014 78 10000 6.6 11 18:44 05.08.2022
116 Clouds 26 1015 74 10000 6.55 16 16:53 05.08.2022
117 Clouds 26 1015 74 10000 6.17 21 15:55 05.08.2022
118 Clouds 26 1016 74 10000 6.06 19 14:54 05.08.2022
119 Clouds 25 1016 74 10000 6.13 21 13:39 05.08.2022
120 Clouds 25 1016 72 10000 6.15 15 13:19 05.08.2022
121 Clouds 24 1015 73 10000 5.51 16 11:58 05.08.2022
122 Clouds 23 1015 81 10000 5.71 24 10:25 05.08.2022
123 Clouds 22 1015 85 10000 6 33 07:58 05.08.2022
124 Clouds 22 1014 85 10000 6.88 14 05:20 05.08.2022
125 Clouds 23 1015 86 10000 7.19 13 23:50 04.08.2022
126 Clouds 24 1014 85 10000 6.6 3 21:39 04.08.2022
127 Clouds 24 1014 80 10000 6.55 7 21:21 04.08.2022
128 Clouds 25 1014 80 10000 6.55 7 20:40 04.08.2022
129 Clouds 26 1014 77 10000 6.58 16 19:21 04.08.2022
130 Clouds 26 1014 77 10000 6.58 16 18:34 04.08.2022
131 Clouds 26 1014 74 10000 6.34 17 16:54 04.08.2022
132 Clouds 26 1015 73 10000 5.95 16 13:34 04.08.2022
133 Clouds 24 1015 75 10000 5.98 15 11:42 04.08.2022
134 Clouds 23 1014 80 10000 5.75 10 10:24 04.08.2022
135 Clouds 22 1014 85 10000 5.39 8 07:50 04.08.2022
136 Clouds 22 1013 85 10000 6.74 2 03:33 04.08.2022
137 Clouds 22 1014 85 10000 6.49 359 01:42 04.08.2022
138 Clouds 23 1015 85 10000 6.1 355 23:41 03.08.2022
139 Clouds 25 1014 83 10000 6.5 1 21:34 03.08.2022
140 Clouds 26 1013 77 10000 6.56 2 20:22 03.08.2022
141 Clouds 26 1013 77 10000 6.56 2 20:22 03.08.2022
142 Clouds 27 1013 74 10000 6.58 358 19:28 03.08.2022
143 Clouds 28 1013 73 10000 6.5 2 17:20 03.08.2022
144 Clouds 26 1014 72 10000 6.33 3 16:23 03.08.2022
145 Clouds 27 1015 70 10000 6.05 6 14:23 03.08.2022
146 Clouds 25 1015 72 10000 4.82 2 11:46 03.08.2022
147 Clouds 22 1014 74 10000 4.84 348 07:45 03.08.2022
148 Clouds 23 1014 77 10000 5.73 348 04:22 03.08.2022
149 Clouds 23 1014 76 10000 5.7 343 03:24 03.08.2022
150 Clouds 23 1015 77 10000 6.02 338 00:58 03.08.2022
151 Clouds 24 1014 79 10000 6.47 338 22:49 02.08.2022
152 Clouds 25 1014 78 10000 6.5 343 21:52 02.08.2022
153 Clouds 27 1014 76 10000 6.58 345 20:37 02.08.2022
154 Clouds 28 1014 73 10000 6.56 349 18:39 02.08.2022
155 Clouds 30 1015 71 10000 6.15 351 15:27 02.08.2022
156 Clouds 25 1015 72 10000 5.66 347 11:32 02.08.2022
157 Clouds 23 1014 78 10000 5.43 340 09:18 02.08.2022
158 Clouds 24 1014 77 10000 5.36 344 07:52 02.08.2022
159 Clouds 25 1013 75 10000 5.24 336 06:42 02.08.2022
160 Clouds 25 1014 77 10000 5.22 344 04:54 02.08.2022
161 Clouds 25 1015 81 10000 6.96 340 23:35 01.08.2022
162 Clouds 24 1015 80 10000 6.96 341 22:23 01.08.2022
163 Clouds 26 1014 76 10000 7.08 342 20:52 01.08.2022
164 Clouds 28 1014 74 10000 6.49 349 19:25 01.08.2022
165 Clouds 28 1014 74 10000 6.49 349 18:30 01.08.2022
166 Clouds 27 1015 73 10000 6.42 357 16:53 01.08.2022
167 Clouds 27 1015 73 10000 6.38 357 15:52 01.08.2022
168 Clouds 27 1015 73 10000 6.38 357 15:30 01.08.2022
169 Clouds 27 1016 73 10000 6.11 354 13:48 01.08.2022
170 Clouds 24 1016 76 10000 5.58 349 11:50 01.08.2022
171 Clouds 23 1015 80 10000 5.34 344 09:39 01.08.2022
172 Clouds 23 1015 83 10000 5.56 348 08:22 01.08.2022
173 Clouds 23 1015 84 10000 4.33 360 04:47 01.08.2022
174 Clouds 23 1016 86 10000 4.9 10 02:32 01.08.2022
175 Clouds 23 1016 86 10000 6.66 4 23:54 31.07.2022
176 Clouds 24 1016 84 10000 6.7 359 22:36 31.07.2022
177 Clouds 24 1015 81 10000 6.68 5 21:24 31.07.2022
178 Clouds 26 1015 79 10000 5.85 2 19:41 31.07.2022
179 Clouds 26 1015 76 10000 5.4 8 17:47 31.07.2022
180 Clouds 26 1016 77 10000 5.48 13 15:35 31.07.2022
181 Clouds 26 1017 80 10000 5.22 23 13:41 31.07.2022
182 Clouds 25 1016 75 10000 4.96 11 11:52 31.07.2022
183 Clouds 23 1015 82 10000 4.88 12 09:28 31.07.2022
184 Clouds 23 1015 83 10000 5.77 14 06:48 31.07.2022
185 Clouds 23 1016 84 10000 5.9 22 02:57 31.07.2022
186 Clouds 24 1016 87 10000 6.21 359 23:35 30.07.2022
187 Clouds 24 1015 85 10000 6.57 1 22:19 30.07.2022
188 Clouds 24 1015 85 10000 6.57 1 21:47 30.07.2022
189 Clouds 25 1014 81 10000 7.02 6 20:56 30.07.2022
190 Clouds 26 1014 78 10000 6.94 9 19:58 30.07.2022
191 Clouds 27 1014 78 10000 6.49 12 18:51 30.07.2022
192 Clouds 26 1015 77 10000 6.35 14 17:41 30.07.2022
193 Clouds 27 1015 76 10000 6.19 10 15:38 30.07.2022
194 Clouds 27 1016 75 10000 6.41 11 14:53 30.07.2022
195 Clouds 26 1016 76 10000 6.79 8 12:55 30.07.2022
196 Clouds 25 1016 78 10000 6.95 13 11:55 30.07.2022
197 Clouds 23 1016 81 10000 7.23 12 10:28 30.07.2022
198 Clouds 23 1016 81 10000 7.23 12 09:46 30.07.2022
199 Clouds 23 1015 84 10000 7.1 9 07:54 30.07.2022
200 Clouds 23 1016 86 10000 7.06 10 02:36 30.07.2022
201 Clouds 23 1017 85 10000 7.05 11 01:46 30.07.2022
202 Clouds 24 1017 84 10000 6.86 14 22:25 29.07.2022
203 Clouds 25 1016 83 10000 6.96 11 20:59 29.07.2022
204 Clouds 26 1016 80 10000 7.36 10 19:57 29.07.2022
205 Clouds 27 1016 80 10000 7.06 9 17:53 29.07.2022
206 Clouds 27 1017 82 10000 6.4 12 15:21 29.07.2022
207 Clouds 26 1017 82 10000 6.49 13 12:59 29.07.2022
208 Clouds 24 1017 86 10000 6.5 3 10:35 29.07.2022
209 Clouds 23 1016 90 10000 6.66 358 08:49 29.07.2022
210 Clouds 23 1016 89 10000 6.21 357 07:40 29.07.2022
211 Clouds 23 1017 84 10000 7.15 9 01:47 29.07.2022
212 Clouds 23 1017 84 10000 7.18 7 22:41 28.07.2022
213 Clouds 25 1017 81 10000 7.56 4 20:59 28.07.2022
214 Clouds 25 1016 78 10000 7.61 3 20:27 28.07.2022
215 Clouds 25 1016 78 10000 7.61 3 19:42 28.07.2022
216 Clouds 26 1016 77 10000 7.29 6 18:48 28.07.2022
217 Clouds 26 1016 75 10000 7.24 6 17:43 28.07.2022
218 Clouds 27 1016 73 10000 7.62 9 16:42 28.07.2022
219 Clouds 27 1017 71 10000 7.95 12 15:24 28.07.2022
220 Clouds 26 1018 73 10000 8.01 7 12:51 28.07.2022
221 Clouds 23 1017 81 10000 8.29 360 09:45 28.07.2022
222 Clouds 23 1017 85 10000 8.35 354 06:24 28.07.2022
223 Clouds 23 1017 85 10000 8.25 354 05:26 28.07.2022
224 Clouds 24 1019 84 10000 7.29 345 00:45 28.07.2022
225 Clouds 25 1018 83 10000 6.92 346 22:34 27.07.2022
226 Clouds 27 1018 76 10000 7.03 347 20:56 27.07.2022
227 Clear 29 1017 72 10000 7.24 347 19:37 27.07.2022
228 Clear 29 1017 68 10000 6.1 351 17:38 27.07.2022
229 Clear 29 1018 64 10000 5.63 347 15:52 27.07.2022
230 Clear 29 1018 63 10000 5.2 347 14:55 27.07.2022
231 Clear 31 1018 63 10000 5.2 347 14:33 27.07.2022
232 Clear 32 1018 62 10000 4.69 343 12:49 27.07.2022
233 Clear 30 1017 63 10000 3.37 330 07:53 27.07.2022
234 Clear 30 1017 63 10000 3.37 330 07:53 27.07.2022
235 Clear 30 1017 62 10000 3.78 326 06:19 27.07.2022
236 Clear 31 1019 64 10000 2.73 321 00:48 27.07.2022
237 Clear 27 1017 69 10000 2.2 350 22:25 26.07.2022
238 Clear 28 1017 67 10000 2.89 2 21:20 26.07.2022
239 Clouds 30 1016 66 10000 2.88 14 20:25 26.07.2022
240 Clouds 31 1016 65 10000 3.85 3 18:42 26.07.2022
241 Clouds 31 1016 64 10000 3.52 16 17:57 26.07.2022
242 Clouds 31 1017 63 10000 3.67 18 15:58 26.07.2022
243 Clouds 31 1017 64 10000 3.94 14 14:57 26.07.2022
244 Clouds 29 1017 66 10000 3.41 14 12:59 26.07.2022
245 Clouds 28 1017 68 10000 3.13 16 10:59 26.07.2022
246 Clouds 28 1016 70 10000 4.1 359 08:46 26.07.2022
247 Clear 28 1015 67 10000 2.57 350 05:49 26.07.2022
248 Clouds 27 1017 72 10000 5.21 337 00:28 26.07.2022
249 Clouds 27 1016 72 10000 4.7 336 22:53 25.07.2022
250 Clouds 27 1016 72 10000 4.79 340 22:22 25.07.2022
251 Clouds 27 1016 72 10000 4.79 340 21:38 25.07.2022
252 Clouds 29 1015 70 10000 4.64 348 20:40 25.07.2022
253 Clouds 31 1015 70 10000 4.93 352 19:27 25.07.2022
254 Clouds 31 1015 69 10000 4.88 359 18:18 25.07.2022
255 Clouds 31 1015 68 10000 4.37 3 17:27 25.07.2022
256 Clouds 29 1016 68 10000 3.87 7 14:32 25.07.2022
257 Clouds 28 1016 68 10000 3.52 7 12:21 25.07.2022
258 Clouds 25 1015 72 10000 3.91 341 09:18 25.07.2022
259 Clouds 26 1015 74 10000 4.58 344 03:23 25.07.2022
260 Clouds 25 1016 73 10000 5.41 331 23:53 24.07.2022
261 Clouds 26 1016 71 10000 4.97 335 22:56 24.07.2022
262 Clouds 26 1015 70 10000 4.84 338 22:26 24.07.2022
263 Clouds 27 1015 67 10000 4.87 340 21:19 24.07.2022
264 Clouds 27 1015 67 10000 4.87 340 20:47 24.07.2022
265 Clouds 29 1014 66 10000 4.06 344 19:54 24.07.2022
266 Clouds 31 1014 64 10000 3.81 349 18:30 24.07.2022
267 Clouds 30 1015 64 10000 3.58 8 16:28 24.07.2022
268 Clouds 31 1015 64 10000 3.58 8 15:45 24.07.2022
269 Clouds 32 1016 65 10000 2.62 351 14:19 24.07.2022
270 Clouds 30 1016 66 10000 3.14 342 12:52 24.07.2022
271 Clouds 29 1015 66 10000 2.59 345 11:38 24.07.2022
272 Clouds 28 1015 68 10000 2.51 353 10:59 24.07.2022
273 Clouds 33 1015 72 10000 2.97 359 08:31 24.07.2022
274 Clear 29 1015 71 10000 2.73 341 07:47 24.07.2022
275 Clouds 26 1014 67 10000 2.53 354 04:45 24.07.2022
276 Clouds 27 1015 73 10000 2.75 4 00:28 24.07.2022
277 Clear 26 1014 71 10000 2.12 8 21:28 23.07.2022
278 Clouds 29 1013 72 10000 2.08 57 19:59 23.07.2022
279 Clouds 29 1013 72 10000 2.07 64 18:50 23.07.2022
280 Clouds 28 1014 75 10000 3.23 67 17:28 23.07.2022
281 Clouds 27 1014 75 10000 3.23 67 16:33 23.07.2022
282 Clouds 27 1014 77 10000 2.64 47 15:22 23.07.2022
283 Clouds 27 1014 77 10000 2.64 47 14:58 23.07.2022
284 Clouds 26 1014 76 10000 3.07 59 14:27 23.07.2022
285 Clouds 25 1014 73 10000 2.5 71 12:44 23.07.2022
286 Clouds 24 1013 75 10000 2.4 16 10:45 23.07.2022
287 Clouds 23 1013 77 10000 2.98 355 09:56 23.07.2022
288 Clouds 23 1013 77 10000 2.5 3 08:31 23.07.2022
289 Clouds 23 1014 83 10000 2.39 17 03:39 23.07.2022
290 Clouds 23 1015 82 10000 4.57 9 00:49 23.07.2022
291 Clouds 23 1015 89 10000 6.55 35 22:32 22.07.2022
292 Clouds 25 1013 82 10000 6.22 356 20:51 22.07.2022
293 Clouds 25 1013 82 10000 5.84 4 19:34 22.07.2022
294 Clouds 26 1014 79 10000 5.95 14 18:28 22.07.2022
295 Clouds 26 1014 79 10000 5.76 13 16:48 22.07.2022
296 Clouds 27 1015 77 10000 6.33 11 14:51 22.07.2022
297 Clouds 24 1014 77 10000 6.38 0 11:22 22.07.2022
298 Clouds 22 1015 79 10000 4.98 8 09:25 22.07.2022
299 Clouds 22 1015 78 10000 4.88 8 08:29 22.07.2022
300 Clouds 22 1014 77 10000 4.75 349 05:18 22.07.2022
301 Clouds 24 1016 79 10000 5.81 346 00:40 22.07.2022
302 Clouds 26 1015 79 10000 6.25 344 22:25 21.07.2022
303 Clear 26 1014 76 10000 6.03 349 21:29 21.07.2022
304 Clouds 27 1015 75 10000 6.83 350 19:26 21.07.2022
305 Clouds 30 1015 76 10000 6.81 352 17:39 21.07.2022
306 Clouds 30 1015 76 10000 7.01 355 17:19 21.07.2022
307 Clouds 29 1016 74 10000 6.73 354 14:55 21.07.2022
308 Clouds 28 1016 74 10000 6.31 352 14:29 21.07.2022
309 Clouds 27 1016 74 10000 5.81 350 12:27 21.07.2022
310 Clouds 26 1016 74 10000 5.83 346 10:56 21.07.2022
311 Clear 26 1015 76 10000 5.54 338 09:27 21.07.2022
312 Clear 27 1015 76 10000 5.54 338 08:49 21.07.2022
313 Clouds 27 1015 74 10000 5.31 342 07:32 21.07.2022
314 Clouds 26 1015 74 10000 5.19 332 03:55 21.07.2022
315 Clouds 25 1016 76 10000 5.66 341 00:24 21.07.2022
316 Clear 25 1015 76 10000 5.19 346 22:21 20.07.2022
317 Clear 26 1014 74 10000 5.02 356 20:54 20.07.2022
318 Clouds 27 1014 74 10000 5.68 3 19:50 20.07.2022
319 Clouds 27 1014 73 10000 5.98 7 19:24 20.07.2022
320 Clouds 28 1014 73 10000 5.98 7 18:33 20.07.2022
321 Clouds 29 1014 73 10000 6.09 9 17:55 20.07.2022
322 Clouds 27 1015 73 10000 6.04 11 16:42 20.07.2022
323 Clouds 27 1015 75 10000 5.97 13 15:31 20.07.2022
324 Clouds 27 1016 74 10000 5.82 12 14:18 20.07.2022
325 Clouds 25 1016 72 10000 5.43 4 11:33 20.07.2022
326 Clouds 23 1015 76 10000 5.15 357 08:46 20.07.2022
327 Clouds 25 1016 80 10000 4.83 2 03:25 20.07.2022
328 Clouds 24 1017 82 10000 5.31 2 00:48 20.07.2022
329 Clouds 23 1017 85 10000 5.44 2 23:41 19.07.2022
330 Clouds 24 1016 85 10000 5.68 4 22:31 19.07.2022
331 Clouds 25 1016 81 10000 6.44 5 21:23 19.07.2022
332 Clouds 25 1015 79 10000 6.61 8 20:27 19.07.2022
333 Clouds 27 1015 75 10000 6.73 9 18:43 19.07.2022
334 Clouds 27 1016 74 10000 6.74 9 17:57 19.07.2022
335 Clouds 28 1016 74 10000 6.54 12 16:31 19.07.2022
336 Clouds 27 1017 74 10000 6.6 16 14:52 19.07.2022
337 Clouds 24 1017 74 10000 5.83 14 11:39 19.07.2022
338 Clouds 23 1018 77 10000 5.71 11 10:47 19.07.2022
339 Clouds 22 1017 82 10000 4.69 12 09:21 19.07.2022
340 Clouds 22 1017 82 10000 4.69 12 08:32 19.07.2022
341 Clouds 22 1017 84 10000 5.55 11 07:19 19.07.2022
342 Clouds 23 1017 85 10000 5.83 11 05:27 19.07.2022
343 Clouds 22 1017 85 10000 5.83 11 04:48 19.07.2022
344 Clouds 23 1019 85 10000 6.65 10 00:35 19.07.2022
345 Clouds 23 1018 86 10000 6.81 14 23:31 18.07.2022
346 Clouds 23 1018 86 10000 7.21 13 22:58 18.07.2022
347 Clouds 24 1017 85 10000 7.21 10 21:58 18.07.2022
348 Clouds 24 1017 83 10000 7.2 11 20:50 18.07.2022
349 Clouds 26 1017 76 10000 6.9 16 19:26 18.07.2022
350 Clouds 27 1018 75 10000 6.3 16 17:24 18.07.2022
351 Clouds 26 1018 74 10000 6.12 17 15:51 18.07.2022
352 Clear 27 1019 73 10000 6.18 16 14:30 18.07.2022
353 Clouds 26 1019 73 10000 6.2 4 12:58 18.07.2022
354 Clouds 24 1019 77 10000 5.59 14 11:30 18.07.2022
355 Clouds 22 1019 83 10000 6.17 28 08:54 18.07.2022
356 Clouds 22 1018 85 10000 6.72 13 07:28 18.07.2022
357 Clouds 23 1020 86 10000 6.85 5 01:24 18.07.2022
358 Clouds 23 1019 84 10000 6.62 359 22:42 17.07.2022
359 Clouds 23 1019 83 10000 6.66 359 21:57 17.07.2022
360 Clouds 24 1018 80 10000 6.65 360 21:21 17.07.2022
361 Clouds 24 1018 80 10000 6.65 360 20:44 17.07.2022
362 Clouds 25 1018 77 10000 6.48 3 19:32 17.07.2022
363 Clouds 25 1018 76 10000 6.62 3 18:30 17.07.2022
364 Clouds 26 1018 73 10000 6.49 5 17:38 17.07.2022
365 Clouds 26 1018 73 10000 6.43 6 16:51 17.07.2022
366 Clouds 26 1018 73 10000 6.43 6 16:51 17.07.2022
367 Clouds 25 1018 73 10000 6.32 8 16:26 17.07.2022
368 Clouds 27 1019 74 10000 6.11 10 14:44 17.07.2022
369 Clouds 25 1019 75 10000 6.04 14 13:31 17.07.2022
370 Clouds 23 1019 78 10000 6.3 6 11:35 17.07.2022
371 Clouds 22 1018 85 10000 6.45 13 08:57 17.07.2022
372 Clouds 22 1017 85 10000 7.33 9 03:44 17.07.2022
373 Clouds 22 1017 85 10000 7.42 5 02:32 17.07.2022
374 Clouds 23 1017 86 10000 7.04 353 23:20 16.07.2022
375 Clouds 24 1017 85 10000 6.79 357 21:30 16.07.2022
376 Clouds 25 1016 77 10000 6.38 2 19:30 16.07.2022
377 Clouds 25 1016 75 10000 6.21 3 18:32 16.07.2022
378 Clouds 25 1016 74 10000 5.77 5 16:34 16.07.2022
379 Clouds 25 1017 72 10000 5.57 5 13:49 16.07.2022
380 Clouds 23 1017 79 10000 5.6 360 10:53 16.07.2022
381 Clouds 22 1016 82 10000 5.43 1 09:33 16.07.2022
382 Clouds 22 1016 85 10000 5.63 4 08:43 16.07.2022
383 Clouds 22 1015 84 10000 5.89 358 08:23 16.07.2022
384 Clouds 22 1015 83 10000 5.98 7 04:21 16.07.2022
385 Clouds 22 1016 83 10000 5.91 7 02:49 16.07.2022
386 Clouds 22 1017 83 10000 5.95 4 23:30 15.07.2022
387 Clouds 23 1016 82 10000 6 360 22:40 15.07.2022
388 Clouds 24 1015 80 10000 6.37 6 21:29 15.07.2022
389 Clouds 24 1015 76 10000 6.48 6 20:26 15.07.2022
390 Clouds 26 1015 74 10000 6.3 7 18:40 15.07.2022
391 Clouds 26 1014 72 10000 6.22 7 17:37 15.07.2022
392 Clouds 26 1015 69 10000 5.97 360 14:53 15.07.2022
393 Clouds 25 1015 72 10000 5.26 7 12:57 15.07.2022
394 Clouds 23 1015 76 10000 4.75 5 11:27 15.07.2022
395 Clouds 22 1015 79 10000 4.48 13 09:44 15.07.2022
396 Clouds 22 1014 85 10000 5.97 4 06:24 15.07.2022
397 Clouds 22 1016 84 10000 6.7 360 00:53 15.07.2022
398 Clouds 22 1016 82 10000 6.56 358 00:21 15.07.2022
399 Clouds 22 1016 80 10000 6.41 354 22:50 14.07.2022
400 Clouds 23 1016 77 10000 6.59 353 21:47 14.07.2022
401 Clouds 24 1015 73 10000 6.51 353 21:29 14.07.2022
402 Clouds 24 1015 73 10000 6.51 353 20:44 14.07.2022
403 Clear 25 1015 72 10000 6.31 359 20:20 14.07.2022
404 Clear 26 1015 70 10000 5.87 4 18:52 14.07.2022
405 Clear 27 1016 69 10000 5.18 10 16:22 14.07.2022
406 Clear 26 1016 69 10000 5.18 10 15:32 14.07.2022
407 Clouds 25 1017 68 10000 5.15 12 13:59 14.07.2022
408 Clouds 25 1017 69 10000 4.83 5 12:58 14.07.2022
409 Clouds 24 1017 71 10000 4.85 10 11:47 14.07.2022
410 Clouds 23 1017 74 10000 4.86 14 11:23 14.07.2022
411 Clouds 22 1016 78 10000 4.9 15 09:54 14.07.2022
412 Clouds 22 1016 81 10000 5.18 15 07:47 14.07.2022
413 Clear 22 1017 73 10000 5.33 345 01:25 14.07.2022
414 Clear 22 1017 73 10000 5.33 345 00:53 14.07.2022
415 Clear 22 1017 74 10000 5.19 342 22:33 13.07.2022
416 Clear 23 1017 73 10000 5.61 345 21:59 13.07.2022
417 Clear 24 1016 70 10000 5.68 343 21:18 13.07.2022
418 Clear 25 1016 69 10000 5.8 353 19:34 13.07.2022
419 Clear 25 1016 67 10000 4.59 11 17:51 13.07.2022
420 Clear 25 1017 67 10000 4.3 19 16:43 13.07.2022
421 Clear 25 1018 67 10000 4.28 15 15:24 13.07.2022
422 Clouds 25 1018 69 10000 4.61 10 12:56 13.07.2022
423 Clouds 25 1018 69 10000 4.61 10 12:56 13.07.2022
424 Clouds 23 1017 72 10000 4.34 12 10:46 13.07.2022
425 Clouds 22 1017 74 10000 4.79 4 10:24 13.07.2022
426 Clouds 21 1016 77 10000 4.99 358 09:25 13.07.2022
427 Clouds 21 1016 79 10000 5.09 8 06:46 13.07.2022
428 Clouds 21 1017 80 10000 5.83 1 03:19 13.07.2022
429 Clouds 22 1018 80 10000 5.71 355 23:52 12.07.2022
430 Clouds 22 1016 76 10000 5.63 356 22:18 12.07.2022
431 Clouds 23 1016 76 10000 5.63 356 21:34 12.07.2022
432 Clouds 24 1016 74 10000 5.79 357 20:42 12.07.2022
433 Clouds 25 1016 72 10000 5.95 355 19:36 12.07.2022
434 Clouds 26 1016 71 10000 5.8 4 17:54 12.07.2022
435 Clouds 26 1016 70 10000 5.21 3 16:20 12.07.2022
436 Clouds 26 1016 70 10000 5.21 3 16:20 12.07.2022
437 Clouds 26 1016 70 10000 5.57 5 14:31 12.07.2022
438 Clouds 26 1016 72 10000 5.68 1 13:20 12.07.2022
439 Clouds 24 1016 75 10000 5.66 3 11:37 12.07.2022
440 Clouds 23 1015 79 10000 6.04 3 10:18 12.07.2022
441 Clouds 21 1014 83 10000 6.78 3 08:26 12.07.2022
442 Clouds 21 1014 82 10000 6.92 5 07:38 12.07.2022
443 Clouds 21 1014 83 10000 7.84 359 05:42 12.07.2022
444 Clouds 22 1015 87 10000 7.41 355 03:29 12.07.2022
445 Clouds 22 1015 84 10000 7.08 347 23:42 11.07.2022
446 Clouds 23 1014 82 10000 6.63 342 22:31 11.07.2022
447 Clouds 25 1014 77 10000 7.32 340 20:41 11.07.2022
448 Clouds 27 1013 73 10000 7.25 338 19:50 11.07.2022
449 Clouds 27 1013 74 10000 6.64 341 18:38 11.07.2022
450 Clouds 27 1013 73 10000 7.16 346 17:55 11.07.2022
451 Clouds 28 1013 70 10000 6.84 343 16:22 11.07.2022
452 Clouds 28 1013 69 10000 6.55 340 14:49 11.07.2022
453 Clouds 31 1014 68 10000 6.14 334 12:18 11.07.2022
454 Clouds 28 1014 71 10000 6.04 332 10:42 11.07.2022
455 Clouds 29 1014 75 10000 5.74 334 09:54 11.07.2022
456 Clouds 27 1013 74 10000 5.94 328 08:35 11.07.2022
457 Clouds 26 1013 72 10000 5.07 325 07:24 11.07.2022
458 Clouds 31 1015 75 10000 6.77 322 00:47 11.07.2022
459 Clouds 30 1015 74 10000 6.94 323 23:48 10.07.2022
460 Clouds 30 1014 72 10000 6.09 328 22:26 10.07.2022
461 Clouds 30 1014 69 10000 6.05 331 20:55 10.07.2022
462 Clouds 31 1013 66 10000 5.58 332 19:59 10.07.2022
463 Clouds 31 1013 66 10000 5.31 332 19:20 10.07.2022
464 Clouds 31 1014 66 10000 5.59 333 17:51 10.07.2022
465 Clouds 31 1014 66 10000 5.83 336 16:59 10.07.2022
466 Clouds 31 1014 65 10000 6.04 335 16:20 10.07.2022
467 Clouds 32 1014 65 10000 6.12 333 14:43 10.07.2022
468 Clouds 30 1015 66 10000 6.04 326 12:42 10.07.2022
469 Clouds 27 1015 66 10000 5.87 328 11:36 10.07.2022
470 Clouds 25 1014 68 10000 5.7 331 09:30 10.07.2022
471 Clouds 25 1014 72 10000 6.09 329 08:42 10.07.2022
472 Clouds 24 1014 68 10000 5.75 329 06:36 10.07.2022
473 Clouds 24 1016 74 10000 6.94 326 23:44 09.07.2022
474 Clouds 27 1015 75 10000 6.19 329 22:26 09.07.2022
475 Clouds 27 1015 75 10000 6.19 329 22:26 09.07.2022
476 Clouds 29 1015 75 10000 6.19 329 21:40 09.07.2022
477 Clouds 28 1014 70 10000 6.89 328 19:37 09.07.2022
478 Clouds 28 1015 70 10000 5.92 335 18:25 09.07.2022
479 Clouds 29 1015 70 8805 5.89 336 17:18 09.07.2022
480 Clouds 30 1015 70 8809 5.77 336 15:58 09.07.2022
481 Clouds 30 1015 70 8809 5.77 336 15:38 09.07.2022
482 Clouds 29 1016 69 10000 5.8 336 14:21 09.07.2022
483 Clouds 27 1016 70 10000 5.78 333 13:28 09.07.2022
484 Clouds 25 1016 70 10000 5.75 334 11:40 09.07.2022
485 Clouds 23 1016 73 10000 4.91 333 10:25 09.07.2022
486 Clouds 22 1016 75 10000 4.9 330 09:23 09.07.2022
487 Clouds 22 1016 76 10000 5.1 331 07:43 09.07.2022
488 Clouds 22 1016 77 10000 4.87 330 04:38 09.07.2022
489 Clouds 23 1017 79 10000 6.35 328 23:33 08.07.2022
490 Clouds 23 1017 79 10000 6.65 331 22:18 08.07.2022
491 Clouds 24 1016 77 10000 6.86 338 21:21 08.07.2022
492 Clouds 25 1016 77 10000 6.86 338 20:35 08.07.2022
493 Clouds 26 1017 74 10000 6.16 344 18:45 08.07.2022
494 Clouds 27 1017 74 10000 6.03 346 17:45 08.07.2022
495 Clouds 27 1017 74 10000 6.03 346 17:45 08.07.2022
496 Clouds 28 1018 74 10000 6.61 346 16:24 08.07.2022
497 Clouds 26 1018 73 10000 6.21 345 14:50 08.07.2022
498 Clouds 25 1019 72 10000 6.66 342 12:31 08.07.2022
499 Clouds 22 1019 76 10000 6.28 344 10:46 08.07.2022
500 Clouds 21 1019 79 10000 6.43 342 09:58 08.07.2022
501 Clouds 21 1018 86 10000 5.99 344 06:59 08.07.2022
502 Clouds 21 1018 87 10000 6.15 348 05:33 08.07.2022
503 Clouds 21 1020 85 10000 6.26 347 00:30 08.07.2022
504 Clouds 22 1020 87 10000 6.26 354 22:50 07.07.2022
505 Clouds 23 1020 86 10000 6.54 358 21:46 07.07.2022
506 Clouds 25 1019 80 10000 6.92 1 19:34 07.07.2022
507 Clouds 25 1019 74 10000 6.78 359 17:43 07.07.2022
508 Clouds 25 1020 72 10000 7.01 355 16:21 07.07.2022
509 Clouds 24 1020 73 10000 7.19 357 13:40 07.07.2022
510 Clouds 23 1021 74 10000 6.8 360 12:41 07.07.2022
511 Clouds 23 1020 75 10000 6.67 5 12:22 07.07.2022
512 Clouds 22 1020 75 10000 6.67 5 11:32 07.07.2022
513 Clouds 22 1020 78 10000 6.81 5 10:45 07.07.2022
514 Clouds 21 1020 80 10000 6.97 6 10:27 07.07.2022
515 Clouds 21 1020 81 10000 7.07 4 08:40 07.07.2022
516 Clouds 21 1019 81 10000 7.59 5 05:44 07.07.2022
517 Clouds 22 1021 82 10000 7.57 2 23:54 06.07.2022
518 Clouds 22 1021 82 10000 7.57 2 23:36 06.07.2022
519 Clouds 22 1020 80 10000 7.46 359 23:18 06.07.2022
520 Clouds 22 1020 80 10000 7.46 359 22:46 06.07.2022
521 Clouds 22 1020 80 10000 7.16 359 22:28 06.07.2022
522 Clouds 24 1019 74 10000 6.97 5 19:46 06.07.2022
523 Clouds 25 1019 75 10000 6.61 9 18:45 06.07.2022
524 Clouds 25 1020 75 10000 5.98 25 16:45 06.07.2022
525 Clouds 25 1021 74 10000 6.19 27 15:44 06.07.2022
526 Clouds 23 1021 77 10000 6.02 23 12:44 06.07.2022
527 Clouds 23 1021 77 10000 6.29 24 11:50 06.07.2022
528 Clouds 22 1021 78 10000 6.65 16 10:33 06.07.2022
529 Clouds 21 1020 81 10000 6.63 13 08:43 06.07.2022
530 Clouds 21 1019 82 10000 6.64 13 07:41 06.07.2022
531 Clouds 21 1019 82 10000 6.78 13 06:40 06.07.2022
532 Clouds 22 1021 83 10000 7.02 15 22:50 05.07.2022
533 Clouds 22 1020 81 10000 6.93 14 22:28 05.07.2022
534 Clouds 23 1020 77 10000 6.84 13 20:42 05.07.2022
535 Clouds 24 1019 74 10000 7.02 13 19:44 05.07.2022
536 Clouds 24 1019 73 10000 6.82 17 19:26 05.07.2022
537 Clouds 25 1019 73 10000 6.6 20 17:48 05.07.2022
538 Clouds 25 1020 71 10000 6.4 22 16:57 05.07.2022
539 Clouds 25 1020 71 10000 6.27 27 15:39 05.07.2022
540 Clouds 25 1021 71 10000 5.98 28 14:39 05.07.2022
541 Clouds 24 1021 74 10000 6.17 20 12:52 05.07.2022
542 Clouds 24 1021 77 10000 6.29 19 12:19 05.07.2022
543 Clouds 23 1021 78 10000 6.27 22 10:44 05.07.2022
544 Clouds 22 1021 80 10000 6.32 24 09:32 05.07.2022
545 Clouds 21 1020 82 10000 6.77 17 08:19 05.07.2022
546 Clouds 21 1019 81 10000 7.21 10 06:22 05.07.2022
547 Clouds 21 1020 81 10000 7.11 12 04:26 05.07.2022
548 Clouds 22 1021 81 10000 6.82 14 00:38 05.07.2022
549 Clouds 22 1021 81 10000 7.06 13 23:34 04.07.2022
550 Clouds 22 1020 80 10000 6.98 8 22:50 04.07.2022
551 Clouds 23 1020 79 10000 6.92 9 21:53 04.07.2022
552 Clouds 23 1019 78 10000 6.8 14 20:54 04.07.2022
553 Clouds 24 1019 78 10000 6.8 14 20:35 04.07.2022
554 Clouds 24 1019 77 10000 6.81 12 19:55 04.07.2022
555 Clouds 25 1019 77 10000 6.81 12 19:36 04.07.2022
556 Clouds 25 1019 73 10000 6.71 16 18:26 04.07.2022
557 Clouds 25 1019 72 10000 6.45 18 16:34 04.07.2022
558 Clouds 25 1020 72 10000 6.34 20 15:34 04.07.2022
559 Clouds 24 1020 75 10000 6.04 14 13:33 04.07.2022
560 Clouds 23 1021 78 10000 5.89 17 12:33 04.07.2022
561 Clouds 22 1021 79 10000 5.69 25 10:34 04.07.2022
562 Clouds 21 1021 79 10000 6.07 23 09:53 04.07.2022
563 Clouds 21 1020 79 10000 6.21 21 08:31 04.07.2022
564 Clouds 21 1020 81 10000 6.49 17 05:18 04.07.2022
565 Clouds 22 1022 78 10000 7.08 16 00:42 04.07.2022
566 Clouds 22 1021 77 10000 6.97 14 22:59 03.07.2022
567 Clouds 23 1020 75 10000 6.66 15 20:59 03.07.2022
568 Clouds 25 1020 75 10000 6.66 15 20:41 03.07.2022
569 Clouds 25 1020 76 10000 6.5 15 19:41 03.07.2022
570 Clouds 25 1020 74 10000 6.38 17 19:23 03.07.2022
571 Clouds 25 1020 72 10000 6.04 21 17:45 03.07.2022
572 Clouds 26 1020 72 10000 5.9 24 16:54 03.07.2022
573 Clouds 25 1021 74 10000 5.76 27 15:24 03.07.2022
574 Clouds 25 1021 74 10000 5.76 27 14:32 03.07.2022
575 Clouds 25 1022 73 10000 6.04 30 13:48 03.07.2022
576 Clouds 24 1022 73 10000 5.93 29 12:35 03.07.2022
577 Clouds 23 1022 73 10000 6.03 28 11:39 03.07.2022
578 Clouds 21 1021 72 10000 5.96 27 10:39 03.07.2022
579 Clouds 20 1021 73 10000 5.96 25 09:59 03.07.2022
580 Clouds 21 1020 75 10000 5.88 20 07:36 03.07.2022
581 Clouds 22 1020 77 10000 6.1 15 05:18 03.07.2022
582 Clouds 22 1022 83 10000 6.53 359 00:23 03.07.2022
583 Clouds 23 1022 83 10000 6.77 0 22:35 02.07.2022
584 Clouds 23 1021 82 10000 6.88 2 21:38 02.07.2022
585 Clouds 25 1020 76 10000 6.63 8 19:52 02.07.2022
586 Clouds 26 1020 76 10000 6.63 8 19:31 02.07.2022
587 Clouds 26 1021 71 10000 5.56 6 17:58 02.07.2022
588 Clouds 26 1021 71 10000 5.56 6 17:36 02.07.2022
589 Clouds 24 1021 71 10000 5.81 359 15:28 02.07.2022
590 Clouds 23 1021 76 10000 5.93 2 12:22 02.07.2022
591 Clouds 22 1021 77 10000 5.9 2 11:27 02.07.2022
592 Clouds 22 1021 77 10000 5.9 2 10:46 02.07.2022
593 Clouds 20 1020 78 10000 6.16 3 09:37 02.07.2022
594 Clouds 19 1020 79 10000 6.62 7 08:36 02.07.2022
595 Clouds 19 1019 82 10000 6.19 10 08:18 02.07.2022
596 Clouds 21 1020 81 10000 5.82 4 02:52 02.07.2022
597 Clouds 22 1020 77 10000 5.98 1 00:27 02.07.2022
598 Clouds 22 1020 77 10000 6.29 0 22:59 01.07.2022
599 Clouds 22 1019 77 10000 6.83 2 21:56 01.07.2022
600 Clouds 23 1019 77 10000 6.83 2 21:37 01.07.2022
601 Clouds 23 1019 75 10000 6.98 1 20:56 01.07.2022
602 Clouds 25 1018 72 10000 6.26 356 19:47 01.07.2022
603 Clouds 25 1018 69 10000 6.07 358 18:42 01.07.2022
604 Clouds 24 1018 69 10000 6.19 9 16:35 01.07.2022
605 Clouds 24 1019 70 10000 5.82 9 13:55 01.07.2022
606 Clouds 22 1019 70 10000 6.01 9 12:59 01.07.2022
607 Clouds 20 1019 75 10000 6.54 11 10:46 01.07.2022
608 Clouds 20 1019 77 10000 6.68 7 10:18 01.07.2022
609 Clouds 21 1018 79 10000 7.34 5 05:58 01.07.2022
610 Clouds 21 1019 76 10000 7.32 5 01:30 01.07.2022
611 Clouds 22 1019 77 10000 7.43 3 23:28 30.06.2022
612 Clouds 22 1019 77 10000 7.43 3 22:45 30.06.2022
613 Clouds 22 1019 77 10000 7.14 5 22:27 30.06.2022
614 Clouds 22 1019 77 10000 7.14 5 21:50 30.06.2022
615 Clouds 23 1018 74 10000 7.13 6 20:31 30.06.2022
616 Clouds 24 1018 71 10000 7.05 6 19:55 30.06.2022
617 Clouds 24 1018 72 10000 7.04 6 19:32 30.06.2022
618 Clouds 25 1018 71 10000 7.17 8 18:43 30.06.2022
619 Clouds 25 1018 71 10000 6.77 8 17:49 30.06.2022
620 Clouds 24 1019 70 10000 6.79 9 16:55 30.06.2022
621 Clouds 25 1019 70 10000 7.02 9 15:50 30.06.2022
622 Clouds 25 1020 69 10000 7.39 8 13:50 30.06.2022
623 Clouds 24 1019 73 10000 7.7 9 13:18 30.06.2022
624 Clouds 23 1019 73 10000 7.7 9 12:32 30.06.2022
625 Clouds 21 1019 80 10000 6.4 2 10:19 30.06.2022
626 Clouds 21 1019 80 10000 6.4 2 09:40 30.06.2022
627 Clouds 21 1018 84 10000 6.98 7 08:22 30.06.2022
628 Clouds 21 1018 84 10000 7.01 4 07:40 30.06.2022
629 Clouds 22 1019 81 10000 7.35 2 03:35 30.06.2022
630 Clouds 22 1020 77 10000 7.96 9 23:38 29.06.2022
631 Clouds 22 1020 75 10000 8 9 22:41 29.06.2022
632 Clouds 22 1020 77 10000 7.95 8 21:59 29.06.2022
633 Clouds 24 1019 75 10000 8.16 9 20:35 29.06.2022
634 Clouds 23 1019 73 10000 8.11 8 19:56 29.06.2022
635 Clouds 25 1020 69 10000 7.72 9 17:55 29.06.2022
636 Clouds 25 1020 69 10000 7.72 9 17:55 29.06.2022
637 Clouds 26 1020 70 10000 7.78 10 16:55 29.06.2022
638 Clouds 25 1021 69 10000 7.49 12 15:44 29.06.2022
639 Clouds 24 1021 69 10000 6.95 12 13:43 29.06.2022
640 Clouds 22 1022 71 10000 7.34 11 12:36 29.06.2022
641 Clouds 21 1021 76 10000 7.1 8 09:50 29.06.2022
642 Clouds 21 1021 77 10000 7.53 9 09:26 29.06.2022
643 Clouds 21 1020 77 10000 7.48 10 06:29 29.06.2022
644 Clouds 21 1021 79 10000 7.67 6 04:42 29.06.2022
645 Clouds 22 1023 74 10000 8.6 5 00:53 29.06.2022
646 Clouds 21 1023 74 10000 8.6 5 00:33 29.06.2022
647 Clouds 21 1023 72 10000 8.78 2 22:50 28.06.2022
648 Clouds 22 1022 72 10000 8.54 3 21:58 28.06.2022
649 Clouds 23 1022 72 10000 8.54 3 21:39 28.06.2022
650 Clouds 23 1022 70 10000 7.98 3 21:19 28.06.2022
651 Clouds 23 1022 70 10000 7.98 2 19:54 28.06.2022
652 Clouds 24 1022 69 10000 7.48 4 19:28 28.06.2022
653 Clouds 25 1022 69 10000 7.48 4 18:40 28.06.2022
654 Clouds 25 1022 68 10000 7.39 10 16:58 28.06.2022
655 Clouds 25 1022 68 10000 7.2 10 15:55 28.06.2022
656 Clouds 26 1022 69 10000 7 12 14:50 28.06.2022
657 Clouds 25 1023 70 10000 6.79 14 14:18 28.06.2022
658 Clouds 25 1023 70 10000 6.51 15 13:45 28.06.2022
659 Clouds 23 1023 72 10000 6.34 14 12:30 28.06.2022
660 Clouds 21 1022 78 10000 7.08 15 10:23 28.06.2022
661 Clouds 21 1021 77 10000 7.08 15 08:55 28.06.2022
662 Clouds 21 1021 77 10000 7.08 15 08:33 28.06.2022
663 Clouds 21 1021 79 10000 7.06 8 07:20 28.06.2022
664 Clouds 21 1021 75 10000 6.86 14 03:39 28.06.2022
665 Clouds 22 1023 78 10000 7.7 23 23:51 27.06.2022
666 Clouds 22 1022 77 10000 7.2 17 23:26 27.06.2022
667 Clouds 22 1022 75 10000 7.6 16 21:53 27.06.2022
668 Clouds 22 1021 74 10000 7.55 15 21:22 27.06.2022
669 Clouds 23 1021 74 10000 7.55 15 20:33 27.06.2022
670 Clouds 24 1021 70 10000 7.1 15 18:51 27.06.2022
671 Clouds 26 1021 70 10000 6.87 15 17:38 27.06.2022
672 Clouds 24 1021 69 10000 6.67 24 15:50 27.06.2022
673 Clouds 25 1022 68 10000 6.05 25 14:18 27.06.2022
674 Clouds 24 1022 70 10000 5.94 24 12:58 27.06.2022
675 Clouds 23 1022 72 10000 5.79 24 11:40 27.06.2022
676 Clouds 22 1021 69 10000 6.52 23 09:49 27.06.2022
677 Clouds 21 1020 70 10000 5.85 21 08:43 27.06.2022
678 Clouds 20 1020 75 10000 6.32 18 07:49 27.06.2022
679 Clouds 20 1019 71 10000 6.85 21 05:50 27.06.2022
680 Clouds 22 1020 75 10000 7.1 19 01:24 27.06.2022
681 Clouds 21 1019 80 10000 7.18 23 22:59 26.06.2022
682 Clouds 23 1019 79 10000 7.52 21 21:39 26.06.2022
683 Clouds 25 1018 79 10000 7.3 23 20:33 26.06.2022
684 Clouds 25 1018 75 10000 6.35 9 18:34 26.06.2022
685 Clouds 25 1018 71 10000 6.27 2 17:47 26.06.2022
686 Clouds 26 1018 66 10000 5.64 353 15:37 26.06.2022
687 Clouds 25 1019 69 10000 5.87 357 14:23 26.06.2022
688 Clouds 24 1019 71 10000 5.69 358 13:24 26.06.2022
689 Clouds 23 1019 71 10000 5.71 357 11:49 26.06.2022
690 Clouds 21 1019 71 10000 6.19 356 10:42 26.06.2022
691 Clouds 21 1018 73 10000 6.64 354 10:19 26.06.2022
692 Clouds 21 1017 80 10000 7.49 355 08:27 26.06.2022
693 Rain 21 1017 85 10000 7.45 358 06:31 26.06.2022
694 Clouds 22 1019 78 10000 6.97 356 00:37 26.06.2022
695 Clouds 22 1019 77 10000 7.31 354 00:19 26.06.2022
696 Clouds 22 1019 77 10000 7.31 354 23:31 25.06.2022
697 Clouds 22 1019 81 10000 7.59 352 22:48 25.06.2022
698 Clouds 22 1018 82 10000 7.92 352 22:25 25.06.2022
699 Clouds 23 1018 81 10000 8.13 354 21:21 25.06.2022
700 Clouds 23 1018 81 10000 8.13 354 20:48 25.06.2022
701 Clouds 24 1018 78 10000 7.71 354 20:25 25.06.2022
702 Clouds 24 1018 78 10000 7.71 354 20:25 25.06.2022
703 Clouds 25 1018 72 10000 6.47 348 18:24 25.06.2022
704 Clouds 26 1018 69 10000 5.49 348 17:27 25.06.2022
705 Clouds 24 1019 69 10000 5.67 357 16:28 25.06.2022
706 Clouds 25 1019 69 10000 6.62 2 14:41 25.06.2022
707 Clouds 25 1020 70 10000 7.18 2 12:51 25.06.2022
708 Clouds 24 1020 70 10000 7.18 2 12:31 25.06.2022
709 Clouds 21 1020 74 10000 7.04 1 09:35 25.06.2022
710 Clouds 21 1019 78 10000 7.03 359 08:54 25.06.2022
711 Clouds 21 1019 80 10000 6.38 353 08:20 25.06.2022
712 Clouds 21 1019 82 10000 5.7 352 06:36 25.06.2022
713 Rain 21 1021 81 10000 7.66 7 00:50 25.06.2022
714 Rain 22 1021 82 10000 7.31 8 23:57 24.06.2022
715 Clouds 22 1020 78 10000 7.16 1 22:28 24.06.2022
716 Clouds 22 1020 76 10000 7.23 2 21:26 24.06.2022
717 Clouds 24 1020 76 10000 7.12 2 20:23 24.06.2022
718 Clouds 24 1020 76 10000 6.92 0 19:24 24.06.2022
719 Clouds 24 1020 76 10000 6.92 0 18:51 24.06.2022
720 Clouds 24 1020 76 10000 6.92 0 18:31 24.06.2022
721 Clouds 25 1020 73 10000 6.33 355 17:49 24.06.2022
722 Clouds 25 1020 70 10000 5.99 358 16:45 24.06.2022
723 Clouds 25 1020 70 10000 5.99 358 16:45 24.06.2022
724 Clouds 25 1021 70 10000 5.7 2 14:30 24.06.2022
725 Clouds 25 1021 67 10000 5.81 5 13:58 24.06.2022
726 Clouds 25 1021 66 10000 6.01 5 12:49 24.06.2022
727 Clouds 24 1021 68 10000 5.47 9 11:40 24.06.2022
728 Clouds 22 1022 71 10000 5.04 15 10:34 24.06.2022
729 Clouds 21 1021 75 10000 5.01 18 09:41 24.06.2022
730 Clouds 21 1021 76 10000 5.03 15 08:53 24.06.2022
731 Clouds 21 1021 76 10000 5.03 15 08:53 24.06.2022
732 Clouds 21 1020 77 10000 4.94 19 07:39 24.06.2022
733 Clouds 21 1020 78 10000 5.2 13 06:42 24.06.2022
734 Clouds 21 1020 78 10000 5.38 7 06:18 24.06.2022
735 Clouds 21 1021 79 10000 5.75 8 03:47 24.06.2022
736 Clear 22 1022 70 10000 5.66 354 23:19 23.06.2022
737 Clear 22 1022 70 10000 5.66 354 22:40 23.06.2022
738 Clear 24 1020 67 10000 6.14 354 20:59 23.06.2022
739 Clear 24 1020 67 10000 6.14 354 20:35 23.06.2022
740 Clear 25 1020 64 10000 6.19 352 19:40 23.06.2022
741 Clear 25 1020 63 10000 5.63 5 17:53 23.06.2022
742 Clear 25 1020 64 10000 5.52 6 17:33 23.06.2022
743 Clear 25 1020 65 10000 5.07 10 16:23 23.06.2022
744 Clear 25 1020 65 10000 5.1 10 15:25 23.06.2022
745 Clouds 24 1020 64 10000 4.75 5 13:46 23.06.2022
746 Clouds 23 1020 68 10000 4.57 3 11:27 23.06.2022
747 Clouds 21 1020 68 10000 4.57 3 10:40 23.06.2022
748 Clouds 20 1019 76 10000 4.19 13 09:18 23.06.2022
749 Clouds 20 1018 77 10000 4.93 7 03:40 23.06.2022
750 Clouds 21 1019 70 10000 4.94 12 00:27 23.06.2022
751 Clouds 21 1019 70 10000 4.94 12 23:43 22.06.2022
752 Clouds 21 1019 70 10000 5.2 13 22:48 22.06.2022
753 Clouds 21 1019 70 10000 5.2 13 22:48 22.06.2022
754 Clouds 22 1018 70 10000 5.47 14 21:27 22.06.2022
755 Clouds 23 1018 70 10000 5.47 14 20:45 22.06.2022
756 Clouds 23 1018 68 10000 5.31 10 19:58 22.06.2022
757 Clouds 24 1018 67 10000 5.51 12 18:50 22.06.2022
758 Clouds 23 1019 64 10000 4.95 20 17:29 22.06.2022
759 Clouds 23 1019 64 10000 4.95 20 16:37 22.06.2022
760 Clouds 23 1019 67 10000 4.83 20 15:27 22.06.2022
761 Clouds 23 1019 67 10000 4.83 20 14:31 22.06.2022
762 Clouds 23 1020 66 10000 4.73 21 13:44 22.06.2022
763 Clouds 23 1020 68 10000 4.4 23 13:23 22.06.2022
764 Clouds 22 1020 71 10000 4.09 26 11:50 22.06.2022
765 Clouds 22 1020 71 10000 4.09 26 11:50 22.06.2022
766 Clouds 22 1020 73 10000 3.83 33 10:58 22.06.2022
767 Clouds 21 1020 74 10000 3.84 37 10:19 22.06.2022
768 Clouds 21 1019 74 10000 4.07 32 08:37 22.06.2022
769 Clouds 21 1018 75 10000 5.01 24 05:59 22.06.2022
770 Clouds 21 1020 74 10000 5.01 26 01:49 22.06.2022
771 Clouds 21 1020 74 10000 5.35 25 00:36 22.06.2022
772 Clouds 22 1020 73 10000 5.78 17 22:37 21.06.2022
773 Clouds 23 1019 73 10000 5.97 21 20:39 21.06.2022
774 Clouds 23 1018 74 10000 5.92 26 18:51 21.06.2022
775 Clouds 23 1019 75 10000 5.95 28 17:40 21.06.2022
776 Clouds 23 1019 79 10000 6.97 33 15:21 21.06.2022
777 Clouds 22 1019 76 10000 5.41 28 11:55 21.06.2022
778 Clouds 22 1018 75 10000 5.48 24 10:20 21.06.2022
779 Clouds 21 1017 76 10000 5.4 20 08:50 21.06.2022
780 Clouds 21 1017 80 10000 5.13 24 07:35 21.06.2022
781 Clouds 22 1018 79 10000 5.29 27 03:21 21.06.2022
782 Clouds 22 1017 81 10000 5.7 25 23:27 20.06.2022
783 Clouds 22 1017 80 10000 6.36 24 21:58 20.06.2022
784 Clouds 22 1017 80 10000 6.36 24 21:31 20.06.2022
785 Clouds 23 1016 79 10000 6.4 28 19:57 20.06.2022
786 Clouds 23 1016 79 10000 5.78 32 18:54 20.06.2022
787 Clouds 24 1017 79 10000 5.69 36 18:24 20.06.2022
788 Clouds 25 1017 79 10000 5.69 36 17:40 20.06.2022
789 Clouds 25 1017 78 10000 5.79 39 16:20 20.06.2022
790 Clouds 24 1018 77 10000 6.28 32 14:18 20.06.2022
791 Clouds 23 1017 78 10000 5.93 28 11:46 20.06.2022
792 Clouds 22 1017 83 10000 5.43 25 09:48 20.06.2022
793 Clouds 22 1016 85 10000 4.8 32 08:45 20.06.2022
794 Clouds 21 1016 85 10000 4.94 48 06:59 20.06.2022
795 Clouds 22 1016 84 10000 5.91 36 03:51 20.06.2022
796 Clouds 21 1018 81 10000 6.12 38 00:52 20.06.2022
797 Clouds 22 1017 80 10000 6.4 28 23:29 19.06.2022
798 Clouds 22 1016 80 10000 6.01 25 22:19 19.06.2022
799 Clouds 22 1016 80 10000 6.01 25 21:42 19.06.2022
800 Clouds 23 1016 79 10000 6.19 22 20:48 19.06.2022
801 Clouds 24 1015 81 10000 6.64 20 19:49 19.06.2022
802 Clouds 24 1015 78 10000 6.67 18 19:24 19.06.2022
803 Clouds 25 1015 78 10000 6.67 18 18:31 19.06.2022
804 Clouds 25 1015 77 10000 6.5 17 17:39 19.06.2022
805 Clouds 25 1016 75 10000 6.55 18 16:39 19.06.2022
806 Clouds 25 1016 73 10000 6.57 20 15:44 19.06.2022
807 Clouds 25 1017 73 10000 6.1 22 15:26 19.06.2022
808 Clouds 24 1016 72 10000 6.04 21 14:35 19.06.2022
809 Clouds 24 1017 72 10000 5.84 18 13:44 19.06.2022
810 Clouds 23 1017 75 10000 4.62 25 11:53 19.06.2022
811 Clouds 22 1017 79 10000 4.98 20 10:52 19.06.2022
812 Clouds 21 1017 83 10000 5.86 19 08:55 19.06.2022
813 Clouds 21 1017 83 10000 5.4 17 08:30 19.06.2022
814 Clouds 21 1016 83 10000 5.72 20 06:54 19.06.2022
815 Clouds 22 1017 81 10000 5.87 17 03:38 19.06.2022
816 Clouds 22 1018 84 10000 6.47 18 00:28 19.06.2022
817 Clouds 22 1018 84 10000 6.47 18 23:59 18.06.2022
818 Clouds 22 1018 84 10000 6.47 18 23:34 18.06.2022
819 Clouds 22 1018 83 10000 6.7 16 22:23 18.06.2022
820 Clouds 23 1017 80 10000 6.99 11 20:51 18.06.2022
821 Clouds 24 1017 77 10000 6.58 18 20:18 18.06.2022
822 Clouds 25 1017 76 10000 7.17 14 18:57 18.06.2022
823 Clouds 25 1017 76 10000 7.17 14 18:38 18.06.2022
824 Clouds 25 1018 74 10000 7.22 18 17:29 18.06.2022
825 Clouds 25 1018 72 10000 7.08 19 15:57 18.06.2022
826 Clouds 25 1019 72 10000 6.75 20 14:54 18.06.2022
827 Clouds 24 1019 72 10000 6.75 20 14:35 18.06.2022
828 Clouds 24 1020 72 10000 6.59 15 12:30 18.06.2022
829 Clouds 23 1020 75 10000 5.89 20 11:20 18.06.2022
830 Clouds 22 1019 77 10000 6.22 20 09:46 18.06.2022
831 Clouds 21 1019 79 10000 6.15 27 08:46 18.06.2022
832 Clouds 21 1019 80 10000 6.61 30 07:34 18.06.2022
833 Clouds 21 1018 82 10000 7.18 17 05:20 18.06.2022
834 Clouds 22 1019 83 10000 7.6 16 01:50 18.06.2022
835 Clouds 22 1019 82 10000 7.56 14 01:21 18.06.2022
836 Clouds 22 1020 82 10000 7.72 16 00:23 18.06.2022
837 Clouds 22 1020 82 10000 7.72 16 00:23 18.06.2022
838 Clouds 22 1020 82 10000 7.72 16 23:37 17.06.2022
839 Clouds 23 1019 83 10000 7.36 15 22:29 17.06.2022
840 Clouds 24 1017 80 10000 6.85 14 20:29 17.06.2022
841 Clouds 25 1018 78 10000 6.81 12 19:24 17.06.2022
842 Clouds 26 1018 76 10000 6.7 14 17:58 17.06.2022
843 Clouds 27 1018 75 10000 6.58 19 16:50 17.06.2022
844 Clear 26 1018 73 10000 6.46 19 16:25 17.06.2022
845 Clear 27 1018 73 10000 6.46 19 15:40 17.06.2022
846 Clouds 25 1019 73 10000 6.29 20 14:23 17.06.2022
847 Clouds 24 1019 73 10000 6.29 20 13:58 17.06.2022
848 Clouds 25 1019 72 10000 6.13 19 13:38 17.06.2022
849 Clouds 24 1019 75 10000 6.19 19 12:28 17.06.2022
850 Clouds 24 1019 75 10000 6.19 19 11:55 17.06.2022
851 Clouds 23 1019 75 10000 6.19 19 11:33 17.06.2022
852 Clouds 21 1018 78 10000 6.37 25 09:36 17.06.2022
853 Clouds 21 1017 83 10000 6.4 18 08:26 17.06.2022
854 Clouds 21 1017 83 10000 6.15 15 06:45 17.06.2022
855 Clouds 21 1018 81 10000 6.16 12 03:59 17.06.2022
856 Clouds 21 1020 82 10000 7.13 14 01:56 17.06.2022
857 Clouds 22 1020 82 10000 6.4 16 23:35 16.06.2022
858 Clouds 22 1019 82 10000 6.43 13 22:42 16.06.2022
859 Clouds 23 1018 77 10000 6.4 10 21:22 16.06.2022
860 Clouds 24 1018 77 10000 6.4 10 20:52 16.06.2022
861 Clouds 24 1018 77 10000 6.4 10 20:33 16.06.2022
862 Clouds 24 1018 75 10000 6.42 12 19:32 16.06.2022
863 Clouds 25 1018 74 10000 6.59 17 18:24 16.06.2022
864 Clouds 25 1018 74 10000 6.59 17 17:42 16.06.2022
865 Clouds 26 1018 73 10000 6.04 22 16:33 16.06.2022
866 Clouds 25 1019 72 10000 5.01 27 15:22 16.06.2022
867 Clouds 25 1019 72 10000 5.01 27 14:30 16.06.2022
868 Clear 25 1019 72 10000 5.25 7 13:19 16.06.2022
869 Clear 24 1019 72 10000 5.25 7 12:35 16.06.2022
870 Clear 24 1019 72 10000 5.56 359 11:49 16.06.2022
871 Clear 22 1020 73 10000 6.11 355 10:51 16.06.2022
872 Clear 22 1020 75 10000 6.25 354 09:43 16.06.2022
873 Clear 21 1019 77 10000 5.74 350 09:20 16.06.2022
874 Clouds 21 1019 78 10000 5.76 351 07:57 16.06.2022
875 Clouds 21 1018 78 10000 6 357 07:24 16.06.2022
876 Clouds 21 1019 79 10000 6.6 354 04:33 16.06.2022
877 Clouds 21 1020 81 10000 6.28 356 01:54 16.06.2022
878 Clouds 22 1020 81 10000 6.28 356 01:34 16.06.2022
879 Clouds 22 1020 83 10000 6.28 358 00:36 16.06.2022
880 Clear 22 1019 82 10000 5.83 350 23:25 15.06.2022
881 Clear 23 1019 78 10000 5.82 347 22:28 15.06.2022
882 Clear 24 1018 74 10000 6.14 347 21:21 15.06.2022
883 Clear 25 1018 74 10000 6.14 347 20:38 15.06.2022
884 Clear 25 1018 71 10000 6.52 348 20:19 15.06.2022
885 Clear 27 1017 69 10000 6.23 356 18:51 15.06.2022
886 Clear 27 1017 68 10000 6.14 355 17:55 15.06.2022
887 Clear 26 1018 68 10000 6.06 349 16:38 15.06.2022
888 Clear 26 1019 66 10000 6.35 346 15:26 15.06.2022
889 Clear 26 1019 65 10000 6.34 343 13:43 15.06.2022
890 Clear 26 1018 64 10000 6.12 341 12:53 15.06.2022
891 Clear 23 1018 65 10000 5.46 335 11:42 15.06.2022
892 Clear 22 1018 74 10000 5.33 332 10:23 15.06.2022
893 Clear 21 1018 74 10000 5.33 332 09:38 15.06.2022
894 Clouds 19 1018 79 10000 3.86 342 08:27 15.06.2022
895 Clouds 20 1017 79 10000 3.68 0 06:33 15.06.2022
896 Clouds 21 1017 77 10000 3.65 17 03:30 15.06.2022
897 Clear 21 1018 79 10000 4.56 21 01:38 15.06.2022
898 Clear 21 1018 79 10000 4.97 7 00:50 15.06.2022
899 Clear 22 1017 77 10000 5.46 348 23:39 14.06.2022
900 Clear 22 1016 74 10000 5.58 340 22:52 14.06.2022
901 Clear 23 1016 72 10000 5.69 343 21:53 14.06.2022
902 Clear 23 1015 68 10000 5.91 341 21:27 14.06.2022
903 Clear 24 1015 68 10000 5.91 341 20:48 14.06.2022
904 Clear 24 1015 67 10000 6.01 344 20:28 14.06.2022
905 Clear 25 1015 65 10000 5.89 346 18:45 14.06.2022
906 Clear 24 1016 65 10000 5.31 352 17:29 14.06.2022
907 Clear 25 1016 65 10000 5.31 352 16:43 14.06.2022
908 Clear 25 1016 64 10000 5.82 349 15:49 14.06.2022
909 Clear 25 1016 64 10000 5.82 349 15:49 14.06.2022
910 Clear 24 1016 65 10000 5.95 348 14:57 14.06.2022
911 Clouds 24 1016 66 10000 5.51 346 14:23 14.06.2022
912 Clouds 24 1016 66 10000 5.51 348 13:39 14.06.2022
913 Clouds 25 1016 69 10000 3.94 335 12:27 14.06.2022
914 Clouds 23 1016 71 10000 3.12 339 11:28 14.06.2022
915 Clouds 22 1016 71 10000 3.12 339 10:35 14.06.2022
916 Clouds 21 1016 75 10000 2.92 336 09:45 14.06.2022
917 Clouds 21 1016 78 10000 3.47 339 08:45 14.06.2022
918 Clouds 21 1015 79 10000 3.74 1 07:26 14.06.2022
919 Clouds 21 1015 79 10000 3.74 1 07:26 14.06.2022
920 Clouds 21 1016 83 10000 4.06 19 04:44 14.06.2022
921 Clouds 21 1017 84 10000 4.91 7 02:45 14.06.2022
922 Clouds 22 1017 82 10000 5.78 344 00:27 14.06.2022
923 Clouds 22 1016 81 10000 5.66 342 23:18 13.06.2022
924 Clouds 22 1016 79 10000 5.09 344 22:25 13.06.2022
925 Clouds 23 1016 79 10000 5.09 344 21:48 13.06.2022
926 Clouds 24 1016 75 10000 5.51 348 20:23 13.06.2022
927 Clouds 24 1016 75 10000 5.51 348 19:34 13.06.2022
928 Clouds 24 1016 73 10000 5.17 358 17:57 13.06.2022
929 Clouds 25 1016 73 10000 5.17 358 17:36 13.06.2022
930 Clear 25 1016 74 10000 4.58 7 16:40 13.06.2022
931 Clear 24 1017 73 10000 4.66 11 15:37 13.06.2022
932 Clear 24 1017 73 10000 4.51 15 14:42 13.06.2022
933 Clouds 24 1018 72 10000 3.92 17 13:46 13.06.2022
934 Clouds 23 1018 72 10000 3.81 20 12:31 13.06.2022
935 Clouds 22 1017 75 10000 4.23 353 11:25 13.06.2022
936 Clouds 21 1017 79 10000 4.06 356 10:26 13.06.2022
937 Clouds 21 1017 79 10000 4.06 356 09:31 13.06.2022
938 Clouds 21 1017 82 10000 4.49 348 07:38 13.06.2022
939 Clouds 21 1017 83 10000 4.29 1 05:42 13.06.2022
940 Clouds 21 1018 84 10000 5.01 4 02:50 13.06.2022
941 Clouds 21 1018 83 10000 5.3 353 01:37 13.06.2022
942 Clouds 21 1018 81 10000 6.07 341 00:18 13.06.2022
943 Clouds 21 1018 81 10000 5.92 342 23:24 12.06.2022
944 Clouds 22 1017 78 10000 6.1 343 22:22 12.06.2022
945 Clouds 23 1017 78 10000 6.33 341 21:22 12.06.2022
946 Clouds 24 1017 77 10000 6.03 348 20:29 12.06.2022
947 Clouds 24 1017 77 10000 6.03 348 19:30 12.06.2022
948 Clouds 25 1017 76 10000 5.32 360 17:53 12.06.2022
949 Clouds 25 1018 76 10000 4.8 6 16:24 12.06.2022
950 Clouds 25 1018 76 10000 4.93 11 14:58 12.06.2022
951 Clouds 24 1019 76 10000 5.04 13 14:23 12.06.2022
952 Clouds 24 1019 76 10000 5.19 18 13:55 12.06.2022
953 Clouds 25 1019 76 10000 5.58 9 12:40 12.06.2022
954 Clouds 23 1019 75 10000 6.13 360 11:40 12.06.2022
955 Clouds 22 1018 76 10000 6.41 352 10:38 12.06.2022
956 Clouds 21 1018 84 10000 6.43 341 09:19 12.06.2022
957 Clouds 21 1018 84 10000 6.43 341 08:45 12.06.2022
958 Clouds 21 1017 85 10000 6.55 344 07:33 12.06.2022
959 Clouds 21 1017 86 10000 6.2 347 04:52 12.06.2022
960 Clouds 21 1018 85 10000 6.21 353 03:24 12.06.2022
961 Clouds 21 1018 84 10000 6.47 347 01:42 12.06.2022
962 Clouds 22 1018 83 10000 6.53 347 00:58 12.06.2022
963 Clouds 22 1018 83 10000 6.48 345 00:21 12.06.2022
964 Clouds 22 1018 83 10000 6.48 345 23:44 11.06.2022
965 Clouds 22 1017 82 10000 6.25 345 22:39 11.06.2022
966 Clouds 23 1017 81 10000 5.97 345 21:53 11.06.2022
967 Clouds 24 1017 77 10000 6.29 351 20:38 11.06.2022
968 Clouds 24 1016 75 10000 6.45 351 19:59 11.06.2022
969 Clouds 25 1016 76 10000 6.15 347 19:26 11.06.2022
970 Clouds 26 1016 76 10000 6.15 347 18:34 11.06.2022
971 Clouds 26 1016 75 10000 6.41 349 17:51 11.06.2022
972 Clouds 26 1017 75 10000 6.41 351 17:28 11.06.2022
973 Clouds 26 1017 75 10000 6.41 351 16:57 11.06.2022
974 Clouds 26 1017 75 10000 6.41 351 16:30 11.06.2022
975 Clouds 26 1017 75 10000 6.37 351 15:43 11.06.2022
976 Clouds 25 1017 76 10000 6.86 345 13:53 11.06.2022
977 Clouds 24 1018 76 10000 7.08 345 12:57 11.06.2022
978 Clouds 22 1017 79 10000 7.53 340 10:54 11.06.2022
979 Clouds 21 1017 82 10000 7.49 340 09:55 11.06.2022
980 Clouds 21 1017 86 10000 7.33 340 09:19 11.06.2022
981 Clouds 21 1017 88 10000 7 341 07:43 11.06.2022
982 Clouds 21 1017 86 10000 7.06 343 06:30 11.06.2022
983 Clouds 21 1017 84 10000 7 342 04:49 11.06.2022
984 Clouds 22 1018 85 10000 6.49 347 01:53 11.06.2022
985 Clouds 22 1018 85 10000 6.49 347 01:33 11.06.2022
986 Clouds 22 1019 84 10000 7.07 343 00:20 11.06.2022
987 Clouds 22 1018 84 10000 6.95 339 22:32 10.06.2022
988 Clouds 22 1018 82 10000 7.03 342 21:52 10.06.2022
989 Clouds 24 1018 77 10000 7.44 345 20:42 10.06.2022
990 Clouds 24 1017 76 10000 7.71 347 20:22 10.06.2022
991 Clouds 25 1017 73 10000 7.28 345 19:20 10.06.2022
992 Clouds 26 1017 73 10000 7.28 345 18:56 10.06.2022
993 Clouds 26 1018 72 10000 7.22 347 17:59 10.06.2022
994 Clouds 26 1018 72 10000 7.22 347 17:35 10.06.2022
995 Clouds 26 1018 71 10000 6.99 349 16:51 10.06.2022
996 Clouds 26 1018 71 10000 6.9 351 15:45 10.06.2022
997 Clouds 26 1019 72 10000 6.64 352 14:57 10.06.2022
998 Clouds 25 1019 72 10000 6.62 354 13:36 10.06.2022
999 Clouds 24 1019 74 10000 6.86 353 12:21 10.06.2022
1000 Clouds 23 1019 74 10000 6.86 353 11:30 10.06.2022
1001 Clouds 22 1019 75 10000 6.88 351 10:36 10.06.2022
1002 Clouds 21 1018 78 10000 7.04 351 09:37 10.06.2022
1003 Clouds 20 1018 85 10000 7.11 350 07:58 10.06.2022
1004 Clouds 20 1017 84 10000 6.92 347 06:50 10.06.2022
1005 Clouds 21 1017 84 10000 6.92 347 06:31 10.06.2022
1006 Clouds 21 1017 85 10000 6.61 349 05:34 10.06.2022
1007 Clouds 22 1019 86 10000 6.88 354 02:50 10.06.2022
1008 Clouds 22 1019 87 10000 6.33 356 01:37 10.06.2022
1009 Clouds 22 1019 86 10000 6.54 1 23:58 09.06.2022
1010 Clouds 22 1019 86 10000 6.59 2 22:43 09.06.2022
1011 Clouds 23 1019 86 10000 6.26 1 21:46 09.06.2022
1012 Clouds 24 1019 84 10000 6.17 0 21:28 09.06.2022
1013 Clouds 25 1019 84 10000 6.17 0 20:40 09.06.2022
1014 Clouds 25 1018 81 10000 6.68 4 19:51 09.06.2022
1015 Clouds 26 1018 79 10000 6.31 3 18:41 09.06.2022
1016 Clouds 26 1018 77 10000 6.23 2 17:55 09.06.2022
1017 Clouds 26 1019 75 10000 6.02 359 16:28 09.06.2022
1018 Clouds 26 1019 75 10000 6.02 359 15:40 09.06.2022
1019 Clouds 25 1019 74 10000 5.6 358 14:33 09.06.2022
1020 Clouds 26 1019 77 10000 6.03 11 13:44 09.06.2022
1021 Clouds 26 1019 80 10000 6.18 10 13:20 09.06.2022
1022 Clouds 24 1019 80 10000 6.3 9 11:43 09.06.2022
1023 Clouds 23 1019 81 10000 6.72 10 10:34 09.06.2022
1024 Clouds 21 1019 83 10000 6.57 6 09:38 09.06.2022
1025 Clouds 21 1019 85 10000 6.41 8 09:20 09.06.2022
1026 Clouds 21 1019 87 10000 6.6 15 07:29 09.06.2022
1027 Clouds 21 1019 89 10000 6.31 17 04:47 09.06.2022
1028 Clouds 22 1021 88 10000 5.19 10 00:36 09.06.2022
1029 Clouds 22 1020 82 10000 4.77 7 23:23 08.06.2022
1030 Clouds 22 1020 82 10000 4.77 7 22:44 08.06.2022
1031 Clouds 23 1019 78 10000 4.67 11 22:24 08.06.2022
1032 Clouds 25 1019 78 10000 4.67 11 21:40 08.06.2022
1033 Clouds 26 1019 72 10000 5.09 9 20:25 08.06.2022
1034 Clouds 26 1019 72 10000 5.07 3 19:46 08.06.2022
1035 Clouds 27 1019 72 10000 5.17 7 18:48 08.06.2022
1036 Clouds 27 1019 72 10000 5.13 11 17:48 08.06.2022
1037 Clouds 25 1020 77 10000 5.9 23 16:18 08.06.2022
1038 Clouds 25 1020 78 10000 6.44 24 14:46 08.06.2022
1039 Clouds 24 1021 76 10000 5.56 21 12:55 08.06.2022
1040 Clouds 24 1021 76 10000 5.56 21 12:55 08.06.2022
1041 Clouds 22 1021 75 10000 5.5 26 11:41 08.06.2022
1042 Clouds 22 1020 78 10000 5.86 28 11:19 08.06.2022
1043 Clouds 21 1020 82 10000 6.25 29 09:45 08.06.2022
1044 Clouds 21 1020 84 10000 6.95 24 09:18 08.06.2022
1045 Clouds 20 1019 85 10000 6.74 20 07:22 08.06.2022
1046 Clouds 20 1019 87 10000 6.73 23 04:49 08.06.2022
1047 Clouds 21 1021 87 10000 5.8 20 02:19 08.06.2022
1048 Clear 21 1021 85 10000 5.71 13 23:41 07.06.2022
1049 Clear 21 1021 85 10000 5.86 10 23:22 07.06.2022
1050 Clear 22 1021 85 10000 5.86 10 22:38 07.06.2022
1051 Clear 22 1020 81 10000 5.77 13 21:41 07.06.2022
1052 Clear 23 1020 76 10000 5.98 14 21:23 07.06.2022
1053 Clear 23 1020 76 10000 6.06 12 20:42 07.06.2022
1054 Clear 24 1020 73 10000 6.14 15 19:58 07.06.2022
1055 Clear 25 1019 69 10000 6.21 17 18:38 07.06.2022
1056 Clear 26 1020 69 10000 5.82 23 17:51 07.06.2022
1057 Clear 27 1020 68 10000 6.02 23 16:49 07.06.2022
1058 Clear 27 1020 68 10000 6.02 23 16:31 07.06.2022
1059 Clear 25 1020 67 10000 6.33 23 15:38 07.06.2022
1060 Clear 25 1021 68 10000 6.07 25 15:19 07.06.2022
1061 Clear 26 1021 68 10000 6.07 25 14:44 07.06.2022
1062 Clouds 24 1021 68 10000 6.12 22 13:42 07.06.2022
1063 Clouds 24 1021 70 10000 5.98 24 13:42 07.06.2022
1064 Clouds 24 1021 71 10000 6.51 20 13:23 07.06.2022
1065 Clouds 23 1021 73 10000 6.7 19 11:56 07.06.2022
1066 Clouds 21 1021 77 10000 6.7 14 10:53 07.06.2022
1067 Clouds 20 1021 82 10000 6.67 17 09:26 07.06.2022
1068 Clouds 20 1020 83 10000 6.35 14 08:28 07.06.2022
1069 Clouds 20 1020 83 10000 6.24 18 07:19 07.06.2022
1070 Clouds 20 1020 83 10000 6.52 17 04:52 07.06.2022
1071 Clouds 21 1022 82 10000 6.29 20 01:43 07.06.2022
1072 Clouds 21 1023 81 10000 6.21 19 23:59 06.06.2022
1073 Clouds 21 1022 81 10000 6.27 17 22:59 06.06.2022
1074 Clouds 21 1022 81 10000 6.27 17 22:30 06.06.2022
1075 Clouds 22 1021 78 10000 6.61 20 21:28 06.06.2022
1076 Clouds 24 1020 74 10000 6.74 21 19:29 06.06.2022
1077 Clouds 24 1020 74 10000 6.74 21 18:59 06.06.2022
1078 Clouds 24 1020 74 10000 6.74 21 18:32 06.06.2022
1079 Clouds 25 1020 72 10000 6.4 21 17:31 06.06.2022
1080 Clouds 24 1021 71 10000 6.57 23 16:21 06.06.2022
1081 Clouds 24 1021 71 10000 6.58 26 15:33 06.06.2022
1082 Clouds 24 1022 71 10000 6.68 27 14:36 06.06.2022
1083 Clouds 23 1022 72 10000 7.21 23 13:27 06.06.2022
1084 Clouds 23 1022 72 10000 7.21 23 12:37 06.06.2022
1085 Clouds 22 1022 73 10000 6.89 24 11:54 06.06.2022
1086 Clouds 22 1022 74 10000 6.6 25 10:46 06.06.2022
1087 Clouds 21 1021 76 10000 6.84 21 09:40 06.06.2022
1088 Clouds 21 1021 78 10000 6.85 16 08:33 06.06.2022
1089 Clouds 20 1020 76 10000 6.9 19 07:28 06.06.2022
1090 Clouds 21 1021 76 10000 6.79 25 05:29 06.06.2022
1091 Clouds 21 1022 76 10000 6.94 22 03:44 06.06.2022
1092 Clouds 21 1023 76 10000 6.6 22 01:23 06.06.2022
1093 Clouds 21 1023 76 10000 6.6 22 00:42 06.06.2022
1094 Clouds 21 1023 75 10000 6.52 24 23:43 05.06.2022
1095 Clouds 21 1022 75 10000 6.59 23 22:47 05.06.2022
1096 Clouds 23 1021 72 10000 7.07 20 20:57 05.06.2022
1097 Clouds 23 1021 71 10000 7.13 21 19:44 05.06.2022
1098 Clouds 24 1021 70 10000 6.99 21 18:30 05.06.2022
1099 Clouds 24 1021 70 10000 6.99 21 18:30 05.06.2022
1100 Clouds 25 1021 67 10000 7 20 17:55 05.06.2022
1101 Clouds 25 1021 66 10000 7 20 17:26 05.06.2022
1102 Clouds 25 1021 66 10000 7 20 16:52 05.06.2022
1103 Clouds 25 1021 66 10000 7 20 16:34 05.06.2022
1104 Clouds 25 1022 66 10000 6.92 26 14:27 05.06.2022
1105 Clouds 24 1022 65 10000 6.46 28 12:57 05.06.2022
1106 Clouds 23 1022 67 10000 6.28 26 11:47 05.06.2022
1107 Clouds 21 1022 69 10000 6.38 25 10:38 05.06.2022
1108 Clouds 21 1021 71 10000 6.33 26 10:20 05.06.2022
1109 Clouds 20 1021 72 10000 6.21 27 08:34 05.06.2022
1110 Clouds 20 1021 73 10000 6.21 27 07:48 05.06.2022
1111 Clouds 20 1021 73 10000 6.24 24 05:22 05.06.2022
1112 Clouds 21 1021 73 10000 6.62 23 04:19 05.06.2022
1113 Clouds 21 1022 73 10000 6.99 18 01:32 05.06.2022
1114 Clouds 21 1022 73 10000 6.99 18 01:32 05.06.2022
1115 Clouds 21 1022 74 10000 7.15 15 00:39 05.06.2022
1116 Clouds 21 1022 73 10000 7.06 11 22:36 04.06.2022
1117 Clouds 23 1020 70 10000 6.87 15 20:33 04.06.2022
1118 Clouds 24 1020 66 10000 7.02 19 18:45 04.06.2022
1119 Clouds 24 1021 68 10000 5.9 25 16:47 04.06.2022
1120 Clouds 25 1021 67 10000 5.97 26 16:18 04.06.2022
1121 Clouds 24 1021 67 10000 6.06 26 14:53 04.06.2022
1122 Clouds 23 1021 68 10000 6.22 27 12:38 04.06.2022
1123 Clouds 22 1020 67 10000 5.87 24 11:19 04.06.2022
1124 Clouds 22 1020 67 10000 5.87 24 10:44 04.06.2022
1125 Clouds 21 1020 68 10000 5.74 21 09:44 04.06.2022
1126 Clouds 20 1020 72 10000 5.27 19 08:43 04.06.2022
1127 Clouds 20 1020 76 10000 5.73 16 07:41 04.06.2022
1128 Clouds 20 1019 77 10000 6.45 15 05:29 04.06.2022
1129 Clouds 21 1020 77 10000 5.41 15 01:42 04.06.2022
1130 Clouds 22 1020 78 10000 5.76 15 23:59 03.06.2022
1131 Clouds 22 1020 79 10000 5.93 15 22:40 03.06.2022
1132 Clear 23 1020 78 10000 5.91 12 21:39 03.06.2022
1133 Clear 24 1019 75 10000 6.26 2 20:37 03.06.2022
1134 Clear 24 1019 75 10000 6.26 2 20:37 03.06.2022
1135 Clear 25 1018 67 10000 6.39 360 18:41 03.06.2022
1136 Clear 24 1019 64 10000 5.51 357 16:49 03.06.2022
1137 Clear 25 1019 65 10000 5.14 355 15:37 03.06.2022
1138 Clouds 24 1020 67 10000 4.39 357 13:28 03.06.2022
1139 Clouds 23 1020 67 10000 4.84 357 11:50 03.06.2022
1140 Clouds 21 1019 73 10000 5.86 353 09:50 03.06.2022
1141 Clouds 21 1019 73 10000 5.86 353 09:50 03.06.2022
1142 Clouds 20 1019 78 10000 6.05 352 09:28 03.06.2022
1143 Clouds 20 1018 82 10000 4.53 354 07:27 03.06.2022
1144 Clouds 21 1018 82 10000 4.53 354 06:44 03.06.2022
1145 Clouds 21 1018 80 10000 4.67 351 06:26 03.06.2022
1146 Clear 21 1019 76 10000 4.65 348 01:23 03.06.2022
1147 Clear 22 1019 73 10000 4.5 353 23:31 02.06.2022
1148 Clouds 22 1019 69 10000 5.03 347 21:57 02.06.2022
1149 Clouds 24 1018 69 10000 5.47 353 20:25 02.06.2022
1150 Clouds 25 1018 69 10000 5.47 353 19:52 02.06.2022
1151 Clouds 25 1018 69 10000 5.47 353 19:33 02.06.2022
1152 Clouds 25 1017 72 10000 6.1 354 17:58 02.06.2022
1153 Clouds 26 1018 71 10000 5.49 356 16:28 02.06.2022
1154 Clouds 25 1018 71 10000 5.06 357 14:34 02.06.2022
1155 Clouds 26 1019 72 10000 4.74 3 13:30 02.06.2022
1156 Clouds 25 1019 72 10000 4.46 5 12:40 02.06.2022
1157 Clouds 23 1018 78 10000 5.2 354 10:20 02.06.2022
1158 Clouds 21 1018 81 10000 5.14 353 09:28 02.06.2022
1159 Clouds 21 1018 81 10000 4.49 353 08:28 02.06.2022
1160 Clouds 20 1017 82 10000 4.43 355 07:34 02.06.2022
1161 Clouds 20 1017 75 10000 4.23 347 05:29 02.06.2022
1162 Clouds 21 1017 74 10000 4.01 349 03:45 02.06.2022
1163 Clouds 22 1019 73 10000 2.1 23 23:55 01.06.2022
1164 Clouds 22 1019 73 10000 2.02 34 22:54 01.06.2022
1165 Clouds 23 1018 72 10000 2.25 23 21:39 01.06.2022
1166 Clouds 23 1018 71 10000 2.86 16 21:20 01.06.2022
1167 Clouds 23 1018 71 10000 2.86 16 20:37 01.06.2022
1168 Clouds 24 1017 72 10000 2.94 32 19:48 01.06.2022
1169 Clouds 24 1017 69 10000 3 30 17:57 01.06.2022
1170 Clouds 24 1017 68 10000 2.67 27 16:41 01.06.2022
1171 Clouds 24 1017 67 10000 2.3 22 15:37 01.06.2022
1172 Clouds 24 1018 68 10000 2.86 359 13:57 01.06.2022
1173 Clouds 24 1017 73 10000 3.43 0 12:29 01.06.2022
1174 Clouds 22 1017 82 10000 3.19 355 10:25 01.06.2022
1175 Clouds 21 1016 84 10000 2.76 352 09:25 01.06.2022
1176 Clouds 21 1015 86 10000 2.16 351 07:25 01.06.2022
1177 Clouds 21 1015 86 10000 2.16 351 06:40 01.06.2022
1178 Clear 22 1017 83 10000 1.04 194 01:29 01.06.2022
1179 Clear 22 1017 81 10000 1.8 162 23:41 31.05.2022
1180 Clear 23 1016 79 10000 2.5 149 22:37 31.05.2022
1181 Clouds 23 1015 79 10000 2.26 156 21:46 31.05.2022
1182 Clouds 24 1015 77 10000 1.18 197 20:46 31.05.2022
1183 Clear 24 1014 75 10000 0.9 334 20:23 31.05.2022
1184 Clear 24 1014 71 10000 1.47 334 18:54 31.05.2022
1185 Clear 25 1014 71 10000 1.26 349 17:51 31.05.2022
1186 Clear 25 1014 70 10000 1.53 4 17:20 31.05.2022
1187 Clear 26 1014 70 10000 1.46 11 15:41 31.05.2022
1188 Clear 26 1014 69 10000 1.65 355 14:33 31.05.2022
1189 Clear 26 1014 72 10000 1.6 64 12:22 31.05.2022
1190 Clear 23 1014 74 10000 1.38 85 11:23 31.05.2022
1191 Clear 21 1014 78 10000 1.62 93 09:31 31.05.2022
1192 Clear 19 1012 84 10000 2.13 118 07:28 31.05.2022
1193 Clear 20 1012 84 10000 1.83 149 05:24 31.05.2022
1194 Clear 21 1014 82 10000 1.79 158 01:41 31.05.2022
1195 Clear 22 1013 80 10000 0.28 296 23:29 30.05.2022
1196 Clear 22 1013 80 10000 0.28 296 22:57 30.05.2022
1197 Clear 22 1012 77 10000 1.01 34 22:21 30.05.2022
1198 Clear 23 1012 77 10000 1.01 34 21:34 30.05.2022
1199 Clear 24 1011 70 10000 2.47 17 20:20 30.05.2022
1200 Clear 26 1011 68 10000 2.52 2 18:41 30.05.2022
1201 Clear 26 1011 65 10000 1.72 350 17:38 30.05.2022
1202 Clear 27 1012 64 10000 0.34 292 16:44 30.05.2022
1203 Clear 26 1013 63 10000 1.38 154 14:51 30.05.2022
1204 Clouds 23 1013 69 10000 1.75 176 12:29 30.05.2022
1205 Clouds 22 1014 71 10000 1.47 204 10:46 30.05.2022
1206 Clouds 20 1014 74 10000 1.37 197 09:39 30.05.2022
1207 Clouds 19 1013 83 10000 3.11 157 07:23 30.05.2022
1208 Clouds 20 1013 82 10000 2.25 157 05:50 30.05.2022
1209 Clouds 21 1015 75 10000 2.34 146 02:24 30.05.2022
1210 Clouds 21 1016 73 10000 0.29 41 23:21 29.05.2022
1211 Clouds 21 1016 73 10000 0.29 41 22:38 29.05.2022
1212 Clouds 21 1015 66 10000 0.85 356 20:57 29.05.2022
1213 Clouds 21 1015 65 10000 1.18 350 19:34 29.05.2022
1214 Clouds 21 1015 64 10000 1.34 1 18:59 29.05.2022
1215 Clouds 22 1015 63 10000 1.58 7 17:31 29.05.2022
1216 Clear 22 1016 61 10000 1.89 358 15:48 29.05.2022
1217 Clear 22 1016 60 10000 1.52 8 15:23 29.05.2022
1218 Clouds 22 1016 60 10000 1.52 2 14:18 29.05.2022
1219 Clouds 22 1017 62 10000 2.02 339 11:48 29.05.2022
1220 Clouds 22 1017 64 10000 2 330 10:40 29.05.2022
1221 Clouds 20 1016 68 10000 2.37 325 09:31 29.05.2022
1222 Clouds 21 1016 75 10000 2.73 327 06:24 29.05.2022
1223 Clouds 21 1016 75 10000 3.67 334 04:45 29.05.2022
1224 Clouds 21 1017 75 10000 3.73 332 03:53 29.05.2022
1225 Clouds 22 1018 75 10000 4.31 341 23:53 28.05.2022
1226 Clouds 22 1018 75 10000 4.31 341 23:34 28.05.2022
1227 Clouds 22 1017 74 10000 4.17 345 22:40 28.05.2022
1228 Clouds 22 1017 74 10000 4.48 342 21:38 28.05.2022
1229 Clouds 22 1016 71 10000 5.25 345 19:51 28.05.2022
1230 Clouds 22 1016 69 10000 4.66 348 18:58 28.05.2022
1231 Clouds 23 1016 68 10000 4.79 353 17:38 28.05.2022
1232 Clouds 23 1017 67 10000 4.83 353 16:50 28.05.2022
1233 Clouds 23 1017 66 10000 4.74 354 15:43 28.05.2022
1234 Clouds 23 1018 66 10000 4.12 353 14:28 28.05.2022
1235 Clouds 22 1018 66 10000 3.51 348 12:57 28.05.2022
1236 Clouds 22 1018 66 10000 3.51 348 12:35 28.05.2022
1237 Clouds 21 1018 69 10000 3.17 349 11:22 28.05.2022
1238 Clouds 21 1018 71 10000 3.25 338 09:59 28.05.2022
1239 Clouds 21 1017 75 10000 3.68 347 09:22 28.05.2022
1240 Clouds 20 1017 78 10000 4.07 344 07:23 28.05.2022
1241 Clouds 20 1017 79 10000 4.25 351 05:48 28.05.2022
1242 Clouds 20 1018 80 10000 4.87 353 02:52 28.05.2022
1243 Clear 20 1018 77 10000 5.41 349 00:33 28.05.2022
1244 Clear 21 1018 76 10000 5.62 348 23:32 27.05.2022
1245 Clear 21 1017 74 10000 6.34 343 21:50 27.05.2022
1246 Clear 22 1017 71 10000 6.27 344 20:56 27.05.2022
1247 Clear 23 1017 68 10000 6.07 351 20:25 27.05.2022
1248 Clear 24 1017 68 10000 6.07 351 19:48 27.05.2022
1249 Clear 24 1016 66 10000 6.17 349 19:29 27.05.2022
1250 Clear 23 1017 64 10000 6.24 349 17:58 27.05.2022
1251 Clear 24 1017 65 10000 6.19 349 16:40 27.05.2022
1252 Clear 23 1018 67 10000 5.48 358 15:33 27.05.2022
1253 Clouds 24 1019 67 10000 4.44 7 14:26 27.05.2022
1254 Clouds 23 1019 66 10000 4.38 3 13:18 27.05.2022
1255 Clouds 22 1019 69 10000 4.19 2 11:34 27.05.2022
1256 Clouds 21 1019 73 10000 4.3 4 10:56 27.05.2022
1257 Clouds 21 1019 73 10000 4.3 4 10:31 27.05.2022
1258 Clouds 19 1019 75 10000 4.22 6 09:37 27.05.2022
1259 Clouds 19 1017 80 10000 4.62 1 07:55 27.05.2022
1260 Clouds 19 1016 80 10000 5.75 357 05:44 27.05.2022
1261 Clouds 20 1018 80 10000 5.28 7 02:26 27.05.2022
1262 Clouds 20 1019 77 10000 5.27 7 00:29 27.05.2022
1263 Clouds 21 1019 76 10000 5.06 6 22:39 26.05.2022
1264 Clear 21 1018 74 10000 5.16 7 21:40 26.05.2022
1265 Clear 22 1018 71 10000 5.1 9 20:53 26.05.2022
1266 Clear 23 1017 67 10000 5.01 13 19:24 26.05.2022
1267 Clear 23 1017 66 10000 4.61 19 18:18 26.05.2022
1268 Clear 23 1017 67 10000 4.44 28 16:42 26.05.2022
1269 Clear 24 1018 67 10000 4.29 38 15:46 26.05.2022
1270 Clear 23 1019 66 10000 4.26 48 14:43 26.05.2022
1271 Clouds 23 1019 67 10000 4.5 38 12:37 26.05.2022
1272 Clouds 22 1018 71 10000 4.86 24 11:23 26.05.2022
1273 Clouds 20 1018 73 10000 5.09 25 09:44 26.05.2022
1274 Clouds 20 1018 75 10000 5.16 25 09:26 26.05.2022
1275 Clouds 19 1018 75 10000 5.16 25 08:30 26.05.2022
1276 Clouds 19 1017 76 10000 5.04 26 04:41 26.05.2022
1277 Clouds 20 1019 77 10000 5.84 37 00:38 26.05.2022
1278 Clouds 20 1019 77 10000 6.05 38 23:40 25.05.2022
1279 Clouds 20 1019 78 10000 6 35 21:59 25.05.2022
1280 Clouds 21 1019 78 10000 6 35 21:32 25.05.2022
1281 Clouds 21 1019 76 10000 5.96 35 20:35 25.05.2022
1282 Clouds 21 1018 73 10000 6.6 33 19:24 25.05.2022
1283 Clouds 23 1018 72 10000 6.8 29 17:43 25.05.2022
1284 Clouds 22 1018 73 10000 6.61 32 16:38 25.05.2022
1285 Clouds 23 1019 73 10000 6.11 37 15:54 25.05.2022
1286 Clouds 23 1020 73 10000 5.96 41 14:51 25.05.2022
1287 Clouds 23 1020 73 10000 5.96 41 14:33 25.05.2022
1288 Clouds 23 1020 74 10000 6.05 38 13:54 25.05.2022
1289 Clouds 22 1020 75 10000 5.78 34 12:38 25.05.2022
1290 Clouds 21 1020 74 10000 6.11 35 10:49 25.05.2022
1291 Clouds 21 1019 72 10000 6.24 32 10:18 25.05.2022
1292 Clouds 20 1019 76 10000 6.12 31 08:37 25.05.2022
1293 Clouds 20 1018 76 10000 6.59 30 07:23 25.05.2022
1294 Clouds 20 1018 80 10000 6.36 30 04:22 25.05.2022
1295 Clouds 20 1019 77 10000 6.85 28 00:19 25.05.2022
1296 Clouds 20 1019 77 10000 6.85 28 23:43 24.05.2022
1297 Clouds 21 1019 78 10000 6.84 28 22:32 24.05.2022
1298 Clouds 21 1018 80 10000 6.83 27 21:40 24.05.2022
1299 Clouds 21 1018 79 10000 6.67 22 21:21 24.05.2022
1300 Clouds 22 1017 78 10000 6.77 23 19:48 24.05.2022
1301 Clouds 23 1017 77 10000 6.67 21 18:56 24.05.2022
1302 Clouds 23 1017 77 10000 6.67 21 18:56 24.05.2022
1303 Clouds 24 1017 74 10000 6.37 26 16:53 24.05.2022
1304 Clouds 24 1018 74 10000 6.25 26 16:23 24.05.2022
1305 Clouds 23 1018 74 10000 6.34 26 14:59 24.05.2022
1306 Clouds 23 1018 75 10000 6.38 24 14:21 24.05.2022
1307 Clouds 23 1019 76 10000 5.8 32 12:50 24.05.2022
1308 Clouds 23 1019 76 10000 5.8 32 12:50 24.05.2022
1309 Clouds 22 1018 77 10000 5.44 35 11:33 24.05.2022
1310 Clouds 20 1018 81 10000 5.47 26 09:45 24.05.2022
1311 Clouds 20 1018 81 10000 5.5 28 08:50 24.05.2022
1312 Clouds 20 1017 79 10000 5.89 28 06:58 24.05.2022
1313 Clouds 20 1017 83 10000 6.34 20 04:30 24.05.2022
1314 Clouds 20 1017 82 10000 6.74 14 02:37 24.05.2022
1315 Clouds 21 1018 82 10000 6.63 16 01:42 24.05.2022
1316 Clouds 21 1018 78 10000 7.09 11 23:33 23.05.2022
1317 Clouds 21 1017 80 10000 6.73 9 21:57 23.05.2022
1318 Clouds 22 1017 80 10000 6.73 9 21:39 23.05.2022
1319 Clouds 22 1017 79 10000 6.71 6 20:41 23.05.2022
1320 Clouds 24 1016 76 10000 6.55 10 19:33 23.05.2022
1321 Clouds 24 1016 73 10000 6.38 14 18:59 23.05.2022
1322 Clouds 24 1016 73 10000 6.38 14 18:31 23.05.2022
1323 Clouds 24 1015 72 10000 6.19 20 17:38 23.05.2022
1324 Clouds 24 1016 71 10000 5.59 22 15:37 23.05.2022
1325 Clouds 23 1017 73 10000 5.85 21 13:32 23.05.2022
1326 Clouds 22 1017 77 10000 5.84 20 11:34 23.05.2022
1327 Clouds 21 1017 78 10000 6.13 23 10:42 23.05.2022
1328 Clouds 21 1017 78 10000 6.66 20 09:39 23.05.2022
1329 Clouds 20 1016 80 10000 6.84 16 08:38 23.05.2022
1330 Clouds 20 1016 81 10000 6.82 18 06:47 23.05.2022
1331 Clouds 20 1016 82 10000 6.64 21 06:22 23.05.2022
1332 Clouds 21 1017 82 10000 6.48 18 02:35 23.05.2022
1333 Clouds 21 1018 82 10000 6.14 20 01:42 23.05.2022
1334 Clouds 21 1018 81 10000 6.48 19 00:38 23.05.2022
1335 Clouds 21 1018 80 10000 6.75 18 22:43 22.05.2022
1336 Clouds 22 1017 80 10000 6.8 16 21:56 22.05.2022
1337 Clouds 22 1017 80 10000 6.8 16 21:36 22.05.2022
1338 Clouds 23 1017 79 10000 6.57 19 20:37 22.05.2022
1339 Clouds 23 1017 78 10000 6.53 22 20:18 22.05.2022
1340 Clouds 24 1017 75 10000 6.41 18 18:57 22.05.2022
1341 Clear 24 1017 73 10000 6.26 17 18:28 22.05.2022
1342 Clear 24 1017 73 10000 6.26 17 17:39 22.05.2022
1343 Clear 23 1017 71 10000 6.24 18 16:50 22.05.2022
1344 Clear 23 1018 72 10000 6.38 19 14:53 22.05.2022
1345 Clouds 24 1019 72 10000 6.25 21 13:57 22.05.2022
1346 Clouds 23 1019 72 10000 5.8 20 12:53 22.05.2022
1347 Clouds 22 1019 74 10000 5.79 18 11:52 22.05.2022
1348 Clouds 21 1019 78 10000 6.55 11 10:27 22.05.2022
1349 Clouds 19 1019 81 10000 6.51 7 09:19 22.05.2022
1350 Clouds 19 1018 82 10000 6.31 7 07:22 22.05.2022
1351 Clouds 19 1018 82 10000 6 9 06:27 22.05.2022
1352 Clouds 20 1020 82 10000 6.14 21 03:20 22.05.2022
1353 Clouds 21 1020 82 10000 6.1 17 00:44 22.05.2022
1354 Clouds 21 1020 82 10000 6.32 15 23:56 21.05.2022
1355 Clouds 21 1020 83 10000 6.42 9 23:22 21.05.2022
1356 Clouds 22 1020 81 10000 6.37 7 21:55 21.05.2022
1357 Clouds 22 1019 78 10000 6.32 10 21:27 21.05.2022
1358 Clouds 24 1019 76 10000 6.4 13 20:29 21.05.2022
1359 Clear 24 1019 76 10000 6.57 10 19:43 21.05.2022
1360 Clear 24 1019 75 10000 6.4 15 18:31 21.05.2022
1361 Clear 25 1019 73 10000 6.09 16 16:57 21.05.2022
1362 Clear 24 1020 70 10000 5.76 13 14:38 21.05.2022
1363 Clouds 24 1020 70 10000 5.77 6 13:54 21.05.2022
1364 Clouds 24 1020 71 10000 6.16 6 13:18 21.05.2022
1365 Clouds 23 1020 71 10000 6.16 6 12:38 21.05.2022
1366 Clouds 22 1020 76 10000 6.68 10 10:53 21.05.2022
1367 Clouds 21 1020 77 10000 6.78 11 09:53 21.05.2022
1368 Clouds 20 1019 80 10000 6.82 8 08:58 21.05.2022
1369 Clouds 20 1019 80 10000 6.82 8 08:36 21.05.2022
1370 Clear 20 1018 79 10000 6.63 351 05:29 21.05.2022
1371 Clouds 21 1020 82 10000 5.54 355 01:33 21.05.2022
1372 Clouds 21 1020 81 10000 6.1 358 23:30 20.05.2022
1373 Clouds 22 1019 82 10000 6.13 357 22:26 20.05.2022
1374 Clouds 22 1019 82 10000 6.13 357 21:55 20.05.2022
1375 Clouds 23 1018 80 10000 6.68 356 21:18 20.05.2022
1376 Clouds 23 1018 80 10000 6.68 356 20:44 20.05.2022
1377 Clouds 24 1018 79 10000 7.15 355 19:45 20.05.2022
1378 Clouds 25 1018 77 10000 7.24 358 18:48 20.05.2022
1379 Clouds 25 1018 76 10000 7.25 358 17:47 20.05.2022
1380 Clouds 27 1018 74 10000 6.34 356 16:21 20.05.2022
1381 Clouds 26 1018 74 10000 6.34 356 15:53 20.05.2022
1382 Clouds 27 1018 73 10000 6.18 356 14:31 20.05.2022
1383 Clouds 27 1018 70 10000 5.98 354 13:56 20.05.2022
1384 Clouds 24 1018 72 10000 6.03 344 11:49 20.05.2022
1385 Clouds 22 1018 74 10000 6.52 348 10:30 20.05.2022
1386 Clouds 21 1018 80 10000 6.42 354 08:58 20.05.2022
1387 Clouds 20 1017 81 10000 5.66 360 07:40 20.05.2022
1388 Clouds 20 1017 80 10000 5.69 1 06:38 20.05.2022
1389 Clouds 21 1016 82 10000 6.85 360 05:28 20.05.2022
1390 Clouds 21 1018 84 10000 6.32 346 00:54 20.05.2022
1391 Clouds 22 1017 83 10000 5.86 343 23:28 19.05.2022
1392 Clouds 22 1017 83 10000 5.86 343 22:33 19.05.2022
1393 Clouds 22 1016 83 10000 5.78 343 21:49 19.05.2022
1394 Clouds 23 1016 81 10000 5.99 348 21:23 19.05.2022
1395 Clouds 24 1016 81 10000 5.99 348 20:40 19.05.2022
1396 Clouds 24 1015 79 10000 6.24 353 19:54 19.05.2022
1397 Clouds 25 1015 77 10000 5.86 359 18:45 19.05.2022
1398 Clouds 25 1015 76 10000 5.48 2 17:35 19.05.2022
1399 Clouds 25 1016 75 10000 6.19 355 15:33 19.05.2022
1400 Clouds 24 1016 74 10000 6.21 356 14:30 19.05.2022
1401 Clouds 24 1016 73 10000 5.68 358 13:53 19.05.2022
1402 Clouds 23 1017 74 10000 5.31 350 11:46 19.05.2022
1403 Clouds 21 1017 81 10000 5.01 350 09:46 19.05.2022
1404 Clouds 20 1016 85 10000 4.85 8 08:27 19.05.2022
1405 Clouds 20 1016 86 10000 5.19 5 06:31 19.05.2022
1406 Clouds 21 1017 85 10000 5.11 357 02:57 19.05.2022
1407 Clouds 21 1018 84 10000 5.18 2 00:47 19.05.2022
1408 Clouds 21 1018 84 10000 5.59 358 22:53 18.05.2022
1409 Clouds 22 1018 84 10000 5.59 358 22:35 18.05.2022
1410 Clouds 23 1018 82 10000 5.77 356 21:31 18.05.2022
1411 Clouds 23 1017 80 10000 5.98 353 20:55 18.05.2022
1412 Clouds 23 1017 78 10000 6.55 355 20:19 18.05.2022
1413 Clouds 24 1017 79 10000 5.92 5 18:43 18.05.2022
1414 Clouds 25 1017 77 10000 5.26 5 17:41 18.05.2022
1415 Clouds 25 1018 77 10000 4.86 11 17:23 18.05.2022
1416 Clouds 26 1018 77 10000 4.86 11 16:35 18.05.2022
1417 Clouds 26 1018 76 10000 4.65 13 15:42 18.05.2022
1418 Clouds 25 1019 77 10000 4.63 7 14:54 18.05.2022
1419 Clouds 25 1019 77 10000 5 4 13:47 18.05.2022
1420 Clouds 24 1020 77 10000 4.91 4 12:53 18.05.2022
1421 Clouds 23 1020 77 10000 4.9 2 11:41 18.05.2022
1422 Clouds 23 1020 79 10000 5.54 358 11:23 18.05.2022
1423 Clouds 21 1020 82 10000 5.78 357 09:57 18.05.2022
1424 Clouds 20 1018 87 10000 5.12 359 07:55 18.05.2022
1425 Clouds 21 1018 86 10000 5.15 360 06:49 18.05.2022
1426 Clouds 21 1020 85 10000 4.88 3 02:23 18.05.2022
1427 Clouds 21 1021 82 10000 4.52 2 00:26 18.05.2022
1428 Clouds 21 1021 81 10000 4.15 5 22:47 17.05.2022
1429 Clouds 22 1020 76 10000 4.23 11 21:20 17.05.2022
1430 Clouds 23 1020 75 10000 4.29 14 20:29 17.05.2022
1431 Clouds 23 1020 71 10000 4.04 13 19:28 17.05.2022
1432 Clouds 24 1020 70 10000 3.97 20 17:52 17.05.2022
1433 Clouds 24 1021 70 10000 4.17 24 17:22 17.05.2022
1434 Clouds 24 1021 70 10000 4.17 24 16:34 17.05.2022
1435 Clouds 24 1021 70 10000 3.92 23 15:32 17.05.2022
1436 Clouds 24 1022 71 10000 3.98 20 14:31 17.05.2022
1437 Clouds 23 1022 70 10000 4.2 23 13:38 17.05.2022
1438 Clouds 23 1022 70 10000 4.18 19 12:23 17.05.2022
1439 Clouds 21 1022 73 10000 4.05 17 09:53 17.05.2022
1440 Clouds 19 1022 77 10000 3.56 14 08:43 17.05.2022
1441 Clouds 19 1021 78 10000 3.92 15 06:52 17.05.2022
1442 Clouds 20 1022 76 10000 3.89 10 04:24 17.05.2022
1443 Clouds 21 1023 75 10000 3.71 5 00:46 17.05.2022
1444 Clouds 21 1022 75 10000 3.51 0 22:44 16.05.2022
1445 Clouds 21 1021 73 10000 3.73 11 22:18 16.05.2022
1446 Clouds 22 1021 71 10000 3.58 17 20:49 16.05.2022
1447 Clear 23 1020 67 10000 3.2 40 19:57 16.05.2022
1448 Clear 23 1020 65 10000 3.48 55 18:21 16.05.2022
1449 Clear 24 1021 65 10000 3.75 61 16:28 16.05.2022
1450 Clear 24 1022 65 10000 3.58 59 14:42 16.05.2022
1451 Clear 23 1022 66 10000 3.56 53 13:25 16.05.2022
1452 Clear 21 1022 68 10000 3.16 44 11:33 16.05.2022
1453 Clear 20 1021 74 10000 2.91 42 09:58 16.05.2022
1454 Clear 19 1020 78 10000 2.64 35 07:33 16.05.2022
1455 Clear 19 1020 79 10000 2.5 47 05:23 16.05.2022
1456 Clear 21 1022 76 10000 3.05 42 23:56 15.05.2022
1457 Clear 21 1021 75 10000 2.9 45 22:34 15.05.2022
1458 Clear 21 1021 73 10000 3.17 37 21:48 15.05.2022
1459 Clear 22 1020 70 10000 3.28 32 21:19 15.05.2022
1460 Clear 23 1020 68 10000 3.39 28 19:56 15.05.2022
1461 Clear 23 1020 65 10000 3.62 34 17:52 15.05.2022
1462 Clear 24 1020 65 10000 3.52 33 16:35 15.05.2022
1463 Clouds 23 1021 65 10000 3.26 31 14:18 15.05.2022
1464 Clouds 23 1021 65 10000 3.45 18 13:27 15.05.2022
1465 Clouds 23 1021 68 10000 3.77 5 11:55 15.05.2022
1466 Clouds 21 1021 71 10000 4.83 353 10:35 15.05.2022
1467 Clouds 17 1020 78 10000 3.98 349 08:52 15.05.2022
1468 Clouds 18 1019 81 10000 3.27 353 06:59 15.05.2022
1469 Clouds 19 1019 81 10000 3.27 353 06:38 15.05.2022
1470 Clouds 20 1020 78 10000 2.79 19 01:43 15.05.2022
1471 Clouds 21 1020 78 10000 3.97 358 23:56 14.05.2022
1472 Clouds 21 1020 78 10000 3.97 358 23:34 14.05.2022
1473 Clouds 22 1019 76 10000 4.58 353 21:45 14.05.2022
1474 Clouds 22 1019 74 10000 4.95 351 21:19 14.05.2022
1475 Clouds 23 1018 77 10000 5.58 348 19:40 14.05.2022
1476 Clouds 23 1018 77 10000 5.58 348 19:40 14.05.2022
1477 Clouds 23 1018 77 10000 5.58 348 19:40 14.05.2022
1478 Clouds 23 1018 77 10000 4.9 353 19:20 14.05.2022
1479 Clouds 23 1018 77 10000 4.9 353 18:47 14.05.2022
1480 Clouds 24 1018 77 10000 4.81 4 17:28 14.05.2022
1481 Clouds 23 1018 76 10000 4.46 3 15:47 14.05.2022
1482 Clouds 22 1019 74 10000 3.66 9 14:36 14.05.2022
1483 Clouds 23 1020 72 10000 3.09 12 12:51 14.05.2022
1484 Clouds 22 1020 72 10000 2.98 359 11:37 14.05.2022
1485 Clouds 21 1019 74 10000 2.11 356 10:23 14.05.2022
1486 Clouds 20 1019 74 10000 2.11 356 09:54 14.05.2022
1487 Clouds 19 1019 76 10000 2.3 343 08:56 14.05.2022
1488 Clouds 19 1018 77 10000 1.88 2 06:52 14.05.2022
1489 Clouds 20 1019 77 10000 1.59 2 03:27 14.05.2022
1490 Clouds 21 1020 77 10000 2.46 357 23:48 13.05.2022
1491 Clouds 21 1019 76 10000 1.79 356 23:22 13.05.2022
1492 Clouds 21 1019 76 10000 1.79 356 22:51 13.05.2022
1493 Clouds 21 1019 76 10000 1.99 358 22:19 13.05.2022
1494 Clouds 22 1019 73 10000 2.47 16 20:49 13.05.2022
1495 Clouds 22 1018 72 10000 2.36 18 20:27 13.05.2022
1496 Clouds 23 1018 72 10000 2.19 21 19:34 13.05.2022
1497 Clouds 23 1018 70 10000 2.13 41 17:53 13.05.2022
1498 Clouds 23 1018 70 10000 2.08 47 17:29 13.05.2022
1499 Clouds 23 1018 72 10000 3.06 47 16:21 13.05.2022
1500 Clouds 22 1018 72 10000 3.06 47 15:39 13.05.2022
1501 Clouds 22 1018 70 10000 2.69 32 13:54 13.05.2022
1502 Clouds 22 1018 70 10000 3.25 78 12:32 13.05.2022
1503 Clouds 21 1019 71 10000 2.18 342 11:23 13.05.2022
1504 Clouds 21 1019 71 10000 2.18 342 11:23 13.05.2022
1505 Clouds 19 1020 76 10000 3.62 303 09:35 13.05.2022
1506 Clouds 19 1019 80 10000 2.55 300 08:49 13.05.2022
1507 Clouds 19 1017 82 10000 1.62 334 07:48 13.05.2022
1508 Clouds 18 1017 82 10000 2.55 344 06:33 13.05.2022
1509 Clouds 18 1017 82 10000 2.55 344 06:33 13.05.2022
1510 Clouds 20 1018 83 10000 3.36 342 03:34 13.05.2022
1511 Clouds 21 1019 83 10000 4.01 335 00:39 13.05.2022
1512 Clouds 21 1018 84 10000 4.33 338 22:45 12.05.2022
1513 Clouds 22 1017 83 10000 4.82 343 21:56 12.05.2022
1514 Clouds 23 1017 79 10000 4.65 346 20:29 12.05.2022
1515 Clouds 23 1017 78 10000 4.46 348 18:59 12.05.2022
1516 Clouds 24 1016 76 10000 5.18 350 17:24 12.05.2022
1517 Clouds 24 1017 76 10000 5.3 346 16:18 12.05.2022
1518 Clouds 24 1017 75 10000 5.29 344 14:42 12.05.2022
1519 Clouds 25 1017 74 10000 4.91 338 13:46 12.05.2022
1520 Clouds 22 1017 78 10000 5 322 10:52 12.05.2022
1521 Clouds 19 1016 81 10000 5.61 319 09:30 12.05.2022
1522 Clouds 19 1016 84 10000 5.92 320 08:51 12.05.2022
1523 Clear 19 1015 87 10000 5.55 317 07:40 12.05.2022
1524 Clear 19 1015 87 10000 5.76 318 06:34 12.05.2022
1525 Clear 20 1015 81 10000 5.54 323 02:58 12.05.2022
1526 Clear 21 1015 79 10000 4.39 320 00:36 12.05.2022
1527 Clear 21 1015 79 10000 3.97 318 22:36 11.05.2022
1528 Clear 21 1014 79 10000 4.36 327 21:50 11.05.2022
1529 Clear 21 1014 76 10000 4.24 335 21:24 11.05.2022
1530 Clear 22 1014 70 10000 2.76 351 18:58 11.05.2022
1531 Clear 24 1014 69 10000 2.94 359 16:55 11.05.2022
1532 Clear 24 1014 69 10000 2.7 349 15:38 11.05.2022
1533 Clear 24 1015 71 10000 3.04 340 14:39 11.05.2022
1534 Clear 24 1015 70 10000 1.8 344 14:18 11.05.2022
1535 Clouds 23 1015 69 10000 2.25 310 11:54 11.05.2022
1536 Clouds 23 1015 70 10000 2.74 312 11:23 11.05.2022
1537 Clouds 21 1014 76 10000 2.25 291 08:46 11.05.2022
1538 Clouds 22 1014 76 10000 1.49 195 05:31 11.05.2022
1539 Clouds 22 1014 76 10000 1.49 195 05:31 11.05.2022
1540 Clouds 24 1016 69 10000 0.52 193 00:45 11.05.2022
1541 Clouds 24 1016 67 10000 0.21 238 22:32 10.05.2022
1542 Clouds 24 1015 67 10000 0.46 97 21:57 10.05.2022
1543 Clouds 25 1014 65 10000 1.36 92 20:58 10.05.2022
1544 Clouds 25 1014 67 10000 0.94 46 19:47 10.05.2022
1545 Clouds 26 1014 66 10000 1.82 44 17:59 10.05.2022
1546 Clouds 27 1014 66 10000 1.82 44 17:34 10.05.2022
1547 Clouds 27 1015 65 10000 2.01 84 15:41 10.05.2022
1548 Clouds 27 1016 64 10000 1.3 144 12:47 10.05.2022
1549 Clouds 27 1016 65 10000 0.94 106 11:51 10.05.2022
1550 Clouds 31 1016 66 10000 2.85 264 11:21 10.05.2022
1551 Clouds 31 1016 66 10000 2.85 264 10:54 10.05.2022
1552 Rain 27 1016 68 10000 2.13 254 09:26 10.05.2022
1553 Clouds 22 1015 72 10000 1.92 245 07:26 10.05.2022
1554 Clouds 21 1014 67 10000 2.49 168 04:34 10.05.2022
1555 Clouds 21 1015 72 10000 2.15 28 01:34 10.05.2022
1556 Clouds 21 1016 77 10000 2.65 21 23:26 09.05.2022
1557 Clouds 21 1015 75 10000 2.96 14 21:58 09.05.2022
1558 Clear 22 1015 72 10000 2.46 12 21:21 09.05.2022
1559 Clouds 23 1015 72 10000 2.93 27 19:37 09.05.2022
1560 Clouds 23 1014 71 10000 3.59 38 17:56 09.05.2022
1561 Clouds 23 1014 70 10000 4.07 29 16:49 09.05.2022
1562 Clouds 23 1015 69 10000 4.42 26 15:53 09.05.2022
1563 Clouds 23 1015 69 10000 4.42 26 15:31 09.05.2022
1564 Clouds 22 1015 69 10000 4.4 28 14:32 09.05.2022
1565 Clouds 22 1016 69 10000 4 31 13:50 09.05.2022
1566 Clouds 22 1016 69 10000 3.86 25 12:30 09.05.2022
1567 Clouds 21 1016 69 10000 3.64 19 11:43 09.05.2022
1568 Clouds 20 1016 70 10000 3.49 11 10:44 09.05.2022
1569 Clouds 19 1015 72 10000 3.25 5 09:39 09.05.2022
1570 Clouds 18 1014 75 10000 3.61 2 07:56 09.05.2022
1571 Clouds 19 1014 77 10000 3.52 9 04:33 09.05.2022
1572 Clouds 19 1014 77 10000 3.52 9 04:33 09.05.2022
1573 Clouds 19 1014 77 10000 3.52 9 04:33 09.05.2022
1574 Clouds 20 1016 79 10000 3.89 5 00:21 09.05.2022
1575 Clouds 20 1015 81 10000 4.31 5 22:57 08.05.2022
1576 Clouds 20 1015 83 10000 4.68 8 22:22 08.05.2022
1577 Clouds 21 1014 82 10000 5.4 12 20:37 08.05.2022
1578 Clouds 22 1014 78 10000 5.85 16 19:53 08.05.2022
1579 Clouds 22 1014 76 10000 5.84 18 18:59 08.05.2022
1580 Clouds 22 1014 74 10000 5.74 19 18:24 08.05.2022
1581 Clouds 24 1014 72 10000 5.54 21 16:59 08.05.2022
1582 Clouds 23 1015 71 10000 5.52 24 15:41 08.05.2022
1583 Clouds 23 1015 71 10000 5.29 23 15:20 08.05.2022
1584 Clear 23 1016 72 10000 5.09 27 12:41 08.05.2022
1585 Clear 20 1016 74 10000 4.93 27 10:34 08.05.2022
1586 Clear 19 1016 76 10000 4.83 26 09:59 08.05.2022
1587 Clear 19 1016 76 10000 4.83 26 09:33 08.05.2022
1588 Clouds 19 1015 83 10000 4.28 19 07:33 08.05.2022
1589 Clouds 19 1016 86 10000 4.93 10 04:20 08.05.2022
1590 Clouds 20 1016 85 10000 4.48 3 03:19 08.05.2022
1591 Clouds 20 1017 83 10000 4.28 4 00:28 08.05.2022
1592 Clouds 20 1017 83 10000 4.28 4 23:53 07.05.2022
1593 Clouds 20 1017 83 10000 4.31 357 22:51 07.05.2022
1594 Clouds 20 1017 83 10000 4.31 357 22:33 07.05.2022
1595 Clouds 21 1016 84 10000 4.51 2 21:34 07.05.2022
1596 Clouds 22 1016 80 10000 4.63 7 20:42 07.05.2022
1597 Clouds 23 1015 76 10000 4.78 8 19:58 07.05.2022
1598 Clouds 23 1015 71 10000 4.81 14 17:43 07.05.2022
1599 Clouds 23 1017 69 10000 4.42 30 15:51 07.05.2022
1600 Clouds 23 1018 69 10000 3.94 33 14:19 07.05.2022
1601 Clouds 21 1018 74 10000 3.64 19 10:57 07.05.2022
1602 Clouds 18 1017 84 10000 3.85 10 09:22 07.05.2022
1603 Clouds 18 1017 84 10000 4.12 11 07:52 07.05.2022
1604 Clouds 18 1017 85 10000 4.17 2 06:43 07.05.2022
1605 Clouds 18 1018 86 10000 4.04 358 04:59 07.05.2022
1606 Clouds 19 1019 82 10000 4.23 351 01:46 07.05.2022
1607 Clouds 20 1020 84 10000 4.33 348 23:38 06.05.2022
1608 Clouds 20 1019 84 10000 4.44 352 22:31 06.05.2022
1609 Clear 20 1019 82 10000 4.35 360 21:43 06.05.2022
1610 Clear 22 1018 79 10000 4.14 2 20:35 06.05.2022
1611 Clouds 22 1018 75 10000 5.06 4 19:31 06.05.2022
1612 Clouds 22 1018 72 10000 4.9 8 19:00 06.05.2022
1613 Clouds 23 1018 71 10000 4.59 12 18:19 06.05.2022
1614 Clouds 23 1019 70 10000 4.52 16 16:44 06.05.2022
1615 Clouds 23 1019 70 10000 4.52 21 15:41 06.05.2022
1616 Clouds 23 1020 69 10000 4.43 21 14:53 06.05.2022
1617 Clouds 22 1020 69 10000 4.2 16 12:56 06.05.2022
1618 Clouds 21 1020 69 10000 4.2 16 12:37 06.05.2022
1619 Clouds 21 1020 71 10000 4.35 12 11:42 06.05.2022
1620 Clouds 19 1020 74 10000 4.25 9 10:30 06.05.2022
1621 Clouds 19 1020 78 10000 4.26 10 09:45 06.05.2022
1622 Clouds 18 1020 84 10000 4.07 7 08:33 06.05.2022
1623 Clouds 18 1019 86 10000 4.25 6 06:48 06.05.2022
1624 Clouds 18 1020 85 10000 4.48 12 05:23 06.05.2022
1625 Clouds 18 1021 85 10000 4.74 20 02:50 06.05.2022
1626 Clouds 19 1022 82 10000 5.35 17 00:26 06.05.2022
1627 Clouds 19 1020 81 10000 5.32 28 22:28 05.05.2022
1628 Clouds 20 1020 78 10000 5.24 23 21:22 05.05.2022
1629 Clouds 22 1019 75 10000 4.84 29 19:55 05.05.2022
1630 Clear 23 1019 73 10000 4.51 33 18:34 05.05.2022
1631 Clear 22 1020 70 10000 5.03 37 16:33 05.05.2022
1632 Clear 22 1020 68 10000 5.32 46 14:50 05.05.2022
1633 Clouds 21 1021 71 10000 5.64 41 13:22 05.05.2022
1634 Clouds 20 1021 71 10000 5.64 41 12:49 05.05.2022
1635 Clouds 19 1021 72 10000 5.22 23 10:48 05.05.2022
1636 Clouds 19 1020 72 10000 5.24 18 09:39 05.05.2022
1637 Clouds 18 1019 73 10000 4.71 24 07:35 05.05.2022
1638 Clouds 18 1019 72 10000 5.53 25 04:42 05.05.2022
1639 Clouds 19 1020 69 10000 6.18 17 01:56 05.05.2022
1640 Clouds 19 1020 70 10000 6.61 15 01:27 05.05.2022
1641 Clouds 19 1020 72 10000 7.22 14 23:50 04.05.2022
1642 Clouds 19 1020 71 10000 7.14 14 22:42 04.05.2022
1643 Clouds 20 1019 70 10000 6.42 10 21:50 04.05.2022
1644 Clouds 20 1019 69 10000 6.22 11 21:26 04.05.2022
1645 Clouds 20 1018 67 10000 6.13 14 20:25 04.05.2022
1646 Clouds 20 1018 69 10000 6.29 16 19:53 04.05.2022
1647 Clouds 22 1018 67 10000 6.32 20 18:56 04.05.2022
1648 Clouds 22 1018 66 10000 6.35 23 18:22 04.05.2022
1649 Clouds 22 1018 66 10000 6.35 23 17:42 04.05.2022
1650 Clouds 22 1018 64 10000 5.48 17 15:41 04.05.2022
1651 Clouds 22 1019 64 10000 5.76 14 15:23 04.05.2022
1652 Clouds 22 1019 65 10000 5.81 13 14:21 04.05.2022
1653 Clouds 21 1019 65 10000 5.86 13 13:33 04.05.2022
1654 Clouds 21 1019 66 10000 5.67 12 12:33 04.05.2022
1655 Clouds 19 1018 67 10000 5.84 18 10:41 04.05.2022
1656 Clouds 18 1018 68 10000 6.24 16 09:43 04.05.2022
1657 Clouds 17 1018 67 10000 6.3 10 08:46 04.05.2022
1658 Clouds 18 1017 75 10000 7.26 10 06:41 04.05.2022
1659 Clouds 18 1018 76 10000 6.28 15 02:59 04.05.2022
1660 Clouds 19 1019 79 10000 6.88 13 00:38 04.05.2022
1661 Clouds 19 1018 80 10000 7.04 7 22:37 03.05.2022
1662 Clouds 20 1017 81 10000 7.15 6 21:46 03.05.2022
1663 Clouds 21 1017 76 10000 6.62 357 20:54 03.05.2022
1664 Clouds 21 1016 69 10000 5.26 349 19:59 03.05.2022
1665 Clouds 22 1016 66 10000 4.74 357 18:54 03.05.2022
1666 Clouds 22 1016 66 10000 5.2 11 18:21 03.05.2022
1667 Clouds 21 1017 67 10000 5.86 13 16:44 03.05.2022
1668 Clouds 23 1018 67 10000 6.18 12 15:38 03.05.2022
1669 Clouds 22 1018 71 10000 7 7 12:47 03.05.2022
1670 Clouds 21 1018 73 10000 6.38 5 12:27 03.05.2022
1671 Clouds 18 1018 75 10000 6.32 4 10:57 03.05.2022
1672 Clouds 19 1018 78 10000 6.96 5 09:34 03.05.2022
1673 Clouds 18 1017 77 10000 7.2 4 07:33 03.05.2022
1674 Clouds 18 1017 78 10000 6.52 9 06:44 03.05.2022
1675 Clouds 19 1021 82 10000 7.24 17 00:54 03.05.2022
1676 Clouds 19 1021 83 10000 7.26 12 22:39 02.05.2022
1677 Clouds 20 1020 83 10000 7.12 11 21:52 02.05.2022
1678 Clouds 20 1020 79 10000 6.86 12 20:51 02.05.2022
1679 Clouds 22 1020 75 10000 6.32 16 18:44 02.05.2022
1680 Clear 22 1020 74 10000 6.04 18 18:25 02.05.2022
1681 Clear 22 1020 74 10000 6.04 18 17:37 02.05.2022
1682 Clear 23 1021 72 10000 5.55 25 16:22 02.05.2022
1683 Clear 22 1021 72 10000 5.62 25 15:31 02.05.2022
1684 Clouds 22 1022 72 10000 5.65 32 13:51 02.05.2022
1685 Clouds 22 1022 76 10000 5.93 28 12:19 02.05.2022
1686 Clouds 21 1021 77 10000 5.99 25 10:51 02.05.2022
1687 Clouds 19 1021 82 10000 5.77 22 09:29 02.05.2022
1688 Clouds 19 1020 82 10000 5.71 18 07:51 02.05.2022
1689 Clouds 18 1021 80 10000 5.23 12 03:53 02.05.2022
1690 Clouds 19 1023 79 10000 5.48 11 00:24 02.05.2022
1691 Clouds 19 1023 79 10000 5.48 11 23:48 01.05.2022
1692 Clear 20 1023 79 10000 5.73 10 22:33 01.05.2022
1693 Clear 20 1021 75 10000 6.09 11 21:22 01.05.2022
1694 Clear 22 1021 71 10000 5.89 12 19:53 01.05.2022
1695 Clear 22 1021 66 10000 5.98 16 18:58 01.05.2022
1696 Clear 23 1021 65 10000 5.73 14 18:28 01.05.2022
1697 Clear 23 1021 65 10000 5.29 17 17:29 01.05.2022
1698 Clear 25 1022 64 10000 5.13 17 16:23 01.05.2022
1699 Clear 24 1022 64 10000 4.81 17 15:25 01.05.2022
1700 Clear 24 1023 65 10000 4.69 19 13:42 01.05.2022
1701 Clear 22 1023 71 10000 4.56 15 11:18 01.05.2022
1702 Clear 20 1022 80 10000 4.7 10 08:53 01.05.2022
1703 Clear 20 1022 80 10000 4.7 10 08:34 01.05.2022
1704 Clouds 19 1021 83 10000 5.9 353 03:35 01.05.2022
1705 Clouds 19 1022 84 10000 5.57 358 00:18 01.05.2022
1706 Clouds 20 1021 80 10000 5.9 2 21:47 30.04.2022
1707 Clouds 22 1020 76 10000 5.93 4 20:58 30.04.2022
1708 Clear 22 1019 73 10000 6.12 4 19:41 30.04.2022
1709 Clear 23 1019 69 10000 6.04 8 18:21 30.04.2022
1710 Clear 23 1019 67 10000 5.89 9 16:44 30.04.2022
1711 Clear 23 1020 65 10000 5.55 10 15:46 30.04.2022
1712 Clear 23 1021 64 10000 5.1 11 14:44 30.04.2022
1713 Clouds 22 1021 67 10000 4.86 10 12:55 30.04.2022
1714 Clouds 21 1021 71 10000 5.17 11 11:34 30.04.2022
1715 Clouds 20 1021 75 10000 5.53 12 10:44 30.04.2022
1716 Clouds 18 1020 82 10000 6.15 8 09:25 30.04.2022
1717 Clouds 18 1019 81 10000 6.05 5 06:43 30.04.2022
1718 Clear 18 1020 74 10000 5.77 2 02:36 30.04.2022
1719 Clear 19 1021 76 10000 6.42 13 23:37 29.04.2022
1720 Clear 19 1020 75 10000 6.4 15 22:31 29.04.2022
1721 Clear 20 1020 75 10000 6.51 16 21:39 29.04.2022
1722 Clear 20 1019 72 10000 6.41 14 20:49 29.04.2022
1723 Clouds 21 1018 70 10000 6.56 15 19:45 29.04.2022
1724 Clouds 23 1018 68 10000 6.15 9 17:59 29.04.2022
1725 Clouds 22 1018 67 10000 6.06 14 17:23 29.04.2022
1726 Clouds 22 1019 67 10000 5.84 20 15:49 29.04.2022
1727 Clouds 21 1020 70 10000 6.05 30 14:22 29.04.2022
1728 Clouds 20 1020 71 10000 5.88 28 13:21 29.04.2022
1729 Clouds 19 1020 72 10000 6.09 27 11:49 29.04.2022
1730 Clouds 18 1019 78 10000 6.06 23 08:51 29.04.2022
1731 Clouds 18 1018 79 10000 6.41 20 07:28 29.04.2022
1732 Clouds 18 1018 79 10000 6.41 20 06:39 29.04.2022
1733 Clouds 18 1019 79 10000 6.28 22 04:53 29.04.2022
1734 Clouds 19 1021 78 10000 6.41 21 00:39 29.04.2022
1735 Clouds 19 1020 77 10000 5.96 18 23:27 28.04.2022
1736 Clouds 19 1020 77 10000 5.96 18 22:41 28.04.2022
1737 Clouds 19 1020 77 10000 5.51 21 21:47 28.04.2022
1738 Clouds 19 1020 75 10000 6.2 22 21:19 28.04.2022
1739 Clouds 20 1020 72 10000 6.69 21 20:25 28.04.2022
1740 Clouds 21 1019 72 10000 6.68 20 19:41 28.04.2022
1741 Clouds 21 1019 70 10000 5.96 20 19:22 28.04.2022
1742 Clouds 22 1019 70 10000 5.96 20 18:35 28.04.2022
1743 Clouds 22 1020 69 10000 5.9 29 17:20 28.04.2022
1744 Clouds 22 1020 69 10000 5.9 29 16:40 28.04.2022
1745 Clouds 22 1020 68 10000 5.39 31 16:18 28.04.2022
1746 Clouds 22 1020 67 10000 6.02 31 15:27 28.04.2022
1747 Clouds 22 1020 67 10000 5.32 28 13:44 28.04.2022
1748 Clouds 21 1021 69 10000 6.12 31 12:44 28.04.2022
1749 Clouds 20 1021 70 10000 5.93 33 11:56 28.04.2022
1750 Clouds 19 1021 73 10000 6.45 33 10:44 28.04.2022
1751 Clouds 18 1021 75 10000 6.44 31 09:54 28.04.2022
1752 Clouds 18 1020 78 10000 7 28 08:31 28.04.2022
1753 Clouds 18 1020 79 10000 6.54 25 06:59 28.04.2022
1754 Clouds 18 1020 77 10000 6.58 21 05:55 28.04.2022
1755 Clouds 18 1020 77 10000 6.58 21 05:37 28.04.2022
1756 Clouds 18 1020 75 10000 6.09 26 04:38 28.04.2022
1757 Clear 19 1021 75 10000 6.53 19 00:22 28.04.2022
1758 Clear 19 1021 74 10000 6.5 16 22:38 27.04.2022
1759 Clear 19 1020 73 10000 6.54 18 21:52 27.04.2022
1760 Clear 20 1019 71 10000 6.32 21 20:59 27.04.2022
1761 Clear 20 1019 71 10000 6.32 21 20:37 27.04.2022
1762 Clear 21 1019 69 10000 6.33 25 19:37 27.04.2022
1763 Clear 22 1019 67 10000 6.36 23 18:56 27.04.2022
1764 Clear 21 1019 66 10000 6.46 24 18:22 27.04.2022
1765 Clear 22 1020 65 10000 6.3 23 16:29 27.04.2022
1766 Clear 22 1020 65 10000 6.38 24 14:31 27.04.2022
1767 Clouds 21 1020 65 10000 5.87 21 11:45 27.04.2022
1768 Clouds 20 1020 66 10000 6.03 20 11:20 27.04.2022
1769 Clouds 17 1019 72 10000 6.38 17 09:19 27.04.2022
1770 Clouds 17 1018 72 10000 7.04 11 07:18 27.04.2022
1771 Clouds 18 1018 73 10000 7.41 8 04:21 27.04.2022
1772 Clouds 19 1019 75 10000 7.26 7 01:32 27.04.2022
1773 Clouds 19 1019 75 10000 7.29 6 00:36 27.04.2022
1774 Clouds 19 1019 75 10000 7.71 359 23:25 26.04.2022
1775 Clouds 19 1019 75 10000 7.71 359 22:58 26.04.2022
1776 Clouds 19 1019 75 10000 7.71 359 22:39 26.04.2022
1777 Clouds 20 1018 71 10000 7.47 353 21:26 26.04.2022
1778 Clouds 20 1018 71 10000 7.47 353 21:26 26.04.2022
1779 Clouds 20 1018 71 10000 7.47 353 21:26 26.04.2022
1780 Clouds 21 1018 71 10000 7.47 353 20:41 26.04.2022
1781 Clear 22 1017 68 10000 7.93 352 19:53 26.04.2022
1782 Clear 22 1017 67 10000 7.63 353 19:32 26.04.2022
1783 Clear 22 1017 66 10000 7.7 346 18:44 26.04.2022
1784 Clear 23 1016 63 10000 8.01 344 17:54 26.04.2022
1785 Clear 23 1017 63 10000 8.01 341 16:28 26.04.2022
1786 Clouds 22 1017 64 10000 7.98 340 13:59 26.04.2022
1787 Clouds 23 1017 63 10000 7.98 339 13:32 26.04.2022
1788 Clouds 22 1017 66 10000 8.32 333 11:49 26.04.2022
1789 Clouds 20 1016 69 10000 8.41 330 10:34 26.04.2022
1790 Clouds 19 1015 76 10000 8.51 325 08:54 26.04.2022
1791 Clear 18 1014 77 10000 8.81 328 06:57 26.04.2022
1792 Clear 19 1014 77 10000 9.12 325 04:23 26.04.2022
1793 Clear 19 1014 77 10000 9.12 325 04:23 26.04.2022
1794 Clouds 20 1015 83 10000 9.27 325 00:57 26.04.2022
1795 Clouds 20 1014 87 10000 9.83 320 00:25 26.04.2022
1796 Rain 21 1013 84 10000 6.18 322 22:21 25.04.2022
1797 Clouds 21 1013 84 10000 6.18 322 21:34 25.04.2022
1798 Clouds 22 1012 79 10000 3.7 332 20:35 25.04.2022
1799 Clouds 24 1012 73 10000 0.4 20 18:54 25.04.2022
1800 Clouds 23 1012 71 10000 1.92 141 17:43 25.04.2022
1801 Clouds 24 1013 71 10000 2.62 148 16:52 25.04.2022
1802 Clouds 22 1013 70 10000 2.72 144 15:24 25.04.2022
1803 Clouds 22 1013 70 10000 2.72 144 14:34 25.04.2022
1804 Clouds 20 1014 68 10000 2.98 125 13:30 25.04.2022
1805 Clear 20 1014 67 10000 2.13 136 11:37 25.04.2022
1806 Clear 18 1014 69 10000 1.51 176 10:20 25.04.2022
1807 Clear 16 1013 71 10000 1.31 178 08:33 25.04.2022
1808 Clear 17 1013 72 10000 1.15 166 06:27 25.04.2022
1809 Clouds 17 1016 68 10000 0.68 66 02:20 25.04.2022
1810 Clouds 18 1016 67 10000 1.53 26 23:58 24.04.2022
1811 Clouds 18 1016 67 10000 1.53 26 23:30 24.04.2022
1812 Clouds 19 1017 67 10000 1.56 356 22:40 24.04.2022
1813 Clouds 19 1016 66 10000 1.66 3 21:58 24.04.2022
1814 Clouds 19 1016 65 10000 1.95 347 21:24 24.04.2022
1815 Clouds 19 1016 65 10000 1.95 347 20:47 24.04.2022
1816 Clouds 20 1015 64 10000 2.1 360 20:21 24.04.2022
1817 Clouds 20 1016 65 10000 1.61 6 18:59 24.04.2022
1818 Clouds 20 1016 66 10000 1.87 359 17:55 24.04.2022
1819 Clouds 21 1016 67 10000 2.12 4 17:22 24.04.2022
1820 Clouds 20 1016 67 10000 2.12 4 16:58 24.04.2022
1821 Clouds 19 1016 67 10000 2.12 4 16:30 24.04.2022
1822 Clouds 19 1016 68 10000 2.87 2 15:53 24.04.2022
1823 Clouds 19 1017 67 10000 3.18 356 14:55 24.04.2022
1824 Clouds 20 1017 65 10000 3.45 349 13:45 24.04.2022
1825 Clouds 20 1017 65 10000 3.25 350 13:23 24.04.2022
1826 Clouds 21 1017 68 10000 3.24 339 11:53 24.04.2022
1827 Clouds 18 1017 70 10000 3.3 334 10:59 24.04.2022
1828 Clouds 18 1017 74 10000 3.37 331 09:47 24.04.2022
1829 Clouds 16 1016 78 10000 3.65 330 08:23 24.04.2022
1830 Clouds 16 1016 78 10000 3.92 334 05:46 24.04.2022
1831 Clouds 17 1017 74 10000 3.68 328 02:49 24.04.2022
1832 Clouds 19 1018 71 10000 2.77 347 00:47 24.04.2022
1833 Clouds 19 1018 71 10000 3.51 354 23:55 23.04.2022
1834 Clouds 19 1018 70 10000 3.75 347 23:25 23.04.2022
1835 Clouds 19 1018 70 10000 3.75 347 22:40 23.04.2022
1836 Clouds 19 1017 71 10000 4.34 354 21:48 23.04.2022
1837 Clouds 19 1016 71 10000 4.57 351 21:29 23.04.2022
1838 Clouds 19 1016 69 10000 4.21 353 19:56 23.04.2022
1839 Clouds 19 1016 68 10000 3.84 348 19:20 23.04.2022
1840 Clouds 19 1016 68 10000 3.84 348 18:54 23.04.2022
1841 Clouds 19 1016 68 10000 3.84 348 18:32 23.04.2022
1842 Clouds 20 1016 68 10000 3.67 347 17:47 23.04.2022
1843 Clouds 19 1016 69 10000 3.58 342 16:46 23.04.2022
1844 Clouds 19 1017 70 10000 3.54 350 15:51 23.04.2022
1845 Clouds 20 1018 70 10000 3.65 346 13:31 23.04.2022
1846 Clouds 19 1017 73 10000 3.92 326 11:29 23.04.2022
1847 Clouds 18 1017 73 10000 3.92 326 10:32 23.04.2022
1848 Clouds 16 1016 77 10000 4.93 328 08:18 23.04.2022
1849 Clouds 16 1015 75 10000 5.77 315 03:57 23.04.2022
1850 Clouds 16 1016 72 10000 5.5 315 02:36 23.04.2022
1851 Clouds 18 1017 69 10000 6.46 319 23:34 22.04.2022
1852 Clouds 18 1016 69 10000 6.47 320 22:43 22.04.2022
1853 Clouds 18 1015 69 10000 6.34 324 21:56 22.04.2022
1854 Clouds 18 1015 69 10000 6.34 324 21:56 22.04.2022
1855 Clouds 18 1015 69 10000 6.34 324 21:56 22.04.2022
1856 Clouds 18 1015 69 10000 6.34 324 21:56 22.04.2022
1857 Clouds 18 1015 69 10000 6.34 324 21:56 22.04.2022
1858 Clouds 18 1015 69 10000 6.35 324 21:56 22.04.2022
1859 Clouds 18 1015 69 10000 6.34 324 21:38 22.04.2022
1860 Clouds 18 1015 70 10000 6.44 322 20:30 22.04.2022
1861 Clouds 18 1015 72 10000 6.16 326 19:25 22.04.2022
1862 Clouds 18 1015 72 10000 6.16 326 18:56 22.04.2022
1863 Clouds 18 1015 73 10000 6.01 329 18:24 22.04.2022
1864 Clouds 20 1015 74 10000 5.83 335 16:54 22.04.2022
1865 Clouds 20 1015 70 10000 5.48 332 15:58 22.04.2022
1866 Clouds 19 1016 65 10000 4.6 324 15:23 22.04.2022
1867 Clouds 18 1016 65 10000 4.6 324 14:38 22.04.2022
1868 Clouds 18 1016 60 10000 3.3 320 13:41 22.04.2022
1869 Clouds 20 1016 60 10000 2.97 319 12:36 22.04.2022
1870 Clouds 19 1016 63 10000 3.97 333 11:23 22.04.2022
1871 Clouds 19 1016 63 10000 3.97 333 10:56 22.04.2022
1872 Clouds 18 1016 63 10000 3.97 333 10:32 22.04.2022
1873 Clouds 18 1016 64 10000 4.63 332 09:54 22.04.2022
1874 Clouds 16 1015 67 10000 4.8 330 08:56 22.04.2022
1875 Clouds 16 1015 67 10000 4.8 330 08:36 22.04.2022
1876 Clouds 17 1015 70 10000 4.06 336 06:21 22.04.2022
1877 Clouds 18 1018 72 10000 3.86 2 00:53 22.04.2022
1878 Clouds 18 1017 73 10000 4.45 15 23:29 21.04.2022
1879 Clouds 19 1017 73 10000 4.45 15 22:34 21.04.2022
1880 Clouds 19 1017 72 10000 4.81 11 21:25 21.04.2022
1881 Clouds 19 1017 70 10000 5.23 12 20:29 21.04.2022
1882 Clouds 21 1016 71 10000 5.49 11 18:49 21.04.2022
1883 Clouds 20 1017 71 10000 4.73 9 18:19 21.04.2022
1884 Clouds 21 1017 70 10000 5.09 9 16:56 21.04.2022
1885 Clouds 21 1019 69 10000 5.18 11 15:24 21.04.2022
1886 Clouds 21 1019 69 10000 5.18 11 14:51 21.04.2022
1887 Clouds 20 1019 69 10000 5.29 8 13:56 21.04.2022
1888 Clouds 20 1020 70 10000 5 7 13:20 21.04.2022
1889 Clouds 19 1020 70 10000 4.99 12 11:46 21.04.2022
1890 Clouds 18 1019 73 10000 4.55 20 09:24 21.04.2022
1891 Clouds 18 1018 76 10000 4.83 19 08:29 21.04.2022
1892 Clouds 18 1019 76 10000 5.9 24 06:26 21.04.2022
1893 Clouds 18 1020 76 10000 6.15 27 03:39 21.04.2022
1894 Clouds 18 1021 78 10000 6.46 30 03:18 21.04.2022
1895 Clouds 18 1021 78 10000 6.46 30 02:43 21.04.2022
1896 Clouds 18 1022 71 10000 7.6 25 00:27 21.04.2022
1897 Clouds 18 1021 70 10000 8.02 22 23:24 20.04.2022
1898 Clouds 18 1021 70 10000 8.02 22 22:58 20.04.2022
1899 Clouds 18 1021 70 10000 8.02 22 22:32 20.04.2022
1900 Clouds 19 1020 69 10000 8.27 21 21:35 20.04.2022
1901 Clouds 19 1019 70 10000 8.07 21 20:43 20.04.2022
1902 Clouds 20 1019 68 10000 8.07 24 20:20 20.04.2022
1903 Clouds 21 1019 68 10000 8.07 24 19:38 20.04.2022
1904 Clouds 20 1019 68 10000 8.04 26 18:42 20.04.2022
1905 Clouds 21 1020 66 10000 7.61 27 16:59 20.04.2022
1906 Clouds 21 1020 66 10000 7.61 27 16:39 20.04.2022
1907 Clouds 21 1021 65 10000 7.37 29 14:52 20.04.2022
1908 Clouds 18 1021 69 10000 8.13 29 11:57 20.04.2022
1909 Clouds 18 1021 69 10000 8.13 29 11:33 20.04.2022
1910 Clouds 18 1020 72 10000 8.15 29 10:29 20.04.2022
1911 Clouds 18 1019 72 10000 8.09 28 09:27 20.04.2022
1912 Clouds 18 1019 72 10000 8.11 28 08:25 20.04.2022
1913 Clouds 18 1019 73 10000 7.94 27 07:44 20.04.2022
1914 Clouds 18 1019 74 10000 7.92 28 04:49 20.04.2022
1915 Clouds 18 1020 75 10000 8.6 34 01:20 20.04.2022
1916 Clouds 18 1020 75 10000 8.4 33 00:20 20.04.2022
1917 Clouds 19 1019 76 10000 8.43 31 22:44 19.04.2022
1918 Clouds 19 1018 77 10000 8.5 30 22:22 19.04.2022
1919 Clouds 19 1018 77 10000 8.5 30 21:38 19.04.2022
1920 Clouds 19 1017 76 10000 8.22 29 20:56 19.04.2022
1921 Clouds 20 1017 76 10000 8.22 29 20:36 19.04.2022
1922 Clouds 20 1017 75 10000 8.31 27 19:31 19.04.2022
1923 Clouds 20 1017 74 10000 7.8 29 18:18 19.04.2022
1924 Clouds 21 1017 74 10000 7.34 32 16:46 19.04.2022
1925 Clouds 22 1017 75 10000 7.34 33 16:24 19.04.2022
1926 Clouds 21 1018 75 10000 7.24 36 15:23 19.04.2022
1927 Clouds 22 1018 75 10000 7.24 36 14:32 19.04.2022
1928 Clouds 21 1018 76 10000 7.32 36 12:52 19.04.2022
1929 Clouds 21 1018 79 10000 7.09 37 12:26 19.04.2022
1930 Clouds 20 1017 81 10000 7.32 38 11:23 19.04.2022
1931 Clouds 18 1016 85 10000 7.94 36 09:26 19.04.2022
1932 Clouds 19 1015 87 10000 6.64 39 07:26 19.04.2022
1933 Clouds 19 1015 85 10000 5.45 42 04:19 19.04.2022
1934 Clouds 20 1016 83 10000 4.44 40 01:18 19.04.2022
1935 Clouds 20 1016 83 10000 4.14 49 23:40 18.04.2022
1936 Clouds 21 1014 82 10000 3.79 44 21:56 18.04.2022
1937 Clouds 22 1014 77 10000 4.25 37 21:24 18.04.2022
1938 Clouds 23 1014 77 10000 4.25 37 20:38 18.04.2022
1939 Clouds 23 1014 77 10000 4.25 37 20:38 18.04.2022
1940 Clear 24 1013 71 10000 4.55 49 19:59 18.04.2022
1941 Clear 24 1013 68 10000 4.21 70 19:29 18.04.2022
1942 Clear 24 1013 68 10000 4.21 70 18:34 18.04.2022
1943 Clear 25 1013 67 10000 4.65 89 17:39 18.04.2022
1944 Clear 25 1013 67 10000 4.65 89 17:39 18.04.2022
1945 Clear 25 1013 67 10000 5.47 95 17:19 18.04.2022
1946 Clear 25 1013 67 10000 5.47 95 16:36 18.04.2022
1947 Clear 26 1013 66 10000 5.84 94 15:30 18.04.2022
1948 Clear 27 1014 66 10000 5.85 92 13:55 18.04.2022
1949 Clear 25 1014 64 10000 5.55 91 12:41 18.04.2022
1950 Clear 26 1014 66 10000 5.43 85 11:48 18.04.2022
1951 Clear 24 1013 64 10000 5.14 85 10:46 18.04.2022
1952 Clear 26 1013 63 10000 4.28 79 09:31 18.04.2022
1953 Clear 26 1013 63 10000 4.28 79 09:31 18.04.2022
1954 Clear 25 1012 60 10000 3.38 78 08:37 18.04.2022
1955 Clear 24 1011 61 10000 2.69 67 06:25 18.04.2022
1956 Clouds 26 1013 57 10000 1.99 51 02:27 18.04.2022
1957 Clouds 25 1013 62 10000 2.33 86 22:55 17.04.2022
1958 Clouds 25 1013 62 10000 2.33 86 22:32 17.04.2022
1959 Clouds 27 1012 60 10000 2.25 72 21:34 17.04.2022
1960 Clouds 27 1012 57 10000 2.61 82 20:51 17.04.2022
1961 Clouds 28 1011 53 10000 3.3 91 20:18 17.04.2022
1962 Clouds 29 1011 51 10000 2.99 92 18:42 17.04.2022
1963 Clouds 29 1012 47 10000 3.81 120 17:20 17.04.2022
1964 Clouds 29 1012 47 10000 4.26 130 15:34 17.04.2022
1965 Clouds 29 1013 51 10000 4.71 131 14:45 17.04.2022
1966 Clouds 27 1014 57 10000 3.54 109 13:28 17.04.2022
1967 Clouds 26 1014 57 10000 3.54 109 12:31 17.04.2022
1968 Clouds 25 1014 62 10000 2.6 83 10:51 17.04.2022
1969 Clouds 24 1014 63 10000 2.83 52 10:29 17.04.2022
1970 Clouds 21 1014 64 10000 2.86 54 09:51 17.04.2022
1971 Clouds 20 1013 65 10000 2.78 29 09:18 17.04.2022
1972 Clouds 20 1013 65 10000 2.68 17 08:29 17.04.2022
1973 Clouds 21 1013 70 10000 2.56 3 05:33 17.04.2022
1974 Clouds 21 1015 71 10000 2.1 360 01:52 17.04.2022
1975 Clouds 20 1015 74 10000 2.48 359 00:37 17.04.2022
1976 Clouds 20 1015 76 10000 4.24 1 23:19 16.04.2022
1977 Clouds 21 1014 76 10000 4.51 357 21:45 16.04.2022
1978 Clouds 21 1014 75 10000 4.34 2 20:54 16.04.2022
1979 Clouds 23 1013 73 10000 4.3 27 19:24 16.04.2022
1980 Clouds 23 1013 73 10000 4.3 27 18:43 16.04.2022
1981 Clouds 23 1014 69 10000 4.17 43 16:51 16.04.2022
1982 Clouds 23 1015 70 10000 4.14 49 15:49 16.04.2022
1983 Clouds 23 1015 71 10000 4.32 51 14:58 16.04.2022
1984 Clouds 22 1015 71 10000 4.32 51 14:37 16.04.2022
1985 Clouds 22 1015 72 10000 4.45 50 13:48 16.04.2022
1986 Clouds 22 1016 74 10000 4.33 48 12:35 16.04.2022
1987 Clouds 21 1016 76 10000 4.34 43 11:33 16.04.2022
1988 Clouds 19 1015 81 10000 4.34 42 10:29 16.04.2022
1989 Clouds 18 1015 81 10000 4.34 42 09:36 16.04.2022
1990 Clouds 18 1015 83 10000 4.49 40 08:42 16.04.2022
1991 Clouds 19 1015 85 10000 4.44 25 07:21 16.04.2022
1992 Clouds 19 1015 84 10000 4.23 13 04:58 16.04.2022
1993 Clear 20 1017 85 10000 5.8 5 01:23 16.04.2022
1994 Clear 20 1017 84 10000 6.08 3 23:45 15.04.2022
1995 Clear 20 1017 83 10000 6.11 3 22:48 15.04.2022
1996 Clear 20 1016 81 10000 6.08 4 22:28 15.04.2022
1997 Clear 20 1016 75 10000 6.08 4 21:20 15.04.2022
1998 Clear 21 1016 75 10000 6.08 4 20:38 15.04.2022
1999 Clear 22 1015 71 10000 5.92 8 19:43 15.04.2022
2000 Clear 22 1015 69 10000 6.1 13 18:58 15.04.2022
2001 Clear 22 1015 69 10000 6.18 17 18:26 15.04.2022
2002 Clear 23 1015 69 10000 6.18 17 17:57 15.04.2022
2003 Clear 23 1016 69 10000 6.4 19 17:24 15.04.2022
2004 Clear 24 1016 68 10000 6.31 20 16:24 15.04.2022
2005 Clear 24 1016 68 10000 6.31 20 15:41 15.04.2022
2006 Clear 24 1016 68 10000 6.31 20 15:41 15.04.2022
2007 Clouds 22 1017 68 10000 5.72 26 13:55 15.04.2022
2008 Clouds 21 1018 69 10000 6.1 28 12:50 15.04.2022
2009 Clouds 20 1018 70 10000 6.25 28 12:21 15.04.2022
2010 Clouds 20 1018 70 10000 6.25 28 11:42 15.04.2022
2011 Clouds 19 1017 74 10000 6.28 24 10:46 15.04.2022
2012 Clouds 18 1017 77 10000 6.39 22 09:59 15.04.2022
2013 Clouds 18 1017 80 10000 6.39 21 09:22 15.04.2022
2014 Clouds 18 1017 80 10000 6.39 21 08:39 15.04.2022
2015 Clouds 18 1016 80 10000 6.55 17 06:48 15.04.2022
2016 Clouds 18 1016 80 10000 6.54 17 04:43 15.04.2022
2017 Clouds 18 1018 78 10000 6.88 16 00:34 15.04.2022
2018 Clouds 18 1018 78 10000 7.79 17 23:22 14.04.2022
2019 Clouds 18 1018 78 10000 7.79 17 22:45 14.04.2022
2020 Clouds 19 1018 78 10000 8.22 16 22:27 14.04.2022
2021 Clouds 19 1018 78 10000 8.22 16 21:47 14.04.2022
2022 Clear 21 1017 71 10000 7.95 11 19:24 14.04.2022
2023 Clear 22 1017 71 10000 7.95 11 18:53 14.04.2022
2024 Clear 22 1017 69 10000 7.68 12 17:45 14.04.2022
2025 Clear 22 1017 69 10000 7.59 11 16:51 14.04.2022
2026 Clear 22 1017 68 10000 7.33 14 15:51 14.04.2022
2027 Clouds 22 1018 67 10000 6.84 18 13:53 14.04.2022
2028 Clouds 21 1018 67 10000 6.99 17 13:21 14.04.2022
2029 Clouds 21 1018 67 10000 6.99 17 12:32 14.04.2022
2030 Clouds 20 1018 68 10000 7.09 18 11:43 14.04.2022
2031 Clouds 20 1018 71 10000 6.94 19 11:18 14.04.2022
2032 Clouds 18 1018 71 10000 6.94 19 10:31 14.04.2022
2033 Clouds 18 1017 75 10000 7.52 19 09:30 14.04.2022
2034 Clouds 18 1016 72 10000 8.01 15 08:23 14.04.2022
2035 Clouds 18 1016 74 10000 7.5 14 05:57 14.04.2022
2036 Clouds 18 1018 73 10000 7.77 10 00:59 14.04.2022
2037 Clouds 19 1018 73 10000 7.66 6 22:38 13.04.2022
2038 Clouds 19 1018 73 10000 7.48 5 21:43 13.04.2022
2039 Clouds 20 1017 72 10000 7.49 4 20:41 13.04.2022
2040 Clouds 20 1017 70 10000 7.54 2 19:49 13.04.2022
2041 Clouds 22 1016 70 10000 7.13 1 18:37 13.04.2022
2042 Clouds 23 1016 69 10000 6.24 359 17:25 13.04.2022
2043 Clouds 22 1016 69 10000 6.29 359 16:53 13.04.2022
2044 Clouds 22 1017 69 10000 6.51 360 16:18 13.04.2022
2045 Clouds 21 1017 71 10000 6.85 358 15:29 13.04.2022
2046 Clouds 21 1017 71 10000 6.85 358 14:40 13.04.2022
2047 Clouds 19 1018 76 10000 7.38 356 13:43 13.04.2022
2048 Clouds 19 1018 77 10000 6.71 350 12:52 13.04.2022
2049 Clouds 20 1018 78 10000 6.31 345 11:58 13.04.2022
2050 Clouds 19 1017 77 10000 6.66 348 10:34 13.04.2022
2051 Clouds 18 1017 81 10000 6.36 352 08:49 13.04.2022
2052 Clouds 18 1017 79 10000 6.93 356 08:23 13.04.2022
2053 Clouds 18 1016 80 10000 6.28 360 06:49 13.04.2022
2054 Clouds 18 1016 79 10000 6.11 2 06:24 13.04.2022
2055 Clouds 18 1018 77 10000 5.82 3 02:24 13.04.2022
2056 Clouds 18 1018 76 10000 4.73 7 00:19 13.04.2022
2057 Clouds 19 1018 76 10000 4.95 5 22:33 12.04.2022
2058 Clouds 19 1017 76 10000 5.34 6 21:54 12.04.2022
2059 Clouds 20 1017 75 10000 6.31 5 20:48 12.04.2022
2060 Clouds 20 1016 72 10000 6.28 2 20:20 12.04.2022
2061 Clear 21 1016 71 10000 6.03 3 19:40 12.04.2022
2062 Clear 21 1016 69 10000 5.99 5 18:56 12.04.2022
2063 Clear 22 1016 68 10000 5.32 3 17:39 12.04.2022
2064 Clear 22 1016 68 10000 4.73 359 16:46 12.04.2022
2065 Clear 23 1017 68 10000 5.61 359 15:34 12.04.2022
2066 Clear 22 1017 68 10000 5.9 355 14:48 12.04.2022
2067 Clouds 22 1017 69 10000 5.91 357 13:45 12.04.2022
2068 Clouds 21 1017 70 10000 6.13 357 13:24 12.04.2022
2069 Clouds 20 1017 72 10000 5.95 356 12:18 12.04.2022
2070 Clouds 19 1017 72 10000 5.95 356 11:35 12.04.2022
2071 Clouds 18 1017 75 10000 6.17 345 09:47 12.04.2022
2072 Clouds 18 1016 77 10000 5.47 338 08:49 12.04.2022
2073 Clouds 18 1015 78 10000 6.25 336 06:47 12.04.2022
2074 Clouds 18 1015 78 10000 6.03 335 05:40 12.04.2022
2075 Clouds 19 1016 76 10000 5.8 337 02:37 12.04.2022
2076 Clouds 20 1016 77 10000 6.66 333 23:20 11.04.2022
2077 Clouds 20 1015 77 10000 7.11 330 21:59 11.04.2022
2078 Clouds 20 1014 75 10000 6.68 325 21:18 11.04.2022
2079 Clouds 21 1014 75 10000 6.68 325 20:34 11.04.2022
2080 Clouds 21 1013 75 10000 6.67 330 19:59 11.04.2022
2081 Clouds 21 1013 75 10000 6.6 333 19:26 11.04.2022
2082 Clouds 21 1013 75 10000 6.6 333 18:53 11.04.2022
2083 Clouds 22 1013 74 10000 5.57 333 17:58 11.04.2022
2084 Clouds 22 1013 74 10000 5.57 333 17:33 11.04.2022
2085 Clouds 22 1014 73 10000 5.16 342 16:26 11.04.2022
2086 Clouds 22 1015 74 10000 3.98 339 14:42 11.04.2022
2087 Clouds 22 1015 72 10000 4.42 336 13:34 11.04.2022
2088 Clouds 21 1015 72 10000 4.16 328 12:38 11.04.2022
2089 Clouds 21 1015 72 10000 4.8 327 12:19 11.04.2022
2090 Clouds 18 1014 74 10000 4.83 320 10:36 11.04.2022
2091 Clouds 16 1014 78 10000 5.34 321 09:41 11.04.2022
2092 Clouds 16 1013 85 10000 5.95 326 07:53 11.04.2022
2093 Clear 17 1013 81 10000 4.61 326 03:19 11.04.2022
2094 Clouds 19 1013 76 10000 3.75 321 23:22 10.04.2022
2095 Clouds 19 1013 76 10000 4.32 324 22:26 10.04.2022
2096 Clouds 19 1013 76 10000 4.32 324 21:35 10.04.2022
2097 Clouds 19 1013 75 10000 4.01 329 20:50 10.04.2022
2098 Clouds 20 1012 73 10000 4.25 330 19:53 10.04.2022
2099 Clouds 21 1012 73 10000 4.25 330 19:30 10.04.2022
2100 Clouds 20 1012 71 10000 3.45 343 18:46 10.04.2022
2101 Clouds 20 1012 69 10000 2.69 348 17:58 10.04.2022
2102 Clouds 20 1012 69 10000 2.69 348 17:58 10.04.2022
2103 Clouds 20 1012 69 10000 2.69 348 17:58 10.04.2022
2104 Clouds 20 1012 69 10000 2.69 348 17:58 10.04.2022
2105 Clouds 20 1012 69 10000 2.69 348 17:39 10.04.2022
2106 Clouds 20 1013 69 10000 3.23 349 16:44 10.04.2022
2107 Clouds 20 1013 69 10000 3.76 344 15:37 10.04.2022
2108 Clear 20 1014 69 10000 4.06 345 14:34 10.04.2022
2109 Clear 19 1015 68 10000 3.78 338 12:41 10.04.2022
2110 Clouds 19 1015 69 10000 2.52 339 12:21 10.04.2022
2111 Clouds 18 1014 73 10000 2.83 336 11:29 10.04.2022
2112 Clouds 16 1014 73 10000 2.83 336 10:56 10.04.2022
2113 Clouds 16 1014 77 10000 2.91 334 10:20 10.04.2022
2114 Clouds 15 1014 77 10000 2.91 334 09:39 10.04.2022
2115 Clouds 16 1014 79 10000 3.3 340 08:24 10.04.2022
2116 Clouds 15 1013 80 10000 3.53 338 07:42 10.04.2022
2117 Clouds 16 1013 78 10000 2.57 351 05:57 10.04.2022
2118 Clouds 17 1015 80 10000 3.95 347 02:37 10.04.2022
2119 Clear 18 1016 79 10000 4.23 344 00:34 10.04.2022
2120 Clear 18 1016 78 10000 4.44 346 23:49 09.04.2022
2121 Clear 18 1016 78 10000 4.53 343 22:50 09.04.2022
2122 Clear 19 1016 77 10000 4.2 348 21:46 09.04.2022
2123 Clear 19 1015 75 10000 4.22 354 20:50 09.04.2022
2124 Clear 20 1015 72 10000 3.67 5 20:26 09.04.2022
2125 Clear 20 1015 72 10000 3.67 5 19:42 09.04.2022
2126 Clear 21 1015 71 10000 3.17 19 19:18 09.04.2022
2127 Clear 21 1015 69 10000 3.13 33 18:21 09.04.2022
2128 Clear 20 1015 69 10000 3.13 33 17:39 09.04.2022
2129 Clear 20 1016 69 10000 3.52 44 16:53 09.04.2022
2130 Clear 20 1017 67 10000 3.72 46 15:57 09.04.2022
2131 Clear 21 1017 67 10000 3.72 46 15:39 09.04.2022
2132 Clear 21 1018 66 10000 3.54 45 14:44 09.04.2022
2133 Clouds 20 1018 68 10000 3.81 60 14:23 09.04.2022
2134 Clouds 20 1019 70 10000 3.97 50 13:18 09.04.2022
2135 Clouds 19 1019 70 10000 3.97 50 12:41 09.04.2022
2136 Clouds 18 1019 74 10000 4.59 25 11:22 09.04.2022
2137 Clouds 18 1019 77 10000 4.95 19 10:21 09.04.2022
2138 Clouds 17 1019 77 10000 4.97 19 09:38 09.04.2022
2139 Clouds 17 1019 79 10000 4.96 17 08:54 09.04.2022
2140 Clouds 17 1019 79 10000 4.74 24 07:21 09.04.2022
2141 Clouds 18 1021 77 10000 5.31 29 02:20 09.04.2022
2142 Clouds 18 1022 76 10000 5.99 27 23:45 08.04.2022
2143 Clouds 18 1022 74 10000 5.89 23 21:58 08.04.2022
2144 Clear 18 1022 73 10000 5.91 23 21:29 08.04.2022
2145 Clear 19 1022 73 10000 5.91 23 20:39 08.04.2022
2146 Clear 20 1021 71 10000 5.76 24 19:20 08.04.2022
2147 Clear 21 1021 71 10000 5.76 24 18:30 08.04.2022
2148 Clear 21 1021 69 10000 5.83 23 17:49 08.04.2022
2149 Clear 21 1022 67 10000 5.83 23 17:25 08.04.2022
2150 Clear 21 1022 67 10000 5.83 23 16:49 08.04.2022
2151 Clear 21 1022 66 10000 5.38 26 15:57 08.04.2022
2152 Clear 22 1023 65 10000 5.21 30 15:26 08.04.2022
2153 Clear 21 1023 65 10000 5.21 30 14:33 08.04.2022
2154 Clouds 20 1023 66 10000 5.04 32 13:46 08.04.2022
2155 Clouds 20 1024 66 10000 5.18 34 13:27 08.04.2022
2156 Clouds 20 1024 66 10000 5.37 33 11:56 08.04.2022
2157 Clouds 19 1024 68 10000 5.34 33 10:33 08.04.2022
2158 Clouds 18 1023 73 10000 5.5 32 09:38 08.04.2022
2159 Clouds 18 1023 75 10000 6.11 29 08:44 08.04.2022
2160 Clouds 18 1022 71 10000 6.37 23 06:55 08.04.2022
2161 Clouds 18 1023 71 10000 6.16 25 05:18 08.04.2022
2162 Clear 18 1025 73 10000 6.39 22 01:27 08.04.2022
2163 Clear 18 1025 72 10000 6.34 20 00:25 08.04.2022
2164 Clear 18 1025 72 10000 6.34 20 00:25 08.04.2022
2165 Clear 18 1024 71 10000 6.24 19 22:59 07.04.2022
2166 Clear 18 1024 71 10000 6.24 19 22:39 07.04.2022
2167 Clear 18 1024 70 10000 6.35 18 22:21 07.04.2022
2168 Clear 18 1024 70 10000 6.35 18 21:52 07.04.2022
2169 Clear 18 1023 68 10000 6.38 17 21:19 07.04.2022
2170 Clear 20 1023 68 10000 6.38 17 20:37 07.04.2022
2171 Clouds 22 1022 65 10000 5.99 18 18:35 07.04.2022
2172 Clouds 22 1023 62 10000 4.99 19 17:27 07.04.2022
2173 Clouds 21 1023 62 10000 4.99 19 16:44 07.04.2022
2174 Clouds 21 1023 62 10000 4.65 23 16:22 07.04.2022
2175 Clouds 21 1023 62 10000 4.65 23 16:22 07.04.2022
2176 Clouds 21 1024 62 10000 4.97 34 14:50 07.04.2022
2177 Clear 20 1025 61 10000 5.25 37 13:43 07.04.2022
2178 Clear 18 1025 60 10000 5.3 33 12:50 07.04.2022
2179 Clear 18 1025 60 10000 5.69 30 11:34 07.04.2022
2180 Clear 17 1024 63 10000 6.25 22 09:37 07.04.2022
2181 Clear 17 1024 65 10000 6.19 19 08:38 07.04.2022
2182 Clear 16 1023 65 10000 6.29 17 06:43 07.04.2022
2183 Clear 16 1024 64 10000 6.35 17 02:54 07.04.2022
2184 Clear 16 1024 63 10000 6.23 15 02:25 07.04.2022
2185 Clear 17 1025 62 10000 6.67 10 00:27 07.04.2022
2186 Clear 17 1024 62 10000 6.78 8 22:51 06.04.2022
2187 Clear 18 1023 61 10000 6.41 6 22:27 06.04.2022
2188 Clear 18 1023 61 10000 6.41 6 21:44 06.04.2022
2189 Clear 19 1023 59 10000 6.45 5 20:36 06.04.2022
2190 Clouds 20 1022 57 10000 6.28 6 19:53 06.04.2022
2191 Clouds 20 1022 56 10000 6.08 9 18:51 06.04.2022
2192 Clouds 21 1022 57 10000 6.11 7 18:25 06.04.2022
2193 Clouds 21 1022 57 10000 6.11 7 17:35 06.04.2022
2194 Clouds 20 1023 58 10000 5.96 8 16:38 06.04.2022
2195 Clouds 20 1023 59 10000 5.75 12 15:48 06.04.2022
2196 Clouds 20 1023 59 10000 5.63 14 15:21 06.04.2022
2197 Clouds 19 1024 58 10000 6.81 4 13:25 06.04.2022
2198 Clouds 19 1023 58 10000 6.76 1 12:27 06.04.2022
2199 Clouds 17 1023 59 10000 6.26 359 10:48 06.04.2022
2200 Clouds 16 1022 62 10000 5.73 356 10:29 06.04.2022
2201 Clouds 16 1022 62 10000 5.73 356 09:40 06.04.2022
2202 Clouds 16 1022 62 10000 5.73 356 09:40 06.04.2022
2203 Clouds 17 1022 64 10000 5.69 353 08:32 06.04.2022
2204 Clouds 16 1021 63 10000 5.86 358 07:50 06.04.2022
2205 Clouds 16 1021 61 10000 6.34 358 04:30 06.04.2022
2206 Clouds 17 1022 60 10000 6.95 350 23:54 05.04.2022
2207 Clouds 17 1021 61 10000 6.95 349 22:58 05.04.2022
2208 Clouds 18 1020 62 10000 6.47 351 21:23 05.04.2022
2209 Clouds 18 1019 62 10000 6.65 350 20:26 05.04.2022
2210 Clouds 19 1019 62 10000 6.65 350 19:47 05.04.2022
2211 Clouds 19 1018 59 10000 6.5 352 18:18 05.04.2022
2212 Clouds 19 1019 59 10000 6.09 348 16:54 05.04.2022
2213 Clouds 20 1019 59 10000 6.09 348 16:35 05.04.2022
2214 Clouds 18 1019 60 10000 6.16 347 15:35 05.04.2022
2215 Clouds 18 1020 60 10000 5.73 346 14:37 05.04.2022
2216 Clouds 17 1020 58 10000 5.59 351 13:37 05.04.2022
2217 Clouds 16 1019 54 10000 6.48 352 11:51 05.04.2022
2218 Clouds 16 1019 54 10000 6.48 352 11:51 05.04.2022
2219 Clouds 16 1019 54 10000 6.48 352 11:51 05.04.2022
2220 Clouds 18 1019 54 10000 6.48 352 11:33 05.04.2022
2221 Clouds 17 1019 54 10000 6.74 349 10:41 05.04.2022
2222 Clouds 15 1017 60 10000 6.61 344 08:55 05.04.2022
2223 Clouds 16 1016 62 10000 7.91 345 07:22 05.04.2022
2224 Clouds 16 1016 59 10000 7.43 347 01:58 05.04.2022
2225 Clouds 18 1015 60 10000 8.04 353 22:48 04.04.2022
2226 Clouds 18 1014 59 10000 7.96 352 22:29 04.04.2022
2227 Clouds 18 1013 61 10000 7.85 352 21:21 04.04.2022
2228 Clouds 19 1013 61 10000 7.85 352 20:50 04.04.2022
2229 Clouds 19 1013 63 10000 8.02 353 20:22 04.04.2022
2230 Clouds 19 1012 68 10000 8.25 354 19:26 04.04.2022
2231 Clouds 19 1012 68 10000 8.25 354 18:37 04.04.2022
2232 Clouds 20 1011 73 10000 7.87 356 16:37 04.04.2022
2233 Clouds 21 1011 73 10000 8.05 355 15:58 04.04.2022
2234 Clouds 20 1011 73 10000 8.05 355 15:33 04.04.2022
2235 Clouds 20 1011 72 10000 8.1 354 14:46 04.04.2022
2236 Clouds 18 1011 74 10000 7.8 354 13:33 04.04.2022
2237 Clouds 20 1009 75 10000 8.51 343 12:23 04.04.2022
2238 Clouds 19 1008 73 10000 9.51 324 11:29 04.04.2022
2239 Clouds 18 1007 72 10000 9.83 319 09:51 04.04.2022
2240 Clouds 16 1003 76 10000 5.42 296 05:27 04.04.2022
2241 Clouds 17 1003 75 10000 5.03 228 02:41 04.04.2022
2242 Clouds 19 1004 77 10000 4.76 261 22:47 03.04.2022
2243 Clouds 19 1003 75 10000 3.63 268 21:48 03.04.2022
2244 Clouds 20 1003 81 10000 4.13 251 21:25 03.04.2022
2245 Clouds 22 1003 75 10000 5.63 253 19:52 03.04.2022
2246 Clouds 20 1002 67 10000 5.48 237 18:34 03.04.2022
2247 Clouds 20 1003 72 10000 4.53 221 17:49 03.04.2022
2248 Clouds 20 1004 77 10000 3.92 221 17:27 03.04.2022
2249 Clouds 20 1004 77 10000 3.92 221 16:48 03.04.2022
2250 Clouds 20 1005 74 10000 2.64 226 15:42 03.04.2022
2251 Clouds 23 1007 67 10000 1.22 205 13:58 03.04.2022
2252 Clouds 23 1007 67 10000 1.22 205 13:58 03.04.2022
2253 Clear 23 1008 66 10000 1.33 169 12:58 03.04.2022
2254 Clear 19 1008 67 10000 1.4 191 11:33 03.04.2022
2255 Clear 15 1008 68 10000 2.55 172 09:41 03.04.2022
2256 Clear 16 1008 70 10000 2.61 164 08:52 03.04.2022
2257 Clouds 16 1009 65 10000 1.22 218 05:45 03.04.2022
2258 Clouds 18 1011 65 10000 0.64 258 02:55 03.04.2022
2259 Clouds 18 1012 64 10000 1.35 0 23:27 02.04.2022
2260 Clouds 19 1012 64 10000 1.35 0 22:43 02.04.2022
2261 Clouds 19 1012 64 10000 1.76 353 21:55 02.04.2022
2262 Clouds 19 1011 65 10000 1.96 355 21:19 02.04.2022
2263 Clouds 19 1011 65 10000 1.96 355 20:36 02.04.2022
2264 Clouds 19 1011 66 10000 1.76 5 18:47 02.04.2022
2265 Clouds 20 1011 66 10000 1.85 12 18:19 02.04.2022
2266 Clouds 20 1012 65 10000 2.01 49 16:50 02.04.2022
2267 Clouds 20 1012 65 10000 2.59 51 15:42 02.04.2022
2268 Clouds 20 1013 65 10000 2.66 45 15:18 02.04.2022
2269 Clouds 21 1014 64 10000 2.27 41 14:26 02.04.2022
2270 Clouds 21 1014 65 10000 2.2 43 13:31 02.04.2022
2271 Clouds 19 1014 66 10000 1.84 49 12:21 02.04.2022
2272 Clouds 18 1014 66 10000 1.51 40 10:22 02.04.2022
2273 Clouds 18 1013 69 10000 2.5 42 07:52 02.04.2022
2274 Clouds 18 1014 74 10000 2.98 45 04:34 02.04.2022
2275 Clouds 18 1017 73 10000 4.74 42 01:21 02.04.2022
2276 Clouds 19 1017 74 10000 4.78 37 23:54 01.04.2022
2277 Clouds 18 1017 74 10000 4.7 31 22:46 01.04.2022
2278 Clouds 19 1016 71 10000 4.7 25 21:22 01.04.2022
2279 Clouds 19 1016 71 10000 4.7 25 20:46 01.04.2022
2280 Clouds 20 1016 70 10000 4.48 29 19:45 01.04.2022
2281 Clouds 20 1015 70 10000 4.24 31 19:26 01.04.2022
2282 Clouds 20 1015 70 10000 4.24 31 18:37 01.04.2022
2283 Clouds 20 1015 71 10000 4.66 36 17:38 01.04.2022
2284 Clouds 21 1017 72 10000 4.85 46 15:46 01.04.2022
2285 Clouds 20 1018 72 10000 4.54 39 14:53 01.04.2022
2286 Clouds 19 1018 72 10000 4.43 41 13:40 01.04.2022
2287 Clouds 19 1019 73 10000 4.61 35 13:20 01.04.2022
2288 Clouds 19 1019 73 10000 4.76 33 12:24 01.04.2022
2289 Clouds 18 1018 75 10000 4.98 36 10:50 01.04.2022
2290 Clouds 17 1018 77 10000 5.34 36 09:41 01.04.2022
2291 Clouds 18 1017 80 10000 5.46 35 07:41 01.04.2022
2292 Clouds 18 1017 81 10000 5.58 22 05:38 01.04.2022
2293 Clouds 18 1018 82 10000 4.82 12 04:41 01.04.2022
2294 Clouds 18 1019 81 10000 5.25 11 03:18 01.04.2022
2295 Clouds 18 1020 79 10000 4.95 14 01:51 01.04.2022
2296 Clouds 18 1020 71 10000 5.68 19 22:34 31.03.2022
2297 Clouds 19 1020 73 10000 5.63 20 21:44 31.03.2022
2298 Clouds 19 1019 72 10000 5.81 22 20:51 31.03.2022
2299 Clouds 20 1018 70 10000 5.93 23 20:28 31.03.2022
2300 Clouds 20 1018 72 10000 5.6 24 19:43 31.03.2022
2301 Clouds 21 1018 70 10000 5.57 27 18:34 31.03.2022
2302 Clouds 21 1018 67 10000 5.92 28 16:53 31.03.2022
2303 Clouds 21 1018 67 10000 5.93 27 15:57 31.03.2022
2304 Clouds 20 1019 68 10000 5.54 27 15:29 31.03.2022
2305 Clouds 20 1019 68 10000 5.54 27 14:48 31.03.2022
2306 Clouds 19 1020 68 10000 5.53 25 13:53 31.03.2022
2307 Clouds 19 1020 70 10000 5.57 19 11:31 31.03.2022
2308 Clouds 17 1019 73 10000 5.72 14 10:26 31.03.2022
2309 Clouds 17 1019 73 10000 5.72 14 09:40 31.03.2022
2310 Clouds 17 1018 71 10000 6.15 14 07:49 31.03.2022
2311 Clouds 17 1019 71 10000 6.35 8 03:30 31.03.2022
2312 Clouds 18 1019 76 10000 6.64 13 23:25 30.03.2022
2313 Clouds 19 1018 75 10000 6.35 7 22:19 30.03.2022
2314 Clouds 19 1018 75 10000 6.35 7 21:31 30.03.2022
2315 Clouds 20 1018 70 10000 6.28 6 20:44 30.03.2022
2316 Clouds 21 1017 71 10000 5.65 9 19:48 30.03.2022
2317 Clouds 21 1017 69 10000 5.89 10 18:44 30.03.2022
2318 Clouds 21 1017 68 10000 5.83 15 17:52 30.03.2022
2319 Clouds 21 1017 67 10000 5.75 21 17:23 30.03.2022
2320 Clouds 21 1017 67 10000 5.75 21 16:41 30.03.2022
2321 Clouds 21 1018 66 10000 5.59 24 15:59 30.03.2022
2322 Clouds 21 1019 66 10000 5.75 23 14:36 30.03.2022
2323 Clouds 20 1019 68 10000 6.65 15 13:22 30.03.2022
2324 Clouds 20 1019 71 10000 7.04 8 12:22 30.03.2022
2325 Clouds 18 1018 74 10000 7.11 4 10:48 30.03.2022
2326 Clouds 17 1018 75 10000 6.5 1 09:55 30.03.2022
2327 Clouds 16 1017 79 10000 6.26 5 08:21 30.03.2022
2328 Clouds 17 1016 80 10000 6.13 6 06:50 30.03.2022
2329 Clouds 17 1016 80 10000 5.71 5 05:40 30.03.2022
2330 Clouds 18 1017 78 10000 5.29 8 01:48 30.03.2022
2331 Clouds 18 1016 78 10000 5.89 353 22:41 29.03.2022
2332 Clouds 19 1016 79 10000 6.28 344 21:49 29.03.2022
2333 Clouds 19 1015 77 10000 6.38 339 21:28 29.03.2022
2334 Clouds 21 1015 76 10000 6.42 340 20:25 29.03.2022
2335 Clouds 20 1015 76 10000 6.42 340 19:31 29.03.2022
2336 Clouds 20 1014 75 10000 6.3 333 18:53 29.03.2022
2337 Clouds 20 1014 75 10000 6.3 333 18:53 29.03.2022
2338 Clouds 20 1014 74 10000 6.45 329 17:52 29.03.2022
2339 Clouds 20 1014 73 10000 6.4 327 17:18 29.03.2022
2340 Clouds 20 1014 73 10000 6.4 327 16:52 29.03.2022
2341 Clouds 21 1015 70 10000 6.1 332 15:20 29.03.2022
2342 Clouds 21 1015 70 10000 6.1 332 14:43 29.03.2022
2343 Clouds 22 1016 70 10000 6.18 326 13:33 29.03.2022
2344 Clouds 21 1016 73 10000 6.77 325 12:21 29.03.2022
2345 Clouds 19 1015 75 10000 6.87 324 10:59 29.03.2022
2346 Clouds 17 1014 78 10000 7 323 09:51 29.03.2022
2347 Clouds 17 1014 78 10000 7.32 322 08:32 29.03.2022
2348 Clouds 18 1013 77 10000 8.25 319 06:21 29.03.2022
2349 Clouds 20 1012 83 10000 6.9 308 02:19 29.03.2022
2350 Clouds 20 1011 78 10000 5.51 284 23:26 28.03.2022
2351 Clouds 20 1011 78 10000 5.51 284 22:56 28.03.2022
2352 Clouds 21 1011 78 10000 5.51 284 22:31 28.03.2022
2353 Clouds 22 1010 76 10000 4.8 257 21:38 28.03.2022
2354 Clouds 23 1009 74 10000 4.91 251 20:32 28.03.2022
2355 Clouds 22 1008 70 10000 4.65 240 19:47 28.03.2022
2356 Clouds 21 1008 69 10000 5.68 230 19:29 28.03.2022
2357 Clouds 24 1008 69 10000 5.68 230 18:40 28.03.2022
2358 Clouds 23 1008 70 10000 6.43 219 17:40 28.03.2022
2359 Clouds 23 1009 70 10000 6.82 217 16:38 28.03.2022
2360 Clouds 23 1010 65 10000 5.26 210 14:50 28.03.2022
2361 Clouds 22 1011 64 10000 5.07 210 14:22 28.03.2022
2362 Clouds 21 1012 65 10000 4.58 211 12:41 28.03.2022
2363 Clouds 20 1012 68 10000 4.83 213 11:38 28.03.2022
2364 Clear 18 1011 74 10000 4.28 211 09:47 28.03.2022
2365 Clear 18 1011 75 10000 4.08 212 09:20 28.03.2022
2366 Clear 18 1010 75 10000 3.93 211 08:23 28.03.2022
2367 Clear 18 1011 75 10000 3.04 214 07:56 28.03.2022
2368 Clear 18 1011 76 10000 3.99 222 04:27 28.03.2022
2369 Clouds 19 1012 71 10000 3.74 217 23:43 27.03.2022
2370 Clouds 20 1011 66 10000 4.23 222 22:25 27.03.2022
2371 Clouds 20 1011 66 10000 4.23 222 22:25 27.03.2022
2372 Clouds 20 1011 66 10000 4.23 222 22:25 27.03.2022
2373 Clouds 20 1011 66 10000 4.23 222 21:42 27.03.2022
2374 Clouds 20 1011 66 10000 4.23 222 21:42 27.03.2022
2375 Clouds 22 1010 66 10000 5.33 236 20:58 27.03.2022
2376 Clouds 23 1009 66 10000 4.88 245 19:53 27.03.2022
2377 Clouds 23 1009 66 10000 4.88 245 19:30 27.03.2022
2378 Clouds 23 1008 65 10000 4.56 253 18:29 27.03.2022
2379 Clouds 23 1008 65 10000 4.56 253 17:42 27.03.2022
2380 Clouds 24 1008 67 10000 4.61 256 17:23 27.03.2022
2381 Clouds 24 1009 73 10000 4.46 254 15:28 27.03.2022
2382 Clouds 23 1009 76 10000 4.52 248 13:56 27.03.2022
2383 Clouds 22 1009 82 10000 4.1 237 12:41 27.03.2022
2384 Clouds 18 1008 79 10000 5.27 196 11:21 27.03.2022
2385 Clouds 18 1007 73 10000 3.91 198 09:21 27.03.2022
2386 Clouds 16 1007 68 10000 5.11 201 05:56 27.03.2022
2387 Clouds 17 1010 64 10000 3.67 211 00:57 27.03.2022
2388 Clouds 17 1010 64 10000 3.18 192 00:24 27.03.2022
2389 Clouds 18 1010 66 10000 3.38 191 22:42 26.03.2022
2390 Clear 18 1010 68 10000 3.95 189 21:46 26.03.2022
2391 Clear 18 1010 67 10000 3.54 178 21:25 26.03.2022
2392 Clear 19 1010 65 10000 5.34 160 19:29 26.03.2022
2393 Clear 21 1009 68 10000 6.37 149 17:54 26.03.2022
2394 Clear 20 1009 68 10000 6.37 149 17:33 26.03.2022
2395 Clear 20 1009 68 10000 6.37 149 17:33 26.03.2022
2396 Clear 20 1010 66 10000 6.2 143 16:27 26.03.2022
2397 Clear 20 1012 64 10000 5.74 141 15:20 26.03.2022
2398 Clear 21 1012 65 10000 5.33 132 13:53 26.03.2022
2399 Clear 20 1013 66 10000 4.24 129 12:59 26.03.2022
2400 Clear 19 1014 66 10000 3.56 129 11:41 26.03.2022
2401 Clear 19 1014 66 10000 3.56 129 11:41 26.03.2022
2402 Clear 19 1014 66 10000 3.56 129 11:41 26.03.2022
2403 Clear 19 1014 66 10000 3.56 129 11:41 26.03.2022
2404 Clouds 19 1014 69 10000 1.61 144 10:28 26.03.2022
2405 Clouds 14 1013 73 10000 1.04 135 08:35 26.03.2022
2406 Clear 15 1012 79 10000 1.9 82 06:25 26.03.2022
2407 Clear 15 1012 79 10000 1.61 74 05:22 26.03.2022
2408 Clouds 16 1015 77 10000 2.57 359 00:28 26.03.2022
2409 Clouds 18 1015 74 10000 3.39 344 21:49 25.03.2022
2410 Clouds 18 1014 74 10000 3.92 350 20:46 25.03.2022
2411 Clouds 19 1014 73 10000 4.4 345 19:38 25.03.2022
2412 Clouds 19 1014 74 10000 3.67 351 18:47 25.03.2022
2413 Clouds 19 1014 75 10000 3.61 345 17:47 25.03.2022
2414 Clouds 19 1014 75 10000 3.91 341 17:26 25.03.2022
2415 Clouds 19 1014 74 10000 4.53 341 16:18 25.03.2022
2416 Clouds 20 1015 71 10000 4.82 335 14:26 25.03.2022
2417 Clouds 20 1016 68 10000 4.18 334 12:48 25.03.2022
2418 Clouds 18 1016 74 10000 4.74 321 09:57 25.03.2022
2419 Clouds 17 1015 77 10000 5.15 319 09:27 25.03.2022
2420 Clouds 15 1015 79 10000 5.51 320 07:54 25.03.2022
2421 Clouds 16 1014 78 10000 5.95 323 07:27 25.03.2022
2422 Clouds 15 1014 77 10000 6.16 322 05:35 25.03.2022
2423 Clear 17 1017 71 10000 5.21 327 00:46 25.03.2022
2424 Clear 18 1017 69 10000 6.24 330 22:39 24.03.2022
2425 Clear 18 1017 67 10000 6.77 324 21:42 24.03.2022
2426 Clear 19 1016 62 10000 6.97 317 19:51 24.03.2022
2427 Clear 20 1016 62 10000 6.97 317 19:33 24.03.2022
2428 Clear 21 1015 60 10000 5.93 337 17:46 24.03.2022
2429 Clear 21 1015 58 10000 5.92 339 17:19 24.03.2022
2430 Clear 22 1016 57 10000 6.77 337 15:21 24.03.2022
2431 Clear 22 1016 57 10000 6.77 337 14:43 24.03.2022
2432 Clear 22 1017 59 10000 7.44 333 14:18 24.03.2022
2433 Clear 21 1017 58 10000 8.29 329 12:47 24.03.2022
2434 Clear 20 1017 60 10000 7.93 327 11:33 24.03.2022
2435 Clouds 17 1017 63 10000 6.61 321 09:51 24.03.2022
2436 Clouds 17 1016 68 10000 6.41 331 08:40 24.03.2022
2437 Clouds 16 1016 70 10000 9.21 323 06:48 24.03.2022
2438 Clouds 17 1018 70 10000 6.93 340 02:18 24.03.2022
2439 Clouds 17 1019 66 10000 8 349 23:18 23.03.2022
2440 Clouds 18 1019 71 10000 7.44 339 21:25 23.03.2022
2441 Clouds 17 1019 71 10000 7.44 339 20:49 23.03.2022
2442 Clear 20 1018 68 10000 7.99 331 19:45 23.03.2022
2443 Clouds 20 1018 65 10000 8.49 337 18:30 23.03.2022
2444 Clouds 20 1017 64 10000 8.95 337 17:36 23.03.2022
2445 Clouds 22 1018 64 10000 8.87 337 16:20 23.03.2022
2446 Clouds 21 1019 66 10000 9 339 14:50 23.03.2022
2447 Clouds 21 1019 67 10000 9.65 337 14:21 23.03.2022
2448 Clouds 21 1020 66 10000 8.64 329 12:24 23.03.2022
2449 Clouds 18 1019 73 10000 8.19 334 09:38 23.03.2022
2450 Clouds 16 1018 81 10000 8.16 337 06:40 23.03.2022
2451 Clouds 16 1019 84 10000 5.22 321 03:58 23.03.2022
2452 Clear 18 1021 77 10000 5.38 340 00:29 23.03.2022
2453 Clear 18 1021 74 10000 5.87 339 22:26 22.03.2022
2454 Clear 18 1020 74 10000 6.01 340 21:29 22.03.2022
2455 Clear 19 1020 74 10000 6.01 340 20:39 22.03.2022
2456 Clear 20 1019 72 10000 6.55 339 19:39 22.03.2022
2457 Clear 20 1018 67 10000 5.9 350 19:18 22.03.2022
2458 Clear 22 1018 65 10000 6.2 344 17:58 22.03.2022
2459 Clear 21 1019 66 10000 6.76 340 17:25 22.03.2022
2460 Clear 21 1019 65 10000 6.68 345 15:54 22.03.2022
2461 Clear 21 1020 64 10000 5.42 347 15:22 22.03.2022
2462 Clear 21 1020 64 10000 5.42 347 14:46 22.03.2022
2463 Clear 21 1020 65 10000 4.64 350 14:25 22.03.2022
2464 Clouds 20 1021 65 10000 4.69 352 12:55 22.03.2022
2465 Clouds 19 1021 67 10000 4.87 352 11:48 22.03.2022
2466 Clouds 18 1021 67 10000 4.23 355 10:35 22.03.2022
2467 Clouds 17 1020 71 10000 4.51 0 07:57 22.03.2022
2468 Clouds 17 1019 73 10000 4.32 18 05:20 22.03.2022
2469 Clouds 17 1020 74 10000 4.33 24 03:41 22.03.2022
2470 Clouds 18 1021 75 10000 5.19 13 23:49 21.03.2022
2471 Clouds 18 1021 70 10000 5.5 10 22:29 21.03.2022
2472 Clouds 18 1021 70 10000 5.62 7 20:47 21.03.2022
2473 Clouds 18 1020 71 10000 5.51 9 20:27 21.03.2022
2474 Clouds 19 1020 71 10000 5.51 9 19:57 21.03.2022
2475 Clouds 19 1020 69 10000 5.59 16 19:25 21.03.2022
2476 Clouds 20 1019 67 10000 5.31 21 17:53 21.03.2022
2477 Clouds 21 1019 64 10000 4.79 16 17:18 21.03.2022
2478 Clouds 21 1019 64 10000 4.79 16 16:39 21.03.2022
2479 Clouds 21 1020 62 10000 4.55 8 15:47 21.03.2022
2480 Clouds 21 1020 61 10000 4.25 0 14:51 21.03.2022
2481 Clouds 21 1021 60 10000 3.57 356 13:46 21.03.2022
2482 Clouds 20 1021 58 10000 3.31 355 12:34 21.03.2022
2483 Clouds 20 1021 59 10000 3.35 357 11:44 21.03.2022
2484 Clouds 19 1021 61 10000 3.17 5 10:34 21.03.2022
2485 Clouds 16 1020 66 10000 4.31 4 08:29 21.03.2022
2486 Clouds 16 1019 68 10000 4.22 5 06:36 21.03.2022
2487 Clouds 16 1020 67 10000 4.76 8 02:40 21.03.2022
2488 Clouds 17 1021 67 10000 6.29 358 23:41 20.03.2022
2489 Clouds 18 1021 67 10000 6.26 357 22:43 20.03.2022
2490 Clear 17 1020 67 10000 6.34 354 21:50 20.03.2022
2491 Clear 18 1020 66 10000 6.08 351 21:20 20.03.2022
2492 Clear 18 1020 66 10000 6.08 351 20:43 20.03.2022
2493 Clear 19 1019 64 10000 6.46 350 19:57 20.03.2022
2494 Clear 19 1018 62 10000 6.36 350 19:26 20.03.2022
2495 Clear 21 1018 60 10000 6.36 351 17:52 20.03.2022
2496 Clear 21 1018 60 10000 6.36 351 17:30 20.03.2022
2497 Clear 21 1018 59 10000 6.1 352 16:52 20.03.2022
2498 Clear 22 1019 59 10000 5.54 352 15:27 20.03.2022
2499 Clear 21 1020 59 10000 5.72 352 13:49 20.03.2022
2500 Clouds 19 1020 61 10000 6.87 348 12:22 20.03.2022
2501 Clouds 19 1020 62 10000 7.34 346 10:55 20.03.2022
2502 Clouds 17 1018 68 10000 7.69 341 08:42 20.03.2022
2503 Clouds 17 1017 76 10000 8.12 341 06:55 20.03.2022
2504 Clouds 17 1017 74 10000 6.75 330 04:23 20.03.2022
2505 Clouds 18 1019 69 10000 7.06 338 01:29 20.03.2022
2506 Clouds 18 1019 70 10000 7.04 336 00:37 20.03.2022
2507 Clouds 18 1019 69 10000 7.43 335 22:56 19.03.2022
2508 Clouds 19 1018 67 10000 6.67 334 21:27 19.03.2022
2509 Clouds 19 1017 66 10000 6.65 338 20:28 19.03.2022
2510 Clouds 20 1017 68 10000 6.8 339 18:44 19.03.2022
2511 Clouds 20 1016 67 10000 6.44 342 18:23 19.03.2022
2512 Clouds 21 1016 67 10000 6.44 342 17:35 19.03.2022
2513 Clouds 21 1017 65 10000 4.83 346 15:43 19.03.2022
2514 Clouds 21 1018 66 10000 4.99 348 14:30 19.03.2022
2515 Clouds 21 1019 65 10000 4.58 357 12:58 19.03.2022
2516 Clouds 20 1019 67 10000 4.42 1 12:38 19.03.2022
2517 Clouds 19 1019 67 10000 4.08 5 11:51 19.03.2022
2518 Clouds 19 1019 68 10000 3.84 4 10:44 19.03.2022
2519 Clouds 17 1017 72 10000 4.1 22 06:27 19.03.2022
2520 Clouds 18 1018 79 10000 4.79 24 03:21 19.03.2022
2521 Clouds 18 1018 78 10000 4.94 23 01:33 19.03.2022
2522 Clouds 18 1020 76 10000 5.21 18 23:26 18.03.2022
2523 Clouds 18 1020 76 10000 5.24 20 22:26 18.03.2022
2524 Clouds 18 1019 75 10000 5.23 23 21:19 18.03.2022
2525 Clouds 20 1019 73 10000 5.13 24 19:50 18.03.2022
2526 Clouds 20 1018 71 10000 4.75 23 19:21 18.03.2022
2527 Clouds 21 1018 73 10000 4.66 24 17:39 18.03.2022
2528 Clouds 21 1018 71 10000 4.77 28 16:46 18.03.2022
2529 Clouds 21 1019 69 10000 4.35 32 14:45 18.03.2022
2530 Clouds 21 1019 69 10000 3.96 30 14:20 18.03.2022
2531 Clouds 21 1020 71 10000 3.47 27 12:23 18.03.2022
2532 Clouds 18 1020 73 10000 3.58 19 10:39 18.03.2022
2533 Clouds 18 1020 80 10000 3.56 355 09:23 18.03.2022
2534 Clouds 18 1019 80 10000 3.38 355 07:45 18.03.2022
2535 Clouds 17 1019 78 10000 4.24 14 06:34 18.03.2022
2536 Clouds 17 1020 71 10000 5.25 18 02:50 18.03.2022
2537 Clouds 17 1021 69 10000 7 12 00:22 18.03.2022
2538 Clouds 17 1022 67 10000 6.98 13 23:20 17.03.2022
2539 Clouds 17 1022 67 10000 7.1 11 22:23 17.03.2022
2540 Clouds 18 1022 67 10000 7.1 11 21:47 17.03.2022
2541 Clouds 18 1021 67 10000 6.81 10 21:19 17.03.2022
2542 Clouds 18 1021 67 10000 6.81 10 20:41 17.03.2022
2543 Clouds 19 1021 66 10000 7.12 10 19:45 17.03.2022
2544 Clouds 19 1020 67 10000 7.1 12 18:57 17.03.2022
2545 Clouds 19 1020 66 10000 6.82 14 17:56 17.03.2022
2546 Clouds 20 1020 67 10000 6.88 16 16:43 17.03.2022
2547 Clouds 20 1021 69 10000 7.21 17 15:44 17.03.2022
2548 Clouds 21 1022 71 10000 7.3 17 15:22 17.03.2022
2549 Clouds 20 1022 72 10000 7.48 20 13:49 17.03.2022
2550 Clouds 20 1023 75 10000 7.68 22 12:49 17.03.2022
2551 Clouds 19 1023 75 10000 7.73 23 11:53 17.03.2022
2552 Clouds 19 1023 74 10000 7.57 25 11:22 17.03.2022
2553 Clouds 18 1022 76 10000 8 23 09:47 17.03.2022
2554 Clouds 17 1022 78 10000 8.33 17 08:31 17.03.2022
2555 Clouds 18 1021 79 10000 8.22 14 06:25 17.03.2022
2556 Clouds 18 1021 79 10000 8.22 14 05:39 17.03.2022
2557 Clouds 18 1021 79 10000 8.22 14 05:39 17.03.2022
2558 Clouds 18 1022 77 10000 8.06 8 00:42 17.03.2022
2559 Clouds 18 1023 78 10000 8.35 5 22:59 16.03.2022
2560 Clouds 18 1023 78 10000 8.35 5 22:39 16.03.2022
2561 Clouds 18 1022 78 10000 8.41 2 22:19 16.03.2022
2562 Clouds 18 1022 78 10000 8.26 1 21:29 16.03.2022
2563 Clouds 19 1021 76 10000 8 359 19:26 16.03.2022
2564 Clouds 20 1021 76 10000 8 359 18:55 16.03.2022
2565 Clouds 19 1020 74 10000 8.26 354 18:20 16.03.2022
2566 Clouds 20 1020 74 10000 8.26 354 17:37 16.03.2022
2567 Clouds 20 1020 73 10000 8.71 351 16:49 16.03.2022
2568 Clouds 20 1021 71 10000 8.95 350 15:35 16.03.2022
2569 Clouds 21 1021 70 10000 8.64 344 13:44 16.03.2022
2570 Clouds 20 1022 69 10000 8.72 344 12:59 16.03.2022
2571 Clouds 20 1022 69 10000 8.83 343 11:44 16.03.2022
2572 Clouds 19 1022 68 10000 9.13 346 11:18 16.03.2022
2573 Clouds 18 1021 65 10000 9.51 345 09:58 16.03.2022
2574 Clouds 16 1020 66 10000 9.33 339 08:37 16.03.2022
2575 Clouds 16 1020 64 10000 9.42 336 03:30 16.03.2022
2576 Clouds 16 1020 67 10000 8.49 340 23:37 15.03.2022
2577 Clouds 17 1020 65 10000 8.38 339 22:37 15.03.2022
2578 Clouds 16 1020 66 10000 8.78 336 21:33 15.03.2022
2579 Clouds 19 1018 69 10000 9.06 336 19:47 15.03.2022
2580 Clouds 19 1017 68 10000 9.6 336 18:38 15.03.2022
2581 Clouds 20 1016 65 10000 9.31 338 16:45 15.03.2022
2582 Clouds 20 1016 64 10000 9.33 338 15:44 15.03.2022
2583 Clouds 18 1016 64 10000 9.4 336 14:55 15.03.2022
2584 Clouds 20 1016 64 10000 9.4 336 14:30 15.03.2022
2585 Clouds 18 1017 66 10000 9.72 337 13:24 15.03.2022
2586 Clouds 16 1017 68 10000 10.72 327 11:48 15.03.2022
2587 Clouds 16 1016 67 10000 10.74 326 10:56 15.03.2022
2588 Clouds 15 1016 65 10000 11.07 324 09:30 15.03.2022
2589 Clouds 14 1015 61 10000 10.46 319 08:32 15.03.2022
2590 Clouds 14 1015 59 10000 11.18 319 07:39 15.03.2022
2591 Clouds 14 1014 60 10000 11.78 325 06:32 15.03.2022
2592 Clouds 13 1014 64 10000 14.19 327 01:59 15.03.2022
2593 Clouds 14 1015 64 10000 13.77 328 23:32 14.03.2022
2594 Clouds 13 1015 64 10000 13.63 326 22:54 14.03.2022
2595 Clouds 15 1015 65 10000 13.45 325 21:56 14.03.2022
2596 Clouds 15 1014 64 10000 14.19 329 21:18 14.03.2022
2597 Clouds 15 1014 64 10000 14.19 329 20:30 14.03.2022
2598 Clouds 16 1014 62 10000 14.68 326 19:47 14.03.2022
2599 Clouds 16 1013 60 10000 15.44 327 18:20 14.03.2022
2600 Clouds 17 1013 60 10000 15.44 327 17:42 14.03.2022
2601 Clouds 16 1013 59 10000 15.2 326 16:37 14.03.2022
2602 Clouds 17 1015 66 10000 14.89 326 14:58 14.03.2022
2603 Clouds 18 1016 66 10000 15.8 327 13:58 14.03.2022
2604 Clouds 15 1016 68 10000 16.23 317 11:27 14.03.2022
2605 Clouds 18 1016 67 10000 14.26 315 09:58 14.03.2022
2606 Clouds 18 1016 67 10000 14.26 315 09:38 14.03.2022
2607 Clouds 18 1015 69 10000 13.04 313 08:58 14.03.2022
2608 Clouds 18 1015 69 10000 13.04 313 08:30 14.03.2022
2609 Clouds 17 1015 69 10000 11.3 313 06:47 14.03.2022
2610 Clouds 18 1016 81 10000 10.37 323 03:36 14.03.2022
2611 Clouds 18 1017 86 10000 9.58 308 01:42 14.03.2022
2612 Clouds 18 1018 84 10000 8.37 312 00:29 14.03.2022
2613 Clouds 20 1019 80 10000 6.93 314 21:51 13.03.2022
2614 Clouds 20 1019 79 10000 7.63 322 21:22 13.03.2022
2615 Clouds 20 1019 79 10000 7.63 322 20:46 13.03.2022
2616 Clear 20 1018 77 10000 7.63 323 20:22 13.03.2022
2617 Clear 20 1018 77 10000 7.63 323 19:42 13.03.2022
2618 Clouds 21 1018 72 10000 7.48 326 19:22 13.03.2022
2619 Clouds 22 1018 72 10000 7.48 326 18:45 13.03.2022
2620 Clouds 22 1018 69 10000 6.38 326 18:26 13.03.2022
2621 Clouds 22 1018 68 10000 5.84 324 17:38 13.03.2022
2622 Clouds 22 1018 68 10000 5.59 330 16:45 13.03.2022
2623 Clouds 22 1018 69 10000 5.85 339 16:23 13.03.2022
2624 Clouds 22 1018 69 10000 5.85 339 15:42 13.03.2022
2625 Clouds 22 1019 70 10000 5.56 342 14:37 13.03.2022
2626 Clouds 21 1020 71 10000 5.16 349 13:28 13.03.2022
2627 Clouds 18 1020 73 10000 5.24 353 12:23 13.03.2022
2628 Clouds 19 1020 73 10000 5.21 353 11:39 13.03.2022
2629 Clouds 19 1020 76 10000 5.01 354 10:50 13.03.2022
2630 Clouds 19 1020 79 10000 5.12 352 10:28 13.03.2022
2631 Clouds 18 1020 79 10000 5.12 352 09:42 13.03.2022
2632 Clouds 18 1020 81 10000 5.1 350 08:49 13.03.2022
2633 Clouds 18 1020 82 10000 5.13 352 08:29 13.03.2022
2634 Clouds 17 1019 80 10000 4.83 353 06:40 13.03.2022
2635 Clouds 17 1019 80 10000 5.09 358 04:51 13.03.2022
2636 Clouds 18 1021 79 10000 5.21 353 01:46 13.03.2022
2637 Clear 19 1022 80 10000 5.46 348 23:26 12.03.2022
2638 Clear 19 1022 79 10000 5.55 345 21:32 12.03.2022
2639 Clear 19 1021 75 10000 5.57 340 20:19 12.03.2022
2640 Clear 20 1021 75 10000 5.57 340 19:44 12.03.2022
2641 Clouds 22 1020 73 10000 5.3 347 18:38 12.03.2022
2642 Clouds 22 1020 72 10000 5.53 349 17:48 12.03.2022
2643 Clouds 23 1021 73 10000 5.64 354 16:28 12.03.2022
2644 Clouds 23 1021 73 10000 5.64 354 15:48 12.03.2022
2645 Clouds 22 1021 74 10000 4.85 358 15:19 12.03.2022
2646 Clear 22 1022 76 10000 4.27 359 13:53 12.03.2022
2647 Clouds 22 1023 77 10000 3.54 2 12:27 12.03.2022
2648 Clouds 21 1023 77 10000 3.54 2 11:52 12.03.2022
2649 Clouds 21 1023 78 10000 3.04 360 11:21 12.03.2022
2650 Clouds 19 1022 81 10000 2.83 357 10:18 12.03.2022
2651 Clouds 18 1022 81 10000 2.83 357 09:41 12.03.2022
2652 Clouds 18 1021 84 10000 3.73 354 07:52 12.03.2022
2653 Clouds 18 1021 83 10000 3.64 353 05:46 12.03.2022
2654 Clouds 18 1023 82 10000 3.55 3 00:27 12.03.2022
2655 Clouds 18 1023 82 10000 3.55 3 23:37 11.03.2022
2656 Clouds 18 1023 75 10000 4.27 4 21:55 11.03.2022
2657 Clouds 18 1022 73 10000 3.77 360 20:59 11.03.2022
2658 Clouds 19 1022 73 10000 3.77 360 20:40 11.03.2022
2659 Clouds 19 1022 72 10000 3.89 360 20:19 11.03.2022
2660 Clouds 19 1021 69 10000 4.06 6 19:28 11.03.2022
2661 Clear 21 1021 66 10000 3.53 17 17:38 11.03.2022
2662 Clear 21 1021 66 10000 3.84 14 17:19 11.03.2022
2663 Clear 21 1022 66 10000 3.22 18 15:57 11.03.2022
2664 Clear 20 1023 67 10000 4.43 11 15:29 11.03.2022
2665 Clear 20 1023 66 10000 3.8 19 13:27 11.03.2022
2666 Clear 20 1023 66 10000 3.99 15 12:23 11.03.2022
2667 Clear 19 1023 66 10000 3.99 15 11:56 11.03.2022
2668 Clear 17 1022 67 10000 2.46 32 10:24 11.03.2022
2669 Clear 16 1022 67 10000 2.46 32 09:32 11.03.2022
2670 Clear 15 1021 74 10000 3.42 8 08:25 11.03.2022
2671 Clear 15 1021 74 10000 3.42 8 07:46 11.03.2022
2672 Clear 15 1020 73 10000 3.44 16 06:22 11.03.2022
2673 Clear 17 1021 74 10000 3.55 20 04:24 11.03.2022
2674 Clear 17 1022 74 10000 4.67 12 00:21 11.03.2022
2675 Clear 17 1023 73 10000 5.17 9 22:31 10.03.2022
2676 Clear 17 1022 73 10000 4.62 8 21:50 10.03.2022
2677 Clear 18 1022 72 10000 4.76 6 21:23 10.03.2022
2678 Clear 19 1021 70 10000 4.76 10 19:51 10.03.2022
2679 Clear 19 1020 68 10000 3.68 21 18:56 10.03.2022
2680 Clouds 20 1019 67 10000 4.22 19 17:36 10.03.2022
2681 Clouds 20 1019 66 10000 4.07 25 16:37 10.03.2022
2682 Clouds 20 1021 66 10000 4.07 25 15:26 10.03.2022
2683 Clear 20 1021 66 10000 3.65 33 13:30 10.03.2022
2684 Clouds 20 1022 67 10000 3.84 31 12:34 10.03.2022
2685 Clouds 19 1022 71 10000 3.91 32 11:20 10.03.2022
2686 Clouds 16 1021 76 10000 4.25 26 09:27 10.03.2022
2687 Clouds 17 1021 77 10000 4.53 30 07:43 10.03.2022
2688 Clouds 16 1020 77 10000 4.8 21 04:47 10.03.2022
2689 Clouds 18 1021 78 10000 5.14 16 01:50 10.03.2022
2690 Clouds 18 1022 77 10000 5.08 14 23:28 09.03.2022
2691 Clouds 18 1021 77 10000 4.82 15 21:51 09.03.2022
2692 Clouds 18 1021 77 10000 4.82 15 21:32 09.03.2022
2693 Clouds 19 1020 75 10000 4.2 23 19:55 09.03.2022
2694 Clouds 20 1019 76 10000 4.48 23 18:34 09.03.2022
2695 Clouds 20 1019 76 10000 4.04 37 17:27 09.03.2022
2696 Clouds 21 1019 76 10000 4.04 37 16:31 09.03.2022
2697 Clouds 21 1020 76 10000 3.77 48 15:28 09.03.2022
2698 Clouds 21 1020 75 10000 3.7 43 13:54 09.03.2022
2699 Clouds 21 1021 75 10000 3.39 43 12:47 09.03.2022
2700 Clouds 20 1021 75 10000 2.96 24 11:54 09.03.2022
2701 Clouds 20 1021 75 10000 2.96 24 11:35 09.03.2022
2702 Clouds 19 1021 76 10000 2.86 30 10:26 09.03.2022
2703 Clouds 17 1020 76 10000 3.05 32 08:54 09.03.2022
2704 Clouds 17 1020 75 10000 3.43 27 07:38 09.03.2022
2705 Clouds 18 1020 81 10000 3.43 33 02:46 09.03.2022
2706 Clouds 18 1021 80 10000 3.29 37 00:41 09.03.2022
2707 Clouds 18 1021 79 10000 3.86 31 22:47 08.03.2022
2708 Clouds 18 1021 78 10000 3.96 34 21:59 08.03.2022
2709 Clouds 18 1020 77 10000 4.18 33 21:23 08.03.2022
2710 Clouds 18 1020 76 10000 4.19 35 20:29 08.03.2022
2711 Clouds 19 1020 76 10000 4.19 35 19:31 08.03.2022
2712 Clouds 20 1020 73 10000 4.53 35 18:44 08.03.2022
2713 Clouds 20 1020 68 10000 3.91 42 17:26 08.03.2022
2714 Clouds 20 1020 67 10000 3.83 46 15:45 08.03.2022
2715 Clouds 21 1021 69 10000 4.14 49 14:19 08.03.2022
2716 Clear 20 1022 69 10000 4.64 46 12:43 08.03.2022
2717 Clear 19 1022 69 10000 4.37 40 11:45 08.03.2022
2718 Clear 18 1022 69 10000 4.05 35 10:41 08.03.2022
2719 Clear 17 1022 69 10000 3.84 28 09:37 08.03.2022
2720 Clear 16 1020 73 10000 4.12 14 06:43 08.03.2022
2721 Clear 16 1020 73 10000 4.89 11 04:47 08.03.2022
2722 Clouds 17 1022 71 10000 5.22 1 23:36 07.03.2022
2723 Clouds 18 1021 69 10000 5.08 1 21:50 07.03.2022
2724 Clouds 18 1021 69 10000 5.08 1 21:31 07.03.2022
2725 Clouds 18 1021 68 10000 5.38 360 20:39 07.03.2022
2726 Clouds 19 1020 66 10000 5.59 358 19:55 07.03.2022
2727 Clear 19 1020 65 10000 5.71 0 19:29 07.03.2022
2728 Clear 20 1019 66 10000 5.8 358 18:40 07.03.2022
2729 Clear 20 1019 64 10000 5.49 360 17:41 07.03.2022
2730 Clear 21 1019 63 10000 5.14 3 16:55 07.03.2022
2731 Clear 21 1020 62 10000 4.78 1 15:27 07.03.2022
2732 Clear 20 1021 63 10000 5.19 7 12:54 07.03.2022
2733 Clouds 19 1021 64 10000 5.04 4 12:21 07.03.2022
2734 Clouds 18 1021 65 10000 5.14 4 10:36 07.03.2022
2735 Clouds 17 1019 71 10000 5.31 359 08:39 07.03.2022
2736 Clouds 16 1019 76 10000 6.24 353 02:58 07.03.2022
2737 Clear 17 1020 72 10000 6.38 347 00:22 07.03.2022
2738 Clear 18 1020 71 10000 6.74 342 23:29 06.03.2022
2739 Clear 18 1020 71 10000 6.74 342 22:32 06.03.2022
2740 Clear 18 1020 71 10000 7.48 339 21:45 06.03.2022
2741 Clear 20 1019 71 10000 7.66 336 20:30 06.03.2022
2742 Clear 20 1019 69 10000 7.58 345 19:48 06.03.2022
2743 Clouds 21 1018 65 10000 7.27 344 18:51 06.03.2022
2744 Clouds 21 1018 63 10000 7.87 345 17:49 06.03.2022
2745 Clouds 22 1018 63 10000 8.5 341 17:20 06.03.2022
2746 Clouds 22 1018 63 10000 8.5 341 16:40 06.03.2022
2747 Clouds 22 1018 63 10000 8.5 341 16:40 06.03.2022
2748 Clouds 22 1018 64 10000 8.75 335 15:37 06.03.2022
2749 Clouds 22 1019 64 10000 8.32 335 14:48 06.03.2022
2750 Clouds 22 1019 64 10000 8.23 333 14:28 06.03.2022
2751 Clouds 22 1020 65 10000 8.28 331 12:43 06.03.2022
2752 Clouds 21 1020 64 10000 8.21 330 11:56 06.03.2022
2753 Clouds 19 1020 67 10000 8.38 331 10:43 06.03.2022
2754 Clouds 17 1020 73 10000 8.39 336 09:25 06.03.2022
2755 Clouds 17 1020 74 10000 7.84 339 08:28 06.03.2022
2756 Clouds 17 1020 74 10000 7.84 339 07:33 06.03.2022
2757 Clouds 17 1022 74 10000 6.95 356 03:18 06.03.2022
2758 Clouds 17 1023 72 10000 8.13 3 00:42 06.03.2022
2759 Clouds 17 1023 72 10000 7.96 6 00:23 06.03.2022
2760 Clouds 17 1023 78 10000 7.94 8 23:19 05.03.2022
2761 Clouds 18 1023 78 10000 7.94 8 22:38 05.03.2022
2762 Clouds 18 1022 76 10000 8.13 7 21:31 05.03.2022
2763 Clouds 18 1022 76 10000 8.25 6 20:39 05.03.2022
2764 Clouds 19 1021 74 10000 8.8 8 19:23 05.03.2022
2765 Clouds 19 1021 72 10000 9.01 8 18:48 05.03.2022
2766 Clouds 19 1021 75 10000 8.81 10 17:39 05.03.2022
2767 Clouds 20 1022 74 10000 9.39 11 16:20 05.03.2022
2768 Clouds 19 1022 74 10000 9.39 11 15:30 05.03.2022
2769 Clouds 21 1023 75 10000 9.1 10 14:36 05.03.2022
2770 Clouds 19 1023 76 10000 8.95 15 13:46 05.03.2022
2771 Clouds 19 1024 74 10000 8.84 13 12:46 05.03.2022
2772 Clouds 17 1024 75 10000 9.4 16 11:21 05.03.2022
2773 Clouds 18 1024 75 10000 9.4 16 10:53 05.03.2022
2774 Clouds 17 1024 74 10000 9.96 13 09:40 05.03.2022
2775 Clouds 17 1024 75 10000 9.49 13 08:46 05.03.2022
2776 Clouds 16 1023 73 10000 10.26 9 07:23 05.03.2022
2777 Clouds 16 1023 73 10000 10.26 9 07:23 05.03.2022
2778 Clouds 17 1022 70 10000 9.9 9 05:39 05.03.2022
2779 Clouds 17 1024 66 10000 9.54 10 00:51 05.03.2022
2780 Clouds 17 1025 68 10000 9.77 11 23:21 04.03.2022
2781 Clouds 16 1025 68 10000 9.77 11 22:39 04.03.2022
2782 Clouds 16 1025 67 10000 9.41 10 21:45 04.03.2022
2783 Clouds 17 1024 70 10000 9.16 9 20:48 04.03.2022
2784 Clouds 18 1024 70 10000 8.86 10 19:39 04.03.2022
2785 Clouds 19 1024 72 10000 8.81 12 18:59 04.03.2022
2786 Clouds 19 1024 72 10000 8.81 12 18:36 04.03.2022
2787 Clouds 19 1023 68 10000 8.42 17 17:29 04.03.2022
2788 Clouds 19 1024 68 10000 7.91 15 16:26 04.03.2022
2789 Clouds 18 1024 67 10000 8.21 16 15:27 04.03.2022
2790 Clouds 19 1025 65 10000 8.52 16 13:36 04.03.2022
2791 Clouds 18 1026 67 10000 8.72 18 12:48 04.03.2022
2792 Clouds 17 1026 72 10000 8.81 12 11:37 04.03.2022
2793 Clouds 17 1026 80 10000 9.41 17 10:30 04.03.2022
2794 Clouds 17 1024 84 10000 7.96 24 09:28 04.03.2022
2795 Clouds 17 1024 85 10000 6.65 23 07:49 04.03.2022
2796 Clouds 17 1024 83 10000 6.97 18 06:26 04.03.2022
2797 Clouds 17 1026 81 10000 6.79 11 02:26 04.03.2022
2798 Clouds 18 1027 80 10000 6.83 11 23:41 03.03.2022
2799 Clouds 18 1026 80 10000 7.08 6 22:18 03.03.2022
2800 Clouds 18 1026 80 10000 7.08 6 21:36 03.03.2022
2801 Clouds 19 1026 78 10000 6.54 8 20:50 03.03.2022
2802 Clouds 20 1025 77 10000 6.79 11 19:34 03.03.2022
2803 Clouds 21 1025 74 10000 7.12 4 18:33 03.03.2022
2804 Clouds 21 1024 72 10000 6.48 6 17:43 03.03.2022
2805 Clouds 21 1024 71 10000 6.4 8 17:24 03.03.2022
2806 Clear 21 1025 71 10000 6.12 13 15:47 03.03.2022
2807 Clear 22 1025 69 10000 5.84 17 14:51 03.03.2022
2808 Clear 22 1025 69 10000 5.84 17 14:32 03.03.2022
2809 Clouds 21 1027 70 10000 5.95 23 12:44 03.03.2022
2810 Clouds 20 1027 71 10000 6.1 18 11:32 03.03.2022
2811 Clouds 19 1027 73 10000 6.89 13 10:39 03.03.2022
2812 Clouds 18 1027 73 10000 7.01 11 08:44 03.03.2022
2813 Clouds 17 1026 78 10000 6.95 13 06:58 03.03.2022
2814 Clouds 18 1026 76 10000 7.51 15 06:33 03.03.2022
2815 Clouds 18 1027 80 10000 5.93 17 00:43 03.03.2022
2816 Clouds 18 1027 79 10000 6.19 17 23:28 02.03.2022
2817 Clouds 18 1027 79 10000 6.19 17 22:48 02.03.2022
2818 Clouds 19 1026 76 10000 6.32 23 21:23 02.03.2022
2819 Clouds 19 1026 76 10000 6.32 23 20:30 02.03.2022
2820 Clouds 20 1026 76 10000 6.6 21 19:49 02.03.2022
2821 Clouds 20 1026 76 10000 6.6 21 19:30 02.03.2022
2822 Clouds 21 1025 74 10000 6.57 21 18:39 02.03.2022
2823 Clouds 21 1025 74 10000 6.57 21 18:39 02.03.2022
2824 Clouds 21 1025 72 10000 6.35 19 17:45 02.03.2022
2825 Clouds 21 1025 70 10000 6.14 23 16:59 02.03.2022
2826 Clouds 21 1025 70 10000 6.14 23 16:41 02.03.2022
2827 Clouds 22 1025 70 10000 6 31 14:42 02.03.2022
2828 Clouds 21 1027 72 10000 6.28 29 13:24 02.03.2022
2829 Clouds 21 1027 71 10000 6.24 30 12:41 02.03.2022
2830 Clouds 20 1027 73 10000 6.52 28 11:39 02.03.2022
2831 Clouds 20 1027 75 10000 6.45 27 11:18 02.03.2022
2832 Clouds 18 1026 78 10000 6.53 24 09:41 02.03.2022
2833 Clouds 17 1026 80 10000 6.76 19 08:52 02.03.2022
2834 Clouds 18 1025 80 10000 7.06 18 07:28 02.03.2022
2835 Clouds 18 1025 80 10000 7.1 15 05:44 02.03.2022
2836 Clouds 18 1025 80 10000 7.92 15 00:58 02.03.2022
2837 Clouds 18 1025 81 10000 7.67 15 00:58 02.03.2022
2838 Clouds 18 1026 81 10000 7.9 12 23:47 01.03.2022
2839 Clouds 18 1026 80 10000 7.82 12 22:45 01.03.2022
2840 Clouds 18 1025 80 10000 7.8 10 21:57 01.03.2022
2841 Clouds 18 1025 79 10000 7.74 12 21:23 01.03.2022
2842 Clouds 19 1024 78 10000 7.51 11 20:29 01.03.2022
2843 Clouds 21 1024 76 10000 7.7 10 19:24 01.03.2022
2844 Clouds 20 1023 77 10000 7.9 9 18:37 01.03.2022
2845 Clouds 20 1023 76 10000 7.99 10 18:18 01.03.2022
2846 Clouds 21 1023 72 10000 7.5 10 16:54 01.03.2022
2847 Clouds 21 1023 72 10000 7.5 10 16:30 01.03.2022
2848 Clouds 21 1023 72 10000 6.64 16 15:32 01.03.2022
2849 Clouds 21 1023 72 10000 6.72 17 14:34 01.03.2022
2850 Clouds 21 1024 73 10000 7.28 20 13:45 01.03.2022
2851 Clouds 21 1025 74 10000 7.89 16 13:22 01.03.2022
2852 Clouds 21 1025 74 10000 8.75 13 12:27 01.03.2022
2853 Clouds 19 1025 76 10000 9.54 7 10:33 01.03.2022
2854 Clouds 18 1024 76 10000 9.83 5 08:41 01.03.2022
2855 Clouds 18 1023 77 10000 9.16 9 07:40 01.03.2022
2856 Clouds 18 1022 76 10000 9.18 7 04:50 01.03.2022
2857 Clouds 18 1023 75 10000 9.03 7 01:48 01.03.2022
2858 Clouds 18 1024 74 10000 9.66 5 00:24 01.03.2022
2859 Clouds 18 1024 73 10000 9.68 6 23:19 28.02.2022
2860 Clouds 18 1023 72 10000 9.58 7 21:59 28.02.2022
2861 Clouds 19 1023 72 10000 9.32 8 21:24 28.02.2022
2862 Clouds 19 1022 72 10000 9.17 10 19:53 28.02.2022
2863 Clouds 20 1022 70 10000 9.32 11 19:27 28.02.2022
2864 Clouds 20 1021 70 10000 9.23 10 18:38 28.02.2022
2865 Clouds 20 1021 69 10000 9.25 12 17:24 28.02.2022
2866 Clouds 21 1021 69 10000 9.25 12 16:33 28.02.2022
2867 Clouds 21 1022 69 10000 9.07 12 15:23 28.02.2022
2868 Clouds 20 1022 69 10000 9.07 12 14:31 28.02.2022
2869 Clouds 20 1022 69 10000 8.95 14 13:34 28.02.2022
2870 Clouds 19 1023 69 10000 9.05 15 12:41 28.02.2022
2871 Clouds 19 1023 69 10000 9.28 15 11:55 28.02.2022
2872 Clouds 18 1023 70 10000 9.25 14 10:48 28.02.2022
2873 Clouds 18 1022 70 10000 9.15 13 10:20 28.02.2022
2874 Clouds 18 1022 70 10000 9.15 13 09:32 28.02.2022
2875 Clouds 18 1021 72 10000 8.94 13 08:29 28.02.2022
2876 Clouds 17 1021 72 10000 9.03 11 07:28 28.02.2022
2877 Clouds 17 1020 71 10000 9.14 5 04:44 28.02.2022
2878 Clouds 17 1021 70 10000 9.13 7 04:23 28.02.2022
2879 Clouds 17 1022 70 10000 9.28 3 23:27 27.02.2022
2880 Clouds 18 1022 70 10000 9.28 3 22:33 27.02.2022
2881 Clouds 18 1021 70 10000 9.49 3 21:51 27.02.2022
2882 Clouds 18 1021 70 10000 9.39 5 20:59 27.02.2022
2883 Clouds 18 1021 69 10000 9.37 6 20:27 27.02.2022
2884 Clouds 19 1021 69 10000 9.37 6 19:57 27.02.2022
2885 Clouds 19 1020 68 10000 9.7 4 19:26 27.02.2022
2886 Clouds 19 1020 68 10000 9.7 4 18:47 27.02.2022
2887 Clouds 20 1019 67 10000 9.78 4 17:55 27.02.2022
2888 Clouds 20 1019 67 10000 9.85 3 16:54 27.02.2022
2889 Clouds 20 1020 67 10000 9.55 6 16:21 27.02.2022
2890 Clouds 21 1021 72 10000 10.61 8 13:25 27.02.2022
2891 Clouds 20 1021 72 10000 10.28 9 12:32 27.02.2022
2892 Clouds 18 1021 73 10000 10.59 10 10:56 27.02.2022
2893 Clouds 18 1020 75 10000 10.14 10 10:19 27.02.2022
2894 Clouds 18 1020 75 10000 10.14 10 09:49 27.02.2022
2895 Clouds 18 1020 76 10000 10.1 9 09:20 27.02.2022
2896 Clouds 18 1019 77 10000 10.44 10 07:54 27.02.2022
2897 Clouds 17 1019 80 10000 9.14 18 05:38 27.02.2022
2898 Clouds 16 1019 82 10000 7.96 23 02:21 27.02.2022
2899 Clouds 17 1020 77 10000 7.19 1 23:23 26.02.2022
2900 Clouds 17 1020 75 10000 7.19 358 21:58 26.02.2022
2901 Clouds 17 1019 72 10000 7.81 358 20:59 26.02.2022
2902 Clouds 17 1018 72 10000 8 358 20:20 26.02.2022
2903 Clouds 17 1018 72 10000 8 358 19:49 26.02.2022
2904 Clouds 17 1018 71 10000 8.04 356 19:26 26.02.2022
2905 Clouds 17 1017 71 10000 8.07 348 17:52 26.02.2022
2906 Clouds 17 1017 72 10000 8.11 346 17:28 26.02.2022
2907 Clouds 18 1017 72 10000 8.12 344 15:57 26.02.2022
2908 Clouds 19 1018 71 10000 7.87 345 15:25 26.02.2022
2909 Clouds 19 1018 71 10000 7.87 345 14:55 26.02.2022
2910 Clouds 18 1018 71 10000 7.87 345 14:36 26.02.2022
2911 Clouds 18 1019 73 10000 7.44 345 13:27 26.02.2022
2912 Clouds 19 1019 73 10000 7.44 345 12:51 26.02.2022
2913 Clouds 17 1019 73 10000 7.38 344 11:29 26.02.2022
2914 Clouds 17 1019 73 10000 7.38 344 10:55 26.02.2022
2915 Clouds 17 1017 78 10000 7.68 345 09:18 26.02.2022
2916 Clouds 17 1017 79 10000 8.01 344 07:57 26.02.2022
2917 Clouds 17 1017 78 10000 6.32 342 02:53 26.02.2022
2918 Clouds 18 1018 76 10000 5.89 342 23:31 25.02.2022
2919 Clouds 18 1017 77 10000 6.5 342 21:48 25.02.2022
2920 Clouds 18 1017 77 10000 6.86 342 21:29 25.02.2022
2921 Clouds 19 1017 77 10000 6.86 342 20:33 25.02.2022
2922 Clouds 19 1016 76 10000 6.63 341 19:39 25.02.2022
2923 Clouds 20 1016 73 10000 6.9 348 17:33 25.02.2022
2924 Clouds 22 1016 73 10000 6.93 350 16:44 25.02.2022
2925 Clouds 22 1017 75 10000 7.13 348 15:48 25.02.2022
2926 Clouds 22 1017 75 10000 7.04 349 15:23 25.02.2022
2927 Clouds 22 1017 75 10000 7.04 349 14:42 25.02.2022
2928 Clouds 21 1018 75 10000 6.96 355 14:18 25.02.2022
2929 Clouds 21 1019 75 10000 6.75 355 13:20 25.02.2022
2930 Clouds 20 1018 75 10000 6.05 352 11:30 25.02.2022
2931 Clouds 19 1018 76 10000 5.9 350 10:54 25.02.2022
2932 Clouds 19 1018 79 10000 5.86 345 10:23 25.02.2022
2933 Clouds 18 1018 79 10000 5.86 345 09:35 25.02.2022
2934 Clouds 17 1017 82 10000 5.68 344 07:44 25.02.2022
2935 Clouds 17 1016 83 10000 5.99 336 06:20 25.02.2022
2936 Clouds 18 1016 83 10000 5.99 336 05:37 25.02.2022
2937 Clouds 18 1018 81 10000 5.55 332 00:31 25.02.2022
2938 Clouds 18 1018 78 10000 6.12 340 22:29 24.02.2022
2939 Clouds 19 1018 78 10000 6.12 340 21:43 24.02.2022
2940 Clouds 19 1018 78 10000 6.12 340 21:43 24.02.2022
2941 Clouds 19 1017 79 10000 6.31 342 21:21 24.02.2022
2942 Clouds 19 1017 79 10000 6.31 342 20:42 24.02.2022
2943 Clouds 20 1017 79 10000 6.54 346 19:19 24.02.2022
2944 Clouds 22 1016 78 10000 6.85 344 18:20 24.02.2022
2945 Clouds 22 1016 78 10000 6.85 344 17:46 24.02.2022
2946 Clouds 22 1016 76 10000 6.41 342 16:57 24.02.2022
2947 Clouds 22 1017 76 10000 6.44 341 16:25 24.02.2022
2948 Clouds 23 1017 76 10000 6.44 341 15:31 24.02.2022
2949 Clouds 23 1017 76 10000 6.87 344 14:43 24.02.2022
2950 Clouds 23 1018 74 10000 6.41 337 13:45 24.02.2022
2951 Clouds 23 1018 71 10000 5.64 320 13:27 24.02.2022
2952 Clear 20 1018 72 10000 5.09 313 10:48 24.02.2022
2953 Clear 17 1017 75 10000 4.64 318 09:42 24.02.2022
2954 Clear 14 1017 78 10000 4.57 322 08:43 24.02.2022
2955 Clear 14 1017 78 10000 4.57 322 08:43 24.02.2022
2956 Clouds 14 1016 79 10000 3.9 333 06:27 24.02.2022
2957 Clouds 15 1016 79 10000 3.9 333 05:36 24.02.2022
2958 Clear 18 1017 76 10000 3.89 339 00:30 24.02.2022
2959 Clear 18 1017 76 10000 3.89 339 00:30 24.02.2022
2960 Clear 19 1017 74 10000 2.49 339 21:56 23.02.2022
2961 Clear 19 1017 72 10000 1.41 349 20:33 23.02.2022
2962 Clouds 20 1016 70 10000 0.97 40 19:56 23.02.2022
2963 Clouds 20 1016 64 10000 0.77 149 18:59 23.02.2022
2964 Clouds 21 1015 62 10000 0.36 103 17:47 23.02.2022
2965 Clear 21 1016 57 10000 1.46 311 15:47 23.02.2022
2966 Clear 19 1018 57 10000 0.43 231 13:34 23.02.2022
2967 Clear 19 1018 54 10000 1.44 315 12:28 23.02.2022
2968 Clear 18 1018 54 10000 0.61 269 10:55 23.02.2022
2969 Clear 15 1017 56 10000 0.67 194 09:31 23.02.2022
2970 Clear 15 1015 57 10000 1.36 267 08:28 23.02.2022
2971 Clear 15 1015 59 10000 1.75 202 07:19 23.02.2022
2972 Clear 17 1016 73 10000 2.2 273 02:22 23.02.2022
2973 Clear 17 1017 71 10000 1.95 282 23:46 22.02.2022
2974 Clear 18 1017 73 10000 1.95 289 23:28 22.02.2022
2975 Clear 19 1016 73 10000 1.09 335 22:28 22.02.2022
2976 Clear 19 1016 73 10000 1.09 335 21:40 22.02.2022
2977 Clear 19 1016 72 10000 1.07 350 21:19 22.02.2022
2978 Clear 20 1016 72 10000 1.07 350 20:31 22.02.2022
2979 Clear 20 1015 69 10000 2.24 333 19:54 22.02.2022
2980 Clear 21 1015 69 10000 2.24 333 19:33 22.02.2022
2981 Clear 21 1015 60 10000 1.85 2 18:35 22.02.2022
2982 Clear 21 1015 59 10000 2.06 23 17:27 22.02.2022
2983 Clear 21 1015 59 10000 2.06 23 16:55 22.02.2022
2984 Clear 20 1015 58 10000 1.62 13 16:19 22.02.2022
2985 Clear 21 1016 58 10000 1.52 50 15:18 22.02.2022
2986 Clear 21 1017 57 10000 2 44 14:19 22.02.2022
2987 Clouds 18 1018 59 10000 1.68 35 11:18 22.02.2022
2988 Clouds 16 1018 63 10000 1.95 46 09:44 22.02.2022
2989 Clear 15 1018 69 10000 2.34 21 07:29 22.02.2022
2990 Clear 15 1018 69 10000 2.34 21 06:54 22.02.2022
2991 Clear 15 1020 72 10000 3.06 18 02:49 22.02.2022
2992 Clouds 16 1021 72 10000 2.23 77 23:18 21.02.2022
2993 Clouds 17 1021 71 10000 2.17 88 21:56 21.02.2022
2994 Clouds 17 1020 69 10000 2.05 104 20:38 21.02.2022
2995 Clouds 18 1019 71 10000 2.46 118 18:47 21.02.2022
2996 Clouds 19 1019 71 10000 3.05 113 18:19 21.02.2022
2997 Clouds 19 1019 69 10000 3.47 105 15:49 21.02.2022
2998 Clear 19 1021 66 10000 3.65 93 14:22 21.02.2022
2999 Clear 18 1021 66 10000 3.65 93 13:31 21.02.2022
3000 Clear 18 1021 66 10000 3.06 80 12:41 21.02.2022
3001 Clear 18 1022 67 10000 2.42 68 12:20 21.02.2022
3002 Clear 16 1022 68 10000 1.68 21 10:26 21.02.2022
3003 Clouds 15 1021 76 10000 3.57 324 06:25 21.02.2022
3004 Clouds 16 1023 70 10000 5.57 351 00:35 21.02.2022
3005 Clouds 17 1023 67 10000 6.75 354 22:32 20.02.2022
3006 Clouds 17 1023 64 10000 7.59 353 21:43 20.02.2022
3007 Clouds 17 1023 63 10000 8.08 345 21:21 20.02.2022
3008 Clouds 17 1023 63 10000 8.08 345 20:43 20.02.2022
3009 Clouds 18 1022 67 10000 8.28 347 19:48 20.02.2022
3010 Clouds 20 1022 67 10000 8.5 345 18:55 20.02.2022
3011 Clouds 20 1022 67 10000 8.5 345 18:34 20.02.2022
3012 Clouds 20 1022 66 10000 8.31 344 17:55 20.02.2022
3013 Clouds 20 1023 62 10000 7.39 349 16:18 20.02.2022
3014 Clouds 20 1023 59 10000 7.39 360 14:53 20.02.2022
3015 Clouds 19 1024 59 10000 7.04 3 13:58 20.02.2022
3016 Clouds 19 1025 63 10000 7.43 8 12:42 20.02.2022
3017 Clouds 16 1026 64 10000 8.9 11 10:52 20.02.2022
3018 Clouds 16 1025 66 10000 9.85 10 10:20 20.02.2022
3019 Clouds 16 1025 67 10000 9.56 8 08:58 20.02.2022
3020 Clouds 17 1026 77 10000 10.01 26 01:19 20.02.2022
3021 Clouds 17 1026 77 10000 10.05 26 00:30 20.02.2022
3022 Clouds 16 1026 79 10000 10.1 29 23:30 19.02.2022
3023 Clouds 17 1025 80 8477 10.64 35 22:23 19.02.2022
3024 Clouds 17 1025 80 8477 10.64 35 21:45 19.02.2022
3025 Clouds 18 1024 79 10000 8.85 26 19:58 19.02.2022
3026 Clouds 18 1024 79 10000 8.85 26 19:33 19.02.2022
3027 Clouds 20 1023 71 10000 7.13 17 18:38 19.02.2022
3028 Clouds 20 1023 68 10000 6.98 14 17:37 19.02.2022
3029 Clouds 20 1023 69 10000 6.86 15 16:44 19.02.2022
3030 Clouds 20 1024 67 10000 7.5 18 15:20 19.02.2022
3031 Clouds 18 1024 67 10000 7.5 18 14:52 19.02.2022
3032 Clouds 21 1024 65 10000 6.68 14 13:47 19.02.2022
3033 Clouds 19 1025 66 10000 6.99 16 11:39 19.02.2022
3034 Clouds 18 1024 68 10000 7.17 18 10:30 19.02.2022
3035 Clouds 18 1023 76 10000 7.52 15 07:56 19.02.2022
3036 Clouds 18 1022 73 10000 5.91 11 04:32 19.02.2022
3037 Clouds 18 1024 69 10000 6.46 12 23:38 18.02.2022
3038 Clouds 18 1023 69 10000 6.55 14 21:53 18.02.2022
3039 Clouds 18 1023 71 10000 6.76 10 20:57 18.02.2022
3040 Clouds 19 1022 70 10000 6.84 9 19:54 18.02.2022
3041 Clouds 20 1021 69 10000 6.9 11 18:50 18.02.2022
3042 Clouds 20 1021 69 10000 6.86 12 18:22 18.02.2022
3043 Clouds 21 1021 69 10000 6.86 12 17:55 18.02.2022
3044 Clear 21 1022 68 10000 6.03 15 15:22 18.02.2022
3045 Clear 20 1023 68 10000 5.62 17 13:55 18.02.2022
3046 Clouds 20 1024 69 10000 5.26 20 12:54 18.02.2022
3047 Clouds 19 1024 69 10000 5.19 21 12:33 18.02.2022
3048 Clouds 19 1024 73 10000 5.07 20 11:29 18.02.2022
3049 Clouds 18 1023 76 10000 5.23 20 10:23 18.02.2022
3050 Clouds 17 1022 79 10000 5.76 13 06:57 18.02.2022
3051 Clouds 17 1022 79 10000 5.77 9 05:40 18.02.2022
3052 Clouds 18 1024 75 10000 4.36 23 23:31 17.02.2022
3053 Clouds 18 1023 72 10000 4.01 33 21:45 17.02.2022
3054 Clouds 18 1023 73 10000 3.96 40 21:20 17.02.2022
3055 Clouds 18 1023 73 10000 3.96 40 20:38 17.02.2022
3056 Clouds 19 1023 75 10000 3.71 41 19:50 17.02.2022
3057 Clouds 20 1022 72 10000 3.73 42 18:44 17.02.2022
3058 Clouds 21 1022 70 10000 3.77 47 17:50 17.02.2022
3059 Clouds 21 1023 69 10000 4.44 52 16:29 17.02.2022
3060 Clouds 21 1023 69 10000 4.44 52 15:38 17.02.2022
3061 Clear 21 1025 70 10000 4.1 59 14:26 17.02.2022
3062 Clear 21 1026 71 10000 4.23 51 12:38 17.02.2022
3063 Clear 20 1027 76 10000 4.54 36 11:23 17.02.2022
3064 Clear 20 1027 76 10000 4.54 36 11:23 17.02.2022
3065 Clear 16 1026 81 10000 4.45 28 08:53 17.02.2022
3066 Clear 17 1026 79 10000 3.75 35 02:26 17.02.2022
3067 Clouds 18 1027 82 10000 4.82 40 23:21 16.02.2022
3068 Clouds 18 1027 82 10000 5.3 44 21:40 16.02.2022
3069 Clouds 19 1026 80 10000 6.06 39 19:47 16.02.2022
3070 Clouds 20 1026 77 10000 5.68 38 18:38 16.02.2022
3071 Clouds 20 1025 74 10000 5.79 40 17:53 16.02.2022
3072 Clouds 21 1026 71 10000 5.9 51 15:38 16.02.2022
3073 Clear 21 1027 70 10000 6.1 53 15:18 16.02.2022
3074 Clouds 20 1029 67 10000 6.51 58 12:59 16.02.2022
3075 Clouds 20 1029 66 10000 6.61 60 11:58 16.02.2022
3076 Clouds 19 1028 65 10000 6.57 60 11:24 16.02.2022
3077 Clouds 18 1028 65 10000 6.57 60 10:33 16.02.2022
3078 Clouds 17 1027 71 10000 6.79 43 07:21 16.02.2022
3079 Clouds 18 1027 69 10000 7.43 36 05:20 16.02.2022
3080 Clouds 18 1028 69 10000 6.68 42 23:44 15.02.2022
3081 Clouds 18 1027 64 10000 7.38 38 22:28 15.02.2022
3082 Clouds 19 1027 64 10000 7.38 38 21:46 15.02.2022
3083 Clouds 19 1027 64 10000 7.13 32 21:27 15.02.2022
3084 Clouds 19 1027 64 10000 7.13 32 20:56 15.02.2022
3085 Clouds 19 1026 64 10000 7.49 27 19:57 15.02.2022
3086 Clouds 20 1026 65 10000 7.28 27 18:56 15.02.2022
3087 Clouds 20 1025 65 10000 6.91 25 18:21 15.02.2022
3088 Clouds 20 1025 65 10000 6.91 25 17:49 15.02.2022
3089 Clouds 21 1025 65 10000 6.68 28 16:38 15.02.2022
3090 Clouds 21 1026 67 10000 6.38 33 15:26 15.02.2022
3091 Clouds 20 1027 71 10000 7.24 38 13:27 15.02.2022
3092 Clouds 20 1027 70 10000 6.56 46 11:58 15.02.2022
3093 Clouds 20 1027 73 10000 6.08 41 10:59 15.02.2022
3094 Clouds 18 1026 75 10000 6.17 34 09:28 15.02.2022
3095 Clouds 18 1025 76 10000 6.16 32 06:50 15.02.2022
3096 Clouds 18 1025 73 10000 5.39 26 03:55 15.02.2022
3097 Clouds 18 1026 72 10000 5.34 31 22:36 14.02.2022
3098 Clouds 19 1025 73 10000 5.49 33 21:35 14.02.2022
3099 Clouds 19 1025 74 10000 5.62 32 20:30 14.02.2022
3100 Clouds 19 1024 76 10000 5.65 33 19:32 14.02.2022
3101 Clouds 20 1024 77 10000 6.18 35 18:30 14.02.2022
3102 Clouds 20 1023 77 10000 6.77 39 17:58 14.02.2022
3103 Clouds 21 1023 76 10000 6.54 41 17:24 14.02.2022
3104 Clouds 21 1024 74 10000 4.99 47 15:59 14.02.2022
3105 Clouds 21 1025 70 10000 4.32 50 13:53 14.02.2022
3106 Clouds 21 1025 70 10000 4.42 53 13:26 14.02.2022
3107 Clouds 20 1025 69 10000 4.36 52 12:33 14.02.2022
3108 Clouds 20 1025 70 10000 4.6 49 11:54 14.02.2022
3109 Clouds 18 1025 71 10000 4.64 42 10:37 14.02.2022
3110 Clouds 17 1024 75 10000 4.57 38 08:43 14.02.2022
3111 Clouds 17 1023 75 10000 4.36 35 07:30 14.02.2022
3112 Clear 18 1025 76 10000 5.13 17 23:45 13.02.2022
3113 Clear 18 1025 75 10000 5 22 22:42 13.02.2022
3114 Clear 18 1024 75 10000 5.15 23 22:23 13.02.2022
3115 Clear 18 1024 75 10000 5.15 23 21:30 13.02.2022
3116 Clear 19 1023 73 10000 4.42 29 20:33 13.02.2022
3117 Clear 20 1022 69 10000 4.21 28 19:29 13.02.2022
3118 Clear 20 1022 68 10000 4.24 27 18:44 13.02.2022
3119 Clear 20 1022 66 10000 4.32 27 17:57 13.02.2022
3120 Clear 21 1022 64 10000 4.15 39 15:54 13.02.2022
3121 Clear 21 1022 64 10000 4.15 39 15:54 13.02.2022
3122 Clear 21 1022 64 10000 3.99 45 15:20 13.02.2022
3123 Clear 21 1023 65 10000 4.67 50 13:59 13.02.2022
3124 Clear 21 1024 66 10000 4.93 49 12:50 13.02.2022
3125 Clear 19 1024 67 10000 4.99 45 11:35 13.02.2022
3126 Clear 17 1024 69 10000 5.04 40 10:32 13.02.2022
3127 Clear 17 1024 72 10000 4.8 35 09:45 13.02.2022
3128 Clear 16 1023 75 10000 4.34 27 07:48 13.02.2022
3129 Clear 18 1024 71 10000 4.12 28 00:35 13.02.2022
3130 Clouds 18 1024 73 10000 4.27 28 23:42 12.02.2022
3131 Clouds 19 1024 74 10000 4.15 28 22:33 12.02.2022
3132 Clouds 19 1023 76 10000 4.01 22 21:27 12.02.2022
3133 Clouds 19 1023 76 10000 4.01 22 20:34 12.02.2022
3134 Clear 20 1022 75 10000 4.74 7 19:27 12.02.2022
3135 Clear 21 1022 75 10000 4.74 7 18:53 12.02.2022
3136 Clear 21 1022 75 10000 5.02 11 18:35 12.02.2022
3137 Clear 21 1022 72 10000 4.94 12 16:58 12.02.2022
3138 Clear 22 1022 71 10000 4.94 11 16:25 12.02.2022
3139 Clear 21 1022 71 10000 4.94 11 15:50 12.02.2022
3140 Clear 22 1023 70 10000 4.86 14 14:31 12.02.2022
3141 Clear 22 1024 68 10000 4.29 16 13:19 12.02.2022
3142 Clear 21 1024 69 10000 4.16 19 10:41 12.02.2022
3143 Clear 18 1023 72 10000 3.75 18 09:39 12.02.2022
3144 Clear 18 1023 77 10000 3.19 20 09:20 12.02.2022
3145 Clear 19 1023 78 10000 3.83 15 08:18 12.02.2022
3146 Clear 19 1023 78 10000 3.83 15 08:18 12.02.2022
3147 Clear 18 1022 80 10000 4.5 2 05:33 12.02.2022
3148 Clear 18 1022 73 10000 4.32 0 04:27 12.02.2022
3149 Clear 18 1023 62 10000 2.72 350 02:18 12.02.2022
3150 Clear 20 1023 56 10000 3.54 358 22:29 11.02.2022
3151 Clear 20 1023 56 10000 3.54 358 21:55 11.02.2022
3152 Clear 21 1023 54 10000 2.02 344 20:41 11.02.2022
3153 Clear 22 1022 54 10000 1.32 13 19:46 11.02.2022
3154 Clouds 23 1022 52 10000 1.48 43 19:27 11.02.2022
3155 Clouds 22 1022 54 10000 2.49 22 17:55 11.02.2022
3156 Clouds 22 1022 53 10000 2.27 22 17:25 11.02.2022
3157 Clouds 23 1022 52 10000 2.32 26 16:22 11.02.2022
3158 Clouds 22 1023 51 10000 2.33 21 14:43 11.02.2022
3159 Clouds 22 1024 51 10000 2.05 38 14:21 11.02.2022
3160 Clouds 22 1024 51 10000 2.05 38 13:57 11.02.2022
3161 Clouds 22 1024 51 10000 2.05 38 13:39 11.02.2022
3162 Clouds 22 1024 50 10000 1.99 127 11:42 11.02.2022
3163 Clouds 20 1024 52 10000 2.42 139 09:58 11.02.2022
3164 Clouds 20 1023 55 10000 2.67 127 08:49 11.02.2022
3165 Clouds 19 1023 52 10000 3.01 147 08:26 11.02.2022
3166 Clear 20 1023 51 10000 2.67 126 07:18 11.02.2022
3167 Clear 20 1023 45 10000 1.53 70 02:26 11.02.2022
3168 Clear 20 1024 47 10000 0.85 63 00:52 11.02.2022
3169 Clouds 19 1024 49 10000 0.61 60 22:51 10.02.2022
3170 Clouds 20 1024 52 10000 0.11 195 21:46 10.02.2022
3171 Clouds 20 1023 54 10000 0.77 68 20:59 10.02.2022
3172 Clouds 21 1023 54 10000 0.77 68 20:35 10.02.2022
3173 Clouds 23 1022 51 10000 1.68 131 19:26 10.02.2022
3174 Clouds 23 1022 51 10000 1.08 100 18:46 10.02.2022
3175 Clouds 23 1021 50 10000 3.19 152 17:26 10.02.2022
3176 Clouds 23 1021 50 10000 3.19 152 16:50 10.02.2022
3177 Clouds 26 1021 48 10000 4.23 157 15:51 10.02.2022
3178 Clouds 26 1021 48 10000 4.23 157 15:30 10.02.2022
3179 Clouds 26 1022 46 10000 5.63 157 14:48 10.02.2022
3180 Clouds 25 1022 45 10000 6.54 155 14:24 10.02.2022
3181 Clouds 25 1023 45 10000 6.51 157 13:29 10.02.2022
3182 Clouds 25 1023 44 10000 6.41 159 12:45 10.02.2022
3183 Clouds 24 1023 44 10000 6.21 161 11:33 10.02.2022
3184 Clouds 24 1023 45 10000 6.13 162 10:44 10.02.2022
3185 Clouds 22 1023 48 10000 6.33 161 09:57 10.02.2022
3186 Clouds 20 1022 51 10000 6.32 157 09:23 10.02.2022
3187 Clouds 20 1021 54 10000 5.92 141 07:19 10.02.2022
3188 Clouds 22 1021 46 10000 2.74 123 04:55 10.02.2022
3189 Clouds 20 1021 50 10000 0.72 154 01:48 10.02.2022
3190 Clouds 20 1021 50 10000 0.7 44 00:47 10.02.2022
3191 Clouds 20 1021 49 10000 0.94 100 00:27 10.02.2022
3192 Clouds 21 1021 46 10000 1.51 144 23:22 09.02.2022
3193 Clouds 21 1021 46 10000 1.51 144 22:35 09.02.2022
3194 Clouds 21 1021 47 10000 1.37 181 21:50 09.02.2022
3195 Clouds 21 1020 47 10000 1.38 183 21:29 09.02.2022
3196 Clouds 21 1020 47 10000 1.38 183 20:47 09.02.2022
3197 Clouds 21 1020 47 10000 2.05 176 20:24 09.02.2022
3198 Clouds 21 1020 47 10000 2.05 176 19:45 09.02.2022
3199 Clouds 21 1019 46 10000 2.89 161 19:27 09.02.2022
3200 Clouds 22 1018 45 10000 4.16 152 17:37 09.02.2022
3201 Clouds 21 1018 45 10000 5.33 147 16:34 09.02.2022
3202 Clouds 22 1019 46 10000 6.24 146 15:40 09.02.2022
3203 Clouds 22 1020 47 10000 6.78 151 14:28 09.02.2022
3204 Clouds 22 1020 47 10000 6.86 150 12:28 09.02.2022
3205 Clouds 22 1020 46 10000 6.64 154 10:51 09.02.2022
3206 Clouds 22 1019 46 10000 6.48 155 10:26 09.02.2022
3207 Clouds 23 1019 46 10000 6.48 155 09:35 09.02.2022
3208 Clouds 20 1019 46 10000 5.83 158 08:59 09.02.2022
3209 Clouds 20 1018 48 10000 5.2 157 07:47 09.02.2022
3210 Clouds 19 1017 47 10000 3.14 169 05:30 09.02.2022
3211 Clouds 19 1017 47 10000 3.14 169 05:30 09.02.2022
3212 Clouds 18 1017 46 10000 3.27 178 03:50 09.02.2022
3213 Clouds 19 1017 48 10000 1.45 186 00:23 09.02.2022
3214 Clouds 19 1017 48 10000 1.45 186 23:30 08.02.2022
3215 Clouds 20 1017 49 10000 1.56 170 22:46 08.02.2022
3216 Clouds 21 1017 50 10000 1.63 176 22:21 08.02.2022
3217 Clouds 21 1017 50 10000 1.63 176 21:38 08.02.2022
3218 Clouds 21 1016 49 10000 1.68 167 21:19 08.02.2022
3219 Clouds 22 1016 49 10000 1.68 167 20:41 08.02.2022
3220 Clouds 22 1015 46 10000 2.56 173 19:45 08.02.2022
3221 Clouds 23 1015 49 10000 3.29 168 18:34 08.02.2022
3222 Clouds 26 1014 46 10000 4.7 157 17:36 08.02.2022
3223 Clouds 26 1015 47 10000 6.44 151 16:22 08.02.2022
3224 Clouds 25 1015 46 10000 6.87 150 15:29 08.02.2022
3225 Clouds 25 1015 46 10000 6.87 150 15:29 08.02.2022
3226 Clouds 23 1016 46 10000 6.9 152 13:59 08.02.2022
3227 Clouds 23 1017 45 10000 7.09 154 12:41 08.02.2022
3228 Clouds 22 1016 46 10000 6.86 153 11:28 08.02.2022
3229 Clouds 21 1016 51 10000 6.58 149 09:59 08.02.2022
3230 Clouds 20 1015 55 10000 6.38 141 08:56 08.02.2022
3231 Clouds 20 1015 56 10000 5.72 134 07:37 08.02.2022
3232 Clouds 20 1015 59 10000 2.64 96 04:40 08.02.2022
3233 Clouds 20 1015 59 10000 2.9 66 04:22 08.02.2022
3234 Clouds 22 1015 59 10000 2.9 66 03:37 08.02.2022
3235 Clouds 22 1016 55 10000 2.41 53 03:18 08.02.2022
3236 Clouds 21 1016 55 10000 2.41 53 02:59 08.02.2022
3237 Clouds 21 1016 55 10000 2.41 53 02:37 08.02.2022
3238 Clouds 21 1016 57 10000 1.13 54 02:19 08.02.2022
3239 Clouds 21 1016 57 10000 1.13 54 01:55 08.02.2022
3240 Clouds 20 1016 57 10000 1.13 54 01:37 08.02.2022
3241 Clouds 20 1017 61 10000 2.01 63 01:19 08.02.2022
3242 Clouds 20 1017 63 10000 2.14 62 00:44 08.02.2022
3243 Clouds 21 1017 65 10000 2.96 54 23:45 07.02.2022
3244 Clouds 20 1017 66 10000 3.52 50 23:18 07.02.2022
3245 Clouds 19 1017 66 10000 3.52 50 22:59 07.02.2022
3246 Clouds 19 1017 65 10000 3.34 45 22:19 07.02.2022
3247 Clouds 19 1017 65 10000 3.34 45 21:51 07.02.2022
3248 Clouds 20 1016 66 10000 2.87 50 21:28 07.02.2022
3249 Clouds 20 1016 66 10000 2.87 50 20:52 07.02.2022
3250 Clouds 21 1016 66 10000 2.87 50 20:34 07.02.2022
3251 Clouds 21 1016 69 10000 2.95 57 19:47 07.02.2022
3252 Clouds 21 1016 69 10000 2.95 57 19:47 07.02.2022
3253 Clear 22 1016 68 10000 3.47 61 18:58 07.02.2022
3254 Clear 22 1016 66 10000 4.16 63 17:38 07.02.2022
3255 Clear 22 1016 65 10000 4.44 67 16:52 07.02.2022
3256 Clear 22 1016 65 10000 4.89 71 15:48 07.02.2022
3257 Clear 21 1017 68 10000 4.92 73 14:30 07.02.2022
3258 Clouds 21 1019 74 10000 5.49 68 13:27 07.02.2022
3259 Clouds 21 1019 74 10000 5.49 68 12:36 07.02.2022
3260 Clouds 20 1019 77 10000 5.63 61 11:52 07.02.2022
3261 Clouds 19 1019 79 10000 5.84 57 11:24 07.02.2022
3262 Clouds 18 1019 79 10000 5.84 57 10:43 07.02.2022
3263 Clouds 18 1018 82 10000 5.95 56 10:24 07.02.2022
3264 Clouds 17 1018 82 10000 5.95 56 09:52 07.02.2022
3265 Clouds 17 1018 83 10000 5.93 48 09:18 07.02.2022
3266 Clouds 18 1018 82 10000 5.39 44 07:58 07.02.2022
3267 Clouds 18 1017 83 10000 5.23 44 06:34 07.02.2022
3268 Clouds 18 1018 82 10000 5.38 49 05:18 07.02.2022
3269 Clouds 19 1019 84 10000 6.19 51 02:38 07.02.2022
3270 Clouds 19 1019 83 10000 6.16 36 00:24 07.02.2022
3271 Clouds 19 1019 83 10000 5.54 39 23:20 06.02.2022
3272 Clouds 19 1019 83 10000 5.54 39 22:42 06.02.2022
3273 Clouds 19 1019 84 10000 5.52 47 21:47 06.02.2022
3274 Clouds 19 1018 85 10000 6 46 21:21 06.02.2022
3275 Clouds 19 1018 85 10000 6 46 20:48 06.02.2022
3276 Clouds 20 1018 85 10000 5.95 43 20:24 06.02.2022
3277 Clouds 20 1017 81 10000 5.86 44 19:22 06.02.2022
3278 Clouds 21 1017 82 10000 6.27 38 18:33 06.02.2022
3279 Clouds 22 1017 78 10000 6.13 38 17:37 06.02.2022
3280 Clouds 22 1017 77 10000 5.96 39 16:52 06.02.2022
3281 Clouds 23 1017 75 10000 5.81 40 16:20 06.02.2022
3282 Clouds 22 1017 75 10000 5.81 40 15:47 06.02.2022
3283 Clouds 22 1018 75 10000 5.49 44 15:24 06.02.2022
3284 Clouds 22 1019 76 10000 5.67 42 14:19 06.02.2022
3285 Clouds 22 1019 76 10000 5.8 43 13:21 06.02.2022
3286 Clouds 21 1019 77 10000 5.76 39 12:27 06.02.2022
3287 Clouds 19 1019 79 10000 5.5 39 10:37 06.02.2022
3288 Clouds 19 1018 81 10000 5.01 39 09:48 06.02.2022
3289 Clouds 18 1018 79 10000 4.83 34 08:41 06.02.2022
3290 Clouds 18 1017 76 10000 4.32 42 07:31 06.02.2022
3291 Clear 18 1017 61 10000 2.72 57 05:28 06.02.2022
3292 Clear 19 1018 54 10000 2.67 75 02:25 06.02.2022
3293 Clear 20 1018 53 10000 2.6 72 00:49 06.02.2022
3294 Clear 19 1018 50 10000 1.92 68 00:22 06.02.2022
3295 Clear 19 1018 50 10000 1.37 101 21:48 05.02.2022
3296 Clear 19 1017 53 10000 1.64 98 20:47 05.02.2022
3297 Clear 20 1016 55 10000 2.04 103 20:22 05.02.2022
3298 Clear 20 1016 55 10000 2.04 103 19:42 05.02.2022
3299 Clear 21 1016 56 10000 3.61 105 18:37 05.02.2022
3300 Clear 21 1016 54 10000 3.94 106 17:36 05.02.2022
3301 Clear 21 1016 55 10000 4.12 112 16:24 05.02.2022
3302 Clear 21 1016 55 10000 4.12 112 15:31 05.02.2022
3303 Clear 21 1017 55 10000 2.9 104 13:55 05.02.2022
3304 Clear 21 1018 55 10000 1.95 99 12:46 05.02.2022
3305 Clear 21 1018 56 10000 2.12 96 11:47 05.02.2022
3306 Clear 20 1018 56 10000 1.32 77 10:44 05.02.2022
3307 Clear 18 1017 57 10000 1.05 76 09:51 05.02.2022
3308 Clear 18 1017 58 10000 0.82 96 08:47 05.02.2022
3309 Clear 18 1016 55 10000 1.29 72 07:27 05.02.2022
3310 Clear 18 1016 55 10000 1.29 72 06:55 05.02.2022
3311 Clear 18 1018 47 10000 1.3 146 02:43 05.02.2022
3312 Clear 17 1018 52 10000 1.37 125 01:18 05.02.2022
3313 Clear 18 1019 51 10000 1.7 120 00:36 05.02.2022
3314 Clear 18 1019 53 10000 1.36 116 23:33 04.02.2022
3315 Clear 19 1019 55 10000 1.17 130 22:45 04.02.2022
3316 Clear 20 1018 56 10000 1.39 139 21:36 04.02.2022
3317 Clear 20 1018 56 10000 1.83 143 21:18 04.02.2022
3318 Clear 20 1018 56 10000 1.83 143 20:37 04.02.2022
3319 Clouds 20 1017 55 10000 3.87 144 19:19 04.02.2022
3320 Clouds 21 1017 51 10000 4.08 150 16:44 04.02.2022
3321 Clouds 21 1018 50 10000 4.38 156 15:19 04.02.2022
3322 Clouds 21 1018 50 10000 4.38 156 14:40 04.02.2022
3323 Clouds 24 1020 51 10000 3.43 156 12:43 04.02.2022
3324 Clouds 24 1020 51 10000 2.36 167 11:45 04.02.2022
3325 Clouds 24 1019 51 10000 2.55 183 10:55 04.02.2022
3326 Clouds 24 1018 51 10000 2.84 190 09:56 04.02.2022
3327 Clouds 24 1018 50 10000 3.44 196 07:56 04.02.2022
3328 Clouds 19 1017 50 10000 3.06 181 03:47 04.02.2022
3329 Clouds 21 1018 50 10000 2.68 183 02:36 04.02.2022
3330 Clouds 22 1019 60 10000 0.4 206 23:40 03.02.2022
3331 Clouds 22 1019 59 10000 0.52 237 22:50 03.02.2022
3332 Clouds 22 1019 58 10000 0.52 170 21:52 03.02.2022
3333 Clouds 22 1018 56 10000 0.69 157 21:22 03.02.2022
3334 Clouds 22 1017 55 10000 1.73 158 20:22 03.02.2022
3335 Clouds 22 1017 55 10000 1.73 158 19:42 03.02.2022
3336 Clouds 22 1017 54 10000 2.6 155 18:56 03.02.2022
3337 Clouds 22 1018 52 10000 3.81 150 17:55 03.02.2022
3338 Clouds 22 1018 54 10000 3.83 168 16:48 03.02.2022
3339 Clouds 25 1018 58 10000 4.44 153 15:28 03.02.2022
3340 Clouds 25 1019 63 10000 4.92 145 13:45 03.02.2022
3341 Clouds 21 1020 67 10000 4.34 131 11:47 03.02.2022
3342 Clouds 20 1019 80 10000 6.04 94 08:55 03.02.2022
3343 Clouds 20 1019 83 10000 5.55 62 07:41 03.02.2022
3344 Clouds 22 1021 77 10000 5.01 339 00:47 03.02.2022
3345 Clouds 22 1021 74 10000 2.59 360 00:22 03.02.2022
3346 Clouds 21 1021 76 10000 2.64 331 22:38 02.02.2022
3347 Clouds 21 1021 75 10000 4.21 354 21:45 02.02.2022
3348 Clouds 22 1020 75 10000 3.85 346 21:27 02.02.2022
3349 Clouds 22 1020 77 10000 4.56 353 20:20 02.02.2022
3350 Clouds 23 1020 77 10000 4.56 353 19:46 02.02.2022
3351 Clouds 23 1020 59 10000 2.04 8 18:55 02.02.2022
3352 Clouds 24 1019 53 10000 2.32 70 18:23 02.02.2022
3353 Clouds 26 1019 51 10000 3.09 90 17:20 02.02.2022
3354 Clouds 26 1019 51 10000 3.09 90 16:54 02.02.2022
3355 Clouds 27 1020 49 10000 3.47 103 14:42 02.02.2022
3356 Clouds 24 1021 48 10000 4.18 136 12:29 02.02.2022
3357 Clouds 23 1021 48 10000 4.18 136 11:44 02.02.2022
3358 Clouds 21 1021 49 10000 2.92 150 11:24 02.02.2022
3359 Clouds 18 1020 61 10000 2.99 118 08:27 02.02.2022
3360 Clouds 20 1020 63 10000 1.88 116 01:37 02.02.2022
3361 Clouds 18 1021 64 10000 2.92 268 22:29 01.02.2022
3362 Clouds 19 1020 65 10000 2.8 199 20:50 01.02.2022
3363 Clouds 20 1019 64 10000 3.33 111 18:55 01.02.2022
3364 Clouds 20 1018 62 10000 1.04 136 16:46 01.02.2022
3365 Clouds 21 1018 58 10000 2.37 147 15:44 01.02.2022
3366 Clouds 22 1020 53 10000 1.85 156 12:49 01.02.2022
3367 Clouds 21 1021 54 10000 1.22 146 11:51 01.02.2022
3368 Clouds 20 1020 59 10000 0.98 51 08:37 01.02.2022
3369 Clouds 17 1021 59 10000 2.42 12 00:28 01.02.2022
3370 Clouds 18 1021 59 10000 2.42 12 23:36 31.01.2022
3371 Clouds 18 1021 60 10000 1.83 20 22:30 31.01.2022
3372 Clouds 19 1021 62 10000 2.02 12 21:34 31.01.2022
3373 Clouds 19 1021 64 10000 2.03 20 20:34 31.01.2022
3374 Clouds 20 1020 65 10000 2.31 33 19:52 31.01.2022
3375 Clouds 21 1020 61 10000 2.82 43 18:31 31.01.2022
3376 Clear 21 1019 58 10000 3.33 47 17:55 31.01.2022
3377 Clear 21 1019 55 10000 3.12 49 16:58 31.01.2022
3378 Clear 21 1020 55 10000 2.88 59 15:46 31.01.2022
3379 Clear 22 1020 54 10000 2.76 65 14:49 31.01.2022
3380 Clear 20 1022 57 10000 2.42 76 12:57 31.01.2022
3381 Clear 20 1022 57 10000 2.42 76 12:36 31.01.2022
3382 Clear 18 1022 64 10000 1.93 47 10:58 31.01.2022
3383 Clear 17 1022 64 10000 1.93 47 10:37 31.01.2022
3384 Clear 16 1021 67 10000 2.25 34 09:35 31.01.2022
3385 Clear 16 1021 69 10000 2.58 21 08:53 31.01.2022
3386 Clear 15 1020 68 10000 2.49 11 08:20 31.01.2022
3387 Clear 15 1020 68 10000 2.16 350 07:29 31.01.2022
3388 Clear 14 1020 71 10000 1.39 331 05:24 31.01.2022
3389 Clear 17 1021 73 10000 1.57 312 23:37 30.01.2022
3390 Clear 18 1020 73 10000 1.87 308 22:31 30.01.2022
3391 Clear 18 1020 71 10000 1.47 313 21:44 30.01.2022
3392 Clear 18 1020 71 10000 1.47 313 21:44 30.01.2022
3393 Clear 18 1019 69 10000 0.78 264 21:22 30.01.2022
3394 Clear 18 1020 63 10000 0.38 298 20:51 30.01.2022
3395 Clear 18 1020 63 10000 0.38 298 20:30 30.01.2022
3396 Clear 18 1019 62 10000 0.34 16 19:54 30.01.2022
3397 Clear 19 1018 58 10000 0.65 24 18:51 30.01.2022
3398 Clear 19 1018 57 10000 0.76 34 18:21 30.01.2022
3399 Clear 19 1018 57 10000 0.76 34 17:30 30.01.2022
3400 Clear 20 1018 56 10000 0.91 9 16:42 30.01.2022
3401 Clear 20 1018 56 10000 0.88 25 16:22 30.01.2022
3402 Clear 20 1018 56 10000 0.88 25 15:53 30.01.2022
3403 Clear 20 1018 56 10000 0.88 25 15:32 30.01.2022
3404 Clear 20 1018 56 10000 1.23 78 14:47 30.01.2022
3405 Clear 19 1019 56 10000 1.32 84 13:37 30.01.2022
3406 Clear 19 1020 57 10000 0.87 24 12:41 30.01.2022
3407 Clear 16 1019 61 10000 1.3 334 10:38 30.01.2022
3408 Clear 16 1019 64 10000 1.79 320 09:57 30.01.2022
3409 Clear 15 1018 68 10000 1.8 312 09:21 30.01.2022
3410 Clear 15 1018 69 10000 1.69 307 07:57 30.01.2022
3411 Clear 16 1018 72 10000 2.02 18 02:43 30.01.2022
3412 Clear 16 1019 72 10000 2.19 12 01:52 30.01.2022
3413 Clear 17 1020 72 10000 2.79 302 23:45 29.01.2022
3414 Clear 18 1020 72 10000 3.09 293 22:37 29.01.2022
3415 Clear 18 1019 69 10000 5 302 21:27 29.01.2022
3416 Clear 18 1019 69 10000 5 302 20:48 29.01.2022
3417 Clear 19 1018 66 10000 5.58 314 19:47 29.01.2022
3418 Clear 19 1018 63 10000 5.66 321 19:25 29.01.2022
3419 Clouds 20 1019 68 10000 4.44 328 18:32 29.01.2022
3420 Clear 21 1018 68 10000 5.56 325 17:42 29.01.2022
3421 Clear 21 1018 65 10000 4.74 331 16:42 29.01.2022
3422 Clear 22 1019 59 10000 4.12 325 14:52 29.01.2022
3423 Clear 21 1019 59 10000 3.97 324 13:46 29.01.2022
3424 Clear 21 1020 59 10000 4.1 324 13:25 29.01.2022
3425 Clear 20 1020 59 10000 4.1 324 12:40 29.01.2022
3426 Clear 20 1020 61 10000 4.32 325 11:38 29.01.2022
3427 Clear 18 1019 66 10000 4.26 324 10:25 29.01.2022
3428 Clear 18 1017 68 10000 4.03 346 07:24 29.01.2022
3429 Clear 17 1018 66 10000 4.75 6 01:35 29.01.2022
3430 Clear 17 1019 66 10000 4.68 8 00:31 29.01.2022
3431 Clear 18 1019 64 10000 3.6 15 22:53 28.01.2022
3432 Clear 17 1018 64 10000 3.5 22 22:29 28.01.2022
3433 Clear 18 1018 64 10000 3.5 22 21:53 28.01.2022
3434 Clear 18 1018 64 10000 4.41 21 20:40 28.01.2022
3435 Clear 19 1017 65 10000 4.89 17 19:44 28.01.2022
3436 Clouds 20 1017 65 10000 4.68 13 18:48 28.01.2022
3437 Clouds 20 1016 64 10000 4.48 14 17:45 28.01.2022
3438 Clear 20 1016 63 10000 3.8 27 15:45 28.01.2022
3439 Clouds 19 1018 61 10000 2.85 58 14:18 28.01.2022
3440 Clouds 19 1018 62 10000 3.61 64 12:33 28.01.2022
3441 Clouds 18 1018 63 10000 4.34 73 11:38 28.01.2022
3442 Clouds 16 1017 67 10000 4.62 61 10:21 28.01.2022
3443 Clouds 15 1017 67 10000 4.62 61 09:44 28.01.2022
3444 Clouds 14 1017 72 10000 3.85 37 07:39 28.01.2022
3445 Clear 14 1016 74 10000 4.11 15 05:23 28.01.2022
3446 Clear 15 1017 74 10000 3.66 14 03:47 28.01.2022
3447 Clear 15 1017 73 10000 3.18 19 02:23 28.01.2022
3448 Clear 16 1017 73 10000 3.18 19 01:33 28.01.2022
3449 Clear 16 1018 73 10000 4.19 29 23:30 27.01.2022
3450 Clear 16 1018 72 10000 4.45 20 21:49 27.01.2022
3451 Clouds 16 1017 72 10000 4.46 14 21:29 27.01.2022
3452 Clouds 17 1017 72 10000 4.46 14 20:44 27.01.2022
3453 Clouds 18 1016 69 10000 4.49 23 19:21 27.01.2022
3454 Clouds 19 1016 69 10000 4.3 25 17:56 27.01.2022
3455 Clouds 19 1017 67 10000 4.09 20 15:18 27.01.2022
3456 Clouds 19 1018 67 10000 3.74 23 13:36 27.01.2022
3457 Clouds 18 1019 69 10000 3.72 19 12:40 27.01.2022
3458 Clouds 16 1019 76 10000 3.84 15 10:23 27.01.2022
3459 Clouds 15 1018 77 10000 3.71 15 08:56 27.01.2022
3460 Clouds 15 1018 77 10000 3.71 15 08:31 27.01.2022
3461 Clouds 16 1018 76 10000 3.79 18 05:59 27.01.2022
3462 Clouds 16 1019 76 10000 4.78 21 02:36 27.01.2022
3463 Clouds 17 1020 73 10000 5.17 16 23:32 26.01.2022
3464 Clouds 17 1020 74 10000 5.8 8 21:57 26.01.2022
3465 Clouds 17 1020 74 10000 5.8 8 21:33 26.01.2022
3466 Clouds 18 1020 73 10000 6.41 3 20:36 26.01.2022
3467 Clouds 18 1019 72 10000 6.5 359 19:55 26.01.2022
3468 Clouds 18 1019 72 10000 6.47 360 19:20 26.01.2022
3469 Clouds 19 1019 72 10000 6.5 360 18:40 26.01.2022
3470 Clouds 19 1019 73 10000 6.25 5 17:49 26.01.2022
3471 Clouds 19 1019 73 10000 6.25 9 17:21 26.01.2022
3472 Clouds 20 1019 73 10000 6.26 8 16:31 26.01.2022
3473 Clouds 20 1019 72 10000 6.28 11 15:47 26.01.2022
3474 Clouds 20 1021 73 10000 6.37 11 13:58 26.01.2022
3475 Clouds 18 1021 74 10000 7.29 9 11:48 26.01.2022
3476 Clouds 18 1021 76 10000 7.48 3 10:20 26.01.2022
3477 Clouds 17 1021 76 10000 7.48 3 09:43 26.01.2022
3478 Clouds 16 1020 76 10000 7.52 6 07:37 26.01.2022
3479 Clouds 16 1022 74 10000 7.35 342 01:53 26.01.2022
3480 Clouds 17 1023 65 10000 8.47 345 23:54 25.01.2022
3481 Clouds 17 1023 67 10000 8.6 348 22:50 25.01.2022
3482 Clouds 17 1023 66 10000 7.93 346 22:21 25.01.2022
3483 Clouds 17 1023 66 10000 7.93 346 21:41 25.01.2022
3484 Clouds 18 1023 65 10000 7.98 342 20:46 25.01.2022
3485 Clear 18 1023 63 10000 7.9 342 20:22 25.01.2022
3486 Clear 18 1023 63 10000 7.9 342 19:44 25.01.2022
3487 Clouds 19 1022 61 10000 7.93 352 18:22 25.01.2022
3488 Clouds 20 1022 61 10000 7.93 352 17:42 25.01.2022
3489 Clouds 20 1022 61 10000 8.28 355 16:35 25.01.2022
3490 Clouds 19 1022 65 10000 8.21 358 15:44 25.01.2022
3491 Clouds 19 1023 68 10000 7.85 3 15:26 25.01.2022
3492 Clouds 19 1023 68 10000 7.85 3 14:57 25.01.2022
3493 Clouds 19 1023 68 10000 7.85 3 14:57 25.01.2022
3494 Clouds 20 1024 71 10000 6.96 9 13:18 25.01.2022
3495 Clouds 17 1024 76 10000 7.65 10 10:00 25.01.2022
3496 Clouds 17 1024 78 10000 7.27 6 08:33 25.01.2022
3497 Clouds 17 1023 82 10000 7.09 3 07:28 25.01.2022
3498 Clouds 17 1023 83 10000 6.23 6 06:22 25.01.2022
3499 Clouds 18 1024 87 10000 4.28 3 01:36 25.01.2022
3500 Clouds 18 1024 84 10000 3.12 342 23:36 24.01.2022
3501 Clouds 18 1024 84 10000 3.24 346 23:18 24.01.2022
3502 Clouds 19 1024 84 10000 3.24 346 22:59 24.01.2022
3503 Clouds 19 1024 84 10000 3.24 346 22:41 24.01.2022
3504 Clouds 19 1024 84 10000 3.84 348 21:45 24.01.2022
3505 Clouds 19 1023 86 10000 3.49 346 21:27 24.01.2022
3506 Clouds 20 1023 84 10000 3.13 351 20:29 24.01.2022
3507 Clouds 20 1023 84 10000 3.13 351 19:39 24.01.2022
3508 Clouds 20 1023 84 10000 3.13 351 19:39 24.01.2022
3509 Clouds 20 1022 81 10000 2.9 358 19:19 24.01.2022
3510 Clouds 21 1022 77 10000 2.26 13 17:44 24.01.2022
3511 Clouds 20 1022 77 10000 2.49 31 17:23 24.01.2022
3512 Clouds 21 1022 77 10000 2.49 31 16:32 24.01.2022
3513 Clouds 21 1022 75 10000 2.56 33 15:52 24.01.2022
3514 Clouds 21 1023 72 10000 2.87 46 14:27 24.01.2022
3515 Clouds 20 1024 71 10000 2.14 72 12:36 24.01.2022
3516 Clouds 20 1023 72 10000 1.96 77 11:53 24.01.2022
3517 Clouds 18 1023 74 10000 1.85 32 10:24 24.01.2022
3518 Clouds 17 1023 74 10000 1.85 32 09:46 24.01.2022
3519 Clouds 17 1022 74 10000 1.97 20 08:19 24.01.2022
3520 Clouds 17 1022 73 10000 1.84 14 02:33 24.01.2022
3521 Clouds 17 1022 74 10000 0.93 16 01:28 24.01.2022
3522 Clouds 17 1022 70 10000 1.19 65 00:34 24.01.2022
3523 Clouds 18 1022 71 10000 1.34 7 23:47 23.01.2022
3524 Clouds 18 1022 71 10000 1.34 7 23:47 23.01.2022
3525 Clouds 18 1022 72 10000 1.78 326 22:21 23.01.2022
3526 Clouds 18 1022 72 10000 1.78 326 21:42 23.01.2022
3527 Clouds 19 1022 71 10000 1.71 360 21:24 23.01.2022
3528 Clouds 19 1021 71 10000 1.09 352 20:29 23.01.2022
3529 Clouds 19 1020 71 10000 2.06 101 19:21 23.01.2022
3530 Clouds 20 1020 70 10000 1.53 102 18:44 23.01.2022
3531 Clouds 20 1020 68 10000 2.54 102 17:27 23.01.2022
3532 Clouds 20 1020 68 10000 2.35 99 16:27 23.01.2022
3533 Clouds 20 1020 67 10000 1.61 79 14:54 23.01.2022
3534 Clouds 20 1021 68 10000 2.06 74 14:19 23.01.2022
3535 Clouds 20 1022 68 10000 1.83 60 12:47 23.01.2022
3536 Clouds 20 1022 67 10000 0.64 111 12:21 23.01.2022
3537 Clouds 20 1022 69 10000 0.85 132 11:27 23.01.2022
3538 Clouds 18 1022 69 10000 0.85 132 10:59 23.01.2022
3539 Clouds 16 1021 71 10000 1.22 139 10:25 23.01.2022
3540 Clouds 15 1021 71 10000 1.22 139 09:37 23.01.2022
3541 Clouds 15 1020 75 10000 1.19 164 08:51 23.01.2022
3542 Clouds 15 1019 79 10000 0.43 190 04:41 23.01.2022
3543 Clouds 16 1019 82 10000 1.2 270 01:43 23.01.2022
3544 Clouds 17 1019 82 10000 0.7 346 00:56 23.01.2022
3545 Clouds 18 1019 81 10000 0.93 347 00:22 23.01.2022
3546 Clouds 18 1019 82 10000 0.82 340 23:19 22.01.2022
3547 Clouds 18 1019 82 10000 0.82 340 22:34 22.01.2022
3548 Clouds 18 1019 82 10000 0.82 340 22:34 22.01.2022
3549 Clouds 19 1018 81 10000 0.68 328 21:18 22.01.2022
3550 Clouds 20 1018 79 10000 0.55 299 19:49 22.01.2022
3551 Clouds 21 1017 75 10000 0.7 308 18:45 22.01.2022
3552 Clouds 22 1017 74 10000 0.37 77 17:56 22.01.2022
3553 Clouds 22 1017 74 10000 0.37 77 17:35 22.01.2022
3554 Clouds 21 1016 73 10000 0.51 42 16:55 22.01.2022
3555 Clouds 22 1016 73 10000 0.49 57 15:49 22.01.2022
3556 Clouds 22 1017 73 10000 1.18 59 14:57 22.01.2022
3557 Clouds 22 1017 72 10000 1.2 57 13:36 22.01.2022
3558 Clouds 21 1018 71 10000 1.06 51 12:48 22.01.2022
3559 Clear 20 1017 70 10000 0.79 99 12:24 22.01.2022
3560 Clear 19 1017 72 10000 0.3 76 10:55 22.01.2022
3561 Clear 18 1016 74 10000 0.45 311 10:28 22.01.2022
3562 Clear 16 1016 74 10000 0.45 311 09:57 22.01.2022
3563 Clear 16 1015 77 10000 0.63 307 08:51 22.01.2022
3564 Clear 16 1014 77 10000 0.88 295 07:29 22.01.2022
3565 Clear 17 1014 77 10000 0.54 167 04:52 22.01.2022
3566 Clear 17 1015 76 10000 1.13 172 01:34 22.01.2022
3567 Clear 18 1015 77 10000 1.03 124 23:35 21.01.2022
3568 Clear 19 1015 76 10000 1.56 84 22:20 21.01.2022
3569 Clear 19 1013 76 10000 1.65 41 20:20 21.01.2022
3570 Clouds 21 1013 73 10000 1.62 333 18:36 21.01.2022
3571 Clouds 21 1012 69 10000 0.73 257 17:25 21.01.2022
3572 Clouds 21 1013 68 10000 1.48 171 15:28 21.01.2022
3573 Clouds 20 1015 66 10000 1.76 133 13:28 21.01.2022
3574 Clouds 20 1015 68 10000 1.15 131 12:37 21.01.2022
3575 Clouds 19 1014 66 10000 1.02 138 11:27 21.01.2022
3576 Clouds 17 1014 65 10000 0.74 135 10:18 21.01.2022
3577 Clouds 16 1013 63 10000 0.5 199 08:23 21.01.2022
3578 Clouds 16 1013 57 10000 1.59 260 04:49 21.01.2022
3579 Clouds 16 1013 57 10000 1.59 260 04:49 21.01.2022
3580 Clouds 18 1015 51 10000 1.63 213 23:31 20.01.2022
3581 Clouds 18 1015 51 10000 2.98 169 22:21 20.01.2022
3582 Clouds 18 1015 51 10000 2.98 169 21:42 20.01.2022
3583 Clouds 19 1015 51 10000 3.6 158 20:43 20.01.2022
3584 Clouds 19 1014 51 10000 5.56 153 19:19 20.01.2022
3585 Clouds 20 1014 52 10000 4.72 159 18:44 20.01.2022
3586 Clear 21 1014 50 10000 6.93 149 16:58 20.01.2022
3587 Clear 21 1014 50 10000 7.41 148 15:41 20.01.2022
3588 Clear 21 1015 50 10000 7.84 148 14:41 20.01.2022
3589 Clear 21 1016 50 10000 8.37 149 13:41 20.01.2022
3590 Clouds 21 1018 50 10000 7.7 153 12:34 20.01.2022
3591 Clouds 20 1018 51 10000 7.91 154 11:50 20.01.2022
3592 Clouds 19 1018 52 10000 7.75 152 10:39 20.01.2022
3593 Clouds 18 1017 55 10000 7.05 153 09:36 20.01.2022
3594 Clouds 17 1017 59 10000 7.27 155 07:50 20.01.2022
3595 Clouds 20 1019 57 10000 5.78 137 00:44 20.01.2022
3596 Clouds 19 1019 54 10000 4.57 132 22:59 19.01.2022
3597 Clouds 20 1019 52 10000 4.54 134 22:21 19.01.2022
3598 Clouds 20 1019 51 10000 4.34 140 21:23 19.01.2022
3599 Clouds 20 1019 51 10000 4.34 140 20:46 19.01.2022
3600 Clouds 19 1019 51 10000 4.72 143 19:42 19.01.2022
3601 Clouds 18 1018 49 10000 7 139 18:18 19.01.2022
3602 Clouds 19 1018 49 10000 7 139 17:44 19.01.2022
3603 Clouds 19 1018 48 10000 7.48 139 16:46 19.01.2022
3604 Clouds 20 1019 48 10000 7.94 144 14:42 19.01.2022
3605 Clouds 19 1022 51 10000 7.51 147 12:42 19.01.2022
3606 Clouds 19 1022 55 10000 8 148 11:39 19.01.2022
3607 Clouds 18 1021 57 10000 6.94 149 10:20 19.01.2022
3608 Clouds 17 1021 57 10000 6.94 149 09:34 19.01.2022
3609 Clear 17 1019 55 10000 5.54 156 06:35 19.01.2022
3610 Clear 18 1020 62 10000 4.16 152 02:38 19.01.2022
3611 Clear 17 1022 55 10000 4.27 142 23:19 18.01.2022
3612 Clear 17 1022 56 10000 4.36 143 22:19 18.01.2022
3613 Clear 17 1021 58 10000 4.71 144 20:55 18.01.2022
3614 Clear 18 1021 62 10000 5.3 145 19:54 18.01.2022
3615 Clear 18 1020 65 10000 5.29 155 19:36 18.01.2022
3616 Clear 18 1020 65 10000 5.99 153 18:38 18.01.2022
3617 Clear 18 1020 64 10000 6.38 154 17:58 18.01.2022
3618 Clear 18 1020 65 10000 6.64 155 16:40 18.01.2022
3619 Clear 18 1020 65 10000 6.88 156 15:40 18.01.2022
3620 Clear 18 1020 67 10000 7.21 155 15:21 18.01.2022
3621 Clear 18 1020 67 10000 7.21 155 15:21 18.01.2022
3622 Clouds 17 1022 74 10000 7.41 153 12:30 18.01.2022
3623 Clouds 16 1022 77 10000 7.26 158 10:47 18.01.2022
3624 Clouds 16 1021 81 10000 6.52 165 08:49 18.01.2022
3625 Clouds 16 1021 83 10000 6.27 163 07:49 18.01.2022
3626 Clouds 16 1022 86 10000 6.25 151 02:33 18.01.2022
3627 Clouds 16 1022 86 10000 6.25 151 02:33 18.01.2022
3628 Clouds 17 1023 83 10000 6.35 142 23:38 17.01.2022
3629 Clouds 17 1022 77 10000 6 146 22:26 17.01.2022
3630 Clouds 17 1022 77 10000 6 146 21:33 17.01.2022
3631 Clouds 17 1022 78 10000 6.38 151 19:57 17.01.2022
3632 Clouds 18 1021 69 10000 7.75 144 18:29 17.01.2022
3633 Clouds 17 1021 70 10000 8.04 147 17:25 17.01.2022
3634 Clouds 17 1021 70 10000 8.04 147 16:35 17.01.2022
3635 Clouds 17 1021 74 10000 8.59 150 15:18 17.01.2022
3636 Clouds 17 1021 74 10000 8.59 150 14:43 17.01.2022
3637 Clouds 17 1023 87 10000 8.72 148 13:20 17.01.2022
3638 Clouds 17 1023 87 10000 8.72 148 12:55 17.01.2022
3639 Clouds 17 1024 89 10000 9.4 145 11:48 17.01.2022
3640 Clouds 17 1022 92 10000 8 145 10:21 17.01.2022
3641 Clouds 17 1022 92 10000 8 145 09:34 17.01.2022
3642 Clouds 17 1021 76 10000 5.15 203 07:23 17.01.2022
3643 Clouds 20 1021 69 10000 7.07 179 02:55 17.01.2022
3644 Clouds 20 1021 53 10000 6.12 174 00:55 17.01.2022
3645 Clouds 21 1021 48 10000 5.3 150 22:18 16.01.2022
3646 Clouds 19 1020 47 10000 5.61 149 20:34 16.01.2022
3647 Clouds 19 1019 45 10000 6.32 141 18:51 16.01.2022
3648 Clouds 19 1019 45 10000 7.43 141 17:59 16.01.2022
3649 Clouds 20 1019 47 10000 8.32 140 16:59 16.01.2022
3650 Clouds 19 1019 49 10000 8.95 141 16:29 16.01.2022
3651 Clouds 20 1020 49 10000 9.34 142 14:31 16.01.2022
3652 Clouds 20 1020 49 10000 9.34 142 14:30 16.01.2022
3653 Clouds 20 1021 49 10000 9.81 143 13:33 16.01.2022
3654 Clear 19 1021 50 10000 9.63 143 12:26 16.01.2022
3655 Clear 19 1021 50 10000 9.63 143 11:38 16.01.2022
3656 Clear 19 1020 50 10000 9.24 145 10:43 16.01.2022
3657 Clear 16 1020 53 10000 8.8 149 09:58 16.01.2022
3658 Clear 16 1020 53 10000 8.8 149 09:38 16.01.2022
3659 Clear 16 1020 55 10000 8.75 150 09:20 16.01.2022
3660 Clear 16 1019 53 10000 8.38 150 07:21 16.01.2022
3661 Clear 19 1019 59 10000 7.28 135 00:36 16.01.2022
3662 Clear 19 1020 51 10000 5.3 128 22:55 15.01.2022
3663 Clear 20 1020 46 10000 4.96 137 21:22 15.01.2022
3664 Clear 20 1020 46 10000 4.96 137 20:45 15.01.2022
3665 Clear 20 1019 45 10000 5.94 138 20:22 15.01.2022
3666 Clear 19 1019 43 10000 7.21 136 19:27 15.01.2022
3667 Clear 20 1018 45 10000 7.98 134 18:23 15.01.2022
3668 Clear 20 1019 48 10000 9.11 135 16:49 15.01.2022
3669 Clear 20 1019 48 10000 9.11 135 16:49 15.01.2022
3670 Clear 20 1019 50 10000 9.57 133 14:38 15.01.2022
3671 Clouds 20 1021 49 10000 9.2 137 12:52 15.01.2022
3672 Clouds 20 1022 51 10000 9.17 139 11:32 15.01.2022
3673 Clouds 17 1021 55 10000 7.92 145 09:46 15.01.2022
3674 Clouds 18 1020 61 10000 7.28 146 04:46 15.01.2022
3675 Clear 20 1021 59 10000 5.59 122 23:32 14.01.2022
3676 Clear 21 1021 51 10000 3.18 131 21:18 14.01.2022
3677 Clear 21 1020 51 10000 3.69 137 20:25 14.01.2022
3678 Clear 22 1020 51 10000 3.69 137 19:50 14.01.2022
3679 Clear 22 1019 47 10000 4.78 133 18:41 14.01.2022
3680 Clear 22 1019 46 10000 5.91 137 17:36 14.01.2022
3681 Clear 21 1019 48 10000 6.95 140 16:42 14.01.2022
3682 Clear 21 1019 50 10000 7.46 138 15:32 14.01.2022
3683 Clear 22 1020 50 10000 7.31 139 14:26 14.01.2022
3684 Clouds 21 1021 51 10000 7.13 139 12:58 14.01.2022
3685 Clouds 21 1021 50 10000 6.56 142 11:52 14.01.2022
3686 Clouds 19 1020 55 10000 6.28 144 10:39 14.01.2022
3687 Clouds 16 1019 56 10000 4.32 130 08:53 14.01.2022
3688 Clouds 18 1018 56 10000 2.44 113 07:30 14.01.2022
3689 Clear 16 1019 63 10000 2.92 53 02:27 14.01.2022
3690 Clear 17 1020 59 10000 2.01 57 00:22 14.01.2022
3691 Clear 17 1020 61 10000 1.94 92 21:47 13.01.2022
3692 Clear 18 1020 64 10000 2.49 99 21:29 13.01.2022
3693 Clear 20 1019 66 10000 2.86 104 19:47 13.01.2022
3694 Clear 20 1019 63 10000 3.43 103 19:29 13.01.2022
3695 Clear 20 1019 63 10000 3.41 101 18:37 13.01.2022
3696 Clear 21 1018 61 10000 3.97 98 16:53 13.01.2022
3697 Clear 20 1019 60 10000 4.01 94 15:39 13.01.2022
3698 Clear 20 1019 60 10000 3.84 92 15:20 13.01.2022
3699 Clear 20 1021 61 10000 3.2 93 13:29 13.01.2022
3700 Clear 18 1020 63 10000 2.81 116 10:49 13.01.2022
3701 Clear 15 1019 67 10000 2.09 121 09:23 13.01.2022
3702 Clear 16 1019 68 10000 1.85 115 08:29 13.01.2022
3703 Clear 15 1019 68 10000 1.85 115 07:58 13.01.2022
3704 Clear 15 1018 69 10000 2.16 108 07:18 13.01.2022
3705 Clear 16 1019 69 10000 1.92 92 05:20 13.01.2022
3706 Clear 16 1019 69 10000 1.72 99 03:34 13.01.2022
3707 Clear 16 1019 71 10000 1.64 115 01:38 13.01.2022
3708 Clear 17 1020 74 10000 2.56 98 23:53 12.01.2022
3709 Clear 17 1020 74 10000 2.56 98 23:34 12.01.2022
3710 Clear 17 1020 75 10000 2.42 84 22:22 12.01.2022
3711 Clear 17 1020 75 10000 2.42 84 21:43 12.01.2022
3712 Clouds 18 1019 74 10000 2.48 91 21:18 12.01.2022
3713 Clouds 18 1019 74 10000 2.48 91 20:44 12.01.2022
3714 Clear 19 1019 70 10000 2.71 100 18:49 12.01.2022
3715 Clear 19 1018 69 10000 3.01 84 18:18 12.01.2022
3716 Clear 19 1018 68 10000 3.45 89 16:52 12.01.2022
3717 Clear 20 1019 66 10000 3.52 99 14:50 12.01.2022
3718 Clear 20 1020 66 10000 3.45 109 14:19 12.01.2022
3719 Clear 19 1021 66 10000 3.66 110 12:57 12.01.2022
3720 Clear 16 1020 72 10000 2.89 105 09:48 12.01.2022
3721 Clear 16 1019 74 10000 3.32 93 07:57 12.01.2022
3722 Clear 16 1019 74 10000 3.32 93 07:33 12.01.2022
3723 Clear 16 1019 74 10000 3.32 93 07:33 12.01.2022
3724 Clear 16 1020 66 10000 3 82 02:20 12.01.2022
3725 Clear 18 1020 56 10000 2.81 83 23:26 11.01.2022
3726 Clear 18 1020 56 10000 3.07 81 22:26 11.01.2022
3727 Clear 18 1020 56 10000 3.07 81 21:58 11.01.2022
3728 Clear 19 1020 54 10000 3.27 80 20:39 11.01.2022
3729 Clear 20 1019 52 10000 3.32 83 19:31 11.01.2022
3730 Clear 21 1018 46 10000 3.33 86 17:53 11.01.2022
3731 Clear 21 1017 46 10000 3.55 84 16:40 11.01.2022
3732 Clear 21 1018 45 10000 3.64 82 16:18 11.01.2022
3733 Clear 21 1018 45 10000 3.64 82 16:18 11.01.2022
3734 Clear 21 1018 44 10000 3.48 82 14:50 11.01.2022
3735 Clear 21 1018 44 10000 3.48 82 14:32 11.01.2022
3736 Clear 21 1019 44 10000 3.21 85 13:48 11.01.2022
3737 Clear 22 1020 44 10000 2.94 88 13:25 11.01.2022
3738 Clear 21 1020 45 10000 3.19 83 12:34 11.01.2022
3739 Clouds 18 1019 48 10000 2.69 87 10:32 11.01.2022
3740 Clouds 17 1018 53 10000 2.81 62 07:55 11.01.2022
3741 Clouds 16 1018 52 10000 3.99 57 03:51 11.01.2022
3742 Clouds 18 1019 43 10000 1.97 67 00:27 11.01.2022
3743 Clouds 17 1019 43 10000 1.97 67 23:39 10.01.2022
3744 Clouds 18 1019 47 10000 1.87 73 22:39 10.01.2022
3745 Clouds 18 1019 49 10000 1.99 82 22:18 10.01.2022
3746 Clouds 18 1019 49 10000 1.99 82 21:33 10.01.2022
3747 Clouds 18 1019 50 10000 2.43 89 20:59 10.01.2022
3748 Clouds 18 1019 50 10000 2.43 89 20:41 10.01.2022
3749 Clouds 19 1019 50 10000 2.5 93 20:19 10.01.2022
3750 Clouds 19 1019 50 10000 2.5 93 19:38 10.01.2022
3751 Clouds 19 1018 48 10000 4.12 113 19:19 10.01.2022
3752 Clouds 19 1018 50 10000 2.46 101 19:19 10.01.2022
3753 Clouds 20 1018 48 10000 4.12 113 18:46 10.01.2022
3754 Clouds 19 1018 47 10000 4.6 112 16:48 10.01.2022
3755 Clouds 20 1018 46 10000 4.74 112 16:26 10.01.2022
3756 Clouds 20 1019 46 10000 5.04 114 14:43 10.01.2022
3757 Clouds 20 1021 48 10000 4.11 122 13:22 10.01.2022
3758 Clouds 20 1022 52 10000 4.9 128 11:56 10.01.2022
3759 Clouds 19 1021 57 10000 5.32 140 10:49 10.01.2022
3760 Clouds 18 1021 74 10000 5.11 156 09:37 10.01.2022
3761 Clouds 19 1019 59 10000 5.32 127 05:52 10.01.2022
3762 Clouds 18 1021 50 10000 4.7 100 02:32 10.01.2022
3763 Clouds 18 1022 46 10000 3.53 104 01:21 10.01.2022
3764 Clouds 18 1023 43 10000 4.09 118 00:21 10.01.2022
3765 Clouds 19 1023 41 10000 3.81 118 22:47 09.01.2022
3766 Clouds 20 1023 39 10000 3.66 118 22:21 09.01.2022
3767 Clouds 20 1023 39 10000 3.66 118 21:41 09.01.2022
3768 Clouds 20 1023 39 10000 3.23 127 21:22 09.01.2022
3769 Clouds 20 1023 39 10000 3.23 127 20:47 09.01.2022
3770 Clouds 20 1022 42 10000 3.11 127 20:28 09.01.2022
3771 Clouds 19 1022 42 10000 3.11 127 19:41 09.01.2022
3772 Clouds 19 1022 44 10000 4.35 134 19:21 09.01.2022
3773 Clouds 20 1022 44 10000 4.35 134 18:41 09.01.2022
3774 Clouds 20 1021 46 10000 5.66 135 18:23 09.01.2022
3775 Clouds 21 1021 46 10000 5.66 135 17:30 09.01.2022
3776 Clouds 21 1021 46 10000 7.07 123 16:50 09.01.2022
3777 Clouds 21 1021 46 10000 7.73 128 15:51 09.01.2022
3778 Clouds 21 1021 46 10000 7.73 128 15:32 09.01.2022
3779 Clouds 21 1022 45 10000 7.85 135 14:39 09.01.2022
3780 Clouds 21 1023 46 10000 7.84 130 13:49 09.01.2022
3781 Clouds 21 1024 50 10000 7.45 134 12:19 09.01.2022
3782 Clouds 21 1024 50 10000 7.45 134 11:38 09.01.2022
3783 Clouds 20 1023 56 10000 6.07 140 09:55 09.01.2022
3784 Clouds 20 1023 58 10000 5.88 140 09:24 09.01.2022
3785 Clouds 18 1022 58 10000 6.14 141 07:54 09.01.2022
3786 Clouds 18 1022 57 10000 3.02 109 01:30 09.01.2022
3787 Clouds 18 1023 59 10000 2.31 99 00:53 09.01.2022
3788 Clouds 18 1023 59 10000 2.63 80 23:37 08.01.2022
3789 Clouds 18 1022 60 10000 3.03 85 22:56 08.01.2022
3790 Clouds 19 1022 61 10000 3.2 72 21:32 08.01.2022
3791 Clouds 18 1021 64 10000 3.58 60 20:44 08.01.2022
3792 Clear 19 1021 67 10000 3.81 59 20:23 08.01.2022
3793 Clear 20 1021 67 10000 3.81 59 19:46 08.01.2022
3794 Clear 20 1021 67 10000 4.85 53 17:49 08.01.2022
3795 Clear 21 1021 67 10000 4.91 50 16:57 08.01.2022
3796 Clear 20 1021 69 10000 5 52 15:35 08.01.2022
3797 Clear 20 1021 70 10000 5.16 58 14:38 08.01.2022
3798 Clouds 20 1024 73 10000 5.51 67 12:36 08.01.2022
3799 Clouds 19 1023 76 10000 5.49 58 10:46 08.01.2022
3800 Clouds 19 1023 79 10000 5.89 58 10:24 08.01.2022
3801 Clouds 18 1023 79 10000 5.89 58 09:34 08.01.2022
3802 Clouds 18 1023 79 10000 5.89 58 09:34 08.01.2022
3803 Clouds 18 1022 79 10000 6.97 49 07:18 08.01.2022
3804 Clouds 18 1023 74 10000 7.51 41 01:52 08.01.2022
3805 Clouds 19 1023 74 10000 8.1 36 00:25 08.01.2022
3806 Clouds 19 1023 73 10000 8.13 34 22:39 07.01.2022
3807 Clouds 19 1022 73 10000 7.72 33 20:40 07.01.2022
3808 Clouds 19 1022 75 10000 7.82 32 19:39 07.01.2022
3809 Clouds 19 1021 75 10000 7.85 27 18:50 07.01.2022
3810 Clouds 19 1021 75 10000 7.85 27 18:30 07.01.2022
3811 Clouds 20 1021 77 10000 7.34 34 17:25 07.01.2022
3812 Clouds 19 1021 79 10000 7.81 35 16:22 07.01.2022
3813 Clouds 19 1023 78 10000 8.12 32 13:52 07.01.2022
3814 Clouds 19 1024 79 10000 8.3 32 13:18 07.01.2022
3815 Clouds 18 1024 80 10000 8.34 32 12:25 07.01.2022
3816 Clouds 18 1022 83 10000 8.22 24 06:47 07.01.2022
3817 Clouds 17 1023 82 10000 7.9 15 02:54 07.01.2022
3818 Clouds 18 1023 81 10000 8.4 17 01:52 07.01.2022
3819 Clouds 18 1024 81 10000 7.97 16 01:27 07.01.2022
3820 Clouds 18 1024 81 10000 7.97 16 00:55 07.01.2022
3821 Clouds 18 1024 79 10000 8.02 18 22:42 06.01.2022
3822 Clouds 18 1024 77 10000 8.29 14 21:22 06.01.2022
3823 Clouds 18 1023 76 10000 8.48 18 20:19 06.01.2022
3824 Clouds 19 1023 76 10000 8.48 18 19:40 06.01.2022
3825 Clouds 20 1023 75 10000 7.83 18 17:52 06.01.2022
3826 Clouds 20 1023 75 10000 7.83 18 17:31 06.01.2022
3827 Clouds 18 1023 76 10000 7.91 18 16:39 06.01.2022
3828 Clouds 19 1023 77 10000 7.62 18 15:45 06.01.2022
3829 Clouds 21 1023 76 10000 7.88 19 15:23 06.01.2022
3830 Clouds 20 1024 76 10000 7.9 21 14:20 06.01.2022
3831 Clouds 20 1024 76 10000 7.9 21 13:46 06.01.2022
3832 Clouds 20 1025 73 10000 7.95 24 12:40 06.01.2022
3833 Clouds 18 1025 73 10000 8.08 24 11:41 06.01.2022
3834 Clouds 18 1024 74 10000 8.49 25 11:20 06.01.2022
3835 Clouds 18 1024 74 10000 7.6 22 08:31 06.01.2022
3836 Clouds 18 1025 72 10000 7.52 28 00:39 06.01.2022
3837 Clouds 18 1025 70 10000 8.13 29 23:35 05.01.2022
3838 Clouds 18 1025 70 10000 8.13 29 23:35 05.01.2022
3839 Clouds 18 1025 68 10000 7.8 29 22:50 05.01.2022
3840 Clouds 18 1025 69 10000 7.72 29 22:29 05.01.2022
3841 Clouds 19 1025 69 10000 7.72 29 21:45 05.01.2022
3842 Clouds 19 1025 69 10000 6.99 28 20:45 05.01.2022
3843 Clouds 19 1024 66 10000 6.7 27 19:53 05.01.2022
3844 Clouds 20 1023 65 10000 7.22 33 18:27 05.01.2022
3845 Clouds 20 1023 65 10000 7.35 36 16:59 05.01.2022
3846 Clouds 20 1023 65 10000 7.19 37 16:22 05.01.2022
3847 Clouds 21 1023 65 10000 6.65 38 15:20 05.01.2022
3848 Clouds 21 1024 67 10000 7.03 37 13:38 05.01.2022
3849 Clouds 21 1025 68 10000 7.6 36 12:49 05.01.2022
3850 Clouds 18 1024 77 10000 6.19 42 08:57 05.01.2022
3851 Clouds 18 1024 76 10000 6.45 40 07:31 05.01.2022
3852 Clear 19 1024 66 10000 5.32 46 01:59 05.01.2022
3853 Clear 18 1025 67 10000 5.66 39 23:50 04.01.2022
3854 Clear 19 1025 68 10000 5.7 38 23:26 04.01.2022
3855 Clear 19 1024 71 10000 6.22 33 22:27 04.01.2022
3856 Clear 19 1024 73 10000 5.93 28 20:50 04.01.2022
3857 Clear 20 1023 66 10000 4.17 29 19:19 04.01.2022
3858 Clear 21 1022 57 10000 3.11 55 17:38 04.01.2022
3859 Clear 22 1022 54 10000 2.99 69 16:40 04.01.2022
3860 Clear 21 1022 53 10000 3.14 82 16:21 04.01.2022
3861 Clear 22 1023 53 10000 3.16 83 14:51 04.01.2022
3862 Clear 22 1023 53 10000 3.16 83 14:33 04.01.2022
3863 Clear 22 1025 55 10000 3.16 61 13:26 04.01.2022
3864 Clear 19 1023 60 10000 2.7 86 10:29 04.01.2022
3865 Clear 17 1023 64 10000 2.56 93 08:59 04.01.2022
3866 Clear 17 1023 66 10000 2.56 83 08:23 04.01.2022
3867 Clouds 20 1024 69 10000 3.3 67 01:19 04.01.2022
3868 Clouds 20 1024 67 10000 3.17 67 00:40 04.01.2022
3869 Clouds 19 1024 61 10000 2.79 52 22:41 03.01.2022
3870 Clouds 20 1024 57 10000 2.22 64 21:41 03.01.2022
3871 Clouds 20 1024 55 10000 2.24 89 20:51 03.01.2022
3872 Clouds 21 1023 54 10000 2.47 93 19:46 03.01.2022
3873 Clear 23 1023 52 10000 2.28 112 18:33 03.01.2022
3874 Clear 23 1023 51 10000 2.9 114 17:40 03.01.2022
3875 Clear 23 1023 52 10000 4.3 105 16:56 03.01.2022
3876 Clear 22 1024 53 10000 4.26 119 14:54 03.01.2022
3877 Clear 23 1025 54 10000 4.56 124 13:53 03.01.2022
3878 Clear 23 1025 54 10000 4.81 131 12:33 03.01.2022
3879 Clear 22 1025 56 10000 4.19 133 11:31 03.01.2022
3880 Clear 18 1025 57 10000 3.52 137 09:42 03.01.2022
3881 Clear 16 1024 59 10000 3.01 141 08:28 03.01.2022
3882 Clear 17 1024 62 10000 2.69 134 06:31 03.01.2022
3883 Clear 19 1026 57 10000 2.52 53 23:45 02.01.2022
3884 Clear 19 1026 55 10000 2.81 54 22:57 02.01.2022
3885 Clear 20 1026 55 10000 2.81 54 22:38 02.01.2022
3886 Clear 19 1026 48 10000 2.35 83 21:26 02.01.2022
3887 Clear 21 1026 48 10000 2.35 83 20:30 02.01.2022
3888 Clear 21 1025 50 10000 2.15 101 19:49 02.01.2022
3889 Clear 22 1025 50 10000 2.77 114 19:25 02.01.2022
3890 Clear 23 1025 52 10000 2.92 116 18:31 02.01.2022
3891 Clear 23 1024 50 10000 3.8 122 17:43 02.01.2022
3892 Clear 23 1025 49 10000 4.33 124 17:21 02.01.2022
3893 Clear 23 1025 49 10000 4.33 124 16:33 02.01.2022
3894 Clear 23 1025 48 10000 4.67 127 15:49 02.01.2022
3895 Clear 23 1025 48 10000 4.67 127 15:49 02.01.2022
3896 Clear 24 1026 49 10000 5.7 134 13:57 02.01.2022
3897 Clear 24 1026 49 10000 5.92 139 12:34 02.01.2022
3898 Clear 23 1027 49 10000 5.46 141 11:56 02.01.2022
3899 Clear 23 1026 49 10000 4.98 144 10:56 02.01.2022
3900 Clear 21 1026 51 10000 4.46 142 10:22 02.01.2022
3901 Clear 20 1025 52 10000 3.51 128 07:45 02.01.2022
3902 Clear 20 1024 47 10000 2.56 117 02:57 02.01.2022
3903 Clear 20 1025 46 10000 2.3 114 23:54 01.01.2022
3904 Clear 20 1025 46 10000 2.3 114 23:35 01.01.2022
3905 Clear 20 1025 46 10000 2.51 117 22:39 01.01.2022
3906 Clear 20 1025 47 10000 2.72 124 22:18 01.01.2022
3907 Clear 20 1025 47 10000 2.72 124 21:42 01.01.2022
3908 Clear 20 1024 49 10000 2.82 128 20:36 01.01.2022
3909 Clear 21 1024 52 10000 3.06 129 19:45 01.01.2022
3910 Clear 21 1023 53 10000 3.79 126 18:52 01.01.2022
3911 Clear 21 1023 52 10000 4.1 121 17:41 01.01.2022
3912 Clear 23 1022 51 10000 3.9 113 16:35 01.01.2022
3913 Clear 23 1022 51 10000 3.37 110 15:42 01.01.2022
3914 Clear 22 1023 51 10000 3.06 115 14:40 01.01.2022
3915 Clear 22 1023 51 10000 3.16 119 13:42 01.01.2022
3916 Clouds 23 1024 50 10000 3.22 141 12:25 01.01.2022
3917 Clouds 23 1024 49 10000 3.45 149 11:26 01.01.2022
3918 Clouds 23 1024 49 10000 3.45 149 10:59 01.01.2022
3919 Clouds 19 1023 49 10000 3.68 151 09:48 01.01.2022
3920 Clouds 19 1022 48 10000 3.67 146 08:45 01.01.2022
3921 Clouds 18 1022 47 10000 3.48 139 08:18 01.01.2022
3922 Clouds 18 1022 47 10000 3.48 139 07:39 01.01.2022
3923 Clouds 16 1021 46 10000 2.9 135 06:44 01.01.2022
3924 Clouds 19 1021 46 10000 2.25 141 05:24 01.01.2022
3925 Clouds 18 1021 46 10000 2.25 141 04:35 01.01.2022
3926 Clouds 18 1022 50 10000 1.61 166 00:23 01.01.2022
3927 Clear 19 1022 50 10000 2.27 162 22:30 31.12.2021
3928 Clear 19 1022 52 10000 2.67 158 21:47 31.12.2021
3929 Clear 21 1021 54 10000 3.33 154 19:48 31.12.2021
3930 Clear 21 1020 54 10000 3.83 150 19:28 31.12.2021
3931 Clear 22 1019 53 10000 3.35 157 18:18 31.12.2021
3932 Clear 22 1019 53 10000 3.35 157 17:37 31.12.2021
3933 Clear 23 1019 52 10000 3.75 159 16:56 31.12.2021
3934 Clear 22 1019 51 10000 4.78 158 16:18 31.12.2021
3935 Clear 23 1019 51 10000 4.78 158 15:50 31.12.2021
3936 Clear 23 1019 52 10000 4.97 157 15:27 31.12.2021
3937 Clear 24 1019 52 10000 4.97 157 14:41 31.12.2021
3938 Clear 26 1020 52 10000 4.79 156 13:55 31.12.2021
3939 Clear 24 1021 51 10000 4.81 161 12:53 31.12.2021
3940 Clear 27 1021 50 10000 4.65 167 12:26 31.12.2021
3941 Clear 25 1021 50 10000 4.65 167 11:42 31.12.2021
3942 Clear 22 1020 51 10000 4.36 172 10:56 31.12.2021
3943 Clear 20 1020 52 10000 4.16 173 10:28 31.12.2021
3944 Clear 19 1020 52 10000 4.16 173 09:35 31.12.2021
3945 Clouds 18 1019 54 10000 4.13 167 08:54 31.12.2021
3946 Clouds 19 1019 55 10000 4.15 163 07:59 31.12.2021
3947 Clouds 21 1019 50 10000 3.77 158 04:55 31.12.2021
3948 Clouds 20 1020 50 10000 2.52 154 23:18 30.12.2021
3949 Clouds 21 1020 50 10000 2.52 154 22:32 30.12.2021
3950 Clouds 21 1020 54 10000 2.13 159 21:39 30.12.2021
3951 Clear 21 1020 58 10000 1.66 174 21:19 30.12.2021
3952 Clear 23 1020 58 10000 1.66 174 20:40 30.12.2021
3953 Clear 22 1019 59 10000 1.75 176 19:56 30.12.2021
3954 Clear 23 1019 59 10000 1.75 176 19:31 30.12.2021
3955 Clear 23 1018 55 10000 2.66 167 18:28 30.12.2021
3956 Clouds 23 1018 54 10000 3.61 161 16:53 30.12.2021
3957 Clouds 24 1018 54 10000 4.23 160 15:54 30.12.2021
3958 Clouds 24 1018 55 10000 4.72 154 15:21 30.12.2021
3959 Clouds 23 1018 55 10000 4.72 154 14:36 30.12.2021
3960 Clear 24 1020 58 10000 3.2 152 13:26 30.12.2021
3961 Clear 28 1020 57 10000 2.27 173 11:58 30.12.2021
3962 Clear 22 1020 57 10000 2.54 177 10:40 30.12.2021
3963 Clear 19 1019 56 10000 3.45 177 09:49 30.12.2021
3964 Clear 17 1018 60 10000 4.01 148 06:59 30.12.2021
3965 Clear 17 1018 65 10000 2.98 131 05:27 30.12.2021
3966 Clear 18 1019 67 10000 2.3 119 03:41 30.12.2021
3967 Clear 16 1019 67 10000 1.52 100 02:32 30.12.2021
3968 Clear 17 1019 69 10000 0.32 119 23:39 29.12.2021
3969 Clear 18 1019 71 10000 0.81 134 22:55 29.12.2021
3970 Clear 18 1019 73 10000 1.42 135 22:18 29.12.2021
3971 Clear 19 1019 74 10000 1.66 139 20:59 29.12.2021
3972 Clear 19 1019 74 10000 1.66 139 20:30 29.12.2021
3973 Clear 19 1019 74 10000 1.66 139 20:30 29.12.2021
3974 Clear 19 1019 74 10000 1.66 139 20:30 29.12.2021
3975 Clear 19 1019 75 10000 2.03 133 19:38 29.12.2021
3976 Clear 20 1018 75 10000 2.35 124 18:43 29.12.2021
3977 Clear 20 1018 72 10000 2.68 127 17:51 29.12.2021
3978 Clear 20 1018 71 10000 3.11 129 17:27 29.12.2021
3979 Clear 20 1018 70 10000 3.29 132 16:22 29.12.2021
3980 Clear 21 1019 70 10000 3.26 132 15:26 29.12.2021
3981 Clear 20 1020 68 10000 3.06 132 13:42 29.12.2021
3982 Clear 20 1021 66 10000 3.17 136 12:35 29.12.2021
3983 Clear 19 1021 66 10000 2.7 149 11:25 29.12.2021
3984 Clear 17 1021 71 10000 2.76 149 09:38 29.12.2021
3985 Clear 17 1020 79 10000 2.62 127 07:47 29.12.2021
3986 Clear 18 1020 80 10000 2.37 105 06:37 29.12.2021
3987 Clear 18 1020 81 10000 2.25 85 05:57 29.12.2021
3988 Clear 18 1020 81 10000 2.25 85 05:30 29.12.2021
3989 Clear 18 1021 82 10000 2.83 58 01:45 29.12.2021
3990 Clear 19 1022 81 10000 2.51 52 00:00 29.12.2021
3991 Clear 19 1022 82 10000 2.65 52 23:18 28.12.2021
3992 Clear 18 1022 82 10000 2.83 47 22:26 28.12.2021
3993 Clear 19 1022 82 10000 2.83 47 21:57 28.12.2021
3994 Clear 19 1022 82 10000 2.83 47 21:35 28.12.2021
3995 Clear 19 1022 82 10000 2.67 46 20:33 28.12.2021
3996 Clear 20 1021 80 10000 3.03 69 18:59 28.12.2021
3997 Clear 20 1021 77 10000 3.08 75 18:29 28.12.2021
3998 Clear 21 1021 77 10000 3.08 75 17:48 28.12.2021
3999 Clouds 20 1021 76 10000 3.72 97 16:29 28.12.2021
4000 Clouds 21 1021 76 10000 3.72 97 15:45 28.12.2021
4001 Clouds 21 1021 77 10000 3.99 98 15:19 28.12.2021
4002 Clouds 21 1021 77 10000 3.99 98 14:45 28.12.2021
4003 Clear 20 1022 78 10000 4.09 94 14:20 28.12.2021
4004 Clear 20 1022 78 10000 4.09 94 13:38 28.12.2021
4005 Clear 20 1022 78 10000 4.09 94 13:38 28.12.2021
4006 Clouds 20 1023 79 10000 4.29 90 12:57 28.12.2021
4007 Clouds 20 1023 78 10000 4.21 93 12:38 28.12.2021
4008 Clouds 20 1023 83 10000 4.04 87 11:27 28.12.2021
4009 Clear 19 1022 86 10000 3.62 70 07:40 28.12.2021
4010 Clouds 19 1022 87 10000 3.69 63 06:40 28.12.2021
4011 Clouds 19 1023 88 10000 3.66 67 23:42 27.12.2021
4012 Clouds 20 1023 86 10000 3.34 58 22:53 27.12.2021
4013 Clouds 20 1023 84 10000 2.97 56 21:33 27.12.2021
4014 Clouds 20 1022 85 10000 2.74 53 20:46 27.12.2021
4015 Clouds 20 1022 84 10000 2.34 49 19:57 27.12.2021
4016 Clouds 20 1022 84 10000 2.34 49 19:39 27.12.2021
4017 Clouds 21 1021 82 10000 2.68 68 17:55 27.12.2021
4018 Clouds 21 1021 82 10000 2.68 68 17:55 27.12.2021
4019 Clouds 21 1021 82 10000 2.68 68 17:37 27.12.2021
4020 Clouds 21 1021 82 10000 3.29 70 16:36 27.12.2021
4021 Clouds 21 1021 82 10000 3.47 67 15:51 27.12.2021
4022 Clouds 21 1021 81 10000 3.26 63 14:30 27.12.2021
4023 Clouds 21 1022 81 10000 3 66 13:38 27.12.2021
4024 Clouds 19 1023 83 10000 3.21 71 11:41 27.12.2021
4025 Clouds 19 1022 86 10000 3.14 54 10:28 27.12.2021
4026 Clouds 19 1022 86 10000 3.14 54 09:38 27.12.2021
4027 Clouds 19 1021 87 10000 3.06 42 07:35 27.12.2021
4028 Clouds 19 1021 88 10000 3.09 32 06:38 27.12.2021
4029 Clouds 19 1021 84 10000 2.42 35 01:59 27.12.2021
4030 Clouds 19 1022 85 10000 2.72 19 23:52 26.12.2021
4031 Clouds 19 1022 85 10000 2.72 19 23:34 26.12.2021
4032 Clouds 19 1022 84 10000 2.56 8 21:53 26.12.2021
4033 Clouds 20 1022 86 10000 2.35 6 20:42 26.12.2021
4034 Clouds 20 1021 87 10000 2.29 7 19:31 26.12.2021
4035 Clear 21 1020 82 10000 2.63 17 18:23 26.12.2021
4036 Clear 22 1019 78 10000 2.21 16 15:56 26.12.2021
4037 Clear 22 1021 76 10000 2.64 10 13:52 26.12.2021
4038 Clear 23 1021 76 10000 2.64 10 13:32 26.12.2021
4039 Clouds 22 1022 75 10000 2.24 2 12:39 26.12.2021
4040 Clouds 22 1022 76 10000 2.74 0 11:58 26.12.2021
4041 Clouds 18 1021 76 10000 2.38 340 09:52 26.12.2021
4042 Clouds 17 1021 76 10000 2.6 335 09:18 26.12.2021
4043 Clouds 18 1021 76 10000 2.6 335 08:39 26.12.2021
4044 Clouds 17 1020 74 10000 2.17 338 07:25 26.12.2021
4045 Clouds 18 1021 74 10000 2.78 330 00:59 26.12.2021
4046 Clouds 18 1021 75 10000 2.84 332 23:51 25.12.2021
4047 Clouds 18 1021 75 10000 2.29 328 23:26 25.12.2021
4048 Clouds 18 1021 75 10000 2.94 339 22:23 25.12.2021
4049 Clouds 20 1020 74 10000 3.1 346 20:48 25.12.2021
4050 Clouds 21 1020 72 10000 3.28 336 19:22 25.12.2021
4051 Clouds 21 1020 72 10000 3.28 336 18:54 25.12.2021
4052 Clouds 22 1019 70 10000 2.97 342 17:28 25.12.2021
4053 Clouds 22 1019 68 10000 3.01 343 16:18 25.12.2021
4054 Clouds 22 1019 68 10000 3.27 342 14:38 25.12.2021
4055 Clouds 21 1021 69 10000 3.49 346 12:48 25.12.2021
4056 Clouds 21 1021 69 10000 4.05 338 11:37 25.12.2021
4057 Clouds 17 1020 77 10000 4.64 328 09:49 25.12.2021
4058 Clouds 16 1018 81 10000 4.14 329 07:54 25.12.2021
4059 Clouds 17 1018 81 10000 3 336 02:18 25.12.2021
4060 Clouds 18 1019 83 10000 3.41 335 00:33 25.12.2021
4061 Clouds 18 1019 82 10000 3.2 332 23:38 24.12.2021
4062 Clouds 20 1018 77 10000 1.76 344 19:39 24.12.2021
4063 Clouds 20 1017 74 10000 1.7 332 19:20 24.12.2021
4064 Clouds 21 1016 69 10000 1.41 71 16:50 24.12.2021
4065 Clouds 21 1017 68 10000 1.08 63 16:19 24.12.2021
4066 Clouds 21 1017 68 10000 1.08 63 15:45 24.12.2021
4067 Clouds 21 1017 68 10000 1.77 89 14:46 24.12.2021
4068 Clouds 21 1018 68 10000 1.67 80 14:22 24.12.2021
4069 Clouds 21 1018 68 10000 1.67 80 13:37 24.12.2021
4070 Clouds 21 1019 69 10000 1.4 72 12:48 24.12.2021
4071 Clouds 21 1019 69 10000 1.01 66 11:52 24.12.2021
4072 Clouds 20 1019 72 10000 0.93 68 11:26 24.12.2021
4073 Clouds 20 1019 72 10000 0.93 68 10:50 24.12.2021
4074 Clouds 18 1019 77 10000 1.45 53 10:18 24.12.2021
4075 Clear 16 1018 79 10000 2.23 8 08:24 24.12.2021
4076 Clear 16 1018 79 10000 2.23 8 07:48 24.12.2021
4077 Clear 16 1019 69 10000 1.7 323 02:52 24.12.2021
4078 Clouds 17 1019 74 10000 0.88 117 00:19 24.12.2021
4079 Clouds 18 1020 77 10000 1.75 118 23:22 23.12.2021
4080 Clouds 19 1020 77 10000 1.75 118 22:37 23.12.2021
4081 Clouds 19 1020 77 10000 1.75 118 22:37 23.12.2021
4082 Clouds 19 1020 78 10000 1.44 96 22:19 23.12.2021
4083 Clouds 19 1020 77 10000 1.27 74 20:59 23.12.2021
4084 Clouds 19 1019 76 10000 1.05 48 20:19 23.12.2021
4085 Clouds 21 1018 72 10000 1.58 123 18:37 23.12.2021
4086 Clouds 21 1018 70 10000 1.67 122 17:57 23.12.2021
4087 Clouds 22 1018 69 10000 1.78 125 16:47 23.12.2021
4088 Clouds 21 1018 68 10000 2.06 129 16:24 23.12.2021
4089 Clouds 21 1018 68 10000 2.06 129 15:31 23.12.2021
4090 Clouds 21 1019 68 10000 2.66 136 14:52 23.12.2021
4091 Clouds 20 1019 68 10000 2.66 136 14:31 23.12.2021
4092 Clouds 20 1021 69 10000 2.91 135 12:57 23.12.2021
4093 Clear 20 1022 74 10000 2.21 124 10:53 23.12.2021
4094 Clear 18 1021 77 10000 1.48 112 09:47 23.12.2021
4095 Clear 18 1020 79 10000 1.32 106 09:19 23.12.2021
4096 Clear 17 1020 81 10000 1.67 111 06:59 23.12.2021
4097 Clear 17 1020 81 10000 1.19 83 04:35 23.12.2021
4098 Clouds 18 1022 86 10000 1.59 32 23:26 22.12.2021
4099 Clouds 18 1022 86 10000 1.59 32 23:26 22.12.2021
4100 Clouds 18 1022 86 10000 1.59 32 22:47 22.12.2021
4101 Clouds 19 1022 83 10000 1.48 34 21:56 22.12.2021
4102 Clouds 20 1022 84 10000 1.4 37 21:29 22.12.2021
4103 Clouds 20 1022 84 10000 1.4 37 20:47 22.12.2021
4104 Clouds 20 1021 84 10000 1.44 32 20:26 22.12.2021
4105 Clouds 20 1021 82 10000 1.45 8 19:28 22.12.2021
4106 Clouds 21 1020 80 10000 1.81 15 17:50 22.12.2021
4107 Clouds 21 1020 79 10000 1.71 19 16:40 22.12.2021
4108 Clouds 21 1020 76 10000 0.97 51 15:40 22.12.2021
4109 Clouds 21 1021 74 10000 0.82 48 13:37 22.12.2021
4110 Clouds 21 1022 75 10000 1.11 47 12:41 22.12.2021
4111 Clear 19 1022 78 10000 1.4 22 10:36 22.12.2021
4112 Clear 18 1021 79 10000 0.99 10 09:39 22.12.2021
4113 Clear 17 1020 82 10000 1.41 314 07:30 22.12.2021
4114 Clouds 17 1019 81 10000 2.87 324 05:50 22.12.2021
4115 Clouds 18 1019 81 10000 2.45 310 05:26 22.12.2021
4116 Clouds 18 1019 81 10000 2.45 310 04:50 22.12.2021
4117 Clouds 18 1019 81 10000 2.46 298 04:26 22.12.2021
4118 Clouds 18 1019 81 10000 2.46 298 03:32 22.12.2021
4119 Clouds 18 1020 79 10000 0.91 266 00:50 22.12.2021
4120 Clear 19 1020 76 10000 0.08 22 23:25 21.12.2021
4121 Clear 19 1020 74 10000 0.55 66 22:28 21.12.2021
4122 Clear 19 1020 74 10000 0.55 66 21:44 21.12.2021
4123 Clouds 20 1019 73 10000 1.32 54 21:22 21.12.2021
4124 Clear 21 1018 71 10000 1.2 31 20:21 21.12.2021
4125 Clear 21 1018 71 10000 1.2 31 19:42 21.12.2021
4126 Clouds 23 1017 68 10000 1.58 11 18:46 21.12.2021
4127 Clouds 24 1017 64 10000 1.23 358 18:21 21.12.2021
4128 Clouds 24 1017 64 10000 1.23 358 17:41 21.12.2021
4129 Clouds 23 1017 62 10000 0.21 285 16:26 21.12.2021
4130 Clouds 23 1017 63 10000 0.41 68 15:24 21.12.2021
4131 Clouds 22 1018 63 10000 0.68 125 13:50 21.12.2021
4132 Clouds 23 1018 63 10000 0.68 125 13:30 21.12.2021
4133 Clouds 21 1019 66 10000 1.58 184 11:49 21.12.2021
4134 Clouds 19 1018 73 10000 2.95 240 10:24 21.12.2021
4135 Clouds 18 1017 74 10000 3.36 217 09:23 21.12.2021
4136 Clouds 18 1017 72 10000 3.47 224 07:58 21.12.2021
4137 Clouds 18 1016 69 10000 3.49 220 07:27 21.12.2021
4138 Clouds 18 1016 69 10000 3.49 220 06:50 21.12.2021
4139 Clouds 17 1016 67 10000 2.94 224 02:51 21.12.2021
4140 Clouds 19 1018 64 10000 1.96 203 23:59 20.12.2021
4141 Clouds 19 1018 65 10000 1.8 212 23:29 20.12.2021
4142 Clouds 19 1018 67 10000 1.88 227 22:28 20.12.2021
4143 Clouds 19 1018 67 10000 1.88 227 21:47 20.12.2021
4144 Clouds 19 1017 68 10000 1.83 238 21:23 20.12.2021
4145 Clouds 20 1017 68 10000 1.83 238 20:44 20.12.2021
4146 Clouds 20 1017 69 10000 2.08 217 19:53 20.12.2021
4147 Clouds 20 1017 69 10000 2.08 217 19:53 20.12.2021
4148 Clouds 21 1017 69 10000 2.08 217 19:31 20.12.2021
4149 Clouds 21 1016 68 10000 1.87 230 18:54 20.12.2021
4150 Clear 22 1016 69 10000 0.88 215 17:52 20.12.2021
4151 Clear 23 1016 68 10000 1.43 161 17:25 20.12.2021
4152 Clear 23 1016 68 10000 1.43 161 16:40 20.12.2021
4153 Clear 24 1016 67 10000 0.94 169 15:50 20.12.2021
4154 Clear 24 1017 66 10000 1.29 199 14:43 20.12.2021
4155 Clear 22 1018 70 10000 2.1 203 12:51 20.12.2021
4156 Clear 21 1018 75 10000 3.32 210 11:19 20.12.2021
4157 Clear 18 1018 78 10000 3.44 211 09:47 20.12.2021
4158 Clear 18 1017 80 10000 3.19 212 09:28 20.12.2021
4159 Clear 18 1017 80 10000 3.19 212 08:41 20.12.2021
4160 Clear 18 1016 79 10000 3.07 213 07:49 20.12.2021
4161 Clear 18 1016 81 10000 3.36 222 07:25 20.12.2021
4162 Clear 18 1016 82 10000 3.17 204 03:59 20.12.2021
4163 Clear 18 1018 83 10000 2.53 212 23:58 19.12.2021
4164 Clear 19 1018 83 10000 2.72 201 22:45 19.12.2021
4165 Clear 19 1017 83 10000 2.94 208 21:50 19.12.2021
4166 Clear 19 1017 82 10000 3.08 214 21:29 19.12.2021
4167 Clear 20 1017 82 10000 3.08 214 20:30 19.12.2021
4168 Clouds 20 1016 81 10000 3.14 220 19:46 19.12.2021
4169 Clear 21 1016 79 10000 2.36 211 18:58 19.12.2021
4170 Clear 21 1016 76 10000 2.04 209 18:29 19.12.2021
4171 Clear 22 1016 76 10000 2.04 209 17:51 19.12.2021
4172 Clear 22 1015 75 10000 2.07 204 17:18 19.12.2021
4173 Clear 22 1015 74 10000 2.24 194 16:25 19.12.2021
4174 Clear 22 1016 73 10000 1.41 206 15:28 19.12.2021
4175 Clear 22 1016 73 10000 1.41 206 14:57 19.12.2021
4176 Clear 22 1016 73 10000 1.41 206 14:36 19.12.2021
4177 Clear 21 1017 72 10000 1.55 177 13:22 19.12.2021
4178 Clear 22 1017 72 10000 1.55 177 12:33 19.12.2021
4179 Clear 21 1018 73 10000 2.03 155 11:42 19.12.2021
4180 Clear 20 1017 75 10000 1.52 159 10:53 19.12.2021
4181 Clear 18 1017 77 10000 1 240 10:23 19.12.2021
4182 Clear 18 1017 77 10000 1 240 10:23 19.12.2021
4183 Clouds 15 1016 78 10000 1.19 244 09:26 19.12.2021
4184 Clouds 17 1016 78 10000 1.24 211 07:50 19.12.2021
4185 Clear 16 1016 77 10000 0.57 204 04:44 19.12.2021
4186 Clear 17 1017 72 10000 3.64 171 00:55 19.12.2021
4187 Clear 18 1017 70 10000 3.18 183 23:52 18.12.2021
4188 Clear 18 1017 69 10000 2.62 192 22:31 18.12.2021
4189 Clear 19 1017 68 10000 2.77 192 21:54 18.12.2021
4190 Clear 18 1017 68 10000 2.77 192 21:34 18.12.2021
4191 Clear 19 1016 68 10000 2.09 214 20:44 18.12.2021
4192 Clear 19 1015 67 10000 1.15 256 19:51 18.12.2021
4193 Clear 20 1015 64 10000 1.22 262 19:19 18.12.2021
4194 Clear 20 1015 60 10000 0.96 278 18:19 18.12.2021
4195 Clear 21 1015 60 10000 0.96 278 17:47 18.12.2021
4196 Clear 21 1015 54 10000 0.97 265 16:25 18.12.2021
4197 Clear 21 1015 52 10000 1.81 268 15:26 18.12.2021
4198 Clear 21 1015 50 10000 1.54 294 14:22 18.12.2021
4199 Clear 20 1016 49 10000 1.44 302 12:39 18.12.2021
4200 Clear 19 1016 49 10000 2.21 260 10:52 18.12.2021
4201 Clear 15 1016 51 10000 2.35 274 09:33 18.12.2021
4202 Clear 16 1015 52 10000 2.59 283 08:42 18.12.2021
4203 Clear 15 1015 51 10000 2.74 280 08:18 18.12.2021
4204 Clear 17 1015 48 10000 1.01 140 01:48 18.12.2021
4205 Clear 16 1017 56 10000 1.74 107 00:27 18.12.2021
4206 Clear 16 1017 56 10000 1.74 107 23:37 17.12.2021
4207 Clear 17 1017 57 10000 1.66 84 21:55 17.12.2021
4208 Clear 18 1017 57 10000 1.64 86 20:51 17.12.2021
4209 Clear 19 1016 56 10000 1.52 84 20:28 17.12.2021
4210 Clear 19 1016 56 10000 1.87 31 18:58 17.12.2021
4211 Clear 20 1016 56 10000 1.87 31 18:38 17.12.2021
4212 Clear 20 1015 52 10000 2.17 35 17:26 17.12.2021
4213 Clear 20 1015 52 10000 2.17 35 16:44 17.12.2021
4214 Clear 20 1015 50 10000 2.28 33 16:19 17.12.2021
4215 Clear 21 1016 49 10000 2.24 34 15:19 17.12.2021
4216 Clear 21 1016 49 10000 2.24 34 14:34 17.12.2021
4217 Clear 20 1017 48 10000 2.16 31 12:45 17.12.2021
4218 Clear 19 1017 48 10000 1.31 19 11:22 17.12.2021
4219 Clear 16 1017 51 10000 1.1 7 09:55 17.12.2021
4220 Clear 16 1016 54 10000 1.25 18 08:58 17.12.2021
4221 Clear 16 1016 55 10000 1.17 42 08:20 17.12.2021
4222 Clear 14 1016 61 10000 0.62 75 05:25 17.12.2021
4223 Clear 15 1016 64 10000 0.73 129 02:52 17.12.2021
4224 Clouds 16 1016 77 10000 0.89 305 23:20 16.12.2021
4225 Clouds 17 1014 74 10000 0.89 270 22:23 16.12.2021
4226 Clouds 17 1014 74 10000 0.89 270 22:23 16.12.2021
4227 Clouds 17 1014 74 10000 0.89 270 21:47 16.12.2021
4228 Clouds 17 1016 63 10000 1.61 50 21:20 16.12.2021
4229 Clouds 18 1014 74 10000 0.89 270 20:27 16.12.2021
4230 Clouds 19 1014 74 10000 0.89 246 19:35 16.12.2021
4231 Clouds 19 1013 73 10000 0.89 232 18:37 16.12.2021
4232 Clouds 20 1015 64 10000 0.89 282 17:49 16.12.2021
4233 Clouds 20 1014 59 10000 2.62 32 17:19 16.12.2021
4234 Clear 21 1014 58 10000 2.65 25 16:20 16.12.2021
4235 Clear 21 1014 57 10000 2.56 23 14:50 16.12.2021
4236 Clear 20 1015 64 10000 0.89 282 12:48 16.12.2021
4237 Clear 19 1016 62 10000 2.19 6 11:19 16.12.2021
4238 Clear 19 1016 62 10000 2.19 6 10:48 16.12.2021
4239 Clear 16 1016 64 10000 2.15 11 09:59 16.12.2021
4240 Clear 16 1014 70 10000 2.14 20 07:21 16.12.2021
4241 Clear 15 1014 70 10000 1.68 14 06:19 16.12.2021
4242 Clouds 17 1015 70 10000 2.59 19 00:53 16.12.2021
4243 Clouds 16 1016 70 10000 2.72 15 23:21 15.12.2021
4244 Clouds 17 1015 70 10000 3.07 9 22:26 15.12.2021
4245 Clouds 17 1015 70 10000 3.07 9 21:49 15.12.2021
4246 Clouds 18 1015 69 10000 3.48 6 21:26 15.12.2021
4247 Clouds 18 1015 69 10000 3.89 359 19:55 15.12.2021
4248 Clouds 19 1014 69 10000 4.06 356 19:23 15.12.2021
4249 Clouds 19 1013 66 10000 4.25 1 18:26 15.12.2021
4250 Clouds 20 1013 66 10000 4.25 1 17:49 15.12.2021
4251 Clouds 20 1013 66 10000 4.57 1 17:27 15.12.2021
4252 Clouds 21 1013 66 10000 4.9 355 16:25 15.12.2021
4253 Clouds 19 1013 66 10000 4.9 355 15:42 15.12.2021
4254 Clouds 19 1014 66 10000 5.13 346 15:24 15.12.2021
4255 Clouds 19 1014 64 10000 4.7 340 13:58 15.12.2021
4256 Clouds 18 1015 67 10000 4.59 333 11:57 15.12.2021
4257 Clouds 18 1015 71 10000 5.1 329 10:23 15.12.2021
4258 Clouds 16 1014 74 10000 5.53 327 08:34 15.12.2021
4259 Clouds 16 1013 76 10000 5.39 323 05:59 15.12.2021
4260 Clouds 17 1015 77 10000 4.64 329 00:47 15.12.2021
4261 Clouds 17 1015 77 10000 4.56 333 23:41 14.12.2021
4262 Clouds 18 1016 75 10000 3.73 326 22:47 14.12.2021
4263 Clouds 18 1016 74 10000 3.21 326 21:48 14.12.2021
4264 Clouds 19 1015 70 10000 3.01 326 20:24 14.12.2021
4265 Clouds 20 1015 70 10000 3.01 326 19:39 14.12.2021
4266 Clouds 21 1015 65 10000 3.4 353 18:42 14.12.2021
4267 Clouds 21 1014 59 10000 2.02 358 17:58 14.12.2021
4268 Clouds 21 1014 56 10000 0.96 28 16:58 14.12.2021
4269 Clouds 21 1014 56 10000 0.96 28 16:35 14.12.2021
4270 Clouds 22 1015 55 10000 1.24 18 14:39 14.12.2021
4271 Clouds 22 1017 55 10000 1.37 4 13:24 14.12.2021
4272 Clouds 21 1018 55 10000 1.45 350 11:56 14.12.2021
4273 Clouds 21 1018 56 10000 1.76 332 11:22 14.12.2021
4274 Clouds 18 1017 58 10000 1.84 323 09:55 14.12.2021
4275 Clouds 17 1017 59 10000 2.13 326 09:22 14.12.2021
4276 Clouds 17 1017 58 10000 1.22 338 08:23 14.12.2021
4277 Clouds 17 1017 58 10000 1.22 338 07:42 14.12.2021
4278 Clouds 18 1018 57 10000 0.7 33 01:46 14.12.2021
4279 Clouds 18 1019 72 10000 2.34 43 22:49 13.12.2021
4280 Clouds 18 1020 73 10000 2.79 27 21:51 13.12.2021
4281 Clouds 19 1020 73 10000 3.36 21 20:58 13.12.2021
4282 Clear 19 1019 72 10000 3.27 12 20:29 13.12.2021
4283 Clear 19 1019 72 10000 3.27 12 19:51 13.12.2021
4284 Clear 21 1018 72 10000 3.67 1 17:56 13.12.2021
4285 Clear 21 1018 70 10000 3.46 13 17:23 13.12.2021
4286 Clear 21 1018 69 10000 3.38 23 15:49 13.12.2021
4287 Clear 22 1019 69 10000 3.32 33 15:18 13.12.2021
4288 Clear 21 1020 70 10000 3.39 31 13:38 13.12.2021
4289 Clouds 21 1021 71 10000 3.65 27 12:42 13.12.2021
4290 Clouds 21 1021 74 10000 3.6 21 11:54 13.12.2021
4291 Clouds 20 1021 74 10000 3.6 21 11:35 13.12.2021
4292 Clouds 18 1021 76 10000 3.96 16 10:41 13.12.2021
4293 Clouds 18 1020 79 10000 3.93 14 08:52 13.12.2021
4294 Clouds 17 1020 79 10000 3.8 14 07:37 13.12.2021
4295 Clouds 17 1019 80 10000 3.36 12 05:23 13.12.2021
4296 Clouds 18 1020 79 10000 2.8 26 00:42 13.12.2021
4297 Clouds 17 1020 86 10000 0.89 291 21:59 12.12.2021
4298 Clouds 17 1020 86 10000 0.89 291 21:33 12.12.2021
4299 Clouds 19 1020 78 10000 3.54 49 19:38 12.12.2021
4300 Clouds 20 1019 76 10000 3.91 35 18:28 12.12.2021
4301 Clouds 20 1018 76 10000 0.89 281 16:54 12.12.2021
4302 Clouds 20 1018 76 10000 0.89 281 16:26 12.12.2021
4303 Clouds 21 1018 76 10000 0.89 246 15:28 12.12.2021
4304 Clouds 21 1019 73 10000 3.88 33 14:54 12.12.2021
4305 Clouds 21 1019 75 10000 0.89 219 14:22 12.12.2021
4306 Clouds 20 1020 76 10000 0.89 232 12:51 12.12.2021
4307 Clouds 20 1020 76 10000 0.89 345 12:23 12.12.2021
4308 Clouds 20 1021 70 10000 3.91 45 11:43 12.12.2021
4309 Clouds 19 1021 70 10000 4.08 44 10:44 12.12.2021
4310 Clouds 19 1020 72 10000 3.98 39 10:21 12.12.2021
4311 Clouds 19 1020 74 10000 3.92 33 08:50 12.12.2021
4312 Clouds 18 1020 77 10000 4.13 28 07:30 12.12.2021
4313 Clouds 19 1019 79 10000 4.07 18 05:56 12.12.2021
4314 Clouds 19 1019 77 10000 4.41 23 04:55 12.12.2021
4315 Clouds 19 1020 77 10000 4.88 24 02:52 12.12.2021
4316 Clouds 19 1021 72 10000 5.78 37 23:28 11.12.2021
4317 Clouds 19 1021 73 10000 5.87 37 22:21 11.12.2021
4318 Clouds 19 1021 73 10000 5.87 37 21:47 11.12.2021
4319 Clouds 19 1021 72 10000 5.75 38 20:20 11.12.2021
4320 Clouds 20 1020 72 10000 5.75 38 19:21 11.12.2021
4321 Clouds 20 1020 72 10000 5.75 38 18:49 11.12.2021
4322 Clouds 21 1020 71 10000 5.89 36 17:56 11.12.2021
4323 Clouds 22 1020 70 10000 5.82 38 16:39 11.12.2021
4324 Clouds 21 1020 69 10000 5.63 42 15:46 11.12.2021
4325 Clouds 21 1020 68 10000 5.5 46 14:46 11.12.2021
4326 Clouds 21 1022 72 10000 5.7 54 12:41 11.12.2021
4327 Clouds 20 1023 74 10000 6.27 56 11:18 11.12.2021
4328 Clouds 19 1023 76 10000 6.43 54 09:45 11.12.2021
4329 Clouds 17 1022 79 10000 6.64 49 05:36 11.12.2021
4330 Clear 18 1024 78 10000 6.41 51 00:50 11.12.2021
4331 Clear 19 1024 76 10000 6.41 53 23:44 10.12.2021
4332 Clear 19 1024 74 10000 6.59 55 22:50 10.12.2021
4333 Clear 19 1024 73 10000 6.67 55 21:51 10.12.2021
4334 Clear 19 1023 70 10000 6.78 53 20:32 10.12.2021
4335 Clear 20 1022 72 10000 7.55 55 19:19 10.12.2021
4336 Clouds 20 1022 70 10000 7.52 57 17:50 10.12.2021
4337 Clouds 21 1022 69 10000 7.65 58 16:39 10.12.2021
4338 Clouds 21 1022 68 10000 7.07 57 15:45 10.12.2021
4339 Clouds 21 1022 69 10000 6.35 57 15:27 10.12.2021
4340 Clouds 21 1022 69 10000 6.35 57 14:56 10.12.2021
4341 Clouds 21 1023 72 10000 6.62 55 13:50 10.12.2021
4342 Clouds 20 1024 73 10000 6.86 52 13:18 10.12.2021
4343 Clouds 20 1025 75 10000 7.24 51 11:43 10.12.2021
4344 Clouds 20 1025 76 10000 7.88 48 11:19 10.12.2021
4345 Clouds 20 1025 76 10000 7.88 48 11:19 10.12.2021
4346 Clouds 19 1024 75 10000 8.52 45 09:53 10.12.2021
4347 Clouds 19 1023 76 10000 8.67 40 08:23 10.12.2021
4348 Clouds 18 1023 76 10000 8.38 42 04:58 10.12.2021
4349 Clouds 19 1023 74 10000 9.36 39 02:44 10.12.2021
4350 Clouds 19 1024 79 10000 9.79 30 23:43 09.12.2021
4351 Clouds 18 1025 79 10000 9.55 29 22:43 09.12.2021
4352 Clouds 18 1025 77 10000 9.29 29 22:23 09.12.2021
4353 Clouds 18 1025 77 10000 9.29 29 21:40 09.12.2021
4354 Clouds 18 1025 78 10000 8.82 27 20:36 09.12.2021
4355 Clouds 19 1024 76 10000 8.76 27 19:45 09.12.2021
4356 Clouds 18 1024 76 10000 8.96 29 19:20 09.12.2021
4357 Clouds 20 1024 77 10000 8.4 29 18:22 09.12.2021
4358 Clouds 20 1024 77 10000 8.4 29 17:48 09.12.2021
4359 Clouds 19 1024 76 10000 8.55 30 17:24 09.12.2021
4360 Clouds 20 1024 76 10000 8.55 30 16:41 09.12.2021
4361 Clouds 20 1025 75 10000 8.6 31 15:19 09.12.2021
4362 Clouds 20 1024 75 10000 8.5 31 14:36 09.12.2021
4363 Clouds 21 1026 71 10000 9.13 33 12:48 09.12.2021
4364 Clouds 20 1027 75 10000 8.3 35 11:51 09.12.2021
4365 Clouds 19 1027 72 10000 7.61 32 10:40 09.12.2021
4366 Clouds 19 1025 78 10000 8.41 29 07:53 09.12.2021
4367 Clouds 18 1025 83 10000 5.94 28 03:58 09.12.2021
4368 Clouds 19 1027 77 10000 6.31 32 00:26 09.12.2021
4369 Clouds 20 1027 77 10000 6.31 32 23:37 08.12.2021
4370 Clouds 19 1027 75 10000 6.5 32 22:57 08.12.2021
4371 Clouds 19 1027 75 10000 6.5 32 22:36 08.12.2021
4372 Clouds 19 1027 74 10000 7.05 32 21:38 08.12.2021
4373 Clouds 19 1026 76 10000 7.29 33 20:50 08.12.2021
4374 Clouds 20 1026 75 10000 7.09 30 19:57 08.12.2021
4375 Clouds 20 1025 74 10000 6.74 27 19:20 08.12.2021
4376 Clouds 20 1024 73 10000 6.79 29 18:22 08.12.2021
4377 Clouds 21 1024 72 10000 6.7 32 16:55 08.12.2021
4378 Clouds 21 1024 73 10000 6.66 34 15:45 08.12.2021
4379 Clouds 21 1025 72 10000 6.2 36 15:22 08.12.2021
4380 Clouds 21 1026 74 10000 5.35 48 13:27 08.12.2021
4381 Clouds 20 1026 74 10000 5.53 49 10:45 08.12.2021
4382 Clouds 20 1026 74 10000 5.53 49 10:45 08.12.2021
4383 Clouds 18 1026 76 10000 5.57 45 09:58 08.12.2021
4384 Clouds 18 1025 78 10000 6.07 41 08:34 08.12.2021
4385 Clouds 18 1024 79 10000 6.76 37 06:36 08.12.2021
4386 Clouds 18 1024 73 10000 5.02 47 01:20 08.12.2021
4387 Clouds 19 1024 72 10000 5.22 58 23:23 07.12.2021
4388 Clouds 19 1024 69 10000 4.38 50 21:26 07.12.2021
4389 Clouds 19 1024 69 10000 2.84 50 20:26 07.12.2021
4390 Clouds 19 1023 68 10000 2.51 43 19:21 07.12.2021
4391 Clouds 19 1023 68 10000 2.51 43 18:32 07.12.2021
4392 Clouds 19 1023 65 10000 2.96 68 17:27 07.12.2021
4393 Clouds 20 1023 65 10000 2.96 67 16:56 07.12.2021
4394 Clouds 21 1023 63 10000 3.37 72 16:26 07.12.2021
4395 Clouds 20 1023 63 10000 3.71 89 14:38 07.12.2021
4396 Clouds 20 1024 62 10000 3.44 92 13:41 07.12.2021
4397 Clouds 19 1025 67 10000 3.78 74 12:27 07.12.2021
4398 Clouds 19 1025 63 10000 3.03 103 11:23 07.12.2021
4399 Clouds 17 1025 63 10000 2.62 116 09:40 07.12.2021
4400 Clouds 17 1024 70 10000 2.64 107 07:50 07.12.2021
4401 Clouds 17 1022 76 10000 3.93 74 05:52 07.12.2021
4402 Clouds 17 1023 76 10000 3.08 54 05:26 07.12.2021
4403 Clouds 17 1022 77 10000 3.41 55 05:26 07.12.2021
4404 Clouds 19 1024 76 10000 5.12 61 23:38 06.12.2021
4405 Clouds 19 1024 76 10000 5.53 59 22:41 06.12.2021
4406 Clouds 19 1024 76 10000 5.88 55 21:59 06.12.2021
4407 Clouds 19 1024 76 10000 5.88 55 21:36 06.12.2021
4408 Clouds 19 1023 76 10000 6.33 49 20:33 06.12.2021
4409 Clouds 19 1024 76 10000 6.21 53 20:33 06.12.2021
4410 Clouds 20 1023 74 10000 6.3 46 19:25 06.12.2021
4411 Clouds 20 1023 74 10000 6.3 46 18:55 06.12.2021
4412 Clouds 20 1023 71 10000 6.48 49 17:55 06.12.2021
4413 Clouds 21 1023 71 10000 6.48 49 17:34 06.12.2021
4414 Clouds 21 1023 69 10000 6.08 55 15:52 06.12.2021
4415 Clouds 21 1023 69 10000 6.02 57 14:46 06.12.2021
4416 Clouds 21 1025 69 10000 6.16 59 13:35 06.12.2021
4417 Clouds 21 1025 69 10000 6.27 57 12:38 06.12.2021
4418 Clouds 19 1025 71 10000 7.25 55 10:29 06.12.2021
4419 Clouds 19 1025 74 10000 6.93 49 07:41 06.12.2021
4420 Clouds 19 1024 75 10000 7.36 45 03:52 06.12.2021
4421 Clouds 19 1026 73 10000 7.44 46 22:28 05.12.2021
4422 Clouds 19 1026 74 10000 7.27 45 21:26 05.12.2021
4423 Clouds 19 1026 74 10000 7.27 45 20:58 05.12.2021
4424 Clouds 20 1025 71 10000 7.28 46 20:18 05.12.2021
4425 Clouds 20 1025 69 10000 7.01 47 19:26 05.12.2021
4426 Clouds 20 1025 67 10000 7.4 45 18:36 05.12.2021
4427 Clouds 21 1024 69 10000 7.19 46 17:53 05.12.2021
4428 Clouds 21 1024 69 10000 7.19 46 17:34 05.12.2021
4429 Clouds 21 1024 69 10000 7.28 48 16:38 05.12.2021
4430 Clouds 21 1025 67 10000 6.9 51 16:19 05.12.2021
4431 Clouds 21 1025 69 10000 6.69 52 14:48 05.12.2021
4432 Clouds 21 1025 69 10000 6.69 52 14:30 05.12.2021
4433 Clouds 21 1026 69 10000 6.69 54 13:36 05.12.2021
4434 Clouds 21 1027 69 10000 6.73 56 12:47 05.12.2021
4435 Clouds 21 1027 70 10000 6.82 59 12:27 05.12.2021
4436 Clouds 20 1027 70 10000 6.82 59 11:46 05.12.2021
4437 Clouds 19 1027 70 10000 6.78 60 10:44 05.12.2021
4438 Clouds 18 1026 71 10000 6.61 61 09:51 05.12.2021
4439 Clear 18 1025 74 10000 6.84 57 06:31 05.12.2021
4440 Clear 18 1025 64 10000 6.73 61 01:38 05.12.2021
4441 Clear 18 1026 56 10000 7.02 71 23:25 04.12.2021
4442 Clear 19 1026 56 10000 6.9 65 21:52 04.12.2021
4443 Clear 20 1025 56 10000 6.85 65 20:47 04.12.2021
4444 Clear 20 1024 58 10000 6.73 64 19:54 04.12.2021
4445 Clear 20 1023 56 10000 6.56 64 19:30 04.12.2021
4446 Clear 21 1023 49 10000 6.23 72 17:58 04.12.2021
4447 Clear 22 1023 49 10000 6.23 72 17:36 04.12.2021
4448 Clear 22 1023 48 10000 6.42 77 16:47 04.12.2021
4449 Clear 22 1023 48 10000 6.42 77 16:47 04.12.2021
4450 Clear 22 1023 47 10000 6.72 81 16:28 04.12.2021
4451 Clear 22 1024 47 10000 7.51 83 13:39 04.12.2021
4452 Clear 21 1025 52 10000 7.83 84 11:44 04.12.2021
4453 Clear 21 1025 55 10000 7.74 85 11:20 04.12.2021
4454 Clear 19 1025 60 10000 7.37 85 10:24 04.12.2021
4455 Clear 18 1024 65 10000 6.95 83 08:42 04.12.2021
4456 Clouds 18 1022 69 10000 7.33 79 05:47 04.12.2021
4457 Clouds 17 1022 70 10000 7.28 76 04:41 04.12.2021
4458 Clouds 19 1023 71 10000 7.15 58 23:49 03.12.2021
4459 Clouds 19 1023 68 10000 7.62 51 22:56 03.12.2021
4460 Clouds 19 1023 65 10000 8.68 48 22:00 03.12.2021
4461 Clouds 19 1023 64 10000 8.38 47 21:25 03.12.2021
4462 Clouds 20 1023 64 10000 8.38 47 20:44 03.12.2021
4463 Clouds 20 1022 65 10000 8.32 48 19:36 03.12.2021
4464 Clouds 20 1021 65 10000 8.19 47 18:26 03.12.2021
4465 Clouds 20 1021 65 10000 8.19 47 17:44 03.12.2021
4466 Clouds 21 1023 63 10000 8.18 39 14:23 03.12.2021
4467 Clouds 21 1023 64 10000 8.05 37 12:52 03.12.2021
4468 Clouds 20 1023 67 10000 7.79 37 11:24 03.12.2021
4469 Clouds 18 1023 65 10000 8.59 36 09:57 03.12.2021
4470 Clouds 18 1022 73 10000 8.22 35 08:24 03.12.2021
4471 Clouds 19 1022 73 10000 8.22 35 07:38 03.12.2021
4472 Clouds 19 1023 69 10000 8.79 20 02:24 03.12.2021
4473 Clouds 19 1023 69 10000 8.86 22 00:47 03.12.2021
4474 Clouds 19 1024 67 10000 8.25 21 23:46 02.12.2021
4475 Clouds 19 1024 66 10000 7.72 20 21:42 02.12.2021
4476 Clouds 19 1024 65 10000 8.39 22 20:57 02.12.2021
4477 Clouds 19 1024 65 10000 8.39 22 20:38 02.12.2021
4478 Clouds 20 1023 75 10000 9.44 21 19:25 02.12.2021
4479 Clouds 21 1022 73 10000 7.94 13 17:43 02.12.2021
4480 Clouds 22 1023 66 10000 7.55 20 15:42 02.12.2021
4481 Clouds 21 1024 63 10000 7.24 22 14:59 02.12.2021
4482 Clouds 22 1024 63 10000 7.24 22 14:33 02.12.2021
4483 Clouds 22 1026 64 10000 7.22 31 12:52 02.12.2021
4484 Clouds 21 1026 64 10000 7.49 32 12:18 02.12.2021
4485 Clouds 18 1025 65 10000 7.54 32 09:41 02.12.2021
4486 Clouds 19 1024 66 10000 7.31 31 08:52 02.12.2021
4487 Clouds 19 1023 66 10000 6.88 41 04:54 02.12.2021
4488 Clear 19 1025 71 10000 6.72 40 00:53 02.12.2021
4489 Clear 20 1025 70 10000 6.16 38 23:19 01.12.2021
4490 Clear 20 1025 70 10000 5.97 37 22:23 01.12.2021
4491 Clear 20 1025 69 10000 5.69 33 20:39 01.12.2021
4492 Clear 20 1024 69 10000 5.26 33 19:54 01.12.2021
4493 Clear 20 1023 68 10000 5.03 31 19:28 01.12.2021
4494 Clear 21 1023 65 10000 4.49 28 17:45 01.12.2021
4495 Clear 21 1022 63 10000 4.21 34 16:46 01.12.2021
4496 Clear 21 1023 61 10000 3.64 56 14:52 01.12.2021
4497 Clear 21 1024 62 10000 3.46 68 13:45 01.12.2021
4498 Clear 21 1024 64 10000 3.41 77 12:50 01.12.2021
4499 Clouds 19 1025 69 10000 3.48 71 10:42 01.12.2021
4500 Clouds 16 1024 71 10000 3.51 65 09:20 01.12.2021
4501 Clouds 16 1024 71 10000 3.51 65 08:30 01.12.2021
4502 Clouds 16 1023 72 10000 3.46 67 07:34 01.12.2021
4503 Clouds 16 1023 73 10000 3.2 70 06:59 01.12.2021
4504 Clouds 18 1023 83 10000 0.89 270 03:46 01.12.2021
4505 Clear 18 1024 78 10000 0.89 270 00:59 01.12.2021
4506 Clear 18 1024 77 10000 0.89 270 23:54 30.11.2021
4507 Clear 18 1024 78 10000 0.89 270 23:25 30.11.2021
4508 Clear 18 1024 77 10000 0.89 270 21:39 30.11.2021
4509 Clear 19 1023 76 10000 0.89 270 20:44 30.11.2021
4510 Clear 19 1023 76 10000 0.89 252 20:19 30.11.2021
4511 Clear 19 1023 75 10000 0.89 270 19:38 30.11.2021
4512 Clouds 20 1022 72 10000 0.89 254 18:37 30.11.2021
4513 Clouds 21 1022 68 10000 0.89 302 16:50 30.11.2021
4514 Clouds 21 1023 68 10000 0.89 270 15:38 30.11.2021
4515 Clouds 21 1024 66 10000 0.89 208 14:20 30.11.2021
4516 Clouds 21 1025 67 10000 0.89 270 13:26 30.11.2021
4517 Clouds 21 1026 69 10000 0.89 228 12:46 30.11.2021
4518 Clouds 20 1026 71 10000 0.89 234 11:50 30.11.2021
4519 Clouds 20 1026 72 10000 0.89 225 11:23 30.11.2021
4520 Clouds 19 1025 71 10000 0.89 286 10:33 30.11.2021
4521 Clouds 17 1024 76 10000 0.89 270 08:53 30.11.2021
4522 Clouds 17 1024 76 10000 0.89 286 08:26 30.11.2021
4523 Clouds 17 1024 76 10000 1.34 294 07:47 30.11.2021
4524 Clouds 19 1025 70 10000 0.89 270 02:41 30.11.2021
4525 Clouds 19 1025 70 10000 0.89 253 01:42 30.11.2021
4526 Clouds 19 1025 69 10000 1.34 243 00:24 30.11.2021
4527 Clouds 19 1025 69 10000 1.34 295 23:24 29.11.2021
4528 Clouds 19 1025 67 10000 0.89 235 22:56 29.11.2021
4529 Clouds 19 1025 67 10000 0.89 235 22:33 29.11.2021
4530 Clouds 19 1025 68 10000 0.89 236 21:30 29.11.2021
4531 Clouds 19 1025 65 10000 0.89 251 20:59 29.11.2021
4532 Clouds 19 1024 62 10000 0.89 242 20:32 29.11.2021
4533 Clouds 19 1024 66 10000 0.89 248 19:56 29.11.2021
4534 Clouds 19 1024 66 10000 0.89 248 19:36 29.11.2021
4535 Clouds 20 1023 71 10000 1.34 232 18:51 29.11.2021
4536 Clouds 19 1024 66 10000 8.64 39 17:55 29.11.2021
4537 Clouds 19 1024 67 10000 8.37 36 17:18 29.11.2021
4538 Clouds 19 1024 65 10000 8.21 36 16:29 29.11.2021
4539 Clouds 19 1024 65 10000 8.21 36 15:52 29.11.2021
4540 Clouds 19 1025 64 10000 7.95 36 14:43 29.11.2021
4541 Clouds 19 1026 67 10000 7.75 35 13:34 29.11.2021
4542 Clouds 19 1027 68 10000 7.77 34 12:37 29.11.2021
4543 Clouds 19 1027 67 10000 7.67 35 11:40 29.11.2021
4544 Clouds 18 1027 67 10000 8 36 10:58 29.11.2021
4545 Clouds 19 1027 68 10000 8.03 35 09:36 29.11.2021
4546 Clouds 18 1025 66 10000 8.02 35 06:21 29.11.2021
4547 Clouds 18 1026 69 10000 8.59 41 02:28 29.11.2021
4548 Clouds 18 1027 69 10000 8.52 35 00:42 29.11.2021
4549 Clouds 19 1027 66 10000 8.64 29 23:44 28.11.2021
4550 Clouds 19 1027 70 10000 8.46 31 23:24 28.11.2021
4551 Clouds 19 1026 66 10000 8.46 33 21:52 28.11.2021
4552 Clouds 19 1026 64 10000 8.63 30 21:23 28.11.2021
4553 Clouds 19 1026 64 10000 8.63 30 20:34 28.11.2021
4554 Clouds 20 1025 67 10000 8.69 30 19:25 28.11.2021
4555 Clouds 20 1025 66 10000 8.7 31 18:35 28.11.2021
4556 Clouds 20 1024 67 10000 8.93 31 17:55 28.11.2021
4557 Clouds 21 1024 67 10000 8.93 31 17:31 28.11.2021
4558 Clouds 20 1024 68 10000 8.91 31 16:40 28.11.2021
4559 Clouds 20 1024 67 10000 9.25 29 16:18 28.11.2021
4560 Clouds 20 1024 67 10000 9.25 29 15:31 28.11.2021
4561 Clouds 20 1024 64 10000 9.06 26 14:46 28.11.2021
4562 Clouds 21 1025 69 10000 9.5 25 13:22 28.11.2021
4563 Clouds 21 1025 67 10000 9.56 25 12:48 28.11.2021
4564 Clouds 20 1025 72 10000 8.61 20 11:18 28.11.2021
4565 Clouds 19 1025 71 10000 7.99 12 10:21 28.11.2021
4566 Clouds 18 1025 71 10000 7.99 12 09:37 28.11.2021
4567 Clouds 17 1024 71 10000 7.98 13 07:49 28.11.2021
4568 Clouds 18 1024 65 10000 7.69 0 23:58 27.11.2021
4569 Clouds 19 1023 65 10000 8.82 14 20:57 27.11.2021
4570 Clouds 18 1022 65 10000 9.08 11 19:23 27.11.2021
4571 Clouds 21 1021 65 10000 8.28 359 17:27 27.11.2021
4572 Clouds 21 1021 64 10000 8.12 2 15:58 27.11.2021
4573 Clouds 20 1022 62 10000 8.3 5 13:58 27.11.2021
4574 Clouds 21 1022 64 10000 8.24 7 12:57 27.11.2021
4575 Clouds 19 1021 65 10000 8.67 5 10:52 27.11.2021
4576 Clouds 17 1021 62 10000 8.32 2 09:53 27.11.2021
4577 Clouds 17 1020 65 10000 8.29 357 08:44 27.11.2021
4578 Clouds 17 1018 64 10000 7.2 359 06:34 27.11.2021
4579 Clouds 17 1018 54 10000 7.56 3 01:58 27.11.2021
4580 Clouds 16 1018 66 10000 7.98 11 23:38 26.11.2021
4581 Clouds 17 1018 78 10000 7.98 10 22:25 26.11.2021
4582 Clouds 16 1018 78 10000 7.98 10 21:38 26.11.2021
4583 Clouds 16 1017 80 10000 6.3 5 21:18 26.11.2021
4584 Clouds 17 1017 82 10000 5.14 7 20:29 26.11.2021
4585 Clouds 17 1017 82 10000 5.14 7 19:49 26.11.2021
4586 Clouds 17 1016 85 10000 5.4 14 18:41 26.11.2021
4587 Clouds 17 1014 87 5055 6.81 19 17:23 26.11.2021
4588 Clouds 17 1014 87 9349 5.88 23 16:29 26.11.2021
4589 Clouds 17 1015 90 2328 0.89 315 13:37 26.11.2021
4590 Clouds 18 1015 90 4913 0.89 315 12:55 26.11.2021
4591 Clouds 19 1013 83 10000 0.89 296 10:42 26.11.2021
4592 Clouds 18 1012 85 10000 1.34 282 09:29 26.11.2021
4593 Clouds 18 1012 85 10000 0.89 253 08:47 26.11.2021
4594 Clouds 18 1012 85 10000 0.89 270 08:19 26.11.2021
4595 Clouds 18 1011 83 10000 0.89 247 06:29 26.11.2021
4596 Clear 19 1013 80 10000 0.89 246 04:52 26.11.2021
4597 Clear 19 1012 80 10000 0.89 283 03:28 26.11.2021
4598 Clouds 19 1014 80 10000 0.89 259 23:29 25.11.2021
4599 Clouds 20 1014 76 10000 0.89 250 21:58 25.11.2021
4600 Clouds 20 1014 75 10000 0.89 247 20:41 25.11.2021
4601 Clouds 20 1014 69 10000 0.89 241 18:50 25.11.2021
4602 Clouds 20 1014 69 10000 0.89 225 18:19 25.11.2021
4603 Clouds 20 1014 68 10000 0.89 270 17:27 25.11.2021
4604 Clouds 21 1014 67 10000 0.89 234 16:41 25.11.2021
4605 Clouds 21 1014 67 10000 0.89 234 16:41 25.11.2021
4606 Clouds 21 1015 67 10000 0.89 233 15:58 25.11.2021
4607 Clouds 20 1016 71 10000 0.89 241 14:24 25.11.2021
4608 Clouds 20 1018 71 10000 0.89 244 12:55 25.11.2021
4609 Clouds 20 1018 74 10000 0.89 227 11:55 25.11.2021
4610 Clouds 20 1018 79 10000 0.89 225 10:34 25.11.2021
4611 Clouds 20 1017 83 10000 0.89 231 06:36 25.11.2021
4612 Clouds 20 1018 91 10000 0.89 237 02:56 25.11.2021
4613 Clouds 20 1019 79 10000 0.89 270 23:40 24.11.2021
4614 Clouds 20 1019 79 10000 0.89 270 22:29 24.11.2021
4615 Clouds 20 1019 79 10000 0.89 270 21:48 24.11.2021
4616 Clouds 20 1019 79 10000 0.89 254 21:21 24.11.2021
4617 Clouds 20 1019 79 10000 0.89 257 20:26 24.11.2021
4618 Clouds 21 1018 78 10000 0.89 250 19:20 24.11.2021
4619 Clouds 21 1018 80 10000 0.89 270 18:18 24.11.2021
4620 Clouds 22 1017 80 10000 0.89 254 16:21 24.11.2021
4621 Clouds 23 1018 78 10000 0.89 180 14:57 24.11.2021
4622 Clouds 23 1019 79 10000 0.89 228 14:21 24.11.2021
4623 Clouds 23 1019 78 10000 0.89 225 13:34 24.11.2021
4624 Clouds 20 1018 90 10000 0.89 259 11:26 24.11.2021
4625 Clouds 21 1021 80 10000 2.37 67 10:55 24.11.2021
4626 Clouds 21 1021 80 10000 2.37 67 10:35 24.11.2021
4627 Clouds 18 1020 82 10000 2 69 09:29 24.11.2021
4628 Clouds 19 1019 82 10000 2.03 53 07:39 24.11.2021
4629 Clouds 18 1018 90 10000 0.89 259 05:23 24.11.2021
4630 Clouds 19 1018 89 10000 0.89 258 03:32 24.11.2021
4631 Clouds 21 1019 87 10000 0.89 261 23:33 23.11.2021
4632 Clouds 21 1019 85 10000 0.89 251 22:38 23.11.2021
4633 Clouds 21 1019 86 10000 0.89 253 21:45 23.11.2021
4634 Clouds 21 1017 89 10000 0.89 259 20:22 23.11.2021
4635 Clouds 21 1017 89 10000 0.89 248 19:29 23.11.2021
4636 Clouds 22 1017 88 10000 0.89 255 18:33 23.11.2021
4637 Clouds 22 1017 88 10000 0.89 270 17:30 23.11.2021
4638 Clouds 22 1016 87 10000 0.89 244 16:35 23.11.2021
4639 Clouds 23 1017 86 10000 0.89 233 15:26 23.11.2021
4640 Clouds 22 1017 87 10000 0.89 248 14:45 23.11.2021
4641 Clouds 22 1017 84 10000 0.89 257 13:19 23.11.2021
4642 Clouds 22 1017 79 10000 0.89 252 10:28 23.11.2021
4643 Clouds 19 1017 85 10000 0.89 270 09:45 23.11.2021
4644 Clouds 18 1016 80 10000 0.89 250 07:56 23.11.2021
4645 Clouds 18 1015 77 10000 0.89 282 04:53 23.11.2021
4646 Clouds 19 1015 78 10000 0.89 281 03:29 23.11.2021
4647 Clouds 21 1016 84 10000 0.89 250 23:35 22.11.2021
4648 Clouds 21 1016 84 10000 0.89 260 22:57 22.11.2021
4649 Clouds 21 1016 84 10000 0.89 260 22:30 22.11.2021
4650 Clouds 21 1016 84 10000 0.89 260 22:30 22.11.2021
4651 Clouds 21 1016 84 10000 0.89 260 22:30 22.11.2021
4652 Clouds 21 1015 87 10000 0.89 284 21:44 22.11.2021
4653 Clouds 21 1015 87 10000 0.89 297 21:18 22.11.2021
4654 Clouds 22 1015 87 10000 0.89 288 20:23 22.11.2021
4655 Clouds 22 1014 81 10000 0.89 255 19:20 22.11.2021
4656 Clouds 22 1014 77 10000 0.89 250 18:40 22.11.2021
4657 Clouds 23 1014 74 10000 0.89 233 17:46 22.11.2021
4658 Clouds 23 1014 72 10000 0.89 270 16:30 22.11.2021
4659 Clouds 24 1014 72 10000 0.89 303 14:41 22.11.2021
4660 Clouds 23 1015 73 10000 1.34 243 12:48 22.11.2021
4661 Clouds 22 1016 78 10000 0.89 270 11:27 22.11.2021
4662 Clouds 20 1015 78 10000 0.89 270 10:19 22.11.2021
4663 Clouds 19 1014 75 10000 0.89 270 08:42 22.11.2021
4664 Clouds 20 1014 71 10000 0.89 278 07:24 22.11.2021
4665 Clouds 19 1015 84 10000 0.89 249 00:21 22.11.2021
4666 Clouds 20 1014 87 10000 1.34 275 22:54 21.11.2021
4667 Clouds 20 1014 87 10000 1.34 275 22:26 21.11.2021
4668 Clouds 20 1014 86 10000 0.89 270 20:44 21.11.2021
4669 Clouds 21 1014 86 10000 0.89 270 20:26 21.11.2021
4670 Clouds 21 1013 80 10000 0.89 235 18:49 21.11.2021
4671 Clouds 21 1013 81 10000 0.89 230 17:41 21.11.2021
4672 Clouds 21 1013 81 10000 0.89 250 17:19 21.11.2021
4673 Clouds 22 1013 73 10000 0.89 223 14:48 21.11.2021
4674 Clouds 22 1014 65 10000 0.89 225 13:57 21.11.2021
4675 Clear 22 1015 63 10000 0.89 221 12:55 21.11.2021
4676 Clear 21 1015 69 10000 0.89 270 12:19 21.11.2021
4677 Clear 21 1016 77 10000 0.89 251 11:36 21.11.2021
4678 Clear 19 1015 85 10000 0.89 288 10:19 21.11.2021
4679 Clear 18 1015 85 10000 0.89 301 09:44 21.11.2021
4680 Clear 17 1015 86 10000 0.89 270 08:31 21.11.2021
4681 Clear 17 1015 85 10000 0.89 270 07:51 21.11.2021
4682 Clear 17 1014 79 10000 0.89 254 06:26 21.11.2021
4683 Clear 17 1015 73 10000 0.89 232 05:39 21.11.2021
4684 Clear 16 1015 75 10000 0.89 289 03:21 21.11.2021
4685 Clear 16 1016 73 10000 0.89 288 02:54 21.11.2021
4686 Clear 16 1016 76 10000 0.89 249 01:25 21.11.2021
4687 Clear 17 1017 80 10000 1.34 291 00:41 21.11.2021
4688 Clear 18 1017 81 10000 0.89 270 21:55 20.11.2021
4689 Clear 18 1017 80 10000 1.34 285 21:30 20.11.2021
4690 Clouds 20 1016 76 10000 0.89 242 19:56 20.11.2021
4691 Clouds 21 1016 75 10000 0.89 225 18:45 20.11.2021
4692 Clouds 21 1016 76 10000 0.89 227 18:23 20.11.2021
4693 Clouds 21 1016 76 10000 0.89 212 17:22 20.11.2021
4694 Clear 21 1017 78 10000 0.89 208 14:55 20.11.2021
4695 Clear 22 1017 77 10000 1.34 215 14:28 20.11.2021
4696 Clear 22 1018 74 10000 1.34 210 13:46 20.11.2021
4697 Clouds 21 1019 69 10000 0.89 259 11:26 20.11.2021
4698 Clouds 17 1018 75 10000 0.89 254 09:56 20.11.2021
4699 Clouds 16 1018 77 10000 0.89 270 08:35 20.11.2021
4700 Clouds 16 1017 79 10000 1.34 295 06:32 20.11.2021
4701 Clouds 16 1017 79 10000 1.34 292 05:18 20.11.2021
4702 Clouds 16 1017 79 10000 1.34 292 05:18 20.11.2021
4703 Clouds 16 1017 79 10000 1.34 293 04:49 20.11.2021
4704 Clouds 17 1018 79 10000 1.34 287 00:43 20.11.2021
4705 Clouds 18 1018 78 10000 1.34 276 23:45 19.11.2021
4706 Clouds 18 1017 77 10000 1.34 279 22:53 19.11.2021
4707 Clouds 19 1017 76 10000 0.89 270 21:28 19.11.2021
4708 Clouds 19 1016 75 10000 0.89 258 20:41 19.11.2021
4709 Clouds 19 1016 74 10000 0.89 270 20:23 19.11.2021
4710 Clouds 20 1016 73 10000 0.89 250 19:44 19.11.2021
4711 Clouds 20 1015 71 10000 0.89 238 18:46 19.11.2021
4712 Clouds 21 1015 69 10000 0.89 326 17:44 19.11.2021
4713 Clouds 21 1015 65 10000 0.89 281 16:43 19.11.2021
4714 Clouds 21 1015 65 10000 0.89 281 16:43 19.11.2021
4715 Clouds 21 1015 65 10000 0.89 251 15:21 19.11.2021
4716 Clear 21 1016 61 10000 1.34 307 11:43 19.11.2021
4717 Clear 20 1015 71 10000 1.34 315 10:24 19.11.2021
4718 Clear 17 1014 78 10000 1.34 270 08:37 19.11.2021
4719 Clouds 17 1013 76 10000 1.34 280 06:29 19.11.2021
4720 Clouds 17 1013 74 10000 0.89 288 04:19 19.11.2021
4721 Clouds 18 1014 75 10000 0.89 280 23:54 18.11.2021
4722 Clouds 18 1014 75 10000 0.89 283 23:18 18.11.2021
4723 Clouds 18 1013 72 10000 0.89 270 21:21 18.11.2021
4724 Clouds 19 1013 71 10000 0.89 270 20:46 18.11.2021
4725 Clouds 19 1013 70 10000 0.89 270 20:23 18.11.2021
4726 Clouds 20 1012 72 10000 0.89 255 19:42 18.11.2021
4727 Clouds 21 1012 69 10000 1.34 232 18:38 18.11.2021
4728 Clouds 21 1012 64 10000 0.89 237 17:52 18.11.2021
4729 Clouds 21 1012 64 10000 0.89 237 17:31 18.11.2021
4730 Clouds 21 1012 65 10000 0.89 241 16:42 18.11.2021
4731 Clouds 22 1012 65 10000 0.89 236 15:23 18.11.2021
4732 Clouds 22 1013 67 10000 0.89 270 12:56 18.11.2021
4733 Clouds 21 1014 67 10000 1.34 225 11:45 18.11.2021
4734 Clouds 21 1014 68 10000 1.34 222 11:26 18.11.2021
4735 Clouds 20 1013 72 10000 0.89 270 10:44 18.11.2021
4736 Clouds 18 1013 74 10000 0.89 283 08:49 18.11.2021
4737 Clouds 18 1012 74 10000 0.89 270 07:19 18.11.2021
4738 Clouds 19 1012 70 10000 0.89 270 05:46 18.11.2021
4739 Clouds 20 1014 71 10000 0.89 280 01:27 18.11.2021
4740 Clouds 20 1014 71 10000 0.89 280 01:27 18.11.2021
4741 Clouds 20 1014 71 10000 0.89 270 23:46 17.11.2021
4742 Clouds 20 1014 74 10000 1.34 275 22:40 17.11.2021
4743 Clouds 20 1014 70 10000 0.89 270 22:20 17.11.2021
4744 Clouds 20 1014 68 10000 1.34 280 21:36 17.11.2021
4745 Clouds 20 1013 67 10000 0.89 270 20:18 17.11.2021
4746 Clouds 22 1013 63 10000 0.89 262 17:36 17.11.2021
4747 Clouds 22 1013 64 10000 0.89 328 16:45 17.11.2021
4748 Clouds 23 1015 62 10000 0.89 225 13:49 17.11.2021
4749 Clouds 22 1016 67 10000 0.89 281 12:38 17.11.2021
4750 Clouds 22 1016 66 10000 0.89 278 11:28 17.11.2021
4751 Clouds 19 1015 72 10000 1.34 281 09:44 17.11.2021
4752 Clouds 18 1015 72 10000 1.34 282 09:23 17.11.2021
4753 Clouds 19 1014 68 10000 1.34 281 07:41 17.11.2021
4754 Clouds 19 1015 77 10000 0.89 283 02:56 17.11.2021
4755 Clouds 20 1016 75 10000 0.89 281 00:42 17.11.2021
4756 Clouds 21 1016 73 10000 0.89 270 22:37 16.11.2021
4757 Clouds 21 1015 73 10000 0.89 257 20:19 16.11.2021
4758 Clouds 21 1015 72 10000 1.34 243 19:57 16.11.2021
4759 Clouds 21 1015 71 10000 1.34 228 18:52 16.11.2021
4760 Clouds 21 1015 73 10000 0.89 252 18:29 16.11.2021
4761 Clouds 22 1015 74 10000 0.89 227 17:31 16.11.2021
4762 Clouds 23 1015 70 10000 0.89 254 16:31 16.11.2021
4763 Clouds 23 1015 71 10000 0.89 228 15:48 16.11.2021
4764 Clouds 23 1016 75 10000 0.89 236 13:49 16.11.2021
4765 Clouds 21 1017 78 10000 0.89 270 10:52 16.11.2021
4766 Clouds 19 1017 79 10000 0.89 282 09:44 16.11.2021
4767 Clouds 18 1016 81 10000 0.89 284 08:24 16.11.2021
4768 Clouds 18 1016 80 10000 0.89 270 07:31 16.11.2021
4769 Clouds 19 1018 75 10000 0.89 270 01:20 16.11.2021
4770 Clouds 19 1018 80 10000 1.34 280 22:48 15.11.2021
4771 Clouds 19 1018 80 10000 1.34 283 22:21 15.11.2021
4772 Clouds 19 1018 79 10000 1.34 284 21:51 15.11.2021
4773 Clouds 19 1018 79 10000 1.34 279 21:25 15.11.2021
4774 Clouds 21 1018 75 10000 0.89 250 19:41 15.11.2021
4775 Clouds 21 1017 73 10000 0.89 240 18:18 15.11.2021
4776 Clouds 22 1017 69 10000 0.89 222 16:19 15.11.2021
4777 Clouds 23 1018 66 10000 0.89 227 15:40 15.11.2021
4778 Clouds 23 1018 65 10000 0.89 220 15:20 15.11.2021
4779 Clouds 22 1020 69 10000 0.89 213 12:47 15.11.2021
4780 Clouds 21 1020 69 10000 0.89 342 10:57 15.11.2021
4781 Clouds 18 1019 72 10000 0.89 270 09:27 15.11.2021
4782 Clouds 17 1018 77 10000 0.89 270 07:45 15.11.2021
4783 Clouds 18 1018 76 10000 0.89 256 04:46 15.11.2021
4784 Clouds 19 1019 77 10000 0.89 270 23:37 14.11.2021
4785 Clouds 20 1019 76 10000 0.89 270 22:34 14.11.2021
4786 Clouds 21 1017 75 10000 0.89 239 19:53 14.11.2021
4787 Clouds 21 1017 75 10000 0.89 254 19:18 14.11.2021
4788 Clouds 21 1017 75 10000 0.89 234 18:54 14.11.2021
4789 Clouds 21 1017 75 10000 0.89 234 18:36 14.11.2021
4790 Clouds 21 1017 75 10000 1.34 233 18:18 14.11.2021
4791 Clouds 21 1016 73 10000 0.89 221 17:55 14.11.2021
4792 Clouds 22 1016 73 10000 0.89 221 17:37 14.11.2021
4793 Clouds 22 1016 73 10000 0.89 278 17:19 14.11.2021
4794 Clouds 22 1016 73 10000 0.89 209 16:45 14.11.2021
4795 Clouds 22 1016 73 10000 0.89 249 16:19 14.11.2021
4796 Clouds 23 1016 71 10000 0.89 225 15:22 14.11.2021
4797 Clouds 23 1016 71 10000 0.89 228 14:45 14.11.2021
4798 Clouds 23 1016 71 10000 1.34 228 14:26 14.11.2021
4799 Clouds 22 1017 73 10000 0.89 321 13:53 14.11.2021
4800 Clouds 22 1017 73 10000 0.89 321 13:35 14.11.2021
4801 Clouds 22 1018 73 10000 0.89 231 12:27 14.11.2021
4802 Clouds 22 1018 72 10000 0.89 302 11:40 14.11.2021
4803 Clouds 21 1017 73 10000 2.24 324 10:41 14.11.2021
4804 Clouds 19 1017 73 10000 1.34 299 09:42 14.11.2021
4805 Clouds 18 1016 73 10000 0.89 270 08:52 14.11.2021
4806 Clear 18 1015 73 10000 1.34 285 06:54 14.11.2021
4807 Clouds 19 1016 84 10000 0.89 270 23:28 13.11.2021
4808 Clouds 19 1016 83 10000 0.89 270 22:22 13.11.2021
4809 Clouds 20 1016 81 10000 1.34 276 21:50 13.11.2021
4810 Clouds 20 1016 80 10000 1.34 278 21:18 13.11.2021
4811 Clouds 21 1015 71 10000 1.34 289 19:37 13.11.2021
4812 Clouds 22 1015 65 10000 2.68 333 18:33 13.11.2021
4813 Clouds 23 1014 63 10000 2.68 322 17:50 13.11.2021
4814 Clouds 23 1014 62 10000 2.68 317 16:35 13.11.2021
4815 Clear 23 1015 65 10000 0.89 278 14:57 13.11.2021
4816 Clear 23 1015 66 10000 0.89 270 14:19 13.11.2021
4817 Clouds 22 1016 68 10000 0.89 270 12:52 13.11.2021
4818 Clouds 22 1016 67 10000 1.34 307 12:20 13.11.2021
4819 Clouds 21 1016 72 10000 1.34 326 11:28 13.11.2021
4820 Clouds 21 1016 72 10000 1.34 313 10:44 13.11.2021
4821 Clouds 19 1016 76 10000 0.89 299 09:53 13.11.2021
4822 Clouds 19 1015 77 10000 1.34 284 09:33 13.11.2021
4823 Clouds 18 1015 81 10000 1.34 286 08:56 13.11.2021
4824 Clouds 18 1015 81 10000 1.34 285 08:20 13.11.2021
4825 Clouds 20 1015 74 10000 1.34 298 04:43 13.11.2021
4826 Clouds 20 1015 72 10000 1.34 270 04:23 13.11.2021
4827 Clouds 20 1016 67 10000 4.86 31 00:28 13.11.2021
4828 Clouds 21 1017 69 10000 5.12 35 22:43 12.11.2021
4829 Clouds 21 1016 71 10000 5.9 31 21:29 12.11.2021
4830 Clouds 21 1016 71 10000 5.98 29 19:43 12.11.2021
4831 Clouds 21 1016 72 10000 5.92 28 19:23 12.11.2021
4832 Clouds 22 1015 72 10000 5.7 29 18:20 12.11.2021
4833 Clouds 23 1015 70 10000 4.65 34 16:20 12.11.2021
4834 Clouds 23 1016 65 10000 3.64 34 14:53 12.11.2021
4835 Clouds 22 1018 70 10000 4.49 38 11:32 12.11.2021
4836 Clouds 21 1018 73 10000 4.71 39 10:50 12.11.2021
4837 Clouds 20 1018 77 10000 5 40 09:29 12.11.2021
4838 Clouds 20 1018 77 10000 5 40 08:38 12.11.2021
4839 Clouds 20 1017 76 10000 0.89 299 02:22 12.11.2021
4840 Clouds 20 1018 75 10000 0.89 270 23:33 11.11.2021
4841 Clouds 20 1018 76 10000 1.34 277 22:30 11.11.2021
4842 Clouds 20 1018 78 10000 1.34 270 21:27 11.11.2021
4843 Clouds 20 1018 77 10000 1.34 300 20:38 11.11.2021
4844 Clouds 22 1017 73 10000 0.89 18 18:55 11.11.2021
4845 Clouds 22 1017 67 10000 0.89 4 17:43 11.11.2021
4846 Clouds 22 1017 70 10000 0.89 0 16:40 11.11.2021
4847 Clouds 22 1017 71 10000 0.89 28 14:45 11.11.2021
4848 Clouds 22 1018 70 10000 0.89 61 14:26 11.11.2021
4849 Clouds 22 1018 71 10000 0.89 54 13:37 11.11.2021
4850 Clouds 22 1019 74 10000 0.89 26 12:48 11.11.2021
4851 Clouds 21 1018 74 10000 0.89 352 10:35 11.11.2021
4852 Clouds 20 1018 78 10000 0.89 270 09:33 11.11.2021
4853 Clouds 20 1017 78 10000 1.34 285 07:38 11.11.2021
4854 Clouds 20 1017 76 10000 0.89 258 02:36 11.11.2021
4855 Clouds 20 1017 74 10000 0.89 286 22:59 10.11.2021
4856 Clouds 20 1017 75 10000 0.89 260 22:22 10.11.2021
4857 Clouds 20 1017 74 10000 0.89 285 21:18 10.11.2021
4858 Clouds 20 1017 74 10000 0.89 293 20:36 10.11.2021
4859 Clouds 21 1017 72 10000 0.89 249 19:46 10.11.2021
4860 Clouds 21 1016 68 10000 0.89 233 17:50 10.11.2021
4861 Clouds 22 1016 66 10000 0.89 10 16:33 10.11.2021
4862 Clouds 21 1017 68 10000 0.89 24 14:44 10.11.2021
4863 Clouds 22 1018 69 10000 0.89 344 13:40 10.11.2021
4864 Clouds 22 1018 71 10000 0.89 15 12:44 10.11.2021
4865 Clouds 21 1018 74 10000 0.89 356 10:39 10.11.2021
4866 Clouds 19 1017 70 10000 1.34 309 08:45 10.11.2021
4867 Clouds 19 1016 72 10000 0.89 312 07:25 10.11.2021
4868 Clouds 19 1016 73 10000 1.34 310 06:25 10.11.2021
4869 Clouds 19 1016 74 10000 1.34 326 05:44 10.11.2021
4870 Clouds 20 1018 72 10000 0.89 294 23:52 09.11.2021
4871 Clouds 20 1017 74 10000 1.34 293 21:47 09.11.2021
4872 Clouds 20 1016 71 10000 0.89 290 20:31 09.11.2021
4873 Clouds 21 1016 68 10000 0.89 315 19:21 09.11.2021
4874 Clouds 22 1016 68 10000 0.89 30 17:31 09.11.2021
4875 Clear 22 1016 64 10000 0.89 336 15:45 09.11.2021
4876 Clear 22 1017 59 10000 0.89 5 14:24 09.11.2021
4877 Clear 21 1018 61 10000 1.34 348 12:53 09.11.2021
4878 Clear 21 1018 61 10000 0.89 30 11:38 09.11.2021
4879 Clear 21 1018 61 10000 0.89 30 11:38 09.11.2021
4880 Clear 21 1018 65 10000 0.89 358 10:44 09.11.2021
4881 Clear 20 1018 67 10000 1.34 326 09:24 09.11.2021
4882 Clear 19 1017 68 10000 1.34 306 08:25 09.11.2021
4883 Clouds 19 1017 68 10000 1.34 305 05:47 09.11.2021
4884 Clear 19 1018 67 10000 0.89 315 02:22 09.11.2021
4885 Clear 19 1018 65 10000 0.89 270 01:43 09.11.2021
4886 Clear 20 1019 64 10000 0.89 235 23:36 08.11.2021
4887 Clear 20 1019 66 10000 1.34 244 22:49 08.11.2021
4888 Clear 20 1019 67 10000 0.89 312 21:55 08.11.2021
4889 Clear 20 1019 65 10000 0.89 315 20:53 08.11.2021
4890 Clear 20 1018 64 10000 0.89 270 19:49 08.11.2021
4891 Clear 21 1018 64 10000 1.34 294 18:25 08.11.2021
4892 Clear 22 1017 63 10000 0.89 10 16:21 08.11.2021
4893 Clear 22 1018 60 10000 0.89 56 14:58 08.11.2021
4894 Clear 23 1018 60 10000 0.89 56 14:37 08.11.2021
4895 Clear 22 1019 61 10000 0.89 45 13:31 08.11.2021
4896 Clear 21 1020 68 10000 0.89 7 11:56 08.11.2021
4897 Clear 21 1020 62 10000 0.89 48 10:50 08.11.2021
4898 Clear 20 1019 69 10000 0.89 326 09:39 08.11.2021
4899 Clear 19 1019 73 10000 0.89 298 08:53 08.11.2021
4900 Clear 19 1018 70 10000 1.34 244 07:28 08.11.2021
4901 Clear 20 1019 71 10000 0.89 284 03:48 08.11.2021
4902 Clear 20 1019 70 10000 1.34 294 03:26 08.11.2021
4903 Clear 20 1019 67 10000 0.89 296 23:45 07.11.2021
4904 Clear 20 1019 65 10000 1.34 323 21:46 07.11.2021
4905 Clear 20 1018 65 10000 1.34 346 20:52 07.11.2021
4906 Clouds 21 1018 66 10000 1.34 270 19:25 07.11.2021
4907 Clouds 21 1018 65 10000 2.24 311 18:22 07.11.2021
4908 Clouds 21 1018 62 10000 0.89 357 16:50 07.11.2021
4909 Clouds 22 1018 60 10000 1.34 0 15:47 07.11.2021
4910 Clouds 21 1019 58 10000 1.34 357 14:28 07.11.2021
4911 Clouds 21 1020 61 10000 2.24 358 13:26 07.11.2021
4912 Clouds 21 1020 64 10000 1.34 225 11:42 07.11.2021
4913 Clouds 21 1019 64 10000 2.24 317 09:49 07.11.2021
4914 Clouds 20 1018 66 10000 0.89 281 07:20 07.11.2021
4915 Clouds 20 1019 69 10000 0.89 315 02:34 07.11.2021
4916 Clouds 21 1019 65 10000 1.34 338 23:37 06.11.2021
4917 Clouds 21 1020 65 10000 1.34 255 22:47 06.11.2021
4918 Clouds 21 1019 63 10000 2.24 285 21:33 06.11.2021
4919 Clouds 21 1019 68 10000 1.34 215 20:50 06.11.2021
4920 Clouds 21 1018 67 10000 0.89 309 18:56 06.11.2021
4921 Clouds 22 1018 64 10000 1.34 358 16:46 06.11.2021
4922 Clouds 22 1018 64 10000 1.34 358 16:46 06.11.2021
4923 Clouds 22 1018 64 10000 1.34 358 16:46 06.11.2021
4924 Clouds 22 1018 64 10000 1.34 358 16:46 06.11.2021
4925 Clouds 22 1019 61 10000 1.34 356 14:38 06.11.2021
4926 Clouds 22 1020 65 10000 2.24 355 13:38 06.11.2021
4927 Clouds 21 1021 59 10000 1.34 351 11:53 06.11.2021
4928 Clouds 20 1020 62 10000 2.24 306 09:25 06.11.2021
4929 Clouds 20 1019 64 10000 2.24 310 04:59 06.11.2021
4930 Clouds 20 1019 61 10000 0.89 270 01:47 06.11.2021
4931 Clouds 21 1020 75 10000 2.24 299 23:35 05.11.2021
4932 Clouds 21 1020 72 10000 0.89 270 22:34 05.11.2021
4933 Clouds 21 1019 69 10000 1.34 227 21:26 05.11.2021
4934 Clouds 21 1019 66 10000 1.34 244 20:20 05.11.2021
4935 Clouds 21 1018 68 10000 2.24 298 19:40 05.11.2021
4936 Clouds 21 1018 70 10000 1.34 270 18:39 05.11.2021
4937 Clouds 22 1018 71 10000 2.24 357 17:26 05.11.2021
4938 Clouds 23 1018 60 10000 0.89 23 15:38 05.11.2021
4939 Clouds 23 1020 56 10000 1.34 263 13:37 05.11.2021
4940 Clouds 23 1020 63 10000 1.34 315 11:22 05.11.2021
4941 Clouds 20 1019 76 10000 0.89 292 08:40 05.11.2021
4942 Clouds 20 1018 78 10000 0.89 239 07:26 05.11.2021
4943 Clouds 20 1018 78 10000 1.34 285 04:44 05.11.2021
4944 Clouds 20 1018 84 10000 1.34 290 02:25 05.11.2021
4945 Clouds 20 1019 82 10000 0.89 270 00:40 05.11.2021
4946 Clouds 21 1018 77 10000 1.34 293 23:18 04.11.2021
4947 Clouds 22 1019 77 10000 6.03 42 22:19 04.11.2021
4948 Clouds 22 1019 77 10000 6.03 42 21:32 04.11.2021
4949 Clouds 21 1018 81 10000 6.42 42 20:40 04.11.2021
4950 Clouds 21 1018 83 10000 6.44 41 20:20 04.11.2021
4951 Clouds 22 1018 83 10000 6.44 41 19:41 04.11.2021
4952 Clouds 22 1017 83 10000 6.64 37 18:44 04.11.2021
4953 Clouds 23 1017 83 10000 6.54 36 17:48 04.11.2021
4954 Clouds 24 1016 83 10000 6.34 35 16:41 04.11.2021
4955 Clouds 25 1017 81 10000 4.95 14 14:28 04.11.2021
4956 Clouds 23 1018 80 10000 5.84 347 11:44 04.11.2021
4957 Clouds 22 1018 83 10000 5.28 335 09:31 04.11.2021
4958 Clouds 22 1017 85 10000 4.81 332 08:30 04.11.2021
4959 Clouds 22 1017 84 10000 4.68 337 07:34 04.11.2021
4960 Clouds 21 1017 70 10000 1.34 284 23:59 03.11.2021
4961 Clouds 21 1017 75 10000 1.34 293 22:50 03.11.2021
4962 Clouds 21 1017 77 10000 1.34 283 21:48 03.11.2021
4963 Clouds 21 1017 75 10000 1.34 288 21:28 03.11.2021
4964 Clouds 22 1017 77 10000 1.34 291 20:35 03.11.2021
4965 Clouds 22 1016 76 10000 1.34 298 19:47 03.11.2021
4966 Clouds 23 1016 71 10000 0.89 281 18:55 03.11.2021
4967 Clouds 23 1016 71 10000 1.79 290 18:21 03.11.2021
4968 Clouds 24 1016 62 10000 0.89 318 17:35 03.11.2021
4969 Clouds 24 1016 71 10000 1.34 198 16:25 03.11.2021
4970 Clouds 25 1017 65 10000 1.34 307 15:42 03.11.2021
4971 Clouds 24 1018 71 10000 3.91 23 13:49 03.11.2021
4972 Clouds 24 1020 71 10000 4.53 19 11:54 03.11.2021
4973 Clouds 24 1019 71 10000 4.68 31 11:25 03.11.2021
4974 Clouds 22 1019 71 10000 4.68 31 10:41 03.11.2021
4975 Clouds 22 1019 72 10000 4.18 35 09:30 03.11.2021
4976 Clouds 21 1018 76 10000 3.89 26 08:22 03.11.2021
4977 Clouds 21 1018 76 10000 3.89 26 07:39 03.11.2021
4978 Clouds 21 1018 81 10000 1.34 280 04:26 03.11.2021
4979 Clouds 22 1019 81 10000 0.89 270 01:49 03.11.2021
4980 Clouds 22 1019 81 10000 0.89 270 01:49 03.11.2021
4981 Clouds 22 1019 85 10000 0.89 0 23:33 02.11.2021
4982 Clouds 23 1019 83 10000 0.89 290 22:29 02.11.2021
4983 Clouds 23 1018 79 10000 0.89 251 20:54 02.11.2021
4984 Clouds 23 1018 79 10000 0.89 251 20:30 02.11.2021
4985 Clouds 23 1018 79 10000 0.89 270 19:47 02.11.2021
4986 Clouds 24 1018 72 10000 0.89 270 18:51 02.11.2021
4987 Clouds 24 1018 75 10000 0.89 281 17:58 02.11.2021
4988 Clouds 24 1018 75 10000 0.89 281 17:32 02.11.2021
4989 Clouds 24 1018 71 10000 0.89 270 16:29 02.11.2021
4990 Clouds 25 1018 70 10000 0.89 270 15:26 02.11.2021
4991 Clouds 25 1019 70 10000 0.89 248 14:18 02.11.2021
4992 Clouds 25 1020 67 10000 0.89 286 13:27 02.11.2021
4993 Clouds 24 1020 76 10000 0.89 240 12:33 02.11.2021
4994 Clouds 24 1021 77 10000 1.34 192 11:32 02.11.2021
4995 Clouds 23 1020 75 10000 0.89 300 10:51 02.11.2021
4996 Clouds 23 1020 75 10000 0.89 347 10:25 02.11.2021
4997 Clouds 20 1019 78 10000 1.34 278 08:43 02.11.2021
4998 Clouds 20 1019 77 10000 0.89 282 06:50 02.11.2021
4999 Clear 20 1019 75 10000 1.34 276 03:34 02.11.2021
5000 Clear 20 1019 75 10000 1.34 276 03:34 02.11.2021
5001 Clear 21 1020 75 10000 0.89 279 01:24 02.11.2021
5002 Clear 21 1021 76 10000 0.89 259 22:44 01.11.2021
5003 Clouds 22 1020 77 10000 1.34 275 20:52 01.11.2021
5004 Clouds 22 1020 77 10000 1.34 275 20:33 01.11.2021
5005 Clouds 22 1019 75 10000 0.89 251 19:48 01.11.2021
5006 Clear 23 1020 72 10000 1.34 260 18:58 01.11.2021
5007 Clear 23 1019 72 10000 0.89 240 18:20 01.11.2021
5008 Clear 24 1019 70 10000 1.34 219 17:19 01.11.2021
5009 Clear 24 1019 71 10000 1.34 344 16:37 01.11.2021
5010 Clear 24 1020 68 10000 1.34 218 15:45 01.11.2021
5011 Clear 24 1020 68 10000 0.89 246 15:19 01.11.2021
5012 Clear 24 1020 69 10000 0.89 254 14:41 01.11.2021
5013 Clear 24 1021 68 10000 0.89 217 14:19 01.11.2021
5014 Clear 24 1022 70 10000 1.34 318 12:59 01.11.2021
5015 Clear 24 1022 70 10000 0.89 225 11:56 01.11.2021
5016 Clouds 22 1022 72 10000 0.89 225 10:23 01.11.2021
5017 Clouds 20 1021 77 10000 0.89 270 08:43 01.11.2021
5018 Clouds 20 1021 76 10000 0.89 270 07:47 01.11.2021
5019 Clouds 20 1021 81 10000 1.34 283 03:58 01.11.2021
5020 Clouds 20 1021 81 10000 1.34 283 03:39 01.11.2021
5021 Clear 21 1023 81 10000 1.34 289 23:58 31.10.2021
5022 Clear 21 1022 83 10000 1.34 287 21:26 31.10.2021
5023 Clear 21 1021 82 10000 1.34 281 20:24 31.10.2021
5024 Clear 23 1020 76 10000 0.89 270 18:46 31.10.2021
5025 Clear 23 1020 77 10000 0.89 251 18:23 31.10.2021
5026 Clear 23 1020 75 10000 0.89 217 16:48 31.10.2021
5027 Clear 24 1021 73 10000 0.89 230 15:18 31.10.2021
5028 Clear 23 1022 71 10000 0.89 225 12:58 31.10.2021
5029 Clouds 23 1022 72 10000 0.89 245 12:25 31.10.2021
5030 Clouds 22 1022 77 10000 0.89 251 10:51 31.10.2021
5031 Clouds 19 1022 84 10000 1.34 315 09:26 31.10.2021
5032 Clouds 18 1021 82 10000 0.89 270 08:46 31.10.2021
5033 Clear 18 1020 80 10000 0.89 278 04:54 31.10.2021
5034 Clear 19 1021 80 10000 0.89 270 00:36 31.10.2021
5035 Clear 20 1020 80 10000 1.34 270 22:27 30.10.2021
5036 Clear 21 1020 78 10000 1.34 280 21:29 30.10.2021
5037 Clear 22 1019 71 10000 3.79 31 19:49 30.10.2021
5038 Clear 23 1018 68 10000 0.89 270 17:49 30.10.2021
5039 Clear 23 1019 65 10000 0.89 225 15:49 30.10.2021
5040 Clear 23 1020 65 10000 0.89 254 13:59 30.10.2021
5041 Clear 23 1020 65 10000 0.89 254 13:38 30.10.2021
5042 Clear 23 1020 65 10000 0.89 258 13:20 30.10.2021
5043 Clear 22 1020 67 10000 0.89 237 11:50 30.10.2021
5044 Clear 20 1020 72 10000 0.89 313 10:57 30.10.2021
5045 Clear 19 1019 76 10000 0.89 270 08:59 30.10.2021
5046 Clear 19 1018 75 10000 0.89 279 07:57 30.10.2021
5047 Clear 19 1018 76 10000 0.89 270 05:47 30.10.2021
5048 Clear 19 1019 68 10000 0.89 270 02:59 30.10.2021
5049 Clear 20 1019 72 10000 0.89 279 23:21 29.10.2021
5050 Clear 21 1019 72 10000 1.34 284 22:35 29.10.2021
5051 Clear 21 1019 72 10000 1.34 284 22:35 29.10.2021
5052 Clear 21 1018 70 10000 1.34 288 21:19 29.10.2021
5053 Clear 22 1017 71 10000 1.34 290 20:33 29.10.2021
5054 Clear 23 1017 67 10000 1.34 270 19:30 29.10.2021
5055 Clear 24 1017 65 10000 0.89 183 17:48 29.10.2021
5056 Clear 24 1018 64 10000 0.89 219 15:50 29.10.2021
5057 Clear 24 1020 56 10000 0.89 270 13:19 29.10.2021
5058 Clear 20 1019 69 10000 0.89 303 10:49 29.10.2021
5059 Clear 20 1019 69 10000 0.89 303 10:31 29.10.2021
5060 Clouds 21 1019 66 10000 0.89 278 02:47 29.10.2021
5061 Clouds 20 1019 69 10000 1.34 282 00:32 29.10.2021
5062 Clear 21 1018 67 10000 1.34 282 22:34 28.10.2021
5063 Clear 21 1018 66 10000 0.89 280 21:20 28.10.2021
5064 Clouds 23 1018 63 10000 2.68 295 20:19 28.10.2021
5065 Clouds 24 1017 57 10000 1.34 330 18:47 28.10.2021
5066 Clouds 25 1017 48 10000 2.24 334 17:52 28.10.2021
5067 Clouds 24 1017 56 10000 2.68 328 16:39 28.10.2021
5068 Clouds 24 1019 61 10000 2.24 318 14:43 28.10.2021
5069 Clouds 24 1019 65 10000 1.34 315 13:33 28.10.2021
5070 Clouds 24 1019 65 10000 1.34 318 12:50 28.10.2021
5071 Clouds 22 1019 71 10000 1.34 206 11:50 28.10.2021
5072 Clouds 21 1018 77 10000 0.89 312 10:38 28.10.2021
5073 Clouds 21 1017 82 10000 0.89 300 09:37 28.10.2021
5074 Clouds 21 1017 83 10000 2.68 330 08:36 28.10.2021
5075 Clouds 21 1017 76 10000 1.34 348 07:41 28.10.2021
5076 Clouds 20 1017 70 10000 0.89 297 03:51 28.10.2021
5077 Clouds 22 1018 74 10000 1.34 305 22:57 27.10.2021
5078 Clouds 22 1018 74 10000 1.34 325 22:26 27.10.2021
5079 Clouds 22 1018 73 10000 2.24 336 21:32 27.10.2021
5080 Clouds 22 1017 68 10000 1.34 306 20:46 27.10.2021
5081 Clouds 23 1017 66 10000 2.24 300 19:48 27.10.2021
5082 Clouds 23 1017 67 10000 2.68 331 18:56 27.10.2021
5083 Clouds 24 1017 67 10000 2.68 331 18:36 27.10.2021
5084 Clouds 24 1017 65 10000 0.89 45 16:25 27.10.2021
5085 Clouds 24 1017 59 10000 1.34 135 15:28 27.10.2021
5086 Clouds 23 1019 67 10000 0.89 30 14:28 27.10.2021
5087 Clouds 23 1019 64 10000 1.34 348 11:18 27.10.2021
5088 Clouds 22 1019 69 10000 1.34 341 10:56 27.10.2021
5089 Clouds 21 1019 71 10000 1.34 297 09:28 27.10.2021
5090 Clouds 21 1018 83 10000 1.34 315 07:47 27.10.2021
5091 Clouds 20 1018 88 10000 2.24 309 05:49 27.10.2021
5092 Clouds 21 1020 75 10000 2.24 313 01:26 27.10.2021
5093 Clouds 21 1020 79 10000 2.24 312 00:55 27.10.2021
5094 Clouds 21 1020 78 10000 1.34 302 23:56 26.10.2021
5095 Clouds 22 1019 78 10000 1.34 330 22:50 26.10.2021
5096 Clouds 22 1019 80 10000 0.89 270 22:27 26.10.2021
5097 Clouds 22 1019 76 10000 1.34 284 21:51 26.10.2021
5098 Clouds 22 1018 73 10000 1.34 334 19:59 26.10.2021
5099 Clouds 23 1018 76 10000 1.34 219 19:22 26.10.2021
5100 Clouds 23 1018 75 10000 2.24 317 18:23 26.10.2021
5101 Clouds 24 1019 67 10000 1.34 1 15:51 26.10.2021
5102 Clouds 23 1020 70 10000 2.68 348 13:45 26.10.2021
5103 Clouds 23 1020 69 10000 1.34 13 11:18 26.10.2021
5104 Clouds 21 1019 75 10000 2.24 305 09:26 26.10.2021
5105 Clouds 21 1018 81 10000 1.34 311 07:22 26.10.2021
5106 Clouds 22 1020 82 10000 1.34 303 00:29 26.10.2021
5107 Clouds 22 1020 82 10000 1.34 303 00:29 26.10.2021
5108 Clouds 22 1020 83 10000 0.89 345 23:37 25.10.2021
5109 Clouds 22 1019 81 10000 2.24 323 22:34 25.10.2021
5110 Clouds 22 1019 80 10000 2.68 316 21:45 25.10.2021
5111 Clouds 22 1018 80 10000 1.34 340 20:38 25.10.2021
5112 Clouds 23 1018 75 10000 2.68 333 19:44 25.10.2021
5113 Clouds 23 1018 75 10000 2.68 335 19:23 25.10.2021
5114 Clouds 23 1018 78 10000 0.89 341 18:40 25.10.2021
5115 Clouds 22 1018 85 10000 1.34 340 17:35 25.10.2021
5116 Clouds 24 1019 70 10000 0.89 41 15:18 25.10.2021
5117 Clouds 24 1020 67 10000 0.89 100 12:33 25.10.2021
5118 Clouds 21 1019 76 10000 0.89 321 10:54 25.10.2021
5119 Clouds 20 1019 82 10000 1.34 308 08:59 25.10.2021
5120 Clouds 21 1018 80 10000 2.24 295 07:19 25.10.2021
5121 Clouds 21 1018 80 10000 2.24 309 05:21 25.10.2021
5122 Clouds 22 1020 76 10000 0.89 246 00:52 25.10.2021
5123 Clouds 22 1020 76 10000 0.89 246 00:33 25.10.2021
5124 Clouds 21 1020 76 10000 1.34 298 23:41 24.10.2021
5125 Clouds 21 1020 76 10000 1.34 296 22:39 24.10.2021
5126 Clouds 22 1019 75 10000 1.34 289 22:19 24.10.2021
5127 Clouds 22 1019 74 10000 0.89 258 21:18 24.10.2021
5128 Clouds 23 1018 73 10000 2.24 279 20:36 24.10.2021
5129 Clouds 23 1018 72 10000 0.89 348 19:40 24.10.2021
5130 Clouds 24 1018 70 10000 0.89 345 18:29 24.10.2021
5131 Clouds 24 1018 72 10000 0.89 15 17:45 24.10.2021
5132 Clouds 24 1019 69 10000 0.89 319 15:56 24.10.2021
5133 Clouds 24 1019 68 10000 0.89 327 15:19 24.10.2021
5134 Clouds 24 1020 66 10000 0.89 113 13:19 24.10.2021
5135 Clouds 23 1020 73 10000 0.89 12 11:56 24.10.2021
5136 Clouds 23 1020 73 10000 0.89 315 11:26 24.10.2021
5137 Clouds 22 1019 70 10000 1.34 347 10:28 24.10.2021
5138 Clouds 21 1018 72 10000 1.34 342 07:59 24.10.2021
5139 Clouds 21 1019 70 10000 2.24 331 01:26 24.10.2021
5140 Clouds 21 1019 77 10000 2.24 313 23:51 23.10.2021
5141 Clouds 21 1019 85 10000 2.24 315 22:32 23.10.2021
5142 Clouds 22 1018 73 10000 0.89 270 20:37 23.10.2021
5143 Clouds 23 1018 65 10000 1.34 225 18:59 23.10.2021
5144 Clouds 24 1018 65 10000 1.34 225 18:30 23.10.2021
5145 Clouds 23 1018 69 10000 0.89 306 17:43 23.10.2021
5146 Clouds 24 1018 67 10000 0.89 299 16:38 23.10.2021
5147 Clouds 24 1019 59 10000 1.34 321 14:35 23.10.2021
5148 Clouds 21 1018 78 10000 2.24 286 09:45 23.10.2021
5149 Clouds 22 1019 74 10000 1.34 293 00:28 23.10.2021
5150 Clouds 22 1019 71 10000 1.34 275 23:23 22.10.2021
5151 Clouds 21 1018 77 10000 1.34 290 20:55 22.10.2021
5152 Clouds 23 1018 70 10000 0.89 326 18:57 22.10.2021
5153 Clouds 23 1018 69 10000 0.89 270 17:44 22.10.2021
5154 Clouds 24 1019 67 10000 2.24 270 15:57 22.10.2021
5155 Clouds 25 1019 62 10000 2.24 180 14:30 22.10.2021
5156 Clouds 24 1020 69 10000 2.68 322 12:38 22.10.2021
5157 Clouds 22 1020 81 10000 0.89 299 10:50 22.10.2021
5158 Clouds 22 1019 86 10000 0.89 304 09:56 22.10.2021
5159 Clouds 22 1019 86 10000 0.89 304 09:56 22.10.2021
5160 Clouds 22 1019 86 10000 0.89 304 09:32 22.10.2021
5161 Clouds 23 1019 84 10000 1.34 315 07:26 22.10.2021
5162 Clouds 22 1020 83 10000 2.24 305 04:59 22.10.2021
5163 Clouds 23 1021 81 10000 2.24 298 00:31 22.10.2021
5164 Clouds 23 1021 81 10000 2.24 300 23:48 21.10.2021
5165 Clouds 23 1020 80 10000 2.24 309 22:22 21.10.2021
5166 Clouds 23 1020 80 10000 2.68 313 21:18 21.10.2021
5167 Clouds 24 1020 77 10000 2.68 312 20:21 21.10.2021
5168 Clouds 24 1020 76 10000 2.68 320 19:30 21.10.2021
5169 Clouds 24 1020 76 10000 2.68 320 19:30 21.10.2021
5170 Clouds 25 1020 72 10000 1.34 338 18:52 21.10.2021
5171 Clouds 25 1020 72 10000 2.24 332 18:27 21.10.2021
5172 Clouds 26 1019 71 10000 0.89 290 17:42 21.10.2021
5173 Clouds 25 1020 73 10000 1.34 341 16:20 21.10.2021
5174 Clouds 26 1021 73 10000 1.34 170 15:21 21.10.2021
5175 Clouds 26 1021 71 10000 1.34 343 14:49 21.10.2021
5176 Clouds 25 1022 72 10000 2.68 325 13:26 21.10.2021
5177 Clouds 24 1022 77 10000 2.68 320 11:27 21.10.2021
5178 Clouds 22 1021 84 10000 2.24 312 09:23 21.10.2021
5179 Clouds 22 1020 85 10000 1.34 321 07:31 21.10.2021
5180 Clouds 22 1020 83 10000 2.24 324 05:33 21.10.2021
5181 Clouds 23 1021 83 10000 2.68 325 23:45 20.10.2021
5182 Clouds 23 1020 84 10000 1.34 301 22:21 20.10.2021
5183 Clouds 23 1020 84 10000 1.34 304 21:45 20.10.2021
5184 Clear 23 1019 83 10000 2.24 303 20:57 20.10.2021
5185 Clear 24 1019 83 10000 2.24 303 20:36 20.10.2021
5186 Clouds 24 1019 83 10000 0.89 225 19:59 20.10.2021
5187 Clouds 24 1019 81 10000 0.89 198 18:59 20.10.2021
5188 Clouds 25 1019 79 10000 0.89 315 17:54 20.10.2021
5189 Clouds 25 1020 77 10000 0.89 315 15:47 20.10.2021
5190 Clouds 25 1021 77 10000 1.34 206 12:33 20.10.2021
5191 Clouds 23 1019 42 10000 1.34 275 09:19 20.10.2021
5192 Clouds 23 1019 45 10000 1.34 281 05:23 20.10.2021
5193 Clouds 23 1020 69 10000 2.24 322 00:48 20.10.2021
5194 Clouds 23 1019 71 10000 1.34 320 00:22 20.10.2021
5195 Clouds 23 1018 86 10000 0.89 324 21:45 19.10.2021
5196 Clouds 23 1017 86 10000 0.89 303 20:56 19.10.2021
5197 Clouds 24 1017 86 10000 0.89 303 20:25 19.10.2021
5198 Clouds 24 1017 84 10000 0.89 296 19:44 19.10.2021
5199 Clouds 25 1017 84 10000 0.89 236 19:20 19.10.2021
5200 Clouds 25 1017 79 10000 1.34 225 17:59 19.10.2021
5201 Clouds 26 1018 77 10000 0.89 251 15:57 19.10.2021
5202 Clouds 26 1018 77 10000 0.89 225 15:20 19.10.2021
5203 Clouds 25 1019 79 10000 0.89 270 14:27 19.10.2021
5204 Clouds 25 1019 78 10000 0.89 56 13:36 19.10.2021
5205 Clouds 24 1019 73 10000 0.89 251 11:37 19.10.2021
5206 Clouds 23 1018 50 10000 0.89 307 10:36 19.10.2021
5207 Clouds 24 1017 22 10000 0.89 309 08:58 19.10.2021
5208 Clouds 24 1016 21 10000 1.34 313 07:20 19.10.2021
5209 Clouds 24 1018 41 10000 0.89 247 00:26 19.10.2021
5210 Clouds 23 1018 61 10000 0.89 248 23:51 18.10.2021
5211 Clouds 23 1018 70 10000 0.89 246 23:20 18.10.2021
5212 Clouds 24 1017 74 10000 0.89 270 22:54 18.10.2021
5213 Clouds 24 1017 83 10000 0.89 327 21:44 18.10.2021
5214 Clouds 24 1016 84 10000 0.89 281 20:42 18.10.2021
5215 Clouds 24 1016 82 10000 0.89 285 20:18 18.10.2021
5216 Clouds 25 1016 76 10000 0.89 236 19:30 18.10.2021
5217 Clouds 26 1016 72 10000 0.89 241 18:57 18.10.2021
5218 Clouds 28 1017 51 10000 0.89 270 15:45 18.10.2021
5219 Clouds 28 1018 53 10000 0.89 280 14:26 18.10.2021
5220 Clouds 24 1018 71 10000 0.89 251 10:55 18.10.2021
5221 Clouds 22 1017 39 10000 0.89 255 09:31 18.10.2021
5222 Clouds 24 1016 39 10000 1.34 265 05:32 18.10.2021
5223 Clouds 24 1017 54 10000 0.89 247 23:37 17.10.2021
5224 Clouds 25 1016 74 10000 0.89 300 21:55 17.10.2021
5225 Clouds 25 1016 73 10000 0.89 255 21:18 17.10.2021
5226 Clouds 25 1015 82 10000 0.89 281 20:38 17.10.2021
5227 Clouds 27 1015 74 10000 0.89 256 19:43 17.10.2021
5228 Clouds 27 1015 72 10000 0.89 242 19:24 17.10.2021
5229 Clouds 30 1015 31 10000 0.89 225 17:35 17.10.2021
5230 Clouds 30 1016 61 10000 3.26 56 15:54 17.10.2021
5231 Clouds 30 1016 60 10000 3.81 52 14:32 17.10.2021
5232 Clouds 29 1017 46 10000 0.89 234 13:56 17.10.2021
5233 Clouds 26 1017 73 10000 0.89 215 12:35 17.10.2021
5234 Clouds 24 1016 64 10000 0.89 288 10:44 17.10.2021
5235 Clouds 21 1016 62 10000 1.34 283 09:43 17.10.2021
5236 Clouds 21 1015 62 10000 0.89 258 07:39 17.10.2021
5237 Clouds 22 1017 89 10000 0.89 308 00:55 17.10.2021
5238 Clouds 22 1017 89 10000 0.89 280 00:23 17.10.2021
5239 Clouds 23 1016 87 10000 0.89 299 22:31 16.10.2021
5240 Clouds 24 1016 84 10000 0.89 317 20:35 16.10.2021
5241 Clear 24 1016 83 10000 1.34 325 19:55 16.10.2021
5242 Clear 25 1016 83 10000 1.34 325 19:37 16.10.2021
5243 Clear 24 1015 85 10000 1.34 229 19:18 16.10.2021
5244 Clear 25 1015 84 10000 0.89 135 18:42 16.10.2021
5245 Clear 25 1015 82 10000 0.89 225 18:18 16.10.2021
5246 Clear 25 1015 80 10000 0.89 251 17:27 16.10.2021
5247 Clear 25 1016 77 10000 0.89 248 15:38 16.10.2021
5248 Clouds 26 1017 72 10000 1.34 213 12:30 16.10.2021
5249 Clouds 23 1017 77 10000 0.89 306 10:48 16.10.2021
5250 Clouds 22 1017 84 10000 3.36 39 08:32 16.10.2021
5251 Clouds 23 1018 83 10000 1.34 315 01:26 16.10.2021
5252 Clouds 23 1018 80 10000 1.34 322 23:57 15.10.2021
5253 Clouds 23 1018 79 10000 1.34 319 23:24 15.10.2021
5254 Clouds 23 1017 78 10000 2.24 293 22:20 15.10.2021
5255 Clouds 23 1017 78 10000 0.89 282 21:29 15.10.2021
5256 Clouds 23 1017 74 10000 2.24 296 20:50 15.10.2021
5257 Clear 24 1017 72 10000 2.24 298 19:38 15.10.2021
5258 Clear 25 1017 68 10000 1.34 329 18:41 15.10.2021
5259 Clear 25 1017 67 10000 1.34 329 17:58 15.10.2021
5260 Clear 25 1017 71 10000 1.34 218 15:37 15.10.2021
5261 Clouds 25 1018 69 10000 1.34 306 13:34 15.10.2021
5262 Clouds 24 1018 71 10000 1.34 324 11:41 15.10.2021
5263 Clouds 23 1018 73 10000 2.24 323 10:58 15.10.2021
5264 Clouds 23 1018 73 10000 0.89 320 10:19 15.10.2021
5265 Clouds 22 1016 73 10000 1.34 292 06:47 15.10.2021
5266 Clouds 23 1018 79 10000 0.89 270 02:21 15.10.2021
5267 Clouds 22 1019 73 10000 1.34 280 00:22 15.10.2021
5268 Clouds 23 1018 72 10000 1.34 276 22:52 14.10.2021
5269 Clouds 23 1017 73 10000 2.68 295 21:45 14.10.2021
5270 Clouds 23 1017 72 10000 2.68 300 20:50 14.10.2021
5271 Clouds 23 1017 72 10000 2.68 300 20:50 14.10.2021
5272 Clear 23 1017 72 10000 1.34 245 20:19 14.10.2021
5273 Clear 24 1017 71 10000 0.89 270 19:40 14.10.2021
5274 Clear 25 1016 68 10000 2.24 177 17:39 14.10.2021
5275 Clear 25 1016 66 10000 1.34 147 16:56 14.10.2021
5276 Clear 25 1016 67 10000 1.34 231 16:21 14.10.2021
5277 Clear 25 1017 71 10000 0.89 315 14:43 14.10.2021
5278 Clouds 25 1017 71 10000 0.89 225 14:22 14.10.2021
5279 Clouds 24 1018 71 10000 1.34 139 11:50 14.10.2021
5280 Clouds 21 1017 76 10000 1.34 282 09:57 14.10.2021
5281 Clouds 21 1016 80 10000 0.89 284 07:37 14.10.2021
5282 Clouds 21 1017 82 10000 0.89 270 02:41 14.10.2021
5283 Clouds 22 1018 78 10000 0.89 261 00:29 14.10.2021
5284 Clouds 23 1017 75 10000 1.34 316 22:29 13.10.2021
5285 Clouds 23 1017 76 10000 0.89 250 21:33 13.10.2021
5286 Clouds 24 1016 73 10000 1.34 265 20:22 13.10.2021
5287 Clouds 24 1016 71 10000 0.89 246 18:59 13.10.2021
5288 Clouds 24 1016 71 10000 0.89 246 18:36 13.10.2021
5289 Clouds 25 1017 69 10000 1.34 233 15:32 13.10.2021
5290 Clouds 25 1017 63 10000 2.24 327 14:46 13.10.2021
5291 Clouds 25 1017 64 10000 2.24 346 14:22 13.10.2021
5292 Clouds 25 1018 68 10000 1.79 190 12:22 13.10.2021
5293 Clouds 23 1018 68 10000 1.34 288 11:35 13.10.2021
5294 Clouds 21 1016 78 10000 1.34 297 08:48 13.10.2021
5295 Clouds 21 1016 77 10000 1.34 305 07:36 13.10.2021
5296 Clouds 22 1017 76 10000 0.89 270 02:29 13.10.2021
5297 Clouds 22 1017 75 10000 1.34 277 01:46 13.10.2021
5298 Clouds 22 1017 76 10000 1.34 297 23:31 12.10.2021
5299 Clouds 23 1017 75 10000 0.89 270 22:47 12.10.2021
5300 Clouds 23 1016 75 10000 1.34 270 21:52 12.10.2021
5301 Clouds 23 1016 74 10000 2.24 290 20:46 12.10.2021
5302 Clouds 23 1016 73 10000 0.89 298 20:18 12.10.2021
5303 Clouds 24 1015 64 10000 1.34 315 18:45 12.10.2021
5304 Clouds 25 1015 64 10000 2.68 319 17:57 12.10.2021
5305 Clouds 25 1015 58 10000 2.68 322 16:39 12.10.2021
5306 Clouds 26 1016 60 10000 2.68 330 15:58 12.10.2021
5307 Clouds 25 1016 63 10000 1.34 327 14:46 12.10.2021
5308 Clouds 25 1017 66 10000 1.34 324 13:44 12.10.2021
5309 Clouds 24 1017 65 10000 1.34 239 12:40 12.10.2021
5310 Clouds 21 1016 67 10000 1.34 301 09:59 12.10.2021
5311 Clouds 20 1016 68 10000 1.34 288 08:44 12.10.2021
5312 Clouds 20 1016 68 10000 1.34 280 07:54 12.10.2021
5313 Clouds 20 1016 71 10000 1.34 285 05:31 12.10.2021
5314 Clouds 20 1016 69 10000 1.34 278 04:33 12.10.2021
5315 Clear 22 1017 70 10000 0.89 291 00:28 12.10.2021
5316 Clear 22 1016 71 10000 1.34 282 23:41 11.10.2021
5317 Clear 23 1016 70 10000 1.34 284 22:58 11.10.2021
5318 Clear 23 1015 68 10000 1.34 295 21:46 11.10.2021
5319 Clear 23 1015 68 10000 1.34 276 21:18 11.10.2021
5320 Clouds 25 1015 63 10000 2.24 323 19:46 11.10.2021
5321 Clouds 25 1014 56 10000 1.34 316 18:43 11.10.2021
5322 Clouds 26 1015 67 10000 4.73 360 17:54 11.10.2021
5323 Clouds 27 1015 66 10000 4.52 358 16:39 11.10.2021
5324 Clouds 26 1015 66 10000 4.64 354 15:51 11.10.2021
5325 Clouds 26 1016 66 10000 4.83 350 15:23 11.10.2021
5326 Clouds 26 1016 66 10000 4.83 350 14:42 11.10.2021
5327 Clouds 26 1016 55 10000 2.24 351 13:37 11.10.2021
5328 Clouds 24 1016 65 10000 2.68 322 11:51 11.10.2021
5329 Clouds 23 1015 70 10000 1.34 315 10:34 11.10.2021
5330 Clouds 23 1014 66 10000 1.34 282 09:37 11.10.2021
5331 Clouds 22 1014 70 10000 1.34 296 07:27 11.10.2021
5332 Clouds 23 1015 80 10000 2.24 306 01:40 11.10.2021
5333 Clouds 23 1016 77 10000 2.24 312 00:48 11.10.2021
5334 Clouds 23 1016 73 10000 2.24 310 00:23 11.10.2021
5335 Clouds 24 1015 70 10000 2.68 293 21:52 10.10.2021
5336 Clouds 24 1015 69 10000 2.68 296 21:31 10.10.2021
5337 Clouds 24 1014 68 10000 2.68 321 20:43 10.10.2021
5338 Clouds 24 1014 69 10000 2.68 310 20:21 10.10.2021
5339 Clouds 24 1014 73 10000 2.24 296 19:59 10.10.2021
5340 Clouds 24 1014 73 10000 2.68 315 19:35 10.10.2021
5341 Clouds 25 1014 68 10000 2.68 328 18:35 10.10.2021
5342 Clouds 26 1014 63 10000 2.68 333 16:46 10.10.2021
5343 Clouds 26 1015 62 10000 2.24 315 15:44 10.10.2021
5344 Clouds 26 1016 61 10000 2.24 316 13:53 10.10.2021
5345 Clouds 26 1016 61 10000 2.68 322 13:32 10.10.2021
5346 Clouds 25 1016 68 10000 2.24 353 12:33 10.10.2021
5347 Clouds 23 1016 80 10000 2.68 328 10:43 10.10.2021
5348 Clouds 22 1015 84 10000 2.68 320 09:29 10.10.2021
5349 Clouds 22 1015 85 10000 2.68 317 08:53 10.10.2021
5350 Clouds 22 1015 85 10000 2.24 317 07:27 10.10.2021
5351 Clouds 22 1017 79 10000 2.68 315 02:42 10.10.2021
5352 Clouds 22 1017 81 10000 2.24 325 00:55 10.10.2021
5353 Clouds 23 1018 80 10000 2.68 312 23:57 09.10.2021
5354 Clouds 23 1017 80 10000 2.68 321 22:45 09.10.2021
5355 Clouds 23 1017 79 10000 2.68 319 21:39 09.10.2021
5356 Clouds 23 1017 80 10000 2.68 331 21:20 09.10.2021
5357 Clouds 24 1017 75 10000 2.24 339 19:44 09.10.2021
5358 Clouds 25 1016 73 10000 2.68 338 18:59 09.10.2021
5359 Clouds 25 1016 71 10000 2.68 329 18:32 09.10.2021
5360 Clouds 26 1017 71 10000 2.68 330 16:43 09.10.2021
5361 Clouds 25 1018 70 10000 2.68 325 15:32 09.10.2021
5362 Clouds 25 1019 70 10000 3.13 327 13:44 09.10.2021
5363 Clouds 24 1019 74 10000 3.13 315 12:40 09.10.2021
5364 Clouds 24 1019 74 10000 3.13 315 12:40 09.10.2021
5365 Clouds 24 1019 76 10000 2.68 322 11:48 09.10.2021
5366 Clouds 23 1019 83 10000 2.24 325 10:42 09.10.2021
5367 Clouds 23 1019 83 10000 2.24 325 10:42 09.10.2021
5368 Clouds 22 1018 85 10000 2.24 324 09:36 09.10.2021
5369 Clouds 22 1017 82 10000 1.34 306 08:30 09.10.2021
5370 Clouds 22 1017 80 10000 1.34 296 07:47 09.10.2021
5371 Clouds 23 1017 84 10000 2.68 332 05:29 09.10.2021
5372 Clouds 23 1018 82 10000 2.24 337 02:59 09.10.2021
5373 Clouds 23 1018 84 10000 2.68 315 02:39 09.10.2021
5374 Clouds 23 1019 80 10000 2.24 313 23:41 08.10.2021
5375 Clouds 23 1018 80 10000 2.24 311 22:54 08.10.2021
5376 Clouds 23 1018 79 10000 1.34 293 22:23 08.10.2021
5377 Clouds 24 1017 75 10000 1.34 303 20:53 08.10.2021
5378 Clouds 25 1017 69 10000 2.24 329 18:53 08.10.2021
5379 Clouds 26 1017 67 10000 2.24 337 17:34 08.10.2021
5380 Clouds 25 1017 66 10000 2.24 339 16:50 08.10.2021
5381 Clouds 25 1017 68 10000 1.34 200 16:23 08.10.2021
5382 Clouds 25 1019 70 10000 2.24 225 13:57 08.10.2021
5383 Clouds 24 1019 72 10000 0.89 185 12:48 08.10.2021
5384 Clouds 24 1019 72 10000 1.34 316 11:31 08.10.2021
5385 Clouds 22 1018 74 10000 2.24 323 10:40 08.10.2021
5386 Clouds 22 1017 77 10000 1.34 290 08:27 08.10.2021
5387 Clouds 23 1018 79 10000 1.34 332 23:38 07.10.2021
5388 Clouds 23 1018 79 10000 1.34 315 22:59 07.10.2021
5389 Clear 23 1017 81 10000 1.34 313 21:45 07.10.2021
5390 Clear 23 1017 79 10000 2.68 313 21:20 07.10.2021
5391 Clouds 24 1016 76 10000 1.34 255 19:57 07.10.2021
5392 Clouds 24 1016 77 10000 0.89 295 19:28 07.10.2021
5393 Clouds 25 1017 74 10000 1.34 201 18:22 07.10.2021
5394 Clouds 25 1017 74 10000 1.34 219 17:18 07.10.2021
5395 Clouds 25 1018 75 10000 1.34 226 15:24 07.10.2021
5396 Clouds 25 1018 72 10000 1.34 171 13:45 07.10.2021
5397 Clouds 25 1018 73 10000 2.24 210 13:27 07.10.2021
5398 Clouds 25 1018 71 10000 1.34 0 12:39 07.10.2021
5399 Clouds 23 1018 77 10000 1.34 318 10:49 07.10.2021
5400 Clouds 22 1017 79 10000 2.24 326 10:19 07.10.2021
5401 Clouds 21 1017 80 10000 1.34 282 08:56 07.10.2021
5402 Clouds 21 1017 79 10000 1.34 279 08:35 07.10.2021
5403 Clouds 21 1017 80 10000 1.34 279 07:42 07.10.2021
5404 Clouds 21 1017 78 10000 1.34 297 06:57 07.10.2021
5405 Clouds 22 1018 77 10000 0.89 270 02:23 07.10.2021
5406 Clouds 23 1018 80 10000 0.89 288 23:40 06.10.2021
5407 Clouds 23 1018 77 10000 0.89 329 22:46 06.10.2021
5408 Clouds 23 1018 78 10000 0.89 281 21:49 06.10.2021
5409 Clouds 24 1017 73 10000 2.24 302 20:35 06.10.2021
5410 Clouds 24 1017 72 10000 2.68 323 19:46 06.10.2021
5411 Clouds 25 1017 67 10000 0.89 329 18:34 06.10.2021
5412 Clouds 26 1017 64 10000 1.34 330 16:54 06.10.2021
5413 Clouds 25 1017 67 10000 1.34 189 15:26 06.10.2021
5414 Clouds 25 1019 66 10000 1.34 309 13:51 06.10.2021
5415 Clouds 25 1019 69 10000 1.79 201 12:55 06.10.2021
5416 Clouds 25 1019 66 10000 1.34 198 12:31 06.10.2021
5417 Clouds 24 1019 67 10000 1.34 329 11:49 06.10.2021
5418 Clouds 23 1018 72 10000 0.89 283 09:58 06.10.2021
5419 Clouds 22 1018 73 10000 2.24 286 09:38 06.10.2021
5420 Clouds 22 1017 72 10000 2.24 302 08:42 06.10.2021
5421 Clouds 22 1017 70 10000 1.34 285 06:48 06.10.2021
5422 Clouds 22 1017 74 10000 1.34 284 05:19 06.10.2021
5423 Clouds 23 1019 71 10000 1.34 254 00:26 06.10.2021
5424 Clouds 23 1019 70 10000 2.24 283 23:52 05.10.2021
5425 Clouds 23 1019 70 10000 2.24 283 23:52 05.10.2021
5426 Clouds 22 1019 69 10000 2.24 289 23:32 05.10.2021
5427 Clouds 23 1019 70 10000 0.89 237 22:44 05.10.2021
5428 Clouds 23 1018 72 10000 1.34 270 21:58 05.10.2021
5429 Clouds 23 1018 72 10000 1.34 270 21:58 05.10.2021
5430 Clouds 23 1018 70 10000 1.34 270 21:35 05.10.2021
5431 Clouds 24 1018 69 10000 0.89 270 20:38 05.10.2021
5432 Clouds 24 1018 68 10000 1.34 289 20:19 05.10.2021
5433 Clouds 24 1017 66 10000 2.68 327 19:26 05.10.2021
5434 Clouds 24 1018 64 10000 3.13 328 18:46 05.10.2021
5435 Clouds 25 1018 62 10000 2.24 308 16:35 05.10.2021
5436 Clouds 25 1020 61 10000 1.79 180 14:29 05.10.2021
5437 Clouds 24 1020 59 10000 1.34 135 13:29 05.10.2021
5438 Clouds 24 1021 59 10000 1.34 286 12:36 05.10.2021
5439 Clouds 23 1020 65 10000 1.34 315 11:58 05.10.2021
5440 Clouds 23 1020 72 10000 0.89 308 10:39 05.10.2021
5441 Clouds 22 1019 69 10000 2.24 315 08:39 05.10.2021
5442 Clouds 23 1020 67 10000 0.89 241 03:38 05.10.2021
5443 Clouds 23 1021 66 10000 2.68 300 23:52 04.10.2021
5444 Clouds 23 1019 66 10000 2.24 270 21:54 04.10.2021
5445 Clouds 24 1019 73 10000 2.24 316 18:54 04.10.2021
5446 Clouds 24 1019 78 10000 1.34 250 17:58 04.10.2021
5447 Clouds 24 1020 80 10000 2.24 270 16:20 04.10.2021
5448 Clouds 24 1020 88 10000 2.24 287 15:30 04.10.2021
5449 Clouds 25 1020 85 10000 1.34 258 14:39 04.10.2021
5450 Clouds 25 1021 84 10000 1.34 231 13:48 04.10.2021
5451 Clouds 25 1021 87 10000 2.24 313 13:23 04.10.2021
5452 Clouds 24 1021 86 10000 4.02 339 11:34 04.10.2021
5453 Clouds 24 1020 85 10000 2.68 341 10:48 04.10.2021
5454 Clouds 24 1020 85 10000 2.68 338 09:48 04.10.2021
5455 Clouds 24 1019 75 10000 2.24 346 08:32 04.10.2021
5456 Clouds 23 1019 77 10000 2.24 338 06:51 04.10.2021
5457 Clouds 23 1021 77 10000 2.24 348 23:42 03.10.2021
5458 Clouds 23 1020 77 10000 1.34 323 22:33 03.10.2021
5459 Clouds 23 1020 77 10000 2.68 333 21:36 03.10.2021
5460 Clouds 24 1019 75 10000 0.89 325 20:50 03.10.2021
5461 Clouds 24 1019 74 10000 1.34 261 19:54 03.10.2021
5462 Clouds 25 1019 69 10000 1.34 303 18:31 03.10.2021
5463 Clouds 26 1019 71 10000 1.34 45 17:40 03.10.2021
5464 Clouds 26 1020 71 10000 1.34 352 15:30 03.10.2021
5465 Clouds 26 1020 71 10000 1.34 352 15:30 03.10.2021
5466 Clouds 25 1020 74 10000 2.24 63 14:35 03.10.2021
5467 Clouds 25 1020 73 10000 1.34 63 13:40 03.10.2021
5468 Clouds 25 1020 72 10000 1.34 90 13:20 03.10.2021
5469 Clouds 24 1019 74 10000 0.89 53 11:48 03.10.2021
5470 Clouds 22 1019 82 10000 0.89 342 10:31 03.10.2021
5471 Clouds 22 1017 85 10000 2.24 330 07:39 03.10.2021
5472 Clear 24 1018 54 10000 2.24 343 23:50 02.10.2021
5473 Clear 24 1017 71 10000 2.24 337 22:19 02.10.2021
5474 Clear 26 1016 64 10000 1.34 341 20:35 02.10.2021
5475 Clouds 27 1016 73 10000 0.89 4 18:57 02.10.2021
5476 Clouds 27 1016 78 10000 0.89 26 18:27 02.10.2021
5477 Clouds 27 1016 78 10000 0.89 36 17:38 02.10.2021
5478 Clouds 26 1016 79 10000 1.34 48 16:39 02.10.2021
5479 Clouds 27 1018 78 10000 1.34 76 14:35 02.10.2021
5480 Clouds 26 1017 72 10000 2.68 340 15:37 30.09.2021
5481 Clouds 26 1019 73 10000 2.68 355 14:22 30.09.2021
5482 Clouds 24 1019 78 10000 3.58 347 11:59 30.09.2021
5483 Clouds 24 1019 79 10000 2.68 335 11:23 30.09.2021
5484 Clouds 23 1019 80 10000 3.58 339 10:25 30.09.2021
5485 Clouds 23 1019 80 10000 3.58 339 10:25 30.09.2021
5486 Clouds 23 1018 81 10000 2.24 341 08:32 30.09.2021
5487 Clouds 23 1018 81 10000 2.68 331 07:45 30.09.2021
5488 Clouds 23 1018 78 10000 2.68 351 05:25 30.09.2021
5489 Clouds 23 1020 79 10000 2.68 350 02:33 30.09.2021
5490 Clouds 23 1021 81 10000 2.24 331 00:31 30.09.2021
5491 Clouds 23 1020 77 10000 2.68 344 22:41 29.09.2021
5492 Clouds 24 1020 78 10000 2.24 329 21:42 29.09.2021
5493 Clouds 24 1020 75 10000 2.68 321 20:31 29.09.2021
5494 Clouds 24 1020 75 10000 2.24 344 19:58 29.09.2021
5495 Clouds 25 1020 76 10000 2.24 358 19:18 29.09.2021
5496 Clouds 26 1020 80 10000 7.99 14 17:58 29.09.2021
5497 Clouds 25 1020 72 10000 2.68 343 16:55 29.09.2021
5498 Clouds 26 1020 66 10000 2.68 345 16:22 29.09.2021
5499 Clouds 26 1021 71 10000 1.34 0 14:42 29.09.2021
5500 Clouds 26 1022 64 10000 2.68 344 14:18 29.09.2021
5501 Clouds 25 1022 71 10000 2.24 36 13:27 29.09.2021
5502 Clouds 25 1022 73 10000 2.24 352 12:36 29.09.2021
5503 Clouds 24 1022 77 10000 2.24 357 10:57 29.09.2021
5504 Clouds 23 1021 87 10000 2.68 334 09:58 29.09.2021
5505 Clouds 23 1021 87 10000 2.68 326 09:36 29.09.2021
5506 Clouds 23 1020 87 10000 3.13 322 07:48 29.09.2021
5507 Clouds 23 1020 82 10000 2.68 344 05:50 29.09.2021
5508 Clouds 23 1022 77 10000 2.68 341 23:36 28.09.2021
5509 Clouds 23 1022 79 10000 1.34 346 22:24 28.09.2021
5510 Clouds 24 1022 79 10000 1.79 339 21:45 28.09.2021
5511 Clouds 24 1021 76 10000 1.34 351 20:44 28.09.2021
5512 Clouds 24 1021 74 10000 1.34 23 19:47 28.09.2021
5513 Clouds 25 1021 71 10000 2.24 355 18:51 28.09.2021
5514 Clouds 25 1021 72 10000 1.34 348 18:18 28.09.2021
5515 Clouds 25 1021 73 10000 1.34 63 16:41 28.09.2021
5516 Clouds 26 1022 72 10000 1.34 23 14:37 28.09.2021
5517 Clouds 25 1023 75 10000 1.34 80 13:19 28.09.2021
5518 Clouds 25 1022 76 10000 1.34 12 12:21 28.09.2021
5519 Clouds 24 1022 77 10000 2.24 358 11:47 28.09.2021
5520 Clouds 24 1022 80 10000 0.89 355 11:23 28.09.2021
5521 Clouds 24 1021 83 10000 2.24 345 10:21 28.09.2021
5522 Clouds 24 1021 83 10000 2.24 345 10:21 28.09.2021
5523 Clouds 24 1021 83 10000 2.24 345 10:21 28.09.2021
5524 Clouds 23 1021 85 10000 1.34 355 09:18 28.09.2021
5525 Clouds 23 1021 85 10000 2.24 350 08:39 28.09.2021
5526 Clouds 23 1020 86 10000 0.89 0 07:48 28.09.2021
5527 Clouds 23 1020 85 10000 2.68 352 05:31 28.09.2021
5528 Clouds 23 1022 85 10000 2.24 336 01:26 28.09.2021
5529 Clouds 23 1022 85 10000 1.34 347 00:26 28.09.2021
5530 Clouds 23 1022 86 10000 0.89 6 23:42 27.09.2021
5531 Clouds 23 1022 85 10000 0.89 358 23:22 27.09.2021
5532 Clouds 24 1021 85 10000 1.34 354 22:19 27.09.2021
5533 Clouds 24 1021 81 10000 2.68 342 20:45 27.09.2021
5534 Clouds 25 1020 78 10000 1.34 17 19:57 27.09.2021
5535 Clouds 25 1020 78 10000 2.68 356 19:29 27.09.2021
5536 Clouds 26 1020 77 10000 0.89 0 18:51 27.09.2021
5537 Clouds 26 1020 76 10000 0.89 10 17:30 27.09.2021
5538 Clouds 26 1020 76 10000 1.34 75 16:51 27.09.2021
5539 Clouds 26 1021 75 10000 0.89 63 15:45 27.09.2021
5540 Clouds 26 1021 76 10000 0.89 75 15:19 27.09.2021
5541 Clouds 26 1021 75 10000 1.34 69 13:34 27.09.2021
5542 Clouds 25 1021 79 10000 0.89 43 11:59 27.09.2021
5543 Clouds 24 1021 83 10000 1.34 353 10:38 27.09.2021
5544 Clouds 23 1020 86 10000 1.34 345 09:28 27.09.2021
5545 Clouds 23 1020 85 10000 2.24 341 06:33 27.09.2021
5546 Clouds 23 1020 86 10000 2.24 340 03:29 27.09.2021
5547 Clouds 24 1020 80 10000 2.68 330 22:39 26.09.2021
5548 Clouds 24 1019 81 10000 2.24 345 21:53 26.09.2021
5549 Clouds 24 1019 82 10000 0.89 356 21:26 26.09.2021
5550 Clouds 24 1018 80 10000 0.89 9 20:24 26.09.2021
5551 Clouds 25 1018 79 10000 0.89 41 19:53 26.09.2021
5552 Clouds 25 1018 77 10000 0.89 21 18:52 26.09.2021
5553 Clouds 25 1018 76 10000 0.89 52 17:59 26.09.2021
5554 Clouds 25 1018 75 10000 0.89 18 17:36 26.09.2021
5555 Clouds 26 1018 74 10000 0.89 32 17:18 26.09.2021
5556 Clouds 25 1019 73 10000 0.89 8 16:22 26.09.2021
5557 Clouds 26 1019 74 10000 0.89 47 15:22 26.09.2021
5558 Clouds 25 1020 74 10000 0.89 23 13:59 26.09.2021
5559 Clouds 25 1020 73 10000 0.89 106 13:31 26.09.2021
5560 Clouds 25 1020 74 10000 0.89 79 12:26 26.09.2021
5561 Clouds 24 1020 75 10000 0.89 73 11:52 26.09.2021
5562 Clouds 24 1019 77 10000 0.89 10 10:52 26.09.2021
5563 Clouds 21 1019 79 10000 1.34 305 09:37 26.09.2021
5564 Clouds 22 1019 80 10000 1.34 310 08:20 26.09.2021
5565 Clouds 23 1019 79 10000 0.89 288 00:28 26.09.2021
5566 Clouds 23 1019 78 10000 0.89 302 23:41 25.09.2021
5567 Clouds 23 1019 77 10000 0.89 291 22:39 25.09.2021
5568 Clouds 23 1019 77 10000 0.89 342 22:18 25.09.2021
5569 Clouds 24 1018 76 10000 0.89 315 21:36 25.09.2021
5570 Clouds 24 1018 75 10000 0.89 298 20:52 25.09.2021
5571 Clouds 25 1018 71 10000 0.89 16 19:33 25.09.2021
5572 Clouds 25 1017 66 10000 0.89 25 18:27 25.09.2021
5573 Clouds 25 1017 68 10000 0.89 56 17:18 25.09.2021
5574 Clouds 25 1019 69 10000 1.34 90 14:25 25.09.2021
5575 Clouds 25 1019 69 10000 0.89 25 13:54 25.09.2021
5576 Clouds 25 1019 69 10000 1.34 90 12:36 25.09.2021
5577 Clouds 22 1018 74 10000 0.89 12 10:36 25.09.2021
5578 Clouds 21 1017 74 10000 0.89 296 09:56 25.09.2021
5579 Clouds 20 1017 75 10000 0.89 291 08:45 25.09.2021
5580 Clouds 20 1017 76 10000 0.89 302 07:46 25.09.2021
5581 Clouds 22 1018 76 10000 1.34 300 00:50 25.09.2021
5582 Clouds 22 1018 76 10000 1.34 300 00:50 25.09.2021
5583 Clouds 23 1017 74 10000 1.34 315 21:57 24.09.2021
5584 Clouds 23 1017 72 10000 2.24 300 21:25 24.09.2021
5585 Clouds 24 1017 72 10000 0.89 270 20:31 24.09.2021
5586 Clouds 25 1017 68 10000 0.89 45 18:36 24.09.2021
5587 Clouds 25 1016 68 10000 0.89 45 17:56 24.09.2021
5588 Clouds 25 1016 70 10000 0.89 26 17:38 24.09.2021
5589 Clouds 25 1016 70 10000 0.89 12 17:19 24.09.2021
5590 Clouds 25 1017 71 10000 0.89 355 15:38 24.09.2021
5591 Clouds 25 1017 75 10000 0.89 77 13:20 24.09.2021
5592 Clouds 24 1017 78 10000 0.89 7 12:42 24.09.2021
5593 Clouds 24 1017 75 10000 0.89 45 12:24 24.09.2021
5594 Clouds 23 1016 74 10000 1.34 4 10:38 24.09.2021
5595 Clear 21 1016 67 10000 2.24 307 08:59 24.09.2021
5596 Clear 21 1015 66 10000 1.34 310 07:55 24.09.2021
5597 Clear 21 1015 70 10000 2.24 310 06:51 24.09.2021
5598 Clear 21 1015 72 10000 1.34 293 05:22 24.09.2021
5599 Clear 23 1016 77 10000 1.34 315 01:24 24.09.2021
5600 Clouds 24 1015 75 10000 1.34 331 22:37 23.09.2021
5601 Clouds 24 1015 74 10000 2.24 332 21:57 23.09.2021
5602 Clouds 24 1014 73 10000 2.24 345 20:51 23.09.2021
5603 Clouds 25 1014 70 10000 2.68 342 20:26 23.09.2021
5604 Clouds 26 1015 66 10000 4.71 360 18:27 23.09.2021
5605 Clouds 26 1015 66 10000 2.24 349 15:37 23.09.2021
5606 Clear 26 1015 64 10000 2.68 351 15:18 23.09.2021
5607 Clouds 25 1016 69 10000 0.89 10 13:57 23.09.2021
5608 Clouds 25 1016 69 10000 0.89 10 13:57 23.09.2021
5609 Clouds 26 1016 69 10000 2.24 143 13:23 23.09.2021
5610 Clouds 25 1016 71 10000 1.34 238 12:54 23.09.2021
5611 Clouds 25 1016 64 10000 2.68 333 12:23 23.09.2021
5612 Clouds 25 1015 68 10000 0.89 251 11:56 23.09.2021
5613 Clouds 23 1015 74 10000 0.89 340 10:28 23.09.2021
5614 Clouds 23 1014 75 10000 0.89 321 09:53 23.09.2021
5615 Clouds 22 1014 78 10000 0.89 270 08:42 23.09.2021
5616 Clouds 22 1014 75 10000 0.89 284 05:28 23.09.2021
5617 Clouds 23 1015 76 10000 0.89 306 23:48 22.09.2021
5618 Clouds 24 1015 75 10000 0.89 319 22:44 22.09.2021
5619 Clouds 24 1015 75 10000 1.34 284 21:57 22.09.2021
5620 Clouds 24 1015 74 10000 1.34 292 21:34 22.09.2021
5621 Clouds 24 1014 73 10000 0.89 325 20:57 22.09.2021
5622 Clouds 25 1014 69 10000 2.68 327 19:34 22.09.2021
5623 Clouds 26 1014 63 10000 2.68 326 18:46 22.09.2021
5624 Clouds 26 1014 63 10000 1.34 324 18:22 22.09.2021
5625 Clouds 27 1015 57 10000 2.68 341 16:41 22.09.2021
5626 Clouds 26 1016 66 10000 4.66 8 15:38 22.09.2021
5627 Clouds 27 1017 67 10000 4.81 360 14:25 22.09.2021
5628 Clouds 26 1017 67 10000 4.75 6 12:22 22.09.2021
5629 Clouds 25 1016 61 10000 1.34 270 10:57 22.09.2021
5630 Clouds 23 1015 72 10000 0.89 324 09:29 22.09.2021
5631 Clouds 23 1015 72 10000 0.89 294 08:35 22.09.2021
5632 Clouds 23 1015 71 10000 1.34 281 07:30 22.09.2021
5633 Clouds 23 1015 71 10000 1.34 308 06:19 22.09.2021
5634 Clouds 23 1015 72 10000 2.24 313 05:42 22.09.2021
5635 Clouds 23 1016 74 10000 1.34 299 03:53 22.09.2021
5636 Clouds 23 1016 73 10000 2.24 287 02:43 22.09.2021
5637 Clouds 24 1018 72 10000 2.68 309 23:30 21.09.2021
5638 Clouds 24 1016 73 10000 1.34 315 21:38 21.09.2021
5639 Clouds 24 1016 73 10000 1.34 297 20:27 21.09.2021
5640 Clouds 25 1016 61 10000 2.68 309 19:24 21.09.2021
5641 Clouds 25 1016 67 10000 1.79 270 17:59 21.09.2021
5642 Clouds 26 1017 69 10000 1.34 229 16:40 21.09.2021
5643 Clouds 25 1017 72 10000 2.24 301 15:56 21.09.2021
5644 Clouds 26 1018 70 10000 2.24 252 14:58 21.09.2021
5645 Clouds 25 1018 70 10000 1.34 257 13:57 21.09.2021
5646 Clouds 25 1018 68 10000 1.34 292 13:39 21.09.2021
5647 Clouds 25 1019 70 10000 2.24 335 12:44 21.09.2021
5648 Clouds 24 1019 70 10000 5.62 16 10:39 21.09.2021
5649 Clouds 23 1018 79 10000 5.68 13 08:41 21.09.2021
5650 Clouds 23 1018 74 10000 6.07 11 07:37 21.09.2021
5651 Clouds 23 1020 72 10000 6.37 3 01:53 21.09.2021
5652 Clouds 24 1021 70 10000 6.61 9 22:42 20.09.2021
5653 Clouds 24 1020 72 10000 6.28 6 21:42 20.09.2021
5654 Clouds 24 1020 71 10000 6.13 7 21:20 20.09.2021
5655 Clouds 25 1019 65 10000 2.68 338 19:46 20.09.2021
5656 Clouds 26 1019 61 10000 2.24 320 17:54 20.09.2021
5657 Clouds 27 1020 59 10000 3.13 319 16:57 20.09.2021
5658 Clouds 27 1020 60 10000 3.13 309 15:57 20.09.2021
5659 Clouds 27 1020 54 10000 2.68 313 15:34 20.09.2021
5660 Clouds 28 1021 65 10000 5.36 14 14:26 20.09.2021
5661 Clouds 25 1021 59 10000 2.68 312 12:44 20.09.2021
5662 Clouds 25 1021 60 10000 2.24 315 12:21 20.09.2021
5663 Clouds 25 1021 60 10000 2.24 315 12:21 20.09.2021
5664 Clouds 24 1021 70 10000 1.34 318 10:36 20.09.2021
5665 Clouds 24 1020 71 10000 1.34 311 09:48 20.09.2021
5666 Clouds 23 1020 73 10000 2.24 323 09:29 20.09.2021
5667 Clouds 23 1020 79 10000 1.34 315 08:34 20.09.2021
5668 Clouds 23 1019 75 10000 1.34 282 06:21 20.09.2021
5669 Clouds 24 1021 75 10000 1.34 306 22:57 19.09.2021
5670 Clouds 24 1020 72 10000 0.89 261 21:48 19.09.2021
5671 Clouds 25 1019 71 10000 0.89 304 20:59 19.09.2021
5672 Clouds 25 1019 72 10000 1.34 249 19:54 19.09.2021
5673 Clouds 26 1019 70 10000 1.34 321 18:42 19.09.2021
5674 Clouds 26 1019 71 10000 0.89 261 17:42 19.09.2021
5675 Clouds 26 1019 73 10000 2.24 231 16:33 19.09.2021
5676 Clouds 26 1019 72 10000 1.34 211 15:31 19.09.2021
5677 Clouds 26 1019 72 10000 1.34 209 14:49 19.09.2021
5678 Clouds 25 1020 73 10000 1.34 225 13:52 19.09.2021
5679 Clouds 26 1020 77 10000 1.34 260 12:55 19.09.2021
5680 Clouds 26 1019 72 10000 2.24 223 11:46 19.09.2021
5681 Clouds 25 1019 76 10000 1.34 210 11:22 19.09.2021
5682 Clouds 23 1019 81 10000 0.89 315 09:51 19.09.2021
5683 Clouds 23 1018 78 10000 1.34 299 09:21 19.09.2021
5684 Clouds 23 1018 76 10000 1.34 287 06:48 19.09.2021
5685 Clouds 24 1019 82 10000 0.89 236 00:40 19.09.2021
5686 Clouds 24 1018 85 10000 0.89 315 22:54 18.09.2021
5687 Clouds 24 1018 82 10000 0.89 270 21:40 18.09.2021
5688 Clouds 25 1017 80 10000 0.89 286 20:46 18.09.2021
5689 Clouds 25 1017 76 10000 0.89 231 19:42 18.09.2021
5690 Clouds 25 1016 75 10000 1.34 264 19:21 18.09.2021
5691 Clouds 26 1017 77 10000 1.34 241 18:38 18.09.2021
5692 Clouds 25 1017 79 10000 1.34 248 17:59 18.09.2021
5693 Clouds 26 1017 76 10000 1.34 200 16:34 18.09.2021
5694 Clouds 27 1018 66 10000 2.68 213 13:51 18.09.2021
5695 Clouds 27 1018 64 10000 2.68 214 13:31 18.09.2021
5696 Clouds 26 1018 68 10000 2.24 212 12:51 18.09.2021
5697 Clouds 26 1018 71 10000 1.34 216 11:43 18.09.2021
5698 Clouds 24 1018 79 10000 1.34 242 10:38 18.09.2021
5699 Clouds 23 1017 82 10000 1.34 317 09:55 18.09.2021
5700 Clouds 23 1017 83 10000 1.34 301 09:22 18.09.2021
5701 Clouds 23 1017 83 10000 2.24 295 08:24 18.09.2021
5702 Clouds 24 1018 82 10000 0.89 285 00:42 18.09.2021
5703 Clouds 24 1018 81 10000 0.89 284 23:53 17.09.2021
5704 Clouds 25 1018 80 10000 0.89 286 22:43 17.09.2021
5705 Clouds 25 1018 80 10000 0.89 254 22:21 17.09.2021
5706 Clouds 25 1017 80 10000 0.89 319 21:31 17.09.2021
5707 Clouds 26 1016 76 10000 0.89 311 19:30 17.09.2021
5708 Clouds 26 1017 72 10000 1.34 264 17:57 17.09.2021
5709 Clouds 26 1017 70 10000 1.34 320 16:33 17.09.2021
5710 Clouds 27 1019 69 10000 2.68 188 14:32 17.09.2021
5711 Clouds 25 1019 72 10000 2.24 292 11:43 17.09.2021
5712 Clouds 23 1018 85 10000 2.24 317 09:40 17.09.2021
5713 Clouds 23 1018 84 10000 1.34 306 07:36 17.09.2021
5714 Clouds 24 1019 85 10000 0.89 295 04:25 17.09.2021
5715 Clouds 24 1020 85 10000 1.34 276 23:41 16.09.2021
5716 Clouds 24 1020 79 10000 1.34 327 22:41 16.09.2021
5717 Clouds 24 1020 77 10000 0.89 280 22:23 16.09.2021
5718 Clouds 25 1019 76 10000 0.89 306 21:27 16.09.2021
5719 Clouds 25 1019 76 10000 2.24 345 20:28 16.09.2021
5720 Clouds 27 1019 61 10000 3.58 320 18:28 16.09.2021
5721 Clouds 27 1019 65 10000 2.24 285 17:58 16.09.2021
5722 Clouds 27 1019 67 10000 2.24 256 15:24 16.09.2021
5723 Clouds 27 1020 69 10000 2.24 275 14:35 16.09.2021
5724 Clouds 26 1020 75 10000 2.24 300 12:59 16.09.2021
5725 Clouds 25 1020 77 10000 2.24 315 12:36 16.09.2021
5726 Clouds 25 1020 81 10000 2.24 298 11:44 16.09.2021
5727 Clouds 24 1020 84 10000 2.24 322 11:44 16.09.2021
5728 Clouds 24 1020 86 10000 2.68 324 10:34 16.09.2021
5729 Clouds 24 1019 81 10000 2.24 345 09:59 16.09.2021
5730 Clouds 23 1019 86 10000 2.24 334 08:43 16.09.2021
5731 Clouds 23 1019 86 10000 2.24 334 08:43 16.09.2021
5732 Clouds 23 1018 86 10000 2.24 353 07:43 16.09.2021
5733 Clouds 23 1018 86 10000 1.34 342 06:54 16.09.2021
5734 Clouds 23 1018 85 10000 2.24 347 05:57 16.09.2021
5735 Clouds 24 1019 84 10000 2.68 347 02:57 16.09.2021
5736 Clouds 24 1020 82 10000 2.24 344 00:45 16.09.2021
5737 Clouds 25 1019 79 10000 2.24 350 22:47 15.09.2021
5738 Clouds 25 1018 77 10000 2.24 353 21:56 15.09.2021
5739 Clouds 25 1018 76 10000 2.68 343 21:30 15.09.2021
5740 Clouds 25 1018 76 10000 2.68 343 21:30 15.09.2021
5741 Clouds 25 1018 76 10000 2.68 343 21:30 15.09.2021
5742 Clear 26 1018 69 10000 2.68 352 20:23 15.09.2021
5743 Clouds 26 1018 70 10000 2.24 348 19:29 15.09.2021
5744 Clouds 27 1017 65 10000 2.24 349 18:25 15.09.2021
5745 Clouds 28 1018 69 10000 2.68 29 17:26 15.09.2021
5746 Clouds 28 1018 63 10000 3.58 351 16:20 15.09.2021
5747 Clear 28 1019 57 10000 2.24 33 14:46 15.09.2021
5748 Clear 29 1019 56 10000 2.68 5 14:24 15.09.2021
5749 Clear 27 1019 65 10000 2.68 355 13:39 15.09.2021
5750 Clear 27 1019 66 10000 2.68 7 13:21 15.09.2021
5751 Clear 25 1019 77 10000 2.68 8 12:21 15.09.2021
5752 Clear 26 1019 71 10000 5.12 341 11:41 15.09.2021
5753 Clear 26 1019 74 10000 5.68 341 10:56 15.09.2021
5754 Clear 23 1018 78 10000 5.5 334 09:30 15.09.2021
5755 Clear 22 1017 80 10000 4.91 324 08:26 15.09.2021
5756 Clear 23 1017 77 10000 1.34 336 05:37 15.09.2021
5757 Clouds 24 1017 86 10000 1.34 345 23:54 14.09.2021
5758 Clouds 24 1016 89 10000 2.24 345 21:55 14.09.2021
5759 Clouds 25 1015 79 10000 2.68 331 20:55 14.09.2021
5760 Clouds 26 1015 74 10000 3.13 338 19:42 14.09.2021
5761 Clouds 26 1015 71 10000 2.24 342 17:45 14.09.2021
5762 Clouds 27 1015 70 10000 1.34 9 17:27 14.09.2021
5763 Clouds 26 1015 72 10000 1.34 344 15:37 14.09.2021
5764 Clouds 27 1015 69 10000 0.89 0 14:31 14.09.2021
5765 Clear 27 1015 66 10000 1.34 77 12:45 14.09.2021
5766 Clouds 26 1015 74 10000 2.68 351 10:55 14.09.2021
5767 Clouds 23 1014 76 10000 1.34 347 09:51 14.09.2021
5768 Clouds 22 1014 78 10000 1.34 301 08:48 14.09.2021
5769 Clear 22 1012 79 10000 0.89 280 06:38 14.09.2021
5770 Clouds 25 1014 81 10000 0.89 317 00:33 14.09.2021
5771 Clouds 25 1014 84 10000 0.89 18 22:53 13.09.2021
5772 Clouds 25 1013 84 10000 0.89 20 22:24 13.09.2021
5773 Clouds 25 1013 84 10000 0.89 8 21:51 13.09.2021
5774 Clouds 25 1013 80 10000 0.89 2 20:51 13.09.2021
5775 Clouds 25 1013 80 10000 0.89 8 19:22 13.09.2021
5776 Clouds 25 1013 81 10000 0.89 10 18:39 13.09.2021
5777 Clouds 26 1012 82 10000 0.89 2 16:51 13.09.2021
5778 Clouds 26 1013 81 10000 0.89 23 15:31 13.09.2021
5779 Clouds 27 1013 67 10000 0.89 71 12:54 13.09.2021
5780 Clouds 25 1012 72 10000 0.89 54 10:58 13.09.2021
5781 Clouds 22 1011 81 10000 1.34 299 09:40 13.09.2021
5782 Clear 23 1012 81 10000 0.89 279 04:59 13.09.2021
5783 Clouds 24 1014 89 10000 0.89 3 23:41 12.09.2021
5784 Clouds 25 1013 84 10000 0.89 10 22:25 12.09.2021
5785 Clouds 25 1013 84 10000 0.89 25 21:37 12.09.2021
5786 Clouds 27 1012 75 10000 0.89 19 20:29 12.09.2021
5787 Clouds 27 1012 74 10000 2.24 352 19:51 12.09.2021
5788 Clouds 27 1012 76 10000 1.34 84 19:19 12.09.2021
5789 Clouds 27 1012 76 10000 1.34 84 19:19 12.09.2021
5790 Clouds 27 1012 76 10000 0.89 29 18:20 12.09.2021
5791 Clouds 26 1013 79 10000 0.89 20 16:31 12.09.2021
5792 Clouds 25 1015 85 10000 0.89 10 14:54 12.09.2021
5793 Clouds 26 1016 80 10000 0.89 23 13:20 12.09.2021
5794 Clouds 25 1016 79 10000 0.89 45 11:31 12.09.2021
5795 Clouds 23 1015 86 10000 0.89 330 09:00 12.09.2021
5796 Clouds 23 1015 86 10000 0.89 325 08:37 12.09.2021
5797 Clouds 24 1015 85 10000 0.89 8 01:50 12.09.2021
5798 Clouds 24 1016 83 10000 0.89 5 23:20 11.09.2021
5799 Clouds 25 1016 83 10000 0.89 356 21:41 11.09.2021
5800 Clouds 26 1016 77 10000 1.34 4 20:21 11.09.2021
5801 Clouds 28 1015 73 10000 1.34 41 19:20 11.09.2021
5802 Clouds 27 1016 79 10000 1.34 81 17:29 11.09.2021
5803 Clouds 27 1016 78 10000 1.34 62 15:44 11.09.2021
5804 Clouds 26 1017 79 10000 2.24 205 13:33 11.09.2021
5805 Clouds 26 1017 79 10000 2.24 184 12:48 11.09.2021
5806 Clouds 25 1017 83 10000 1.34 199 11:18 11.09.2021
5807 Clouds 23 1018 75 10000 4.07 19 09:35 11.09.2021
5808 Clouds 23 1016 71 10000 1.34 219 07:44 11.09.2021
5809 Clouds 23 1016 59 10000 0.89 233 06:48 11.09.2021
5810 Clouds 24 1019 85 10000 2.68 326 23:23 10.09.2021
5811 Clouds 24 1018 83 10000 3.13 344 22:23 10.09.2021
5812 Clouds 25 1018 81 10000 2.68 337 21:48 10.09.2021
5813 Clouds 25 1018 76 10000 2.68 332 19:49 10.09.2021
5814 Clouds 27 1018 73 10000 3.13 353 18:20 10.09.2021
5815 Clouds 27 1017 74 10000 1.34 80 16:40 10.09.2021
5816 Clouds 26 1018 76 10000 2.24 74 13:54 10.09.2021
5817 Clouds 26 1018 76 10000 0.89 79 11:46 10.09.2021
5818 Clouds 23 1017 85 10000 2.68 343 08:29 10.09.2021
5819 Clouds 23 1017 85 10000 2.24 345 07:45 10.09.2021
5820 Clouds 24 1019 83 10000 2.68 353 00:42 10.09.2021
5821 Clear 25 1018 82 10000 2.68 351 22:24 09.09.2021
5822 Clear 25 1018 80 10000 2.68 346 21:28 09.09.2021
5823 Clear 25 1018 78 10000 2.68 338 20:42 09.09.2021
5824 Clouds 28 1018 70 10000 1.34 57 18:58 09.09.2021
5825 Clouds 27 1018 72 10000 0.89 21 17:56 09.09.2021
5826 Clouds 28 1018 69 10000 1.34 73 16:40 09.09.2021
5827 Clouds 28 1019 68 10000 2.24 84 15:27 09.09.2021
5828 Clouds 27 1020 71 10000 1.34 22 12:48 09.09.2021
5829 Clouds 26 1019 76 10000 2.24 64 11:33 09.09.2021
5830 Clouds 24 1018 84 10000 2.68 348 09:39 09.09.2021
5831 Clouds 24 1018 84 10000 2.24 353 08:32 09.09.2021
5832 Clouds 24 1018 83 10000 2.24 352 06:24 09.09.2021
5833 Clouds 24 1020 83 10000 2.24 358 01:31 09.09.2021
5834 Clouds 24 1020 83 10000 2.24 358 01:31 09.09.2021
5835 Clouds 24 1020 83 10000 2.24 358 01:31 09.09.2021
5836 Clouds 24 1020 83 10000 2.24 358 01:31 09.09.2021
5837 Clouds 24 1020 83 10000 2.24 358 01:31 09.09.2021
5838 Clear 25 1018 80 10000 2.68 345 22:34 08.09.2021
5839 Clear 26 1018 78 10000 2.68 345 20:57 08.09.2021
5840 Clear 27 1018 72 10000 3.13 338 19:48 08.09.2021
5841 Clear 28 1017 67 10000 2.24 16 18:49 08.09.2021
5842 Clear 28 1017 71 10000 1.34 32 18:27 08.09.2021
5843 Clear 28 1017 74 10000 1.34 25 17:52 08.09.2021
5844 Clear 28 1018 73 10000 1.34 66 16:24 08.09.2021
5845 Clouds 28 1019 68 10000 1.34 315 13:53 08.09.2021
5846 Clouds 27 1019 73 10000 1.34 42 12:42 08.09.2021
5847 Clouds 26 1019 75 10000 2.24 60 12:24 08.09.2021
5848 Clouds 25 1019 80 10000 0.89 325 11:26 08.09.2021
5849 Clouds 24 1018 82 10000 1.34 344 10:32 08.09.2021
5850 Clouds 24 1018 83 10000 2.24 45 09:57 08.09.2021
5851 Clouds 24 1018 84 10000 2.68 45 07:47 08.09.2021
5852 Clouds 24 1017 85 10000 2.68 42 07:19 08.09.2021
5853 Clouds 25 1018 81 10000 2.24 50 23:41 07.09.2021
5854 Clouds 25 1017 80 10000 1.34 51 22:19 07.09.2021
5855 Clouds 25 1017 80 10000 1.34 51 22:19 07.09.2021
5856 Clouds 26 1017 76 10000 2.68 45 20:45 07.09.2021
5857 Clouds 27 1016 72 10000 2.68 59 19:27 07.09.2021
5858 Clouds 28 1017 66 10000 2.24 302 18:37 07.09.2021
5859 Clouds 28 1017 66 10000 2.24 51 17:38 07.09.2021
5860 Clouds 30 1017 64 10000 1.34 45 15:57 07.09.2021
5861 Clouds 29 1017 67 10000 1.34 323 14:54 07.09.2021
5862 Clouds 28 1017 73 10000 2.24 302 13:52 07.09.2021
5863 Clouds 28 1018 76 10000 0.89 18 12:20 07.09.2021
5864 Clouds 25 1017 83 10000 0.89 356 10:59 07.09.2021
5865 Clouds 25 1017 83 10000 0.89 356 10:59 07.09.2021
5866 Clouds 25 1017 86 10000 0.89 356 10:18 07.09.2021
5867 Clouds 24 1015 84 10000 0.89 39 07:48 07.09.2021
5868 Clouds 25 1015 84 10000 2.24 46 06:31 07.09.2021
5869 Clouds 25 1017 79 10000 1.34 45 02:39 07.09.2021
5870 Clear 25 1017 77 10000 2.24 49 02:20 07.09.2021
5871 Clear 26 1017 71 10000 1.34 46 23:52 06.09.2021
5872 Clear 26 1017 69 10000 1.34 47 23:31 06.09.2021
5873 Clear 26 1016 68 10000 1.34 43 22:51 06.09.2021
5874 Clear 26 1016 68 10000 1.34 53 22:21 06.09.2021
5875 Clear 28 1015 65 10000 0.89 22 20:36 06.09.2021
5876 Clear 28 1015 74 10000 1.34 330 19:20 06.09.2021
5877 Clear 28 1015 75 10000 1.34 311 18:36 06.09.2021
5878 Clear 28 1015 71 10000 1.34 329 17:52 06.09.2021
5879 Clear 27 1016 76 10000 2.24 326 16:23 06.09.2021
5880 Clear 27 1016 71 10000 1.34 321 14:59 06.09.2021
5881 Clear 27 1016 71 10000 0.89 340 13:44 06.09.2021
5882 Clear 26 1016 73 10000 0.89 11 12:41 06.09.2021
5883 Clear 25 1014 67 10000 0.89 10 10:36 06.09.2021
5884 Clear 22 1013 76 10000 0.89 41 07:39 06.09.2021
5885 Clear 23 1014 78 10000 0.89 320 04:27 06.09.2021
5886 Clear 25 1015 75 10000 0.89 0 23:23 05.09.2021
5887 Clear 25 1014 81 10000 0.89 19 22:33 05.09.2021
5888 Clear 25 1014 82 10000 0.89 1 21:56 05.09.2021
5889 Clear 25 1013 81 10000 0.89 0 21:20 05.09.2021
5890 Clear 26 1013 74 10000 1.34 326 19:45 05.09.2021
5891 Clear 26 1013 73 10000 1.34 320 17:52 05.09.2021
5892 Clear 27 1014 72 10000 1.34 335 15:58 05.09.2021
5893 Clear 26 1014 72 10000 2.24 321 15:20 05.09.2021
5894 Clear 25 1015 80 10000 1.34 326 12:44 05.09.2021
5895 Clear 25 1015 79 10000 0.89 32 11:35 05.09.2021
5896 Clear 25 1014 77 10000 1.34 64 10:40 05.09.2021
5897 Clear 23 1013 81 10000 0.89 16 09:33 05.09.2021
5898 Clear 23 1013 80 10000 0.89 32 08:31 05.09.2021
5899 Clear 23 1013 78 10000 0.89 347 03:52 05.09.2021
5900 Clouds 23 1014 88 10000 0.89 343 00:39 05.09.2021
5901 Clouds 23 1014 87 10000 0.89 337 23:55 04.09.2021
5902 Clouds 23 1014 87 10000 0.89 1 23:22 04.09.2021
5903 Clouds 24 1013 86 10000 0.89 354 22:34 04.09.2021
5904 Clouds 24 1013 86 10000 0.89 354 22:34 04.09.2021
5905 Clouds 25 1013 79 10000 0.89 344 20:21 04.09.2021
5906 Clouds 25 1013 78 10000 0.89 344 19:33 04.09.2021
5907 Clouds 26 1013 74 10000 1.34 291 17:25 04.09.2021
5908 Clouds 26 1014 74 10000 2.24 326 14:37 04.09.2021
5909 Clouds 24 1015 75 10000 0.89 18 11:26 04.09.2021
5910 Clouds 24 1014 76 10000 0.89 45 10:32 04.09.2021
5911 Clouds 23 1014 84 10000 0.89 0 07:32 04.09.2021
5912 Clouds 23 1016 83 10000 0.89 27 00:49 04.09.2021
5913 Clouds 23 1016 83 10000 0.89 27 00:49 04.09.2021
5914 Clouds 24 1017 82 10000 0.89 334 23:49 03.09.2021
5915 Clouds 23 1016 82 10000 0.89 9 23:20 03.09.2021
5916 Clouds 24 1015 82 10000 0.89 10 21:43 03.09.2021
5917 Clouds 25 1016 80 10000 0.89 298 20:54 03.09.2021
5918 Clouds 25 1015 78 10000 1.34 286 20:24 03.09.2021
5919 Clouds 26 1016 77 10000 1.34 309 19:33 03.09.2021
5920 Clouds 26 1015 74 10000 1.34 292 18:21 03.09.2021
5921 Clear 27 1016 72 10000 1.34 317 16:47 03.09.2021
5922 Clear 26 1017 72 10000 2.24 331 15:38 03.09.2021
5923 Clouds 25 1018 74 10000 2.24 319 13:48 03.09.2021
5924 Clouds 25 1017 78 10000 0.89 37 11:21 03.09.2021
5925 Clouds 23 1017 86 10000 0.89 21 09:21 03.09.2021
5926 Clouds 23 1017 84 10000 0.89 353 08:18 03.09.2021
5927 Clouds 23 1017 81 10000 0.89 34 06:48 03.09.2021
5928 Clouds 24 1018 81 10000 0.89 45 23:56 02.09.2021
5929 Clouds 24 1018 79 10000 2.24 45 21:55 02.09.2021
5930 Clouds 25 1017 79 10000 1.34 299 20:40 02.09.2021
5931 Clear 27 1017 76 10000 0.89 330 17:41 02.09.2021
5932 Clear 27 1018 77 10000 2.24 318 16:20 02.09.2021
5933 Clouds 27 1018 72 10000 1.34 354 15:30 02.09.2021
5934 Clouds 27 1019 76 10000 2.24 324 13:28 02.09.2021
5935 Clouds 27 1019 66 10000 1.34 55 11:43 02.09.2021
5936 Clouds 26 1018 71 10000 2.24 62 10:53 02.09.2021
5937 Clouds 23 1018 81 10000 1.34 29 08:57 02.09.2021
5938 Clouds 24 1018 80 10000 0.89 19 07:22 02.09.2021
5939 Clouds 24 1017 85 10000 0.89 36 05:31 02.09.2021
5940 Clouds 24 1018 81 10000 1.34 45 02:35 02.09.2021
5941 Clouds 25 1018 81 10000 2.68 45 01:48 02.09.2021
5942 Clouds 25 1018 75 10000 1.34 47 23:41 01.09.2021
5943 Clouds 25 1018 78 10000 2.24 49 22:42 01.09.2021
5944 Clouds 25 1018 79 10000 1.34 45 21:46 01.09.2021
5945 Clouds 26 1018 76 10000 2.24 35 20:54 01.09.2021
5946 Clouds 27 1017 73 10000 2.68 62 19:24 01.09.2021
5947 Clouds 28 1018 69 10000 2.24 6 17:51 01.09.2021
5948 Clouds 28 1018 77 10000 3.83 6 16:55 01.09.2021
5949 Clouds 27 1018 77 10000 2.9 14 16:33 01.09.2021
5950 Clear 28 1018 69 10000 2.68 320 13:57 01.09.2021
5951 Clear 27 1018 71 10000 2.68 64 11:47 01.09.2021
5952 Clear 24 1018 77 10000 2.24 43 09:35 01.09.2021
5953 Clear 24 1017 77 10000 1.34 35 07:57 01.09.2021
5954 Clear 24 1017 75 10000 1.34 41 06:42 01.09.2021
5955 Clouds 24 1018 77 10000 0.89 45 23:20 31.08.2021
5956 Clouds 25 1017 74 10000 2.24 45 21:41 31.08.2021
5957 Clouds 27 1016 66 10000 2.68 56 19:49 31.08.2021
5958 Clouds 27 1016 66 10000 2.24 62 18:56 31.08.2021
5959 Clouds 28 1016 63 10000 2.24 35 17:39 31.08.2021
5960 Clouds 28 1016 65 10000 1.79 341 17:21 31.08.2021
5961 Clouds 28 1017 80 10000 5.12 354 16:24 31.08.2021
5962 Clouds 28 1017 64 10000 2.68 69 14:28 31.08.2021
5963 Clouds 25 1017 78 10000 1.34 3 11:36 31.08.2021
5964 Clouds 25 1017 81 10000 1.34 22 10:56 31.08.2021
5965 Clouds 24 1017 78 10000 2.24 71 10:22 31.08.2021
5966 Clouds 24 1016 82 10000 0.89 20 09:40 31.08.2021
5967 Clouds 23 1016 83 10000 0.89 356 07:39 31.08.2021
5968 Clouds 23 1016 87 10000 0.89 38 05:55 31.08.2021
5969 Clouds 24 1017 83 10000 1.34 52 23:35 30.08.2021
5970 Clouds 25 1015 80 10000 2.24 50 21:53 30.08.2021
5971 Clouds 25 1015 79 10000 1.79 55 21:35 30.08.2021
5972 Clouds 25 1015 79 10000 1.79 55 21:35 30.08.2021
5973 Clouds 26 1015 75 10000 1.79 53 20:35 30.08.2021
5974 Clear 27 1015 70 10000 2.24 270 19:32 30.08.2021
5975 Clear 27 1015 68 10000 2.68 265 18:57 30.08.2021
5976 Clear 27 1015 65 10000 2.68 256 17:48 30.08.2021
5977 Clear 27 1015 71 10000 3.13 249 16:26 30.08.2021
5978 Clear 26 1016 70 10000 2.68 266 15:40 30.08.2021
5979 Clouds 26 1017 69 10000 2.68 250 13:51 30.08.2021
5980 Clouds 26 1017 71 10000 2.24 239 12:49 30.08.2021
5981 Clouds 24 1017 80 10000 1.34 27 10:41 30.08.2021
5982 Clouds 23 1017 81 10000 0.89 45 02:37 30.08.2021
5983 Clear 24 1016 76 10000 1.34 49 21:33 29.08.2021
5984 Clear 25 1016 72 10000 2.24 29 20:34 29.08.2021
5985 Clear 26 1016 67 10000 2.24 270 19:20 29.08.2021
5986 Clear 27 1017 66 10000 2.24 281 17:58 29.08.2021
5987 Clear 25 1018 75 10000 2.68 273 15:50 29.08.2021
5988 Clouds 26 1018 72 10000 2.68 257 14:25 29.08.2021
5989 Clouds 26 1019 75 10000 2.68 255 13:44 29.08.2021
5990 Clouds 26 1019 73 10000 2.68 239 12:41 29.08.2021
5991 Clouds 25 1018 71 10000 2.24 168 11:51 29.08.2021
5992 Clouds 25 1018 73 10000 1.34 216 11:27 29.08.2021
5993 Clouds 24 1018 81 10000 2.24 82 10:46 29.08.2021
5994 Clouds 23 1018 83 10000 0.89 30 10:26 29.08.2021
5995 Clouds 22 1018 88 10000 4.21 9 08:58 29.08.2021
5996 Clear 24 1020 85 10000 4 4 00:40 29.08.2021
5997 Clear 25 1019 83 10000 3.78 12 21:58 28.08.2021
5998 Clear 26 1018 76 10000 4.25 17 20:29 28.08.2021
5999 Clear 28 1018 75 10000 4.17 12 18:43 28.08.2021
6000 Clear 28 1018 73 10000 4.06 12 18:20 28.08.2021
6001 Clear 29 1018 72 10000 3.91 20 17:20 28.08.2021
6002 Clouds 27 1019 72 10000 3.62 31 15:46 28.08.2021
6003 Clouds 26 1020 73 10000 3.42 41 14:42 28.08.2021
6004 Clouds 27 1020 76 10000 4.3 18 13:46 28.08.2021
6005 Clouds 26 1020 75 10000 4.17 17 12:44 28.08.2021
6006 Clouds 26 1019 75 10000 4.29 8 11:55 28.08.2021
6007 Clouds 25 1019 77 10000 4.1 5 10:42 28.08.2021
6008 Clouds 24 1018 82 10000 3.46 7 08:41 28.08.2021
6009 Clear 24 1017 81 10000 3.69 8 07:24 28.08.2021
6010 Clear 25 1019 83 10000 3.55 23 22:30 27.08.2021
6011 Clear 26 1018 80 10000 4.22 25 20:59 27.08.2021
6012 Clear 27 1018 80 10000 4.22 25 20:30 27.08.2021
6013 Clear 27 1017 74 10000 4.52 27 18:58 27.08.2021
6014 Clear 27 1017 74 10000 4.52 27 18:37 27.08.2021
6015 Clear 28 1017 74 10000 4.59 36 17:18 27.08.2021
6016 Clear 28 1018 73 10000 4.62 39 15:46 27.08.2021
6017 Clear 27 1018 71 10000 4.55 34 14:43 27.08.2021
6018 Clouds 25 1018 73 10000 4.27 35 12:33 27.08.2021
6019 Clouds 24 1017 77 10000 4.32 30 11:25 27.08.2021
6020 Clouds 24 1017 77 10000 4.32 30 10:43 27.08.2021
6021 Clouds 22 1017 82 10000 4.5 24 09:31 27.08.2021
6022 Clouds 22 1016 85 10000 4.36 25 08:44 27.08.2021
6023 Clouds 23 1015 85 10000 4.59 28 06:37 27.08.2021
6024 Clouds 23 1016 85 10000 3.72 28 03:48 27.08.2021
6025 Clouds 23 1017 83 10000 4.28 17 00:33 27.08.2021
6026 Clouds 23 1017 84 10000 4.03 14 22:41 26.08.2021
6027 Clouds 24 1016 83 10000 4.47 10 22:18 26.08.2021
6028 Clear 25 1016 79 10000 5.03 10 20:35 26.08.2021
6029 Clear 26 1015 71 10000 4.53 20 18:50 26.08.2021
6030 Clear 26 1015 70 10000 4.37 28 17:44 26.08.2021
6031 Clear 26 1015 70 10000 4.27 35 16:33 26.08.2021
6032 Clear 26 1015 70 10000 4.36 37 15:54 26.08.2021
6033 Clouds 25 1016 70 10000 4.14 36 13:44 26.08.2021
6034 Clouds 25 1016 72 10000 4.1 33 12:50 26.08.2021
6035 Clouds 25 1016 76 10000 4.11 30 12:24 26.08.2021
6036 Clouds 22 1015 81 10000 4.54 31 09:43 26.08.2021
6037 Clouds 22 1015 82 10000 4.58 24 08:34 26.08.2021
6038 Clouds 22 1015 80 10000 4.58 8 03:27 26.08.2021
6039 Clouds 23 1015 80 10000 5.36 5 22:49 25.08.2021
6040 Clouds 24 1015 80 10000 5.36 5 22:30 25.08.2021
6041 Clear 24 1014 77 10000 5.45 6 21:29 25.08.2021
6042 Clear 25 1014 77 10000 5.45 6 20:46 25.08.2021
6043 Clouds 26 1014 72 10000 5.35 9 20:26 25.08.2021
6044 Clouds 26 1014 72 10000 5.35 9 18:42 25.08.2021
6045 Clouds 26 1014 70 10000 4.97 15 17:29 25.08.2021
6046 Clouds 27 1015 70 10000 5.04 14 15:43 25.08.2021
6047 Clouds 27 1016 70 10000 4.99 17 14:47 25.08.2021
6048 Clouds 26 1016 71 10000 4.76 23 14:18 25.08.2021
6049 Clouds 25 1016 71 10000 4.88 24 12:55 25.08.2021
6050 Clouds 24 1016 75 10000 5.42 12 11:26 25.08.2021
6051 Clouds 24 1016 75 10000 5.42 12 11:26 25.08.2021
6052 Clouds 23 1016 75 10000 5.42 12 10:30 25.08.2021
6053 Clouds 23 1015 77 10000 5.67 12 09:51 25.08.2021
6054 Clouds 23 1015 78 10000 5.52 12 08:41 25.08.2021
6055 Clouds 22 1015 80 10000 5.05 14 07:44 25.08.2021
6056 Clouds 23 1016 79 10000 6.32 12 03:28 25.08.2021
6057 Clouds 23 1017 78 10000 6.92 7 23:42 24.08.2021
6058 Clouds 24 1017 79 10000 6.96 7 21:48 24.08.2021
6059 Clouds 25 1016 78 10000 6.98 6 20:46 24.08.2021
6060 Clouds 25 1016 76 10000 6.78 4 19:45 24.08.2021
6061 Clouds 27 1016 76 10000 6.35 2 17:58 24.08.2021
6062 Clouds 27 1016 76 10000 5.99 6 17:26 24.08.2021
6063 Clouds 27 1016 76 10000 5.99 6 16:41 24.08.2021
6064 Clouds 26 1018 76 10000 5.33 15 14:25 24.08.2021
6065 Clouds 25 1018 77 10000 5.21 17 13:24 24.08.2021
6066 Clouds 24 1017 79 10000 5.94 8 11:26 24.08.2021
6067 Clouds 23 1017 79 10000 5.94 8 10:48 24.08.2021
6068 Clouds 22 1017 82 10000 6.23 3 10:25 24.08.2021
6069 Clouds 23 1017 84 10000 6.26 2 08:49 24.08.2021
6070 Clouds 23 1016 83 10000 6.15 4 06:36 24.08.2021
6071 Clouds 23 1017 83 10000 6.41 7 04:40 24.08.2021
6072 Clouds 24 1018 84 10000 6.74 5 00:28 24.08.2021
6073 Clouds 24 1018 83 10000 6.97 4 22:51 23.08.2021
6074 Clouds 24 1018 82 10000 7.19 4 21:54 23.08.2021
6075 Clouds 26 1017 78 10000 6.53 8 20:27 23.08.2021
6076 Clouds 27 1017 79 10000 6.42 6 18:50 23.08.2021
6077 Clouds 27 1017 76 10000 6.41 4 16:35 23.08.2021
6078 Clouds 26 1018 73 10000 6.38 1 13:58 23.08.2021
6079 Clouds 26 1018 73 10000 6.04 359 12:35 23.08.2021
6080 Clouds 25 1018 75 10000 5.9 357 11:48 23.08.2021
6081 Clouds 23 1018 78 10000 5.84 358 10:36 23.08.2021
6082 Clouds 22 1018 84 10000 5.57 3 09:24 23.08.2021
6083 Clouds 22 1018 85 10000 5.61 7 07:58 23.08.2021
6084 Clouds 22 1017 85 10000 5.74 6 06:48 23.08.2021
6085 Clouds 22 1018 86 10000 5.7 9 04:51 23.08.2021
6086 Clear 22 1020 83 10000 5.19 1 00:50 23.08.2021
6087 Clear 23 1020 81 10000 5.08 1 22:44 22.08.2021
6088 Clear 23 1019 81 10000 5.41 3 21:58 22.08.2021
6089 Clear 23 1019 81 10000 5.41 3 21:58 22.08.2021
6090 Clouds 25 1018 75 10000 5.64 8 20:21 22.08.2021
6091 Clear 25 1018 69 10000 5.28 11 18:54 22.08.2021
6092 Clear 26 1019 69 10000 5.08 23 16:27 22.08.2021
6093 Clear 26 1020 69 10000 4.96 28 14:55 22.08.2021
6094 Clear 25 1020 69 10000 4.96 28 14:34 22.08.2021
6095 Clouds 24 1020 69 10000 5.01 23 13:20 22.08.2021
6096 Clouds 25 1020 69 10000 5.01 23 12:50 22.08.2021
6097 Clouds 23 1020 69 10000 4.45 26 11:55 22.08.2021
6098 Clouds 23 1020 69 10000 4.45 26 11:33 22.08.2021
6099 Clouds 22 1020 74 10000 3.83 29 09:59 22.08.2021
6100 Clouds 21 1019 77 10000 3.79 28 07:59 22.08.2021
6101 Clouds 22 1019 76 10000 3.78 26 04:46 22.08.2021
6102 Clear 23 1021 77 10000 3.98 29 22:49 21.08.2021
6103 Clear 23 1020 78 10000 4.05 24 22:25 21.08.2021
6104 Clouds 24 1019 72 10000 4.47 38 19:22 21.08.2021
6105 Clouds 25 1019 72 10000 4.47 38 18:39 21.08.2021
6106 Clouds 25 1018 70 10000 4.65 40 17:48 21.08.2021
6107 Clouds 25 1019 69 10000 4.64 42 16:50 21.08.2021
6108 Clouds 26 1019 69 10000 4.63 48 15:51 21.08.2021
6109 Clouds 26 1019 68 10000 4.6 48 15:26 21.08.2021
6110 Clouds 26 1019 68 10000 4.62 48 15:26 21.08.2021
6111 Clear 25 1020 68 10000 4.56 49 14:20 21.08.2021
6112 Clouds 24 1020 68 10000 4.24 52 12:41 21.08.2021
6113 Clouds 24 1020 68 10000 4.24 50 12:22 21.08.2021
6114 Clouds 22 1018 76 10000 3.88 44 09:20 21.08.2021
6115 Clouds 23 1018 74 10000 3 36 00:54 21.08.2021
6116 Clear 23 1017 76 10000 3.36 28 22:33 20.08.2021
6117 Clouds 24 1016 74 10000 3.84 36 20:47 20.08.2021
6118 Clouds 26 1015 66 10000 4.65 27 17:46 20.08.2021
6119 Clear 26 1016 64 10000 4.48 32 15:42 20.08.2021
6120 Clear 25 1017 66 10000 3.48 54 13:21 20.08.2021
6121 Clear 24 1017 66 10000 3.28 56 11:30 20.08.2021
6122 Clear 25 1016 67 10000 3.05 60 10:31 20.08.2021
6123 Clouds 23 1016 74 10000 3.39 33 09:28 20.08.2021
6124 Clouds 23 1016 74 10000 3.39 33 08:37 20.08.2021
6125 Clear 24 1015 69 10000 3.73 4 04:47 20.08.2021
6126 Clear 24 1015 69 10000 3.68 5 04:20 20.08.2021
6127 Clear 24 1016 72 10000 3.9 355 23:51 19.08.2021
6128 Clear 27 1016 72 10000 4.1 358 22:38 19.08.2021
6129 Clear 28 1015 72 10000 4.34 1 21:57 19.08.2021
6130 Clear 30 1015 66 10000 4.27 21 20:21 19.08.2021
6131 Clear 31 1015 65 10000 4.37 22 18:56 19.08.2021
6132 Clear 31 1015 63 10000 4.71 19 16:58 19.08.2021
6133 Clear 31 1016 63 10000 4.73 17 15:38 19.08.2021
6134 Clear 28 1017 64 10000 5 2 13:18 19.08.2021
6135 Clear 26 1016 64 10000 4.93 356 12:29 19.08.2021
6136 Clear 24 1016 65 10000 4.91 353 10:56 19.08.2021
6137 Clear 23 1016 66 10000 5.11 346 09:49 19.08.2021
6138 Clear 23 1016 69 10000 5.21 342 09:29 19.08.2021
6139 Clear 23 1016 69 10000 5.21 342 08:33 19.08.2021
6140 Clear 27 1015 68 10000 5.11 344 05:39 19.08.2021
6141 Clear 29 1018 69 10000 5.2 346 02:20 19.08.2021
6142 Clear 30 1018 68 10000 4.42 343 23:30 18.08.2021
6143 Clear 30 1018 71 10000 4.61 345 22:38 18.08.2021
6144 Clear 30 1017 70 10000 4.95 348 21:34 18.08.2021
6145 Clear 31 1017 66 10000 5.75 352 20:20 18.08.2021
6146 Clear 32 1017 62 10000 5.7 353 19:26 18.08.2021
6147 Clear 35 1017 62 10000 5.7 353 18:34 18.08.2021
6148 Clear 35 1017 60 10000 5.28 350 17:24 18.08.2021
6149 Clear 35 1018 60 10000 5.35 348 15:41 18.08.2021
6150 Clear 35 1018 60 10000 5.39 346 15:21 18.08.2021
6151 Clear 34 1018 58 10000 4.72 341 13:25 18.08.2021
6152 Clear 33 1018 58 10000 4.72 341 12:39 18.08.2021
6153 Clear 33 1018 59 10000 4.56 338 12:21 18.08.2021
6154 Clear 29 1018 62 10000 3.74 332 08:50 18.08.2021
6155 Clear 30 1018 62 10000 3.26 328 02:37 18.08.2021
6156 Clear 28 1018 60 10000 3.69 330 22:40 17.08.2021
6157 Clear 28 1017 61 10000 3.83 334 21:59 17.08.2021
6158 Clear 29 1017 61 10000 4.21 343 21:22 17.08.2021
6159 Clear 30 1017 61 10000 4.21 343 20:42 17.08.2021
6160 Clear 32 1016 62 10000 5.24 352 17:54 17.08.2021
6161 Clear 32 1017 61 10000 5.33 352 17:26 17.08.2021
6162 Clear 32 1017 61 10000 4.89 348 15:54 17.08.2021
6163 Clear 32 1017 61 10000 4.89 348 15:35 17.08.2021
6164 Clear 32 1018 59 10000 4.17 342 12:45 17.08.2021
6165 Clear 32 1017 58 10000 3.79 336 10:40 17.08.2021
6166 Clear 33 1016 64 10000 4.37 333 09:19 17.08.2021
6167 Clouds 27 1015 60 10000 4.66 332 07:24 17.08.2021
6168 Clear 28 1016 71 10000 3.97 334 23:25 16.08.2021
6169 Clear 28 1016 71 10000 3.97 334 22:53 16.08.2021
6170 Clear 28 1016 71 10000 3.97 334 22:35 16.08.2021
6171 Clear 27 1015 70 10000 4.95 334 21:46 16.08.2021
6172 Clear 28 1014 69 10000 5.24 339 20:51 16.08.2021
6173 Clouds 30 1014 66 10000 5.93 346 19:29 16.08.2021
6174 Clouds 32 1014 67 10000 5.87 347 18:26 16.08.2021
6175 Clouds 32 1014 67 10000 5.87 347 18:26 16.08.2021
6176 Clouds 31 1014 67 10000 5.87 347 17:54 16.08.2021
6177 Clouds 32 1015 65 10000 5.62 345 16:29 16.08.2021
6178 Clouds 34 1015 64 10000 5.37 344 15:23 16.08.2021
6179 Clouds 33 1015 64 10000 4.79 338 13:55 16.08.2021
6180 Clear 31 1015 64 10000 4.74 340 12:59 16.08.2021
6181 Clear 31 1015 63 10000 4.91 338 12:24 16.08.2021
6182 Clear 27 1014 65 10000 5.04 336 09:33 16.08.2021
6183 Clear 26 1014 65 10000 4.41 334 08:43 16.08.2021
6184 Clouds 30 1014 63 10000 3.34 329 07:30 16.08.2021
6185 Clouds 33 1014 62 10000 3.67 339 05:56 16.08.2021
6186 Clear 26 1015 65 10000 4.67 335 01:21 16.08.2021
6187 Clear 30 1014 65 10000 4.19 337 21:34 15.08.2021
6188 Clouds 32 1013 69 10000 4.99 339 19:41 15.08.2021
6189 Clouds 31 1013 69 10000 4.63 346 18:41 15.08.2021
6190 Clouds 30 1013 68 9367 4.64 350 17:49 15.08.2021
6191 Clouds 29 1013 68 10000 4.19 346 16:43 15.08.2021
6192 Clouds 27 1014 70 10000 4.18 356 15:35 15.08.2021
6193 Clouds 27 1014 68 10000 4.79 6 14:36 15.08.2021
6194 Clouds 26 1014 66 9750 4.44 9 13:34 15.08.2021
6195 Clouds 23 1014 70 10000 4.31 359 10:50 15.08.2021
6196 Clouds 22 1014 75 10000 4.33 350 08:34 15.08.2021
6197 Clouds 23 1015 81 10000 6.43 343 01:22 15.08.2021
6198 Clouds 23 1015 81 10000 6.43 343 00:32 15.08.2021
6199 Clouds 24 1015 81 10000 5.91 357 21:26 14.08.2021
6200 Clouds 25 1015 79 10000 5.94 5 20:28 14.08.2021
6201 Clouds 25 1015 79 10000 5.66 358 19:31 14.08.2021
6202 Clouds 26 1015 76 10000 5.75 1 18:23 14.08.2021
6203 Clouds 27 1016 75 10000 5.59 358 16:39 14.08.2021
6204 Clouds 28 1016 76 10000 5.39 3 15:34 14.08.2021
6205 Clouds 26 1017 74 10000 4.69 9 13:35 14.08.2021
6206 Clouds 24 1017 75 10000 5.16 1 10:57 14.08.2021
6207 Clouds 22 1017 76 10000 5.17 352 09:43 14.08.2021
6208 Clouds 22 1016 85 10000 5.82 4 04:52 14.08.2021
6209 Clouds 23 1018 82 10000 5.77 1 23:51 13.08.2021
6210 Clouds 23 1017 79 10000 5.08 356 21:51 13.08.2021
6211 Clouds 25 1017 74 10000 5.29 4 20:22 13.08.2021
6212 Clouds 26 1017 73 10000 5.42 8 18:45 13.08.2021
6213 Clouds 25 1018 76 10000 5.5 16 17:18 13.08.2021
6214 Clouds 26 1018 76 10000 5.77 23 15:53 13.08.2021
6215 Clouds 25 1019 77 10000 5.95 16 11:55 13.08.2021
6216 Clouds 24 1018 78 10000 5.69 15 11:18 13.08.2021
6217 Clouds 22 1018 81 10000 4.77 7 08:40 13.08.2021
6218 Clouds 22 1017 82 10000 4.71 10 07:48 13.08.2021
6219 Clouds 22 1017 82 10000 4.45 12 06:32 13.08.2021
6220 Clouds 23 1019 85 10000 4.13 26 00:27 13.08.2021
6221 Clear 23 1018 84 10000 4.48 24 21:51 12.08.2021
6222 Clear 25 1018 80 10000 4.53 21 20:35 12.08.2021
6223 Clouds 25 1017 78 10000 5.24 19 19:50 12.08.2021
6224 Clouds 25 1017 75 10000 4.88 25 18:29 12.08.2021
6225 Clouds 25 1018 73 10000 4.95 25 16:50 12.08.2021
6226 Clouds 25 1018 73 10000 4.95 25 16:50 12.08.2021
6227 Clouds 25 1018 73 10000 4.63 30 15:39 12.08.2021
6228 Clouds 26 1019 72 10000 4.42 26 13:52 12.08.2021
6229 Clouds 24 1019 73 10000 4.38 26 11:38 12.08.2021
6230 Clouds 22 1018 77 10000 4.59 24 08:59 12.08.2021
6231 Clouds 22 1018 77 10000 4.85 24 07:30 12.08.2021
6232 Clear 23 1019 78 10000 5.37 3 23:21 11.08.2021
6233 Clouds 24 1019 76 10000 5.32 2 21:44 11.08.2021
6234 Clear 26 1018 68 10000 4.31 4 18:55 11.08.2021
6235 Clear 25 1018 68 10000 4.06 11 18:24 11.08.2021
6236 Clear 25 1019 68 10000 4 28 15:36 11.08.2021
6237 Clear 25 1019 69 10000 3.95 34 15:18 11.08.2021
6238 Clouds 24 1019 71 10000 4.09 39 12:57 11.08.2021
6239 Clouds 24 1019 74 10000 3.84 37 12:29 11.08.2021
6240 Clouds 23 1019 74 10000 3.84 37 11:42 11.08.2021
6241 Clouds 23 1019 78 10000 3.94 37 11:21 11.08.2021
6242 Clouds 23 1019 85 10000 3.8 24 08:53 11.08.2021
6243 Clouds 23 1018 79 10000 5.03 7 04:58 11.08.2021
6244 Clouds 24 1019 77 10000 4.92 344 22:33 10.08.2021
6245 Clear 24 1019 76 10000 5.04 343 21:50 10.08.2021
6246 Clear 25 1019 73 10000 5.19 347 20:51 10.08.2021
6247 Clear 26 1018 66 10000 4.92 5 19:27 10.08.2021
6248 Clouds 26 1018 64 10000 4.85 7 17:33 10.08.2021
6249 Clouds 26 1019 63 10000 5.25 354 15:37 10.08.2021
6250 Clouds 26 1019 63 10000 5.18 353 14:40 10.08.2021
6251 Clouds 23 1019 68 10000 5.75 358 10:53 10.08.2021
6252 Clouds 21 1019 71 10000 5.86 356 09:33 10.08.2021
6253 Clouds 22 1018 74 10000 6.98 356 05:27 10.08.2021
6254 Clouds 22 1020 73 10000 6.37 355 00:45 10.08.2021
6255 Clouds 22 1020 73 10000 6.16 354 23:34 09.08.2021
6256 Clear 24 1019 73 10000 6.19 353 21:53 09.08.2021
6257 Clear 24 1019 71 10000 5.84 351 21:26 09.08.2021
6258 Clouds 25 1019 69 10000 6.1 355 18:47 09.08.2021
6259 Clouds 26 1019 67 10000 5.87 357 16:36 09.08.2021
6260 Clouds 26 1020 69 10000 5.89 5 14:37 09.08.2021
6261 Clouds 26 1020 71 10000 6.07 8 13:30 09.08.2021
6262 Clouds 25 1020 72 10000 6.83 5 11:48 09.08.2021
6263 Clouds 25 1020 72 10000 6.83 5 11:48 09.08.2021
6264 Clouds 21 1019 76 10000 7.07 1 09:44 09.08.2021
6265 Clouds 22 1018 82 10000 6.72 358 08:22 09.08.2021
6266 Clouds 25 1019 83 10000 5.38 13 21:32 08.08.2021
6267 Clear 26 1018 81 10000 5.35 15 20:54 08.08.2021
6268 Clouds 26 1018 76 10000 5.21 19 17:43 08.08.2021
6269 Clouds 26 1018 76 10000 5.03 23 16:38 08.08.2021
6270 Clouds 25 1019 78 10000 5.54 26 14:34 08.08.2021
6271 Clouds 25 1019 78 10000 5.49 33 12:47 08.08.2021
6272 Clouds 23 1019 81 10000 4.66 37 10:37 08.08.2021
6273 Clouds 23 1017 82 10000 4.99 7 06:42 08.08.2021
6274 Clouds 23 1017 83 10000 4.21 353 03:40 08.08.2021
6275 Clouds 23 1019 81 10000 5.99 15 00:25 08.08.2021
6276 Clouds 24 1018 80 10000 6.29 11 21:47 07.08.2021
6277 Clouds 24 1018 80 10000 6.29 11 21:47 07.08.2021
6278 Clouds 24 1018 80 10000 6.29 11 21:47 07.08.2021
6279 Clouds 24 1017 79 10000 6.3 10 21:19 07.08.2021
6280 Clouds 26 1017 76 10000 4.79 17 18:22 07.08.2021
6281 Clouds 27 1017 76 10000 5.01 19 16:52 07.08.2021
6282 Clear 26 1017 76 10000 5.42 18 15:36 07.08.2021
6283 Clouds 26 1018 76 10000 5.59 9 13:53 07.08.2021
6284 Clouds 23 1018 77 10000 4.81 359 11:37 07.08.2021
6285 Clouds 21 1017 85 10000 5.13 3 07:52 07.08.2021
6286 Clouds 22 1017 87 10000 5.46 4 04:45 07.08.2021
6287 Clouds 23 1018 85 10000 4.73 351 22:51 06.08.2021
6288 Clouds 25 1017 81 10000 5.94 357 20:36 06.08.2021
6289 Clouds 25 1017 81 10000 5.94 357 20:36 06.08.2021
6290 Clouds 26 1017 80 10000 6.15 357 19:59 06.08.2021
6291 Clouds 26 1016 79 10000 6.09 359 19:37 06.08.2021
6292 Clouds 26 1016 79 10000 6.09 359 19:37 06.08.2021
6293 Clouds 26 1017 79 10000 5.99 359 17:44 06.08.2021
6294 Clouds 24 1018 80 10000 5.83 357 12:25 06.08.2021
6295 Clouds 21 1018 84 10000 5.73 355 09:57 06.08.2021
6296 Clouds 21 1017 89 10000 5.77 353 08:29 06.08.2021
6297 Clouds 23 1019 90 10000 6.11 348 00:33 06.08.2021
6298 Clouds 23 1019 85 10000 6.83 355 22:33 05.08.2021
6299 Clouds 24 1018 83 10000 6.22 354 20:48 05.08.2021
6300 Clouds 26 1019 81 10000 5.49 359 19:30 05.08.2021
6301 Clouds 28 1019 80 10000 5.36 0 18:25 05.08.2021
6302 Clouds 26 1020 79 10000 5.56 4 15:31 05.08.2021
6303 Clouds 24 1021 82 10000 6 1 12:39 05.08.2021
6304 Clouds 22 1020 87 10000 5.74 3 08:51 05.08.2021
6305 Clouds 22 1020 83 10000 6.41 5 05:47 05.08.2021
6306 Clouds 22 1021 86 10000 6.21 3 00:55 05.08.2021
6307 Clouds 23 1020 84 10000 6.81 4 21:53 04.08.2021
6308 Clouds 24 1020 79 10000 6.6 6 21:22 04.08.2021
6309 Clouds 26 1020 76 10000 5.87 15 18:56 04.08.2021
6310 Clear 26 1020 74 10000 6.23 15 16:43 04.08.2021
6311 Clouds 26 1021 74 10000 5.05 17 14:45 04.08.2021
6312 Clouds 24 1021 78 10000 5.46 13 11:49 04.08.2021
6313 Clouds 22 1019 78 10000 6.32 10 04:56 04.08.2021
6314 Clouds 24 1019 73 10000 6.11 14 20:53 03.08.2021
6315 Clouds 25 1018 72 10000 6.12 16 19:59 03.08.2021
6316 Clouds 26 1018 73 10000 6.24 15 18:33 03.08.2021
6317 Clouds 25 1018 71 10000 5.82 17 16:47 03.08.2021
6318 Clouds 23 1019 76 10000 5.47 17 13:31 03.08.2021
6319 Clouds 21 1018 86 10000 5.96 14 10:40 03.08.2021
6320 Clouds 23 1017 90 10000 5.38 2 07:40 03.08.2021
6321 Clouds 26 1018 79 10000 6.04 13 17:59 02.08.2021
6322 Clouds 26 1018 77 10000 6.21 15 16:39 02.08.2021
6323 Clouds 26 1018 74 10000 6.13 14 15:30 02.08.2021
6324 Clouds 23 1019 77 10000 6.54 11 11:59 02.08.2021
6325 Clouds 23 1019 77 10000 6.54 11 11:36 02.08.2021
6326 Clouds 22 1018 79 10000 7.38 14 09:49 02.08.2021
6327 Clouds 22 1018 80 10000 8.91 14 04:22 02.08.2021
6328 Clouds 26 1019 75 10000 7.66 15 18:20 01.08.2021
6329 Clouds 25 1020 74 10000 8.05 17 15:29 01.08.2021
6330 Clouds 23 1020 79 10000 7.81 16 11:38 01.08.2021
6331 Clouds 22 1019 84 10000 8.47 16 09:25 01.08.2021
6332 Clouds 22 1019 85 10000 7.63 11 03:48 01.08.2021
6333 Clouds 23 1019 88 10000 7.17 5 22:52 31.07.2021
6334 Clouds 24 1018 85 10000 6.8 7 20:53 31.07.2021
6335 Clouds 26 1018 76 10000 7.1 7 17:49 31.07.2021
6336 Clouds 27 1018 75 10000 6.91 8 16:36 31.07.2021
6337 Clouds 25 1020 79 10000 7.21 6 12:38 31.07.2021
6338 Clouds 21 1018 87 10000 7.16 1 08:34 31.07.2021
6339 Clouds 22 1019 85 10000 6.5 4 01:39 31.07.2021
6340 Clouds 22 1019 85 10000 6.5 4 01:39 31.07.2021
6341 Clouds 24 1017 78 10000 7.44 356 20:31 30.07.2021
6342 Clouds 25 1017 76 10000 7.39 2 19:23 30.07.2021
6343 Clouds 21 1016 83 10000 5.89 349 07:50 30.07.2021
6344 Clouds 26 1015 75 10000 6.75 5 17:33 29.07.2021
6345 Clouds 22 1013 85 10000 6.23 9 06:32 29.07.2021
6346 Clouds 22 1014 84 10000 6.68 11 04:29 29.07.2021
6347 Clouds 25 1014 83 10000 5.49 12 21:21 28.07.2021
6348 Clouds 26 1014 79 10000 5.52 8 17:22 28.07.2021
6349 Clouds 26 1014 76 10000 6.11 9 14:49 28.07.2021
6350 Clouds 22 1014 84 10000 5.46 6 07:53 28.07.2021
6351 Clouds 23 1015 83 10000 7 359 22:53 27.07.2021
6352 Clouds 24 1015 82 10000 6.35 1 21:27 27.07.2021
6353 Clouds 26 1016 78 10000 6.11 354 14:52 27.07.2021
6354 Clouds 24 1016 84 10000 7.59 353 10:46 27.07.2021
6355 Clouds 22 1015 88 10000 6.85 345 07:59 27.07.2021
6356 Clouds 26 1017 79 10000 6.3 5 15:48 26.07.2021
6357 Clouds 26 1018 81 10000 6.05 5 14:49 26.07.2021
6358 Clouds 22 1017 87 10000 5.41 350 04:51 26.07.2021
6359 Clear 24 1018 74 10000 5.82 358 20:55 25.07.2021
6360 Clouds 27 1017 71 10000 6.28 2 18:24 25.07.2021
6361 Clouds 25 1018 71 10000 5.59 7 15:45 25.07.2021
6362 Clouds 23 1018 78 10000 6.17 8 10:55 25.07.2021
6363 Clouds 21 1016 82 10000 5.54 0 08:19 25.07.2021
6364 Clouds 25 1016 81 10000 7.26 359 20:24 24.07.2021
6365 Clouds 25 1016 81 10000 7.26 359 19:55 24.07.2021
6366 Clouds 25 1016 78 10000 6.45 7 13:38 24.07.2021
6367 Clouds 24 1015 88 10000 7.67 352 21:47 23.07.2021
6368 Clear 28 1016 75 10000 7.31 351 14:36 23.07.2021
6369 Clear 28 1016 75 10000 7.35 351 14:36 23.07.2021
6370 Clear 26 1016 76 10000 7.12 346 12:41 23.07.2021
6371 Clear 24 1015 82 10000 7.45 335 04:48 23.07.2021
6372 Clouds 30 1017 73 10000 8.47 336 17:44 22.07.2021
6373 Clouds 23 1019 80 10000 9.31 335 11:21 22.07.2021
6374 Clouds 21 1019 85 10000 9.15 330 08:34 22.07.2021
6375 Clouds 21 1020 82 10000 7.87 337 02:28 22.07.2021
6376 Clouds 22 1019 83 10000 7.39 337 21:43 21.07.2021
6377 Clouds 23 1019 79 10000 7.3 341 21:25 21.07.2021
6378 Clouds 23 1019 73 10000 6.81 350 11:54 21.07.2021
6379 Clouds 21 1019 82 10000 7.03 359 09:20 21.07.2021
6380 Clouds 21 1018 83 10000 7.16 358 06:50 21.07.2021
6381 Clouds 22 1019 81 10000 7.28 355 23:24 20.07.2021
6382 Clouds 25 1018 73 10000 5.63 17 16:37 20.07.2021
6383 Clouds 25 1018 73 10000 5.63 17 16:37 20.07.2021
6384 Clouds 26 1018 74 10000 5.82 19 15:28 20.07.2021
6385 Clouds 24 1018 74 10000 6.14 18 12:58 20.07.2021
6386 Clouds 22 1017 78 10000 6.35 8 10:21 20.07.2021
6387 Clouds 21 1018 77 10000 5.04 344 03:20 20.07.2021
6388 Clouds 25 1017 68 10000 5.16 359 19:57 19.07.2021
6389 Clear 28 1017 65 10000 3.82 346 12:52 19.07.2021
6390 Clear 28 1017 65 10000 3.82 346 12:52 19.07.2021
6391 Clear 27 1017 64 10000 3.84 341 10:28 19.07.2021
6392 Clear 29 1016 64 10000 4.99 345 17:35 18.07.2021
6393 Clear 27 1018 64 10000 3.97 336 10:54 18.07.2021
6394 Clouds 22 1018 73 10000 4.1 332 00:21 18.07.2021
6395 Clouds 23 1017 74 10000 4.22 346 22:21 17.07.2021
6396 Clouds 23 1017 74 10000 4.22 346 21:41 17.07.2021
6397 Clouds 26 1016 70 10000 5.34 355 17:33 17.07.2021
6398 Clouds 23 1017 67 10000 4.3 344 11:34 17.07.2021
6399 Clouds 21 1016 72 10000 4.33 346 04:55 17.07.2021
6400 Clear 27 1015 70 10000 5.21 6 17:58 16.07.2021
6401 Clouds 24 1016 68 10000 4.29 360 13:20 16.07.2021
6402 Clouds 20 1014 77 10000 4.72 360 07:25 16.07.2021
6403 Clouds 21 1016 83 10000 5.72 358 22:52 15.07.2021
6404 Clouds 25 1016 73 10000 6.09 8 13:51 15.07.2021
6405 Clouds 21 1015 79 10000 5.95 6 09:52 15.07.2021
6406 Clouds 22 1017 86 10000 6.09 354 00:32 15.07.2021
6407 Clouds 28 1016 70 10000 5.98 6 16:57 14.07.2021
6408 Clouds 25 1018 71 10000 6.01 9 13:50 14.07.2021
6409 Clouds 26 1017 79 10000 7.02 354 05:45 14.07.2021
6410 Clouds 25 1019 74 10000 6.37 1 21:22 13.07.2021
6411 Clear 27 1018 72 10000 6.9 3 19:54 13.07.2021
6412 Clear 27 1018 72 10000 7.07 4 19:27 13.07.2021
6413 Clear 27 1018 72 10000 7.19 3 18:45 13.07.2021
6414 Clear 27 1019 73 10000 6.96 5 18:25 13.07.2021
6415 Clear 29 1019 73 10000 6.96 5 17:40 13.07.2021
6416 Clear 24 1020 72 10000 3.49 4 09:51 13.07.2021
6417 Clouds 23 1019 78 10000 4.05 358 07:44 13.07.2021
6418 Clouds 27 1017 75 10000 3.92 20 19:59 12.07.2021
6419 Clouds 29 1017 65 10000 2.98 77 15:21 12.07.2021
6420 Clouds 28 1016 70 10000 2.06 52 09:58 12.07.2021
6421 Clouds 24 1015 78 10000 5.45 350 21:59 11.07.2021
6422 Clouds 25 1014 74 10000 4.59 356 19:46 11.07.2021
6423 Clouds 21 1013 79 10000 3.94 341 04:42 11.07.2021
6424 Clouds 25 1012 79 10000 6.08 342 19:57 10.07.2021
6425 Clouds 21 1014 88 10000 7.23 333 09:55 10.07.2021
6426 Clouds 21 1013 91 10000 7.77 333 07:23 10.07.2021
6427 Clouds 23 1016 78 10000 7.52 349 21:39 09.07.2021
6428 Clouds 25 1016 71 10000 7.52 351 18:19 09.07.2021
6429 Clouds 25 1017 74 10000 8.05 350 14:47 09.07.2021
6430 Clouds 21 1020 79 10000 9.07 349 03:22 09.07.2021
6431 Clouds 22 1021 77 10000 9.41 353 23:47 08.07.2021
6432 Clouds 23 1020 78 10000 9.34 354 21:36 08.07.2021
6433 Clouds 25 1020 71 10000 8.67 0 18:55 08.07.2021
6434 Clouds 24 1022 72 10000 8 13 13:56 08.07.2021
6435 Clouds 23 1022 72 10000 8 13 13:30 08.07.2021
6436 Clouds 22 1022 72 10000 8.04 14 12:38 08.07.2021
6437 Clouds 23 1022 75 10000 7.98 12 11:25 08.07.2021
6438 Clouds 21 1021 85 10000 8.3 7 07:42 08.07.2021
6439 Clouds 20 1020 88 10000 8 6 04:41 08.07.2021
6440 Clouds 22 1022 93 10000 5.9 1 23:45 07.07.2021
6441 Clouds 22 1021 89 10000 4.87 359 22:20 07.07.2021
6442 Clouds 23 1021 89 10000 4.87 359 21:46 07.07.2021
6443 Clouds 23 1020 86 10000 4.76 4 21:26 07.07.2021
6444 Clouds 24 1020 84 10000 5.12 8 20:21 07.07.2021
6445 Clouds 24 1020 84 10000 5.12 8 19:30 07.07.2021
6446 Clouds 25 1020 83 10000 5.03 8 18:58 07.07.2021
6447 Clouds 25 1020 81 10000 5.36 13 16:30 07.07.2021
6448 Clouds 26 1021 80 10000 5.42 14 15:24 07.07.2021
6449 Clouds 23 1021 80 10000 5.48 4 11:52 07.07.2021
6450 Clouds 21 1019 88 10000 3.88 356 07:33 07.07.2021
6451 Clouds 21 1019 88 10000 3.88 356 07:33 07.07.2021
6452 Clouds 21 1019 89 10000 4.78 1 05:53 07.07.2021
6453 Clouds 21 1020 87 10000 4.67 8 02:58 07.07.2021
6454 Clouds 23 1018 82 10000 7.45 11 20:54 06.07.2021
6455 Clouds 25 1018 77 10000 6.66 10 19:18 06.07.2021
6456 Clouds 25 1018 77 10000 6.66 10 18:44 06.07.2021
6457 Clouds 25 1019 78 10000 5.93 12 18:19 06.07.2021
6458 Clouds 24 1020 76 10000 4.82 12 13:37 06.07.2021
6459 Clouds 22 1019 86 10000 4.72 4 09:45 06.07.2021
6460 Clouds 22 1019 86 10000 4.72 4 09:45 06.07.2021
6461 Clouds 22 1019 86 10000 4.72 4 09:45 06.07.2021
6462 Clouds 21 1019 90 10000 4.88 2 08:50 06.07.2021
6463 Clouds 22 1018 90 10000 4.35 358 08:24 06.07.2021
6464 Clouds 22 1018 88 10000 5.1 5 04:49 06.07.2021
6465 Clouds 22 1020 86 10000 5.67 5 23:58 05.07.2021
6466 Clouds 22 1019 81 10000 5.78 1 21:58 05.07.2021
6467 Clouds 26 1019 73 10000 5.98 11 17:22 05.07.2021
6468 Clouds 25 1020 73 10000 6.3 8 14:29 05.07.2021
6469 Clouds 20 1018 86 10000 7.23 358 05:59 05.07.2021
6470 Clouds 20 1018 86 10000 7.23 358 05:41 05.07.2021
6471 Clouds 21 1020 85 10000 6.44 355 00:58 05.07.2021
6472 Clouds 24 1019 82 10000 6.85 355 21:19 04.07.2021
6473 Clouds 25 1019 78 10000 6.9 359 18:29 04.07.2021
6474 Clouds 26 1020 79 10000 6.46 4 15:30 04.07.2021
6475 Clouds 24 1020 86 10000 6.82 7 11:26 04.07.2021
6476 Clouds 21 1020 91 10000 6.24 354 08:38 04.07.2021
6477 Clouds 25 1021 81 10000 5.49 349 23:29 03.07.2021
6478 Clouds 24 1021 79 10000 5.85 350 21:57 03.07.2021
6479 Clear 27 1021 71 10000 5.83 359 13:21 03.07.2021
6480 Clear 26 1021 71 10000 5.83 359 12:37 03.07.2021
6481 Clear 23 1020 84 10000 4.36 359 09:28 03.07.2021
6482 Clear 23 1020 84 10000 4.36 359 08:45 03.07.2021
6483 Clouds 21 1021 78 10000 4.35 347 00:41 03.07.2021
6484 Clear 21 1020 71 10000 4.86 6 10:33 02.07.2021
6485 Clouds 20 1018 81 10000 5.38 0 07:29 02.07.2021
6486 Clouds 20 1020 84 10000 5.35 11 03:23 02.07.2021
6487 Clouds 21 1020 83 10000 6.22 1 22:32 01.07.2021
6488 Clouds 22 1019 81 10000 5.54 2 21:39 01.07.2021
6489 Clear 23 1019 78 10000 5.11 7 20:32 01.07.2021
6490 Clear 23 1019 71 10000 4.95 15 19:21 01.07.2021
6491 Clear 23 1019 71 10000 4.95 15 18:48 01.07.2021
6492 Clear 23 1019 69 10000 5.05 17 17:48 01.07.2021
6493 Clear 23 1019 69 10000 5.1 21 16:43 01.07.2021
6494 Clear 23 1020 71 10000 5.11 29 15:24 01.07.2021
6495 Clouds 23 1021 71 10000 5.01 31 14:21 01.07.2021
6496 Clouds 21 1020 74 10000 5.32 22 10:55 01.07.2021
6497 Clouds 20 1019 83 10000 6.15 3 04:43 01.07.2021
6498 Clouds 21 1020 81 10000 5.88 14 23:19 30.06.2021
6499 Clouds 22 1020 80 10000 6.03 15 21:59 30.06.2021
6500 Clouds 22 1019 77 10000 5.97 15 21:21 30.06.2021
6501 Clouds 23 1018 75 10000 6.73 6 20:26 30.06.2021
6502 Clouds 24 1019 74 10000 6.96 5 17:21 30.06.2021
6503 Clouds 23 1019 64 10000 13.89 10 14:23 30.06.2021
6504 Clouds 23 1020 73 10000 6.83 8 12:31 30.06.2021
6505 Clouds 20 1019 80 10000 7.38 356 07:30 30.06.2021
6506 Clouds 22 1020 79 10000 8.15 3 21:28 29.06.2021
6507 Clouds 25 1020 74 10000 7.25 5 18:22 29.06.2021
6508 Clouds 25 1021 73 10000 7.49 7 17:30 29.06.2021
6509 Clouds 25 1021 73 10000 7.47 9 15:52 29.06.2021
6510 Clouds 25 1022 73 10000 7.19 11 14:57 29.06.2021
6511 Clouds 24 1022 74 10000 7.14 8 13:29 29.06.2021
6512 Clouds 20 1021 82 10000 7 7 08:46 29.06.2021
6513 Clouds 21 1023 80 10000 7.49 12 00:32 29.06.2021
6514 Clouds 23 1021 80 10000 7.41 12 21:32 28.06.2021
6515 Clouds 24 1021 74 10000 7.39 13 19:35 28.06.2021
6516 Clouds 25 1021 71 10000 6.74 20 17:21 28.06.2021
6517 Clouds 23 1022 72 10000 6.5 21 14:32 28.06.2021
6518 Clouds 22 1022 72 10000 6.6 18 12:57 28.06.2021
6519 Clouds 21 1021 84 10000 6.95 13 00:57 28.06.2021
6520 Clouds 22 1021 84 10000 7.13 12 23:36 27.06.2021
6521 Clouds 24 1019 77 10000 6.99 10 19:47 27.06.2021
6522 Clouds 24 1019 76 10000 6.7 11 18:57 27.06.2021
6523 Clouds 23 1020 74 10000 6.24 18 15:57 27.06.2021
6524 Clouds 23 1020 75 10000 5.65 17 12:35 27.06.2021
6525 Clouds 20 1019 82 10000 5.72 20 02:52 27.06.2021
6526 Clouds 22 1019 83 10000 5.44 9 22:40 26.06.2021
6527 Clouds 22 1018 77 10000 5.47 7 20:56 26.06.2021
6528 Clouds 23 1018 77 10000 5.47 7 20:35 26.06.2021
6529 Clouds 24 1018 71 10000 5.29 13 17:33 26.06.2021
6530 Clouds 23 1019 71 10000 5.09 23 14:49 26.06.2021
6531 Clouds 22 1019 73 10000 4.19 28 12:27 26.06.2021
6532 Clouds 20 1018 81 10000 4.49 27 07:47 26.06.2021
6533 Clouds 21 1020 82 10000 5.33 10 00:19 26.06.2021
6534 Clouds 23 1018 77 10000 5.76 3 20:39 25.06.2021
6535 Clear 23 1018 73 10000 5.35 5 19:31 25.06.2021
6536 Clear 24 1018 69 10000 5.01 8 17:43 25.06.2021
6537 Clear 24 1018 68 10000 4.5 16 16:43 25.06.2021
6538 Clouds 23 1020 65 10000 4.26 27 14:22 25.06.2021
6539 Clouds 21 1020 71 10000 4.48 27 10:49 25.06.2021
6540 Clouds 20 1018 75 10000 5.56 11 07:44 25.06.2021
6541 Clouds 19 1018 74 10000 5.49 11 07:19 25.06.2021
6542 Clouds 21 1019 74 10000 5.63 9 03:32 25.06.2021
6543 Clouds 21 1019 73 10000 6.58 2 21:49 24.06.2021
6544 Clouds 22 1019 71 10000 5.81 5 20:45 24.06.2021
6545 Clouds 23 1018 69 10000 5.97 9 20:22 24.06.2021
6546 Clouds 24 1018 68 10000 5.75 10 18:35 24.06.2021
6547 Clouds 24 1019 69 10000 5.21 17 15:25 24.06.2021
6548 Clouds 24 1019 69 10000 5.21 17 14:55 24.06.2021
6549 Clouds 24 1020 70 10000 5.16 15 13:57 24.06.2021
6550 Clouds 21 1019 70 10000 6.13 12 10:37 24.06.2021
6551 Clouds 20 1019 76 10000 5.97 8 08:53 24.06.2021
6552 Clouds 20 1018 75 10000 6.1 6 08:19 24.06.2021
6553 Clouds 21 1020 72 10000 6.39 10 02:21 24.06.2021
6554 Clouds 21 1020 72 10000 7.19 9 22:36 23.06.2021
6555 Clouds 22 1020 73 10000 7.43 10 21:35 23.06.2021
6556 Clouds 22 1019 73 10000 6.85 11 20:21 23.06.2021
6557 Clouds 23 1019 72 10000 6.86 13 18:32 23.06.2021
6558 Clouds 23 1019 71 10000 6.68 21 17:21 23.06.2021
6559 Clouds 23 1020 71 10000 6.22 26 14:32 23.06.2021
6560 Clouds 22 1020 72 10000 6.35 22 12:50 23.06.2021
6561 Clouds 21 1020 72 10000 6.16 20 11:44 23.06.2021
6562 Clouds 21 1020 77 10000 5.9 20 09:54 23.06.2021
6563 Clouds 21 1019 68 10000 8.75 350 08:42 23.06.2021
6564 Clouds 21 1020 76 10000 6.09 18 07:50 23.06.2021
6565 Clouds 21 1019 78 10000 6.55 18 06:37 23.06.2021
6566 Clouds 21 1021 81 10000 6.77 18 02:26 23.06.2021
6567 Clouds 21 1022 80 10000 6.27 19 00:21 23.06.2021
6568 Clouds 21 1022 80 10000 6.27 19 23:47 22.06.2021
6569 Clouds 21 1021 77 10000 6.45 18 22:43 22.06.2021
6570 Clouds 22 1021 74 10000 6.7 16 21:46 22.06.2021
6571 Clouds 23 1020 70 10000 6.53 15 20:55 22.06.2021
6572 Clouds 24 1020 69 10000 5.33 14 19:23 22.06.2021
6573 Clouds 25 1020 69 10000 5.33 14 18:40 22.06.2021
6574 Clouds 24 1020 67 10000 5.65 20 18:18 22.06.2021
6575 Clouds 24 1021 66 10000 5.77 23 17:20 22.06.2021
6576 Clouds 23 1021 66 10000 5.97 25 15:45 22.06.2021
6577 Clouds 24 1021 67 10000 5.65 20 14:29 22.06.2021
6578 Clouds 24 1021 67 10000 5.66 20 13:42 22.06.2021
6579 Clouds 22 1021 68 10000 5.84 16 12:31 22.06.2021
6580 Clouds 21 1021 74 10000 5.79 23 10:55 22.06.2021
6581 Clouds 21 1020 76 10000 5.09 16 08:52 22.06.2021
6582 Clouds 20 1020 78 10000 5.89 14 03:29 22.06.2021
6583 Clouds 21 1021 78 10000 5.97 14 00:37 22.06.2021
6584 Clouds 21 1020 81 10000 5.93 10 22:52 21.06.2021
6585 Clouds 22 1020 82 10000 5.75 12 21:37 21.06.2021
6586 Clouds 22 1019 81 10000 5.99 12 20:51 21.06.2021
6587 Clouds 22 1019 79 10000 6.2 11 19:56 21.06.2021
6588 Clouds 22 1018 80 10000 6.36 14 19:20 21.06.2021
6589 Clouds 22 1019 80 10000 6.46 18 17:54 21.06.2021
6590 Clouds 24 1019 79 10000 6.14 19 16:53 21.06.2021
6591 Clouds 24 1019 76 10000 5.14 14 16:27 21.06.2021
6592 Clouds 22 1019 75 10000 5.15 13 15:48 21.06.2021
6593 Clouds 24 1020 71 10000 3.26 2 14:28 21.06.2021
6594 Clouds 25 1020 71 10000 3.26 2 13:37 21.06.2021
6595 Clouds 25 1020 71 10000 2.95 360 12:51 21.06.2021
6596 Clouds 25 1020 71 10000 2.95 360 12:30 21.06.2021
6597 Clouds 22 1020 73 10000 4.04 354 10:36 21.06.2021
6598 Clouds 22 1019 76 10000 4.51 350 10:18 21.06.2021
6599 Clouds 20 1018 68 10000 6.17 360 08:29 21.06.2021
6600 Clouds 21 1019 81 10000 5.3 353 07:55 21.06.2021
6601 Clouds 21 1020 88 10000 4.36 353 00:50 21.06.2021
6602 Clouds 21 1021 88 10000 4.67 353 23:38 20.06.2021
6603 Clouds 21 1020 87 10000 5.07 354 22:59 20.06.2021
6604 Clouds 21 1020 84 10000 5.48 357 22:29 20.06.2021
6605 Clouds 22 1020 84 10000 5.48 357 21:35 20.06.2021
6606 Clouds 22 1019 78 10000 6.34 359 19:57 20.06.2021
6607 Clouds 22 1019 78 10000 6.34 359 19:33 20.06.2021
6608 Clouds 23 1019 76 10000 6.16 360 18:35 20.06.2021
6609 Clouds 23 1019 76 10000 6.16 360 18:35 20.06.2021
6610 Clouds 24 1020 73 10000 5.5 6 17:25 20.06.2021
6611 Clouds 24 1020 73 10000 5.5 6 16:35 20.06.2021
6612 Clouds 24 1021 71 10000 5.44 10 15:35 20.06.2021
6613 Clouds 24 1021 68 10000 5.36 14 14:55 20.06.2021
6614 Clouds 23 1022 65 10000 5.36 16 13:53 20.06.2021
6615 Clouds 22 1022 65 10000 5.43 14 13:19 20.06.2021
6616 Clouds 22 1022 66 10000 5.96 13 11:47 20.06.2021
6617 Clouds 22 1022 68 10000 6.44 13 10:52 20.06.2021
6618 Clouds 19 1021 69 10000 6.58 12 09:48 20.06.2021
6619 Clouds 19 1020 68 10000 9.26 10 08:36 20.06.2021
6620 Clouds 20 1023 68 10000 7.38 5 00:32 20.06.2021
6621 Clouds 20 1023 69 10000 7.46 4 23:24 19.06.2021
6622 Clouds 21 1022 69 10000 7.37 9 22:29 19.06.2021
6623 Clouds 21 1022 69 10000 7.37 9 21:44 19.06.2021
6624 Clouds 22 1021 62 10000 6.9 11 19:22 19.06.2021
6625 Clouds 22 1021 62 10000 6.9 11 18:39 19.06.2021
6626 Clouds 23 1021 61 10000 6.91 13 17:45 19.06.2021
6627 Clouds 23 1021 61 10000 6.62 16 16:58 19.06.2021
6628 Clouds 24 1022 60 10000 6.31 17 15:46 19.06.2021
6629 Clouds 23 1022 58 10000 6.72 15 13:47 19.06.2021
6630 Clouds 22 1022 60 10000 6.98 15 12:43 19.06.2021
6631 Clouds 21 1022 62 10000 6.83 13